GFSSE_sfc_wetblb_000.txt.gz
Wetbulb
61.29 66.42 70.82 71.53 72.13 72.20 71.49 72.05 72.07 72.29 72.40 71.97 71.51 70.94 70.84 70.72 70.55 70.73 70.45 69.57 71.01 69.60 68.90 69.00 69.40 69.53 69.77 69.28 69.22 70.76 70.58 71.55 71.01 71.08 71.55 71.21 70.32 70.95 71.50 71.58 71.33 70.32 71.85
63.13 66.08 70.01 71.06 72.11 72.44 72.45 72.03 72.13 72.06 72.16 71.54 71.02 70.60 70.41 70.09 70.02 70.11 68.39 67.49 67.54 67.37 67.41 68.49 68.81 68.87 69.78 69.51 69.11 70.00 70.00 69.95 71.01 71.49 71.97 72.09 72.02 71.25 70.85 71.42 70.74 70.20 71.06
64.96 66.02 67.86 70.54 71.20 71.87 72.14 71.66 71.97 72.55 71.69 71.33 70.75 70.14 69.55 69.27 69.27 69.50 67.73 66.60 65.97 66.09 66.44 67.58 68.21 69.04 69.56 69.17 69.30 69.38 69.45 69.36 69.45 70.33 71.47 68.79 69.03 72.09 70.65 71.26 70.84 71.71 71.18
65.15 66.11 67.95 70.37 70.88 71.32 71.73 72.21 72.41 72.42 71.76 71.10 70.55 70.14 69.42 68.95 68.97 68.79 67.53 65.92 65.52 65.20 66.33 67.00 66.82 68.03 68.39 68.00 68.25 68.75 68.73 68.97 68.97 69.59 69.49 68.99 69.06 70.79 70.47 70.95 70.53 70.77 70.77
64.90 65.42 68.04 69.53 69.81 70.63 70.69 70.83 71.29 71.76 71.81 71.48 70.66 70.17 69.68 68.98 68.77 68.93 66.96 64.52 65.15 64.92 65.73 66.74 67.70 67.90 68.39 67.21 67.32 67.35 67.61 67.97 67.81 67.45 66.76 68.21 68.21 69.36 70.07 70.76 70.11 70.69 70.76
62.90 63.86 67.43 68.50 69.28 69.94 69.82 69.56 69.96 70.28 70.32 70.20 69.77 69.49 69.21 68.62 68.19 67.89 66.55 65.66 65.86 66.12 66.48 67.25 67.56 68.27 67.94 67.14 66.64 67.04 67.12 66.80 66.22 65.60 65.93 67.31 67.99 68.23 69.93 70.24 69.43 70.10 70.28
62.55 63.71 65.73 67.59 68.66 69.58 69.28 69.20 69.43 69.29 69.44 70.10 69.92 69.50 69.09 68.43 67.37 64.75 64.88 65.82 65.43 66.30 66.12 65.82 65.71 65.04 65.80 65.87 65.49 66.04 66.06 65.73 64.54 65.16 65.42 65.87 66.75 68.28 69.29 70.46 69.84 69.37 69.70
63.24 64.26 64.50 67.35 67.74 68.29 68.68 68.42 68.27 68.46 68.52 68.68 68.90 69.14 68.46 67.56 66.95 66.38 65.73 65.86 65.63 66.02 65.95 65.56 65.39 64.99 64.90 64.85 65.58 64.27 64.16 64.76 65.27 64.55 65.22 65.35 66.31 68.29 69.05 70.10 69.38 68.85 69.33
63.44 63.17 63.24 63.66 65.05 66.15 66.18 66.33 66.76 67.61 67.93 67.61 67.27 67.30 66.92 66.43 66.00 65.19 64.76 64.46 64.09 64.05 63.50 63.69 63.76 64.38 64.54 64.34 64.34 63.80 64.10 64.97 63.08 63.69 64.37 64.97 66.58 67.66 68.48 69.02 69.63 68.68 69.23
62.57 62.41 61.67 61.61 61.69 60.95 61.36 65.22 65.76 66.36 67.05 66.58 65.98 65.34 64.87 64.91 64.56 63.59 62.00 62.82 62.95 62.99 62.82 62.56 62.02 61.95 61.37 60.82 61.06 61.48 62.02 62.23 61.11 61.71 62.30 62.67 64.79 66.84 68.46 68.48 69.59 69.26 68.99
62.92 61.74 61.10 60.97 60.37 58.75 58.95 62.55 64.92 66.20 66.61 66.11 65.13 64.49 62.44 59.64 58.11 57.57 61.21 61.97 62.36 61.97 61.56 61.37 60.93 60.34 59.41 58.31 59.32 59.73 59.08 58.37 60.17 60.10 60.25 62.95 64.22 65.84 67.22 68.60 69.02 68.41 68.79
61.20 61.57 61.14 60.91 60.24 58.99 60.51 60.40 60.46 62.08 62.84 63.42 62.89 61.11 59.57 58.00 57.06 59.04 59.98 61.47 61.21 60.87 60.52 60.31 59.00 57.60 54.83 52.91 53.63 56.12 54.66 55.63 57.07 57.94 59.19 61.47 62.41 64.15 65.70 66.68 67.49 67.88 67.31
60.53 61.82 62.45 61.37 60.84 60.18 59.75 59.88 58.84 59.42 60.12 60.95 61.69 60.52 58.89 58.60 56.65 57.01 55.99 56.35 55.25 58.11 54.35 55.26 54.37 53.93 53.09 52.86 53.49 54.11 54.49 55.15 55.41 56.85 58.48 61.06 62.45 63.44 64.19 64.60 65.90 66.40 66.83
59.28 61.61 61.38 61.33 60.91 60.28 60.05 59.91 59.03 59.10 59.34 59.50 59.64 59.41 57.70 56.29 54.83 55.65 55.26 55.45 55.32 54.79 53.63 53.66 53.88 53.90 53.83 54.02 54.12 53.80 54.14 54.47 55.23 56.85 58.20 60.57 61.33 62.72 64.24 64.53 64.58 65.30 65.87
56.90 57.38 57.64 58.38 58.63 57.93 58.41 58.05 58.31 58.81 59.30 59.39 59.10 58.17 57.37 56.03 54.85 54.85 55.37 54.82 54.98 54.44 54.18 53.48 51.58 50.34 49.82 50.56 51.83 52.85 53.13 53.94 54.81 55.73 56.01 58.08 58.36 57.96 59.00 61.47 64.21 64.63 64.82
53.58 54.43 55.81 56.71 57.63 55.89 53.54 53.47 54.45 55.71 57.05 57.07 56.85 57.31 56.70 56.65 55.51 54.65 54.89 54.60 53.84 53.68 52.19 49.99 47.97 47.17 46.80 47.93 49.25 48.93 48.96 49.83 52.19 52.56 51.50 51.55 55.32 56.04 57.04 58.63 60.15 62.35 64.65
51.76 51.81 54.32 55.58 56.41 55.19 53.90 53.22 52.21 52.43 52.66 52.25 53.39 53.75 53.94 55.58 55.35 54.91 54.35 54.14 53.64 52.13 49.31 48.62 46.80 46.03 44.81 45.79 44.99 45.94 46.46 47.40 50.35 48.67 46.95 48.42 49.76 53.08 55.40 57.86 59.42 60.34 61.54
48.73 50.85 53.57 56.10 55.03 54.19 53.86 53.32 52.81 51.81 50.66 50.25 50.87 51.76 53.02 54.27 52.78 51.23 51.26 51.66 52.23 49.66 48.76 48.04 42.24 42.09 42.48 42.54 42.72 42.95 43.55 44.04 44.77 44.60 45.37 45.71 47.15 49.59 53.43 57.80 59.67 60.58 61.21
48.42 50.03 51.78 51.69 53.11 52.10 52.02 52.42 51.90 51.16 50.34 49.25 48.80 50.33 51.43 52.11 51.61 48.90 48.23 48.61 48.68 45.91 45.29 45.73 41.82 42.29 41.47 41.33 41.77 42.01 42.08 42.14 43.07 44.38 44.05 44.63 46.27 47.93 51.47 54.57 56.23 58.90 59.61
46.75 48.93 48.87 49.80 51.20 49.89 47.36 46.14 45.34 44.56 45.17 46.88 46.60 47.29 50.47 51.00 50.90 49.34 48.23 47.94 46.82 44.76 43.73 42.35 42.18 42.01 42.04 41.51 43.16 42.61 41.20 42.14 42.09 42.22 43.02 44.69 45.09 46.76 47.31 48.90 51.87 53.06 54.67
45.88 45.89 45.76 46.52 46.73 45.48 44.57 44.27 43.71 44.13 43.83 44.14 44.83 46.38 47.41 49.83 50.47 49.95 48.52 47.39 47.16 45.49 45.50 43.25 42.32 41.79 40.91 41.12 40.21 39.41 39.93 40.97 40.99 41.59 42.68 43.52 44.76 45.85 46.74 48.23 48.68 49.27 50.96
45.74 45.82 44.80 44.90 44.96 44.09 43.64 43.15 43.01 42.55 42.84 42.78 43.60 44.20 45.33 46.39 48.72 49.76 48.82 47.37 46.66 46.85 44.19 43.30 42.12 40.71 40.72 40.33 38.87 37.23 35.37 37.56 38.88 41.36 42.01 41.76 43.11 44.20 45.37 46.10 46.35 47.69 49.72
43.79 44.01 44.54 44.55 44.41 44.31 44.44 43.59 42.89 42.62 43.14 43.17 43.94 43.48 44.83 45.12 46.94 48.66 49.24 48.42 46.79 46.69 46.37 45.06 43.50 41.32 41.35 39.50 39.86 38.08 34.62 33.32 35.54 38.03 39.07 40.29 40.27 41.03 42.63 42.71 45.06 46.09 46.34
42.94 42.92 43.98 44.71 44.65 45.29 44.72 43.38 42.65 41.71 41.76 43.96 44.27 44.83 46.07 45.25 44.56 46.11 48.54 48.17 46.78 46.20 45.90 45.02 44.56 42.76 39.75 38.10 38.73 41.38 38.85 37.55 31.59 30.95 36.27 39.41 38.69 39.29 39.72 41.39 42.36 43.52 45.15
42.98 42.73 44.09 45.59 45.68 45.28 44.66 44.05 43.18 42.81 43.28 44.17 44.72 43.74 44.67 44.53 43.05 43.47 44.58 45.57 45.50 44.16 43.34 43.21 41.44 40.47 40.01 38.05 36.72 36.38 35.60 36.76 36.46 33.08 30.30 33.37 36.50 38.27 39.33 40.19 40.98 42.42 42.90
43.68 43.77 43.94 44.50 44.71 45.10 44.40 43.42 41.68 40.32 40.86 41.73 43.02 42.28 42.78 42.01 40.51 39.93 41.49 41.44 40.21 39.36 38.32 38.11 39.25 38.24 36.94 38.52 37.57 37.40 36.63 34.34 33.01 32.24 31.38 31.62 32.52 35.93 38.19 38.95 39.76 40.47 41.83

GFSSE_sfc_wetblb_003.txt.gz
Wetbulb
67.03 70.18 70.93 71.47 71.82 72.29 72.33 71.88 71.86 71.79 72.19 71.77 71.31 71.60 71.77 71.29 71.14 69.66 68.92 68.58 68.44 68.20 68.10 68.82 69.29 69.59 69.92 69.50 69.27 69.76 70.84 71.55 70.67 71.17 72.49 72.02 71.83 72.08 72.19 72.24 71.93 70.89 72.34
68.90 70.59 70.46 71.29 71.69 72.16 72.34 71.39 71.39 72.16 71.80 71.64 71.11 71.11 70.96 70.97 71.06 69.75 68.52 67.83 67.30 67.48 67.74 68.17 68.67 69.82 69.81 69.81 69.08 70.22 70.48 70.20 70.95 71.14 72.41 72.17 72.38 71.97 71.70 72.01 71.16 70.98 72.31
69.32 70.56 70.94 70.83 71.45 71.57 71.89 71.83 71.66 72.12 71.76 71.23 70.77 70.31 70.03 70.15 70.12 69.39 68.37 67.17 66.65 66.65 67.68 68.02 67.92 69.48 70.20 69.64 69.52 69.43 69.66 69.51 69.92 69.82 71.44 69.72 68.50 72.51 71.57 71.51 71.48 71.62 71.89
68.64 69.88 70.48 70.58 71.19 71.97 72.07 72.01 72.39 72.30 71.81 71.09 70.46 69.79 69.53 69.51 69.65 69.73 68.18 65.94 65.95 66.16 67.10 67.90 68.87 68.42 68.27 67.92 67.63 68.11 68.67 69.00 68.79 68.64 69.03 69.15 69.69 71.06 71.40 71.29 70.82 70.97 70.75
67.74 69.27 70.22 70.02 70.35 71.05 71.60 72.24 72.50 72.63 72.20 71.35 70.70 70.24 70.22 69.66 69.46 69.36 67.20 65.49 66.23 66.77 67.25 67.93 68.10 68.54 68.52 68.74 68.13 67.72 68.25 67.91 68.25 68.13 69.22 69.09 69.29 69.50 70.52 71.30 70.71 70.98 70.81
66.89 68.92 69.02 68.74 69.85 70.32 70.27 70.49 70.60 70.85 70.80 70.47 69.92 70.11 69.97 69.57 69.27 67.81 67.11 66.93 66.45 67.03 67.35 66.96 66.66 65.91 66.20 67.64 67.55 67.57 67.32 67.35 67.02 68.71 69.10 68.75 69.02 68.51 69.46 71.15 70.27 70.11 69.62
65.59 67.90 68.84 67.93 69.04 69.86 69.46 69.60 69.35 69.39 69.65 69.85 69.65 69.71 69.29 68.80 67.63 66.35 65.68 66.39 66.59 66.77 66.91 66.72 65.99 65.39 64.97 65.09 65.09 65.42 66.12 66.62 67.24 67.55 67.97 68.67 68.56 68.71 68.72 68.83 69.85 69.23 69.30
64.86 67.07 67.84 68.23 68.60 68.79 68.98 68.83 68.55 68.71 68.91 68.75 68.76 68.90 68.60 68.05 67.42 67.03 66.61 65.74 65.37 64.75 64.84 64.94 65.50 66.20 66.18 66.05 65.92 65.65 65.36 66.07 67.35 67.15 67.47 67.90 67.34 67.94 68.07 68.69 68.91 69.07 68.79
65.89 66.45 67.05 67.26 67.08 66.76 66.58 66.74 67.01 67.90 67.88 67.57 67.28 66.79 66.59 66.74 65.96 65.29 64.82 64.44 64.05 64.08 64.15 63.62 63.83 63.79 63.51 63.44 63.27 63.31 63.74 64.31 67.33 66.83 66.19 67.11 65.46 66.92 67.67 67.55 68.99 68.80 68.57
65.87 65.92 66.31 66.19 65.51 65.65 66.48 65.52 66.16 66.63 67.10 66.59 65.89 64.94 64.65 64.59 63.73 63.66 61.93 62.80 63.36 63.41 63.04 62.69 62.19 61.72 61.26 61.48 61.80 61.28 61.25 62.37 64.92 64.87 65.10 65.37 64.86 66.16 66.39 66.73 68.15 69.29 68.56
64.77 65.45 65.50 64.99 64.20 64.01 65.06 65.52 65.71 66.16 66.70 66.18 65.20 64.12 64.37 65.54 64.25 62.74 62.15 62.06 62.19 62.02 61.87 61.07 60.10 59.58 58.10 58.59 59.48 59.35 59.94 62.22 62.48 62.87 63.42 62.41 63.49 64.86 65.71 66.70 66.78 68.28 69.01
63.87 64.90 64.81 64.97 64.47 63.39 63.11 65.18 66.12 65.95 67.74 67.93 67.28 65.95 65.70 64.87 64.44 63.34 62.37 61.58 61.17 60.99 60.49 60.12 59.60 58.25 58.05 59.98 61.35 60.00 62.27 62.52 62.98 62.84 63.34 62.16 63.15 64.47 64.82 65.01 65.81 67.34 67.80
65.16 65.30 64.49 65.06 65.17 64.13 63.18 65.56 65.30 65.49 66.42 66.99 66.92 66.49 65.39 65.07 64.97 64.50 63.83 63.13 63.10 60.81 61.57 60.72 61.43 62.16 61.65 61.60 61.67 61.87 61.42 61.42 62.22 62.85 62.14 61.95 62.70 64.11 64.94 64.91 65.14 65.47 66.53
65.00 66.05 66.31 65.64 65.49 66.09 66.10 65.50 65.27 64.51 65.03 65.59 66.03 65.76 65.68 64.77 64.02 63.37 62.70 62.61 62.69 63.28 62.04 61.96 62.44 60.68 59.90 59.85 59.02 58.96 59.11 59.65 59.76 60.84 59.59 59.41 58.74 59.08 60.69 62.00 63.79 64.78 65.36
64.50 65.74 66.37 66.43 66.22 66.64 65.60 65.59 64.99 64.65 64.73 65.45 65.69 65.83 64.75 64.04 63.52 62.75 62.16 62.23 62.27 62.66 62.08 61.90 60.12 56.36 55.41 55.18 57.07 56.56 56.02 56.51 57.65 56.78 56.38 55.61 56.39 56.52 57.61 59.30 60.57 62.00 64.17
63.41 64.40 65.05 64.23 64.96 64.92 63.21 63.73 63.59 63.80 64.75 64.73 65.13 65.51 65.00 63.92 63.48 62.58 62.45 62.37 62.29 62.11 62.11 60.54 56.30 54.69 54.43 54.69 55.11 54.25 54.22 55.47 56.23 55.46 54.57 54.84 53.79 54.79 57.30 59.14 60.13 60.75 61.66
62.64 62.90 62.31 63.16 63.56 63.36 61.72 60.58 60.71 61.17 60.97 62.04 62.68 63.34 63.11 62.96 62.56 62.41 62.33 62.29 62.35 62.33 61.28 57.44 54.99 54.37 53.63 52.86 52.81 53.27 54.07 54.00 54.67 53.68 54.12 53.97 54.68 54.48 55.93 58.16 58.63 60.70 60.75
59.84 60.25 60.99 61.02 62.01 62.43 61.51 61.37 61.24 61.20 60.56 59.73 59.51 59.77 60.13 60.26 60.84 61.24 61.00 61.01 61.65 61.48 60.24 57.50 55.61 52.89 51.39 52.07 52.32 52.40 52.45 52.54 52.67 52.79 53.38 53.50 53.52 54.36 55.32 54.82 56.58 57.32 57.42
58.47 59.14 60.04 61.16 61.28 61.19 60.23 60.21 60.02 59.64 59.63 59.51 58.90 58.41 58.80 59.23 59.73 59.75 59.32 59.25 59.68 58.88 58.15 56.56 54.59 52.43 50.89 51.37 50.99 51.56 51.76 51.19 51.74 51.11 51.48 52.39 53.06 53.95 53.92 54.03 54.86 54.78 54.81
57.33 57.79 59.49 59.42 59.39 59.37 58.22 56.53 55.70 55.31 55.57 55.31 55.97 56.24 56.57 57.33 58.38 58.60 58.23 57.79 57.72 56.15 55.77 54.37 52.92 52.24 51.05 51.33 49.27 49.48 51.42 51.46 51.39 51.44 51.39 50.31 52.87 52.59 53.28 53.98 54.55 54.14 53.24
54.94 56.39 57.64 56.54 56.80 55.49 53.93 53.46 54.08 53.33 53.22 53.74 53.55 53.43 53.63 54.24 55.27 56.25 56.47 56.85 56.60 55.02 55.37 54.88 52.99 51.13 50.25 50.77 49.36 49.70 49.98 50.95 50.89 50.81 51.27 51.26 50.73 52.15 53.03 53.59 51.99 51.42 51.48
55.26 55.80 53.95 52.17 51.84 51.72 52.23 52.51 52.35 51.81 52.45 51.74 52.23 53.01 53.42 53.19 53.31 53.21 54.18 54.53 55.27 54.51 54.96 55.03 52.98 51.68 50.32 51.04 48.44 48.31 45.49 47.99 48.55 49.44 49.97 50.58 50.57 51.26 50.82 49.51 49.33 48.78 48.77
51.59 51.05 50.64 51.09 51.91 52.14 51.64 52.17 52.52 52.42 52.25 51.75 51.24 51.43 52.18 52.83 52.75 52.67 52.59 52.65 53.63 54.10 52.88 54.47 54.06 52.47 50.44 50.96 50.06 48.48 44.88 43.16 46.92 48.36 48.23 48.16 49.83 48.66 48.40 47.92 48.00 46.78 48.23
50.64 51.81 52.49 52.19 51.84 51.24 51.36 50.21 49.32 48.20 47.53 49.20 49.50 49.90 50.40 51.55 51.60 51.16 50.73 50.74 51.41 52.36 52.63 52.89 53.74 53.36 52.10 49.83 48.39 47.58 48.05 46.58 44.02 43.47 45.58 46.44 47.07 45.75 45.89 47.81 47.26 47.09 47.43
51.01 51.18 51.49 51.20 50.84 50.73 49.52 49.30 49.28 48.78 49.06 49.23 48.87 48.72 49.10 49.66 50.17 48.90 48.37 48.68 48.97 49.39 50.37 50.82 50.98 50.80 50.45 49.61 48.23 46.89 44.82 44.13 44.19 41.18 40.22 43.00 43.16 44.33 45.46 45.86 45.30 46.92 45.69
50.51 50.67 50.72 50.85 50.84 51.32 50.01 48.65 48.42 48.12 48.05 48.20 48.58 47.52 47.89 47.84 47.37 46.23 46.47 46.84 46.37 46.26 46.34 46.50 46.22 46.11 45.97 45.71 45.10 44.38 43.77 41.17 41.30 40.21 38.65 39.00 39.83 42.76 43.50 43.76 44.48 45.17 46.61

GFSSE_sfc_wetblb_006.txt.gz
Wetbulb
68.35 71.94 71.50 71.51 71.91 72.20 71.75 71.88 71.68 71.80 72.48 72.06 72.02 71.92 72.34 70.98 70.17 69.56 69.11 68.65 68.35 68.52 68.85 68.91 69.05 69.69 70.18 69.69 69.79 68.87 70.07 70.77 70.94 69.89 70.71 70.82 71.10 71.46 71.93 72.13 71.61 71.28 71.59
70.27 72.30 70.99 71.76 72.39 72.37 72.00 71.72 71.52 71.61 71.87 71.48 71.09 70.90 71.45 70.90 69.92 68.98 68.48 68.14 67.85 68.06 68.67 68.73 68.22 69.43 70.27 69.97 69.97 69.53 69.67 70.19 70.80 71.10 70.81 70.69 71.32 71.10 71.56 71.37 71.25 71.50 71.02
70.18 72.32 72.31 71.33 72.23 72.51 72.32 72.10 71.79 71.55 71.46 71.19 70.90 70.34 69.77 70.21 70.02 69.23 68.19 67.32 67.14 67.05 67.66 68.72 68.74 69.19 69.53 69.08 68.16 69.12 69.25 69.68 69.58 70.28 70.75 68.94 69.28 71.68 71.28 71.09 70.63 71.23 71.53
69.95 71.84 72.30 70.70 71.71 72.45 72.25 72.05 72.20 71.67 71.79 71.10 70.50 70.23 70.16 70.16 70.16 68.97 67.22 66.63 67.12 67.39 67.97 68.49 68.50 69.03 68.82 68.41 68.07 68.01 67.99 68.32 69.08 69.17 68.87 68.73 68.44 71.14 71.33 71.02 70.68 70.55 70.47
68.98 70.36 71.36 70.37 70.87 71.78 72.13 72.31 72.24 72.13 71.36 71.00 70.58 70.48 70.28 69.96 69.24 68.40 67.21 66.60 66.91 67.60 67.82 68.23 67.86 66.84 67.19 68.08 67.42 67.41 67.57 68.25 68.11 68.52 69.66 69.79 69.43 69.25 69.49 70.65 70.58 70.48 70.07
66.99 68.76 69.24 69.45 70.20 70.35 70.18 70.34 70.58 70.55 70.28 69.81 69.58 69.70 69.54 69.31 68.17 66.45 66.55 66.80 66.80 67.31 67.37 67.42 66.90 66.16 65.41 65.66 66.57 67.17 66.85 67.28 67.32 69.16 68.76 69.42 67.83 68.80 68.10 69.40 69.84 69.89 69.69
66.01 67.53 68.03 68.58 69.07 69.39 69.42 69.15 69.07 69.39 69.59 69.58 69.26 69.19 68.92 68.37 67.73 66.82 66.75 66.91 66.95 66.90 66.22 66.19 66.67 66.80 66.52 66.25 65.60 65.23 65.20 66.38 68.47 68.79 69.20 68.96 69.03 67.45 67.26 67.22 68.91 69.45 69.40
66.13 67.68 67.84 67.77 68.23 68.58 68.61 68.32 68.41 68.56 68.53 68.28 68.35 68.75 68.15 67.57 67.18 66.98 66.15 65.64 65.12 64.78 64.61 64.64 64.55 64.83 64.66 64.79 65.09 65.60 65.93 65.93 67.01 68.95 67.77 68.41 67.22 67.17 67.29 67.79 67.48 68.86 69.07
66.28 66.95 67.89 68.17 67.95 67.03 67.24 67.47 67.68 68.22 67.82 67.26 67.07 66.63 66.86 66.49 65.79 65.48 65.03 64.29 64.11 64.06 63.82 63.38 63.20 63.14 62.88 62.73 62.44 62.65 63.09 63.83 68.09 68.76 67.86 68.35 65.73 66.44 66.30 66.35 66.05 66.85 68.41
66.89 66.92 67.81 68.60 68.16 68.73 68.41 65.88 66.54 66.92 67.15 66.23 65.68 64.69 64.75 64.95 63.99 63.17 62.30 63.18 63.03 62.70 62.51 62.15 61.53 61.01 60.91 61.21 61.02 60.63 60.93 62.57 67.26 67.88 68.81 66.58 64.31 65.91 66.45 65.44 65.88 65.38 67.41
66.53 67.70 68.54 68.03 68.24 68.94 68.31 67.32 65.75 65.79 66.54 66.17 65.99 64.08 64.87 68.49 67.39 65.17 62.24 61.76 62.02 61.61 61.17 60.62 59.57 58.27 57.92 59.42 59.49 59.55 60.15 65.49 65.13 65.89 66.49 62.42 63.20 64.64 65.34 65.67 65.53 66.04 66.71
66.25 67.63 68.74 69.02 68.47 68.50 67.03 68.82 68.83 68.17 69.32 69.55 69.11 68.66 68.40 67.78 67.61 65.02 63.81 61.41 60.65 60.07 59.42 59.43 59.55 60.03 60.64 62.14 63.05 61.29 63.41 63.89 63.66 63.72 64.70 62.57 63.57 64.35 64.73 64.92 65.22 65.65 65.88
67.10 67.89 68.38 68.98 69.20 68.24 67.80 68.90 68.22 68.24 68.38 69.03 69.15 69.05 68.71 68.02 67.71 66.98 66.42 65.64 65.21 62.21 63.82 62.84 63.28 62.91 62.69 62.36 61.50 62.25 61.93 62.07 61.55 61.89 61.81 59.75 59.48 60.58 62.08 63.31 64.44 65.18 65.12
66.71 67.79 68.81 68.84 69.15 69.32 67.96 67.82 68.14 67.07 67.31 67.06 67.53 68.92 68.13 66.89 66.58 66.21 65.10 64.04 63.68 63.53 63.57 63.10 62.85 62.88 60.82 59.36 59.19 59.48 59.54 59.08 59.00 60.37 59.19 56.57 56.30 57.01 58.18 59.64 60.79 62.42 64.16
66.26 68.21 69.32 69.64 69.27 68.41 68.27 67.82 67.79 67.37 66.75 67.00 66.85 66.95 67.57 66.13 65.39 64.70 63.86 63.07 62.78 62.95 62.70 62.61 62.16 60.22 57.68 56.61 57.29 57.34 56.90 57.56 58.35 58.23 59.00 54.31 54.87 56.12 57.86 58.75 59.63 60.59 61.81
66.80 67.97 69.95 69.73 69.32 67.17 66.44 67.18 66.84 67.03 65.55 65.81 64.89 64.72 66.17 66.11 64.55 63.09 62.00 61.29 61.26 61.37 61.74 61.87 61.01 59.10 57.40 56.73 56.28 57.06 56.50 56.74 57.18 57.42 57.12 56.83 53.58 55.70 57.34 58.19 59.50 60.57 61.03
66.05 67.11 68.93 69.02 67.19 66.24 64.79 65.12 65.11 64.67 63.75 63.32 63.05 63.85 64.01 64.30 63.03 62.76 61.27 60.99 61.00 61.42 62.03 62.12 61.39 59.59 57.76 56.11 55.53 56.17 56.10 56.54 55.94 55.84 55.80 56.24 55.56 55.24 55.56 56.48 57.79 58.19 58.33
65.85 66.32 67.98 66.22 64.96 64.56 64.45 65.00 64.75 64.64 64.82 63.62 63.37 63.07 63.15 63.04 62.98 62.52 60.93 60.69 61.28 61.42 60.75 60.36 59.86 58.49 57.41 55.94 55.16 55.40 55.44 55.67 55.42 55.35 55.54 55.47 55.48 55.54 55.03 55.74 55.96 55.72 56.45
64.42 65.74 66.65 65.98 62.61 62.23 63.29 63.92 63.93 63.90 62.80 61.54 61.49 60.74 61.06 61.16 61.39 61.55 60.50 60.58 61.45 60.54 59.89 59.54 58.99 58.54 56.98 55.78 54.91 55.14 55.61 55.14 55.11 54.26 54.67 55.26 55.42 54.97 55.18 53.93 54.31 53.85 53.83
63.46 65.67 65.88 63.46 62.34 62.72 64.02 62.63 61.24 60.84 61.50 60.53 59.49 58.69 58.66 58.48 59.07 59.34 59.44 60.04 60.48 59.78 59.21 58.73 58.46 58.28 57.13 56.04 53.96 53.60 54.48 55.27 55.34 54.71 54.38 54.28 54.34 55.20 55.24 55.12 55.62 55.00 53.09
62.98 63.23 62.30 61.59 58.64 59.77 59.47 57.51 57.77 57.30 57.93 58.43 58.16 58.16 58.09 57.71 57.49 57.61 57.33 57.91 58.36 57.77 58.02 58.61 58.00 57.43 56.66 56.85 54.24 53.58 53.95 55.23 54.95 54.32 54.61 54.23 53.78 54.35 55.11 55.03 54.44 54.42 54.11
60.13 59.78 57.87 56.86 57.06 57.13 57.85 57.68 57.52 57.03 57.46 57.36 57.47 57.44 56.95 55.58 55.44 55.13 55.78 55.64 56.03 55.61 56.27 56.68 56.84 55.96 56.38 56.95 53.24 52.45 49.37 51.74 53.75 54.02 54.17 53.42 54.03 53.78 53.85 53.86 52.61 51.92 52.03
56.58 56.97 56.65 56.81 56.71 56.62 56.73 56.96 57.56 58.01 56.89 55.86 55.07 54.60 54.29 54.38 54.06 54.26 54.50 54.54 54.68 54.69 53.60 54.68 55.07 54.64 53.21 55.40 56.55 52.28 48.86 47.73 50.80 53.48 53.24 53.01 53.31 52.82 53.28 52.29 50.94 50.30 50.41
56.61 57.10 56.43 56.19 56.22 55.58 55.84 55.30 54.81 53.60 52.41 53.44 53.61 53.79 53.37 53.58 53.15 53.27 53.14 53.63 53.73 53.51 53.08 52.97 52.98 53.52 53.31 51.96 53.93 54.63 54.56 53.15 48.72 46.83 51.21 51.98 52.47 51.66 52.01 51.08 50.17 50.20 50.15
56.02 56.02 56.36 56.03 55.70 55.44 54.67 54.68 54.23 53.23 53.24 53.50 53.19 51.91 51.91 52.23 52.59 52.24 52.28 52.36 52.41 52.27 52.22 52.19 52.33 52.38 52.58 51.87 51.50 51.52 50.58 51.50 51.09 47.50 46.74 47.10 49.95 50.68 50.09 49.61 50.05 49.78 49.98
55.96 56.25 55.82 54.96 54.37 55.04 54.78 53.89 53.01 52.70 52.55 51.67 50.77 49.78 49.93 50.39 50.78 51.33 51.11 51.43 51.46 50.74 50.38 50.34 50.50 49.88 49.66 49.24 48.46 47.35 46.66 42.04 43.31 45.01 45.00 46.87 47.44 47.73 48.50 48.93 48.50 48.67 49.73

GFSSE_sfc_wetblb_009.txt.gz
Wetbulb
69.96 71.64 71.90 72.00 72.72 72.21 71.92 71.53 71.74 72.62 72.74 72.22 71.85 71.49 71.02 70.36 69.68 69.35 68.94 68.74 68.95 69.29 69.57 69.29 69.01 69.79 70.03 70.55 70.48 70.07 69.84 70.45 70.45 69.76 69.69 70.26 70.78 71.34 71.40 71.06 71.75 70.33 69.42
71.76 72.39 71.73 72.42 72.78 72.45 72.06 71.69 71.79 71.75 71.89 71.70 71.34 71.20 70.97 70.14 69.51 69.17 68.52 68.47 68.27 68.37 68.89 69.52 69.31 70.44 70.84 70.87 69.97 69.71 69.74 70.25 70.71 70.80 70.59 70.55 71.34 71.42 71.33 70.79 70.92 70.03 70.41
71.54 71.99 72.36 72.02 72.71 72.48 71.87 71.65 71.55 71.88 71.61 71.06 70.77 70.08 70.18 70.22 69.87 68.84 67.81 67.46 67.55 68.12 68.28 68.69 69.28 69.65 69.45 68.88 68.30 68.53 68.79 69.08 70.14 70.34 70.92 66.69 68.78 69.72 71.55 70.33 70.51 70.57 70.33
71.86 72.35 72.67 71.36 72.46 72.34 72.08 72.01 71.84 71.78 71.21 70.60 70.50 70.18 70.08 70.05 69.38 68.59 67.30 67.06 67.70 68.30 68.72 68.91 68.86 68.20 68.13 68.61 68.46 68.41 68.03 68.13 69.03 69.46 68.06 67.64 68.40 70.68 71.35 70.80 70.03 69.98 69.23
70.80 72.12 71.51 70.73 71.40 72.30 72.58 72.43 71.87 71.67 71.29 70.93 70.64 70.54 70.24 69.77 68.93 67.90 67.10 67.08 67.35 67.99 68.16 68.01 67.50 66.52 65.84 66.08 67.93 67.91 67.86 68.27 68.51 68.12 68.44 69.13 68.59 69.13 70.55 69.79 70.42 70.50 70.43
68.37 70.51 69.25 69.80 70.48 70.78 70.56 70.80 70.88 70.73 70.14 69.69 69.84 69.85 69.65 68.71 67.39 66.74 67.00 67.27 67.84 67.85 67.35 67.36 67.49 67.34 66.93 66.35 65.79 66.27 66.70 67.14 67.79 68.02 67.80 68.60 67.10 70.00 68.90 67.92 69.79 69.72 69.72
65.38 67.02 68.92 68.80 69.53 69.47 69.34 68.92 69.12 69.52 69.56 69.38 69.32 69.19 68.66 68.21 67.65 67.25 67.17 66.83 66.09 65.78 65.71 65.67 65.87 65.90 65.85 66.21 66.37 66.42 65.77 65.98 67.23 67.72 67.03 67.07 69.00 68.58 67.34 66.49 66.90 68.07 69.01
65.33 66.60 66.48 67.21 68.37 68.22 68.43 68.18 68.37 68.61 68.32 68.33 68.68 68.44 67.99 67.30 66.93 66.56 65.87 65.38 65.18 64.96 64.51 64.05 64.14 64.22 64.16 64.19 64.14 64.60 64.94 65.42 66.31 67.48 67.37 67.76 67.20 67.89 67.62 67.72 66.86 66.40 67.78
65.83 66.55 67.11 67.42 67.53 67.35 67.19 67.28 67.77 67.78 67.42 67.22 66.58 66.67 66.79 66.20 65.69 65.10 64.59 64.22 64.11 63.74 63.40 62.90 62.29 62.14 62.61 62.55 62.30 62.06 62.36 63.70 65.98 66.78 67.01 66.34 65.85 66.58 66.65 66.39 66.26 66.69 67.01
65.65 67.03 67.84 67.94 67.69 68.27 68.36 66.48 66.85 67.12 66.93 66.24 65.46 64.92 65.23 65.38 65.04 63.86 63.31 63.43 62.94 62.46 62.30 61.49 60.79 60.65 60.57 61.09 60.94 61.02 61.77 62.60 65.32 65.45 66.03 63.07 64.88 65.65 66.10 65.74 66.15 66.41 66.36
65.62 67.30 67.97 67.66 67.39 67.04 66.47 66.54 65.58 66.47 67.02 66.31 65.92 64.93 65.44 67.63 67.19 66.12 62.90 62.00 61.61 61.16 60.97 60.63 59.95 59.67 60.06 60.50 60.95 61.10 61.58 64.33 64.29 63.96 64.85 63.74 63.96 64.43 65.29 65.21 65.63 66.10 67.15
65.48 66.41 68.77 68.80 67.86 66.92 65.19 67.13 66.89 66.00 67.41 68.06 68.21 68.09 67.65 67.64 67.33 65.81 63.89 63.05 62.50 61.91 62.03 61.66 61.28 61.66 61.68 62.35 61.95 61.37 62.59 62.71 61.69 62.02 63.89 62.61 62.63 63.48 64.37 64.75 65.03 65.53 66.02
66.01 66.15 68.10 69.63 68.86 67.18 65.80 66.48 66.99 66.91 66.65 67.05 67.96 68.00 67.56 67.08 67.27 66.07 65.73 65.53 65.21 62.82 63.36 62.89 63.14 62.90 62.86 61.47 60.42 60.73 61.03 61.06 60.28 60.19 60.14 58.82 57.98 59.23 60.97 62.11 63.21 64.08 65.08
65.27 65.16 67.82 69.64 68.16 67.80 67.16 66.99 66.54 66.26 65.70 66.05 66.48 66.97 66.48 65.34 65.51 65.21 63.76 63.49 63.20 62.54 62.82 62.78 62.30 62.93 61.86 59.42 58.50 58.52 58.99 58.59 57.69 58.24 58.21 56.71 55.14 56.46 57.68 59.26 60.50 61.82 62.55
64.13 65.33 67.05 69.38 67.43 66.20 66.45 66.69 66.64 66.34 65.98 65.94 65.82 65.38 65.00 64.25 64.48 63.58 62.95 62.14 61.80 61.59 61.56 61.37 61.40 61.02 60.05 58.97 58.01 57.90 57.56 57.84 58.31 58.21 58.49 56.45 54.95 56.10 57.62 58.27 59.39 60.56 61.35
63.99 65.35 67.35 68.29 67.47 65.37 65.51 65.73 66.13 65.32 64.68 64.69 63.81 63.38 64.23 63.99 63.79 62.50 61.79 61.14 60.96 61.01 61.06 60.97 60.99 60.79 59.70 58.52 57.76 57.50 57.52 57.10 57.45 58.18 57.23 56.29 55.86 56.67 57.19 57.60 59.13 59.99 60.50
64.45 65.20 66.95 67.98 66.65 64.60 64.89 64.45 64.07 62.95 63.20 63.51 62.94 63.31 62.86 63.05 63.07 62.84 61.70 61.37 61.03 61.99 62.83 61.48 60.99 60.56 59.83 59.02 57.76 57.09 57.06 57.43 57.05 57.20 57.03 56.42 55.73 56.04 56.72 56.99 57.58 57.65 57.71
64.55 64.67 66.32 66.89 65.08 64.12 64.00 63.45 63.95 63.65 63.65 63.08 63.23 63.05 62.50 62.26 62.28 62.13 60.86 60.85 62.11 62.24 61.12 60.72 59.72 59.07 58.87 58.43 58.30 56.99 56.92 56.90 56.79 56.68 56.42 56.32 56.09 56.23 55.96 57.22 56.72 56.65 57.00
63.85 64.35 65.58 67.03 62.73 62.85 63.68 63.54 63.44 63.09 62.19 61.14 61.05 60.71 61.07 60.55 60.71 60.67 60.00 60.73 62.76 61.15 61.70 61.09 60.24 60.17 58.54 58.51 57.98 58.60 57.66 56.52 57.43 55.95 55.78 56.81 57.12 55.98 56.08 57.09 56.52 55.90 55.34
62.85 63.88 65.44 65.50 62.08 62.41 63.77 63.18 61.00 60.79 60.92 60.96 60.58 59.83 59.90 59.65 59.68 59.38 58.94 60.11 60.46 58.69 59.42 60.00 60.57 59.50 59.90 59.21 57.06 57.24 58.59 58.24 57.57 57.63 56.42 55.73 55.88 56.86 56.22 55.80 54.84 54.12 55.06
63.69 63.80 64.34 62.43 61.56 61.25 60.53 59.05 58.36 57.93 58.84 59.36 59.44 59.34 59.19 58.31 57.41 57.22 56.32 56.81 57.47 56.58 57.66 58.59 58.41 57.94 58.06 59.14 57.78 57.52 57.98 58.38 58.08 56.98 57.80 56.58 56.07 56.14 56.75 56.37 55.97 55.04 53.54
62.33 62.20 60.77 59.69 58.73 59.04 59.04 58.63 58.83 58.64 58.41 58.55 58.90 58.38 57.89 57.07 56.39 55.50 55.24 54.78 55.10 54.30 56.51 56.93 57.16 55.70 56.38 57.90 55.23 55.21 52.02 54.45 56.92 57.33 56.76 56.52 56.77 56.31 55.69 56.24 56.17 55.38 54.30
59.17 59.10 58.53 58.30 57.98 58.11 58.34 58.08 57.72 58.03 57.86 56.81 56.55 56.32 56.52 55.97 55.07 54.51 54.31 54.13 54.83 55.00 53.90 55.54 55.26 54.23 52.60 54.90 56.54 53.59 49.22 48.35 52.97 56.01 56.97 56.10 56.33 56.12 55.80 55.69 55.77 53.85 53.15
58.10 58.52 58.18 57.94 57.36 57.13 57.44 56.83 56.06 54.80 53.68 55.04 55.55 55.45 54.58 54.56 53.61 53.09 53.22 53.41 53.48 53.64 53.52 53.37 52.62 53.29 52.86 50.41 53.04 52.83 54.45 53.84 48.67 47.80 53.78 54.42 54.56 53.19 55.83 55.59 54.93 52.70 52.23
57.93 57.76 58.15 57.36 56.89 56.92 56.50 55.95 55.17 54.85 55.15 55.69 54.81 53.56 53.61 53.21 52.89 52.31 52.31 53.04 52.39 52.19 52.27 52.39 51.83 50.81 50.60 49.48 49.23 49.80 50.05 49.63 49.49 44.48 43.56 49.11 51.69 53.32 51.82 52.31 54.39 52.58 51.44
57.74 57.61 57.53 56.70 55.71 55.93 56.06 55.83 55.55 53.73 52.12 52.12 51.93 50.98 50.93 50.88 50.69 51.30 50.84 51.46 51.44 51.29 50.78 50.17 50.68 49.88 47.97 47.81 47.38 46.27 44.33 42.43 41.96 40.77 40.44 44.09 46.68 48.19 50.60 51.30 50.25 50.81 51.12

GFSSE_sfc_wetblb_012.txt.gz
Wetbulb
69.40 70.21 71.81 72.97 72.96 72.61 72.40 72.46 72.68 72.51 72.72 72.72 72.04 71.50 70.97 70.37 70.15 69.91 69.79 69.87 69.92 69.82 70.25 70.17 70.12 70.85 71.09 71.24 70.69 70.25 70.89 70.92 70.93 71.11 71.12 71.27 70.48 71.67 71.75 72.17 71.09 68.32 70.02
70.63 70.56 72.02 72.75 72.80 72.72 72.52 72.45 72.44 72.29 72.13 72.20 71.82 71.49 71.01 70.26 69.76 68.99 68.70 68.72 68.96 69.09 69.38 69.72 70.08 70.31 70.09 69.64 69.29 69.45 69.77 69.84 70.07 70.49 71.18 71.19 71.75 71.32 71.11 71.66 70.92 68.09 69.00
70.11 70.80 71.39 72.25 72.81 72.65 72.53 72.60 72.38 72.19 71.89 71.53 71.28 71.23 70.47 70.41 69.51 68.69 68.06 68.30 68.60 69.16 69.32 69.47 69.40 69.26 68.94 69.03 68.87 69.28 69.12 69.18 69.15 69.24 70.03 66.73 64.57 69.18 70.21 71.29 70.74 70.58 70.08
70.87 71.23 71.38 71.78 72.27 72.48 72.50 72.59 72.43 71.92 71.21 71.32 70.81 70.50 70.30 70.07 69.40 68.39 67.64 67.91 68.26 68.65 68.57 68.16 67.80 67.22 66.68 66.52 68.44 68.61 68.52 68.76 68.55 68.59 66.47 65.84 67.51 68.32 68.33 70.82 71.44 70.83 71.07
70.86 70.46 70.64 70.88 71.62 72.35 72.36 72.37 72.16 71.81 71.42 71.28 70.93 70.49 70.44 69.46 68.04 67.55 67.53 68.08 68.23 68.04 67.70 67.72 67.78 67.49 67.13 66.80 66.81 67.26 67.86 68.34 68.04 67.42 65.17 65.38 67.41 67.50 67.41 68.77 70.97 70.97 70.17
68.70 69.01 68.91 69.59 70.25 70.87 71.12 71.29 71.20 70.71 70.16 70.04 70.42 69.92 69.26 68.35 67.54 67.66 67.78 67.63 66.89 66.41 66.37 66.35 66.16 66.10 66.14 66.42 66.73 66.64 66.57 66.24 66.44 64.53 64.35 66.30 65.58 67.49 67.21 68.77 69.35 69.89 69.74
66.61 67.70 67.86 68.22 69.38 69.80 69.80 69.70 69.87 69.88 69.57 69.79 69.36 68.78 68.44 67.84 67.53 67.06 66.51 66.11 65.55 65.30 64.94 64.74 64.68 64.88 64.82 65.21 65.07 65.49 66.01 66.07 64.55 63.36 64.76 62.95 60.54 62.23 63.82 67.14 68.31 68.57 69.11
65.40 65.62 65.75 68.27 68.52 68.45 68.62 69.00 68.93 68.63 68.59 68.79 68.50 68.07 67.30 66.90 66.72 66.20 65.65 65.15 64.69 64.33 63.90 63.50 63.07 63.18 63.49 63.71 63.85 63.94 63.55 64.12 63.91 63.17 65.32 63.93 63.25 63.62 67.11 67.18 67.70 67.15 67.89
64.38 64.24 65.07 65.53 66.52 67.36 67.06 67.57 68.02 67.79 67.70 67.22 67.06 67.02 66.77 66.30 66.16 65.38 64.68 64.18 63.68 63.14 62.64 62.13 61.66 61.69 61.85 62.56 62.98 63.00 62.63 63.15 61.24 62.60 64.95 64.28 67.46 67.36 66.88 66.32 66.30 67.20 67.33
65.16 65.69 65.91 65.90 66.57 65.99 65.57 66.38 67.15 67.19 66.94 66.49 66.24 66.13 66.26 65.94 65.99 65.00 64.85 63.40 62.50 61.78 61.52 61.06 60.74 60.76 60.99 61.24 62.25 62.77 61.99 62.17 59.77 61.84 62.81 63.48 66.55 66.42 66.13 65.72 66.27 66.71 67.19
64.47 66.00 66.15 65.74 65.93 66.98 65.47 65.82 66.48 67.17 66.78 66.18 65.98 65.36 64.51 65.67 65.13 64.08 63.57 63.62 62.69 62.22 61.91 61.70 61.47 61.50 61.04 61.03 61.75 61.83 62.15 58.80 60.25 59.01 61.66 64.53 65.00 65.24 65.05 65.22 65.49 65.69 66.27
63.83 64.93 66.95 66.42 65.78 65.21 64.51 65.01 66.56 66.60 66.49 66.35 66.54 66.29 66.21 65.73 65.24 64.77 64.36 63.61 63.74 63.43 63.14 62.88 62.75 62.52 62.11 59.36 58.69 60.68 58.88 59.29 57.71 57.58 60.64 63.09 63.24 63.01 63.52 64.92 65.06 65.33 65.91
64.28 64.90 67.37 67.70 66.83 66.10 65.08 64.18 65.29 65.40 65.22 66.25 67.59 65.53 66.08 64.95 66.01 64.43 63.70 63.50 62.61 62.79 61.98 61.61 61.57 60.25 60.35 58.67 56.62 56.48 56.64 56.34 55.93 56.04 58.80 60.21 60.10 59.76 60.24 62.11 63.22 63.95 64.65
63.60 64.14 67.31 67.24 66.63 66.07 65.83 65.37 65.74 64.89 64.05 64.70 64.63 65.50 64.36 63.28 63.43 62.22 61.37 60.12 59.75 59.37 59.28 59.35 58.46 59.77 59.44 57.72 56.29 55.38 55.67 55.42 54.17 54.41 55.35 58.05 58.10 56.70 57.54 59.96 61.39 62.27 63.08
62.87 64.17 66.09 66.96 66.12 66.65 64.94 66.10 65.58 65.05 64.26 64.13 63.68 63.86 63.15 62.23 62.12 61.72 60.60 59.84 59.42 59.12 58.29 57.68 57.62 57.95 57.73 56.97 56.51 55.12 54.63 54.91 55.10 54.68 54.03 56.52 56.95 56.66 56.98 58.98 60.49 61.42 62.30
63.52 64.81 66.97 67.02 65.87 65.01 65.04 64.40 64.66 63.50 63.72 63.21 62.67 61.52 62.46 61.52 61.09 60.65 59.60 59.39 58.95 58.75 58.51 57.45 56.73 57.32 57.20 56.85 55.78 55.72 54.48 54.36 53.97 54.05 53.85 52.54 56.02 57.74 58.54 58.96 59.70 60.77 61.59
63.10 64.30 66.19 66.05 65.08 64.15 64.16 63.87 63.40 61.27 61.34 61.33 61.69 61.51 61.25 61.11 60.33 60.15 59.30 58.94 58.94 59.37 58.95 58.06 57.55 56.68 56.31 57.02 55.82 55.71 54.79 54.17 54.18 53.97 54.22 53.82 52.18 56.79 58.09 59.20 59.42 60.16 60.13
65.17 61.51 64.38 65.85 64.53 63.87 63.91 62.21 62.28 62.60 61.51 61.41 61.35 60.80 60.84 60.57 59.88 59.13 58.54 58.55 59.50 59.27 58.38 57.48 56.74 55.82 55.19 54.85 54.44 54.82 54.02 53.71 53.74 54.11 54.02 53.42 52.64 52.96 55.83 58.32 59.47 58.99 58.84
62.24 63.92 64.32 65.81 63.30 62.46 63.02 62.02 61.89 61.63 60.68 59.83 59.11 59.54 59.25 59.10 59.37 57.96 57.14 57.86 58.45 57.25 56.80 56.43 55.37 55.52 54.39 54.36 54.86 54.45 53.96 53.58 52.85 54.57 52.74 52.82 52.59 52.90 52.16 56.04 58.14 57.98 58.73
63.89 63.57 64.76 64.62 61.64 62.01 62.63 61.66 60.20 59.25 59.35 59.62 59.21 57.88 58.33 58.02 57.04 56.07 54.96 55.72 56.72 54.37 53.78 53.96 53.72 53.49 53.30 53.55 55.37 55.03 54.72 54.92 54.96 53.26 52.31 54.14 52.38 52.88 52.55 53.00 54.45 53.90 56.39
63.66 61.99 61.30 60.37 60.55 60.10 59.88 58.19 57.14 56.32 57.45 57.76 57.80 57.76 57.17 56.40 55.56 54.47 53.54 52.74 52.85 52.06 52.15 52.11 51.28 50.10 50.68 51.79 51.38 51.33 52.35 53.62 54.11 54.61 54.47 52.49 52.35 52.75 52.77 52.47 52.12 51.24 52.12
60.16 60.31 59.43 58.49 58.18 57.67 57.38 57.35 57.02 57.17 56.73 56.82 57.52 56.54 56.76 55.46 54.49 53.38 52.86 52.15 51.68 50.78 50.32 50.50 50.84 49.46 48.82 49.60 48.29 48.19 45.13 47.89 50.67 52.41 53.98 54.21 52.44 53.42 52.76 52.60 52.67 52.49 51.25
58.29 58.04 57.45 57.09 56.63 56.66 56.95 56.51 55.86 55.92 55.06 54.35 54.08 54.05 54.79 54.63 53.98 52.84 51.86 51.82 50.97 50.23 48.74 48.90 49.07 48.25 46.85 47.67 48.13 46.26 42.66 41.56 45.57 49.02 50.00 51.39 51.33 53.13 53.45 53.54 52.62 52.87 51.74
56.89 57.95 57.18 57.37 56.63 56.67 56.28 55.50 54.18 52.98 52.15 53.97 54.78 53.67 53.35 53.33 52.41 51.04 50.57 50.53 49.95 49.85 48.48 48.79 49.27 47.89 47.02 44.83 46.37 48.54 46.10 44.31 41.27 41.29 45.80 47.58 49.28 50.45 51.86 53.10 52.38 51.93 51.59
57.36 57.28 57.45 57.05 56.44 56.63 56.24 55.12 53.57 53.91 53.14 52.56 52.29 51.76 51.01 50.71 50.20 49.96 49.35 48.49 48.55 48.24 48.35 48.30 47.13 47.01 46.42 43.91 42.97 42.35 41.93 41.80 42.06 38.94 38.08 39.49 42.81 45.25 47.18 50.05 50.67 51.78 50.52
57.50 57.36 57.17 56.32 55.93 56.12 55.76 54.99 52.75 51.32 51.29 50.57 50.32 48.72 47.65 47.66 47.54 48.01 48.66 48.16 48.29 48.07 47.52 47.06 46.70 44.52 43.11 43.26 43.12 42.52 40.92 40.25 39.20 37.93 36.69 36.66 36.83 40.53 42.25 44.17 48.32 48.07 48.44

GFSSE_sfc_wetblb_015.txt.gz
Wetbulb
67.43 70.29 71.78 72.13 72.20 72.16 72.22 72.03 72.05 72.16 72.35 72.13 71.14 70.65 70.82 70.10 69.85 69.85 69.83 70.30 70.55 69.97 70.09 70.17 70.43 70.31 70.26 69.82 69.49 69.36 69.51 69.83 69.88 70.22 70.04 70.48 70.05 70.16 70.55 71.10 70.75 69.10 69.86
68.92 70.70 71.24 71.93 72.14 72.39 72.58 72.11 71.95 72.17 72.36 71.63 71.20 71.15 71.07 70.16 69.24 68.98 69.01 69.20 69.40 69.64 69.82 69.74 69.38 68.86 68.69 68.97 68.87 68.94 69.11 69.37 69.07 69.52 69.53 69.15 69.15 68.68 70.14 69.98 69.90 69.59 70.58
69.18 70.70 71.31 71.38 71.96 72.38 72.51 72.26 72.17 72.14 71.81 71.13 71.11 71.05 70.40 69.69 69.11 68.49 68.41 68.71 68.89 68.71 68.69 68.62 68.33 67.94 67.58 66.96 67.77 68.75 68.75 68.89 68.80 68.57 68.78 65.12 64.12 68.74 68.52 69.50 69.52 69.58 69.50
69.84 70.57 70.88 71.13 71.70 72.28 72.09 71.71 71.48 71.61 71.17 71.37 71.01 70.60 70.32 69.49 68.46 67.95 68.08 68.88 68.54 68.09 67.91 67.96 67.99 67.78 67.44 67.22 66.88 66.77 67.29 67.91 68.05 68.06 64.87 65.32 67.52 68.14 67.29 69.13 68.28 69.77 69.93
69.30 70.60 70.98 70.89 71.32 71.96 71.80 71.60 71.45 71.21 71.20 71.03 70.95 70.23 69.14 68.20 67.76 68.05 68.21 68.60 67.38 66.90 67.02 66.92 66.55 66.42 66.23 66.21 66.59 66.72 66.54 66.45 66.41 65.46 63.23 64.08 65.24 66.68 65.99 66.05 68.29 69.86 68.86
67.12 68.34 68.94 69.36 70.14 71.18 71.39 71.14 70.66 70.07 70.08 70.11 70.05 69.12 68.51 68.02 68.10 67.79 66.89 66.45 65.74 65.36 65.29 65.02 64.84 64.94 65.04 65.21 65.19 65.23 65.58 65.98 65.64 61.63 62.49 63.80 65.12 65.92 62.93 64.25 65.17 68.50 68.83
65.00 66.57 67.71 67.95 69.12 70.00 70.39 70.02 69.74 69.48 69.50 69.36 69.22 68.58 67.97 67.85 67.14 66.64 65.94 65.43 64.90 64.36 64.03 63.61 63.10 63.20 63.60 64.30 64.40 64.24 63.83 63.86 62.72 60.84 62.64 60.23 61.69 65.45 65.52 63.73 66.01 67.73 67.78
63.98 64.81 66.32 68.29 68.26 68.44 68.84 68.82 68.25 68.30 68.61 68.74 68.64 68.15 67.49 67.21 66.85 65.85 65.20 64.49 63.83 63.10 62.56 62.42 62.15 61.96 62.61 63.36 63.82 63.59 62.98 63.00 61.56 59.92 63.66 62.32 62.88 64.00 65.65 66.51 66.99 66.99 67.55
62.93 61.95 63.49 65.18 66.48 66.80 66.67 66.94 66.83 67.20 67.02 67.19 67.25 67.10 66.83 66.59 66.34 65.93 65.19 64.20 63.22 62.42 61.76 61.51 61.83 62.30 62.48 62.73 62.70 62.78 62.37 62.72 59.79 58.85 64.29 62.55 65.30 65.52 66.75 66.99 67.18 66.94 67.06
60.91 61.74 61.42 62.62 63.51 63.59 64.59 65.87 65.92 66.18 65.95 65.66 66.04 66.06 65.64 65.48 65.49 65.41 64.98 64.48 63.62 62.77 61.83 61.60 62.11 62.38 62.21 61.58 61.37 61.38 61.72 61.87 56.69 59.32 62.09 63.71 67.09 67.26 66.51 66.66 66.05 66.51 67.05
61.75 61.74 61.78 62.24 62.45 62.30 62.68 65.23 65.80 66.15 65.79 65.25 65.28 65.35 64.32 63.44 63.75 63.25 63.57 63.72 63.62 63.38 63.10 62.96 62.96 62.46 61.80 61.43 61.34 61.98 61.67 58.06 57.17 60.10 60.08 64.75 66.62 66.17 65.74 65.19 65.01 65.64 65.98
59.93 61.55 61.16 60.86 62.82 62.07 64.25 63.34 63.29 65.05 64.61 64.13 64.01 63.51 62.80 62.45 62.53 63.01 63.05 63.37 63.54 63.38 63.26 63.07 63.46 62.91 62.09 58.86 55.96 59.32 56.50 56.29 54.28 56.56 59.97 63.74 64.50 63.50 64.07 64.82 65.13 65.46 65.83
60.71 62.49 62.80 61.58 60.84 60.72 61.03 61.45 62.63 62.59 62.95 63.29 62.97 61.58 60.63 61.97 61.20 59.67 60.46 60.80 59.74 61.93 59.77 61.24 60.02 59.69 58.17 56.71 54.92 52.74 53.13 52.66 52.43 52.83 59.25 61.71 62.05 61.18 61.20 61.45 62.72 63.73 64.89
59.95 63.20 62.64 61.64 61.24 60.48 61.07 60.72 60.33 59.35 60.44 60.84 60.86 60.64 59.23 59.09 57.47 57.70 56.25 55.85 55.92 55.68 56.34 55.95 55.20 55.50 56.03 56.11 54.48 53.22 52.66 52.18 52.33 51.84 54.52 58.92 59.88 59.16 58.49 59.28 60.79 61.98 62.98
60.23 63.27 62.51 61.45 60.70 60.56 60.65 60.00 59.58 59.97 58.93 59.77 59.26 59.15 58.42 58.62 56.50 56.57 56.63 56.06 55.31 55.46 54.61 54.11 53.96 54.66 55.28 55.43 55.09 54.00 52.77 52.00 52.38 52.30 51.43 57.07 57.61 59.07 58.26 58.85 59.72 60.68 61.74
61.31 63.78 62.16 61.21 61.57 60.46 59.94 59.81 58.76 57.54 58.71 58.64 56.98 58.11 58.58 57.22 56.10 56.37 55.60 56.14 55.14 55.32 55.59 54.82 54.21 54.26 54.66 55.02 54.79 54.37 53.61 51.93 51.76 51.89 51.70 51.74 56.61 57.85 59.22 59.23 60.08 60.63 61.41
60.18 63.08 62.56 63.01 62.71 60.29 59.34 59.02 58.57 55.32 57.14 56.47 56.52 57.00 57.43 57.45 55.88 55.83 55.22 55.47 55.61 56.62 55.42 55.16 54.87 54.38 53.74 54.40 53.59 53.86 53.59 53.00 51.96 51.92 51.60 51.51 52.10 56.50 57.96 60.24 60.38 59.97 60.72
62.07 62.83 63.69 64.61 62.72 60.64 59.32 57.92 57.32 56.91 55.89 56.01 56.51 56.44 56.12 56.43 55.22 53.87 53.61 53.59 54.86 55.04 54.36 53.93 53.77 53.21 52.73 52.39 51.96 52.38 52.55 52.69 51.79 51.73 52.14 51.51 50.87 51.84 55.49 58.11 59.86 60.72 61.29
59.58 61.58 59.53 60.78 61.24 60.30 59.19 56.98 56.37 55.67 55.20 54.67 54.49 54.23 54.71 54.66 54.12 52.15 51.28 51.14 52.55 52.01 51.34 51.54 51.30 50.64 49.72 50.10 51.43 51.58 51.10 50.91 51.53 53.95 51.29 51.55 50.58 50.89 50.57 55.05 57.68 58.91 59.99
58.83 61.21 61.21 60.28 59.41 57.48 56.48 55.30 54.17 53.86 54.28 54.06 52.98 53.21 53.71 52.74 52.65 51.07 50.39 50.45 50.05 49.80 49.11 48.92 47.81 48.63 48.15 48.46 51.34 51.32 50.01 50.97 51.82 51.88 52.61 53.59 50.65 51.11 50.65 50.31 53.39 54.62 57.39
56.80 56.92 56.06 55.74 53.39 53.86 52.84 51.85 51.45 50.99 52.31 52.46 52.56 53.37 52.30 51.72 52.27 50.44 49.77 49.36 48.98 48.42 47.58 47.62 47.40 47.55 47.17 47.76 46.08 46.64 46.74 48.16 48.16 49.28 50.84 50.63 50.85 51.16 51.06 50.61 51.27 52.34 53.58
53.29 53.46 53.22 52.51 52.83 52.37 51.83 51.68 52.44 52.06 51.77 52.14 52.16 52.32 52.18 51.38 50.55 51.01 47.96 47.87 47.56 47.62 46.74 45.92 45.58 45.41 45.36 45.94 44.02 43.47 41.19 43.53 44.72 47.08 47.43 49.00 48.51 50.86 51.77 53.39 52.28 52.27 50.77
51.09 51.14 52.05 52.00 52.29 52.28 52.00 51.54 50.80 50.26 50.27 50.53 50.94 51.30 51.36 50.03 48.96 47.75 47.20 46.68 46.38 46.90 45.47 44.74 45.36 44.62 43.20 44.14 44.27 42.74 39.38 37.66 39.88 43.87 44.24 45.73 44.26 46.56 47.04 49.95 51.39 53.13 51.69
50.62 51.15 51.52 52.13 52.11 52.92 51.55 50.19 49.10 48.39 48.44 49.69 48.59 48.42 48.03 47.67 47.16 47.65 46.83 46.07 45.93 45.72 44.69 44.87 47.36 44.26 43.69 41.65 42.91 44.99 41.69 41.09 37.52 35.55 40.78 41.73 41.84 42.20 43.63 46.16 47.30 49.96 52.09
51.25 50.44 50.60 51.37 51.76 52.00 50.91 50.21 49.50 48.06 48.07 48.77 47.88 45.67 45.45 45.66 46.02 46.48 46.52 45.38 45.07 45.43 44.73 43.92 43.05 42.36 42.53 41.78 41.51 42.34 41.62 39.07 37.79 35.02 33.66 35.82 38.77 39.80 41.36 42.31 44.94 46.62 48.85
50.81 50.59 50.72 50.99 51.29 51.74 52.20 50.89 48.61 47.54 47.23 45.64 44.49 43.43 43.41 43.78 44.30 44.21 45.25 44.07 44.55 43.92 43.10 43.32 43.40 42.51 43.30 42.83 42.49 41.74 40.72 39.58 39.10 37.66 34.36 35.38 36.00 36.63 39.03 39.99 42.66 44.24 46.62

GFSSE_sfc_wetblb_018.txt.gz
Wetbulb
68.22 70.60 71.19 72.08 72.14 72.10 72.03 71.99 71.85 71.72 71.69 71.17 70.61 70.27 69.86 69.49 69.42 69.49 69.54 70.30 70.68 70.08 70.01 69.94 69.23 68.94 69.14 69.01 69.04 68.83 68.86 68.71 68.67 69.04 69.31 69.07 69.60 69.63 70.32 69.89 69.39 67.87 68.01
69.47 70.37 70.84 71.69 72.23 72.35 72.22 72.01 72.01 72.10 71.75 71.17 70.62 70.23 69.62 69.12 68.88 68.69 68.89 69.06 69.04 68.96 69.03 68.77 68.31 68.09 67.73 67.33 67.90 68.40 68.54 68.27 68.40 68.41 68.39 68.04 67.77 68.94 68.97 70.28 69.03 69.08 69.01
69.42 70.27 70.63 71.11 71.97 72.31 72.27 72.09 72.14 71.96 71.24 70.94 70.42 70.15 69.61 68.86 68.27 68.13 68.44 68.47 68.58 68.53 68.23 67.99 67.75 67.58 67.52 67.19 66.96 66.68 67.13 67.78 67.71 67.49 67.01 64.00 64.37 68.18 67.39 68.97 68.89 69.18 69.56
69.74 69.99 70.24 71.15 71.58 71.90 71.78 71.57 71.38 71.20 70.77 70.72 70.37 70.05 68.92 68.03 67.74 68.28 68.34 68.01 67.48 67.09 66.79 66.75 66.39 66.25 65.90 65.94 66.34 66.72 66.64 66.13 66.28 66.88 63.52 65.29 66.27 67.51 67.12 67.14 68.71 69.77 69.45
69.40 69.90 70.52 70.66 71.06 71.43 71.43 71.47 71.31 71.20 71.18 70.99 70.00 68.76 68.08 67.98 68.13 68.06 67.12 66.37 65.82 65.53 65.26 65.18 64.90 64.76 64.68 64.65 64.83 64.80 65.05 65.49 66.15 63.39 62.89 64.21 64.47 66.99 67.46 66.73 67.20 69.59 69.83
68.90 69.35 69.33 69.78 70.63 71.38 71.12 70.70 70.46 70.29 69.98 69.89 69.42 68.32 68.08 68.07 67.31 66.55 65.84 65.27 64.81 64.31 63.95 63.42 63.31 63.23 63.41 63.78 63.99 63.79 64.01 64.00 63.79 60.83 62.41 65.71 65.03 67.12 65.29 63.93 65.36 67.28 68.63
66.80 68.36 68.76 68.43 69.73 70.61 70.48 69.89 69.77 69.69 69.44 69.16 68.97 68.53 67.69 67.02 66.36 65.85 65.22 64.66 63.87 63.24 62.84 62.68 62.49 62.41 62.59 63.18 63.53 63.62 63.55 63.58 60.55 58.66 61.37 60.17 63.26 66.05 64.31 65.38 66.00 66.64 68.06
65.14 65.93 67.05 68.68 68.75 68.97 69.12 68.83 68.39 68.48 68.41 68.47 68.48 68.16 67.07 66.91 66.28 65.32 64.70 63.87 62.90 62.04 61.85 61.87 62.45 62.46 62.60 62.84 62.83 62.79 62.55 62.79 60.46 57.24 62.57 60.15 62.44 65.72 66.53 66.28 66.72 66.86 67.48
63.54 63.86 64.25 65.56 67.05 67.19 66.72 66.63 66.70 67.34 67.42 67.58 67.47 67.21 66.85 66.54 66.25 65.93 65.07 63.95 63.07 62.04 61.59 62.27 62.76 62.42 62.68 62.53 62.27 62.10 61.31 62.33 56.95 56.37 61.09 61.45 64.02 66.01 66.73 66.69 67.33 67.63 67.50
60.41 62.54 61.96 63.15 63.67 63.52 64.04 65.59 65.78 65.76 65.82 66.02 66.21 65.83 65.29 65.31 65.57 65.67 65.10 64.54 64.17 63.06 62.75 63.21 63.06 62.65 62.51 62.29 62.11 61.96 61.44 60.36 55.95 60.52 61.75 62.52 66.11 66.74 66.40 66.98 66.56 67.07 67.01
59.41 59.79 60.40 60.99 61.74 62.11 62.89 64.85 65.49 66.06 65.35 65.07 65.15 65.26 63.99 62.99 62.94 62.74 63.64 63.15 64.13 63.73 63.46 63.65 63.71 63.33 62.24 61.81 61.52 61.78 60.35 55.66 54.13 57.13 59.50 63.40 66.46 66.16 65.94 65.75 65.61 65.56 65.90
58.25 59.43 60.10 60.21 60.16 61.11 63.74 63.40 62.90 64.10 63.51 63.09 63.13 62.66 62.38 61.66 61.90 62.73 62.77 63.85 64.02 63.68 63.53 63.65 63.59 63.20 62.30 58.32 57.10 56.80 52.41 52.34 52.21 53.59 58.54 62.79 64.68 64.69 64.21 64.86 65.09 65.16 65.44
59.74 60.90 60.24 61.63 61.13 59.59 60.78 60.95 61.38 62.12 62.29 62.41 62.44 61.94 61.10 61.20 61.16 60.27 59.46 59.89 58.65 60.59 58.99 58.71 58.86 56.98 57.27 56.51 55.34 52.30 51.97 51.26 50.53 51.31 58.63 61.96 62.74 62.62 62.58 62.34 62.72 63.05 63.80
59.72 60.45 59.95 60.25 60.13 58.48 58.68 60.44 61.01 61.01 61.47 61.38 60.64 59.47 57.99 56.77 55.87 55.24 54.28 54.37 54.57 53.98 54.36 54.09 53.56 53.20 53.70 54.83 54.36 53.18 52.38 50.85 51.03 50.85 52.86 60.38 60.96 61.19 60.81 60.37 60.76 61.20 62.11
60.70 60.96 59.74 59.32 58.70 59.16 59.38 58.94 58.92 58.92 59.40 59.16 57.92 58.00 57.84 56.27 54.42 55.36 54.47 54.90 54.05 54.33 53.52 53.34 53.19 53.25 53.63 54.22 54.31 54.01 53.30 51.85 51.22 50.85 50.65 57.76 59.35 60.12 60.18 60.53 60.58 60.53 61.15
61.97 60.29 60.18 60.29 60.18 59.31 59.09 58.73 58.63 57.33 58.13 57.26 56.46 57.22 57.36 56.85 54.86 54.64 54.12 54.14 54.03 54.36 54.30 53.21 52.84 52.91 52.98 52.87 53.16 53.89 53.51 52.66 51.50 50.67 50.61 50.66 57.78 58.77 60.03 60.56 60.65 60.86 61.14
62.69 61.45 60.63 60.63 59.96 59.74 58.82 58.81 57.58 54.71 57.49 55.46 55.00 55.71 55.85 55.65 54.51 53.20 51.89 51.32 51.94 52.75 52.46 52.17 51.98 51.77 50.90 51.67 50.66 51.75 52.13 52.43 51.98 51.35 50.89 50.19 51.07 57.00 57.96 60.08 61.36 61.83 61.17
61.59 60.47 61.35 62.80 60.35 59.26 58.89 57.47 57.19 55.82 54.50 55.04 55.25 54.98 54.73 54.29 52.95 50.85 49.82 49.54 50.99 50.44 50.33 49.82 49.66 48.86 48.25 47.98 48.00 48.72 49.50 50.64 51.01 51.11 50.76 50.24 50.20 51.68 54.20 57.87 59.51 60.99 61.55
61.11 60.39 61.16 60.33 59.13 58.59 58.41 55.74 55.02 53.44 52.98 52.80 52.60 52.79 52.20 52.35 51.96 49.90 49.04 48.85 49.09 48.74 48.44 48.11 47.24 46.63 46.23 46.70 47.75 47.76 47.78 48.20 49.30 52.39 51.39 51.18 50.13 50.76 50.51 53.41 57.38 58.39 59.66
59.24 59.59 59.45 59.72 59.33 57.29 54.40 52.77 52.88 52.43 52.83 51.67 51.08 51.27 51.15 50.95 50.65 48.99 48.85 49.05 48.75 47.73 46.79 46.20 45.36 45.95 45.32 45.42 48.09 47.54 46.25 47.14 47.56 47.45 48.15 50.60 50.28 50.19 49.57 49.42 49.40 53.72 56.66
53.90 54.17 54.59 54.80 54.16 54.07 51.37 50.30 50.71 49.89 50.25 50.06 50.73 51.08 50.72 50.13 49.59 48.80 48.00 47.06 46.86 46.55 45.47 45.48 44.87 44.15 44.72 45.16 43.31 44.31 43.96 45.20 44.85 44.51 45.87 46.18 47.05 48.62 47.13 48.29 50.23 50.23 51.18
52.83 53.05 51.86 50.81 51.03 50.93 50.55 51.33 51.54 50.26 49.80 50.43 51.84 50.35 49.24 48.08 47.73 47.45 45.42 45.12 45.42 44.97 44.21 43.52 43.25 43.41 44.02 44.47 42.06 41.48 39.00 41.46 41.79 42.96 42.53 44.46 42.34 44.74 44.39 46.48 47.64 49.02 51.41
49.10 49.37 50.23 50.24 50.97 50.67 51.17 50.21 49.98 50.26 49.48 48.68 48.18 46.66 46.48 47.47 47.00 45.67 45.09 44.61 44.38 44.20 43.36 43.03 43.44 42.74 41.70 42.73 42.83 41.10 37.39 35.88 38.42 40.29 40.52 40.26 40.00 40.02 41.47 44.41 44.56 47.72 50.72
48.22 48.61 49.59 50.60 50.50 50.51 50.29 49.16 48.59 47.77 46.93 47.14 45.64 44.10 43.98 45.17 45.05 45.05 45.00 43.85 43.61 44.01 43.28 43.47 44.00 42.08 41.59 40.11 41.99 43.65 42.90 41.80 37.14 35.19 37.44 39.31 39.07 39.40 39.02 40.98 41.15 46.06 48.14
48.89 48.41 48.89 49.59 50.08 49.93 49.21 48.87 48.40 46.00 45.94 45.54 44.17 42.94 43.35 43.94 44.22 44.36 43.99 42.97 42.76 42.93 41.92 42.11 41.19 40.48 40.74 39.73 40.30 39.91 38.14 38.03 39.90 36.74 33.32 35.27 36.88 37.93 38.23 38.91 39.16 42.44 45.47
48.58 48.76 48.11 49.55 49.63 50.05 49.26 47.89 46.38 45.87 44.51 43.05 41.96 41.71 43.37 43.28 42.16 42.04 42.64 41.47 41.12 40.75 39.91 40.13 39.91 39.71 39.32 39.15 39.19 39.03 38.30 36.46 36.10 35.14 34.91 34.39 34.45 34.96 36.81 38.03 38.72 40.75 43.37

GFSSE_sfc_wetblb_021.txt.gz
Wetbulb
68.74 69.95 71.59 72.22 72.41 72.19 71.91 71.63 71.45 71.33 71.33 70.48 69.94 69.67 69.38 69.28 69.23 69.34 69.29 69.32 69.30 69.03 68.90 68.69 68.33 68.11 67.65 67.91 68.56 68.58 68.47 68.31 68.03 67.98 68.30 68.56 68.48 68.70 69.47 69.73 69.28 67.73 69.93
69.39 69.93 71.04 71.73 72.14 72.18 71.93 71.79 71.72 71.56 70.99 70.47 69.98 69.37 69.00 68.89 68.67 68.56 68.56 68.69 68.59 68.41 68.17 67.83 67.55 67.50 67.38 67.07 66.86 66.97 67.65 67.92 67.65 67.77 67.98 67.79 67.81 67.71 67.80 69.78 69.19 68.54 68.81
68.84 69.86 70.74 71.12 71.83 72.14 71.98 71.82 71.74 71.10 70.39 70.27 69.79 69.40 68.76 68.19 68.10 68.54 68.25 67.62 66.79 66.69 66.44 66.03 65.64 65.52 65.48 65.66 66.46 66.78 66.49 66.07 66.34 66.72 66.86 63.42 63.19 67.27 66.58 68.98 68.88 69.92 69.15
68.98 69.46 70.45 71.04 71.41 71.83 71.65 71.57 71.28 70.65 70.37 70.07 69.59 68.73 68.05 67.88 68.13 67.67 66.85 66.00 65.74 65.32 64.97 64.81 64.54 64.46 63.97 64.16 64.28 64.69 65.02 65.62 65.63 65.61 63.18 64.70 65.75 67.34 66.87 67.14 68.44 68.27 69.25
68.59 69.43 70.50 70.51 70.77 71.38 71.29 71.01 70.83 70.81 70.70 69.88 68.95 68.10 68.10 67.98 67.36 66.38 65.75 65.26 64.80 64.30 63.92 63.67 63.52 63.24 62.99 62.96 63.26 63.51 63.82 64.13 64.29 63.60 62.25 63.87 64.32 66.69 67.39 66.11 66.66 68.35 69.56
68.38 68.95 69.17 69.51 70.38 71.13 71.19 70.79 70.41 70.41 69.89 69.36 68.52 67.92 67.97 67.25 66.27 65.54 65.03 64.28 63.89 63.60 63.25 63.08 62.79 62.53 62.22 62.68 63.15 63.06 63.09 63.05 62.14 59.20 60.87 63.68 64.50 66.45 66.74 65.81 65.73 67.20 67.90
68.41 69.13 69.40 68.92 69.95 70.48 70.34 69.87 69.83 69.54 69.13 69.06 68.50 67.93 67.26 66.57 65.78 64.91 64.41 63.82 63.24 62.85 62.63 63.02 62.81 62.75 62.52 63.15 63.27 63.02 62.60 63.00 59.38 56.10 59.81 60.51 60.46 66.75 65.57 64.57 65.69 67.05 67.29
67.55 67.89 68.61 69.46 69.53 69.52 69.30 69.15 68.55 68.35 68.41 68.31 68.36 67.98 66.83 66.54 66.03 64.72 64.08 63.47 62.67 62.43 62.36 62.62 62.98 62.85 63.16 63.49 63.70 63.17 62.09 62.59 58.15 55.32 59.31 60.15 61.35 65.33 66.53 65.71 66.93 66.69 67.28
65.72 64.53 64.82 66.24 67.59 67.61 67.03 67.01 66.90 67.23 67.29 67.37 67.44 67.39 66.84 66.38 65.79 65.47 64.74 63.66 62.64 62.34 62.85 63.17 63.27 63.10 63.31 63.27 63.20 62.52 61.54 61.50 54.41 59.55 59.84 61.20 63.56 65.93 66.22 67.19 67.54 67.21 66.80
61.75 62.83 62.27 62.70 63.40 62.97 63.61 65.59 65.85 66.07 66.13 66.31 66.46 66.01 65.11 65.21 65.45 65.59 64.97 64.35 64.03 63.30 63.59 63.80 63.76 63.51 63.35 62.81 62.48 61.59 60.72 58.55 52.79 55.97 59.97 61.11 65.75 65.98 65.85 66.65 66.97 67.10 67.26
60.44 60.15 60.58 61.22 61.74 61.47 61.95 64.01 65.25 65.83 65.60 65.38 65.18 64.99 63.51 62.01 61.82 61.92 63.62 63.72 63.90 63.84 63.61 63.96 63.98 63.46 62.83 61.89 61.54 60.57 57.77 52.20 50.97 52.49 56.65 61.28 64.55 65.82 65.71 65.74 65.71 65.93 66.04
57.49 58.81 59.75 59.98 60.63 61.16 63.48 62.66 62.22 63.55 62.94 62.39 62.44 62.23 61.72 60.90 60.74 62.00 62.41 63.66 64.07 63.55 63.68 63.51 62.91 62.70 60.72 57.35 56.62 57.13 51.43 50.75 50.37 50.71 53.01 61.20 63.60 64.71 64.02 64.53 64.90 64.92 65.27
57.64 58.92 59.35 58.88 58.89 59.59 60.54 61.45 61.02 61.84 61.68 61.81 61.88 61.41 60.77 60.96 59.76 60.27 58.59 58.08 56.03 57.05 56.10 55.95 55.30 53.78 53.64 54.33 54.52 53.12 51.72 51.35 49.62 50.32 53.47 60.42 62.89 63.19 62.69 62.73 63.11 62.65 63.85
57.65 58.84 59.53 59.86 59.30 58.43 59.45 60.12 60.07 60.79 61.11 61.25 61.41 60.18 58.44 55.74 55.21 54.41 53.32 53.55 53.22 53.34 52.98 52.47 52.47 52.82 52.90 53.57 53.38 53.05 52.79 51.27 50.26 49.99 50.94 57.45 60.78 61.94 62.13 62.01 61.76 61.85 63.04
58.18 59.29 59.56 59.80 59.04 58.26 58.00 58.96 59.51 59.94 61.08 61.09 59.43 58.37 57.26 55.01 53.56 53.74 53.40 53.20 52.83 53.16 52.78 51.83 51.80 52.04 51.64 51.94 52.01 52.21 52.21 52.07 51.42 50.41 49.64 55.67 57.13 59.23 61.54 62.33 62.33 62.20 62.84
59.61 59.09 58.51 58.79 58.13 58.19 57.77 58.04 58.30 58.43 59.91 58.97 56.77 56.13 56.72 54.54 54.01 53.20 51.77 50.98 50.58 51.22 50.88 50.43 50.36 49.55 48.78 49.54 49.35 50.11 50.23 50.97 51.23 51.08 50.18 49.89 55.05 57.07 59.04 60.43 61.43 62.16 62.23
60.11 59.60 58.37 58.82 58.14 58.13 57.26 56.84 56.47 56.22 57.85 55.84 55.09 55.31 55.40 54.52 52.38 50.91 49.05 48.63 49.57 49.29 48.99 48.67 48.14 47.52 46.98 48.02 47.39 48.37 49.06 49.58 49.62 49.71 49.69 50.03 50.35 53.73 55.93 57.69 59.06 60.32 61.87
59.49 58.65 60.60 61.69 60.46 58.85 57.87 56.70 54.27 53.66 53.65 53.68 53.91 53.36 52.84 52.17 50.50 48.63 47.84 47.92 48.28 48.14 47.69 47.03 46.29 45.87 45.23 44.86 44.81 45.47 46.39 47.19 47.84 48.59 49.52 49.29 49.10 50.27 51.56 53.99 55.54 56.85 58.94
58.81 60.43 59.71 60.35 60.11 59.37 58.41 56.13 52.89 51.90 51.55 51.29 51.20 50.27 50.43 50.36 49.89 47.97 47.60 47.56 48.12 47.05 46.31 45.86 45.01 44.59 43.38 43.64 45.55 45.44 45.12 45.28 46.35 48.59 47.01 47.78 48.27 48.21 47.73 50.30 51.48 52.82 54.45
58.51 59.11 59.84 60.04 58.75 56.56 53.71 52.32 51.48 51.07 50.45 49.84 49.15 48.75 48.88 48.99 48.64 48.63 46.83 46.18 46.72 45.55 44.62 44.31 42.95 43.70 43.08 43.43 46.34 45.34 43.85 44.72 44.32 43.62 44.18 46.12 46.08 45.63 44.29 45.83 46.00 47.44 51.54
54.90 56.70 57.52 56.93 54.38 51.76 51.14 50.29 49.62 48.32 49.82 50.90 50.80 50.17 49.15 48.66 48.00 45.59 45.06 44.76 44.76 43.63 42.71 43.18 42.69 42.39 42.94 43.76 41.78 42.90 42.43 42.40 42.33 41.80 42.28 42.88 42.87 44.09 42.83 43.99 44.18 44.82 46.01
54.31 53.21 49.99 49.95 50.26 50.47 50.20 50.54 52.33 53.16 52.57 51.15 49.08 47.96 47.82 46.72 46.20 45.63 43.70 43.31 43.47 43.46 43.27 42.70 42.41 42.00 42.22 42.68 40.62 39.84 37.09 39.13 40.82 42.13 40.37 41.50 39.41 41.01 41.63 42.17 43.24 42.36 43.94
47.85 48.16 49.15 49.47 49.89 50.96 51.80 51.15 50.30 50.07 48.92 46.59 45.00 43.63 44.66 45.39 44.72 44.36 43.84 43.29 43.23 43.18 42.07 41.71 41.14 40.68 39.56 40.83 40.60 38.91 35.45 33.56 37.70 38.66 40.24 38.55 38.74 38.45 39.17 39.80 41.79 41.26 44.47
46.89 47.13 48.37 48.86 48.94 49.31 48.92 48.24 47.81 47.34 46.35 45.77 43.22 42.37 42.73 43.64 43.62 44.66 43.54 44.02 42.41 41.76 40.93 41.19 41.92 39.53 39.19 37.66 39.35 41.93 39.00 38.12 33.38 32.79 36.47 38.46 37.53 38.51 37.67 38.06 39.04 39.99 43.25
46.96 46.69 47.05 48.33 48.96 48.64 48.19 47.95 47.64 45.92 44.97 43.39 42.21 41.59 43.50 44.36 43.11 44.78 43.89 41.64 40.14 40.14 39.11 39.21 39.25 38.70 38.76 37.54 37.30 37.52 36.60 35.82 35.94 33.75 32.16 33.10 36.66 37.05 37.09 37.50 37.70 38.65 41.77
46.67 46.29 46.61 47.54 47.66 48.04 47.19 46.36 45.40 43.97 42.85 41.60 42.57 43.28 43.84 43.77 43.27 41.14 41.42 40.15 39.95 39.34 38.86 38.65 38.20 37.78 37.33 37.24 36.76 36.69 37.75 36.66 36.04 35.97 33.04 33.62 34.10 36.93 36.54 36.65 36.82 37.94 39.66

GFSSE_sfc_wetblb_024.txt.gz
Wetbulb
67.96 69.67 71.57 72.37 72.32 71.96 71.54 71.15 71.21 71.09 70.95 70.30 69.83 69.66 69.49 69.37 69.23 69.06 68.97 69.45 68.97 68.62 68.45 68.21 67.65 67.61 67.68 67.53 67.54 67.45 67.93 67.95 67.97 68.14 68.35 68.48 69.10 68.89 69.01 69.46 68.73 68.04 69.52
68.86 69.85 70.98 71.86 72.10 71.98 71.68 71.47 71.30 71.07 70.45 70.00 69.38 69.11 68.95 68.59 68.55 68.55 68.21 67.85 67.51 66.96 66.59 66.09 65.68 65.68 65.82 66.06 66.60 66.82 66.75 66.33 66.70 67.09 67.87 67.68 67.34 67.94 68.19 69.67 68.74 68.14 69.28
68.50 70.01 70.55 71.20 71.83 71.78 71.63 71.61 71.55 70.09 70.09 69.70 69.40 68.70 68.13 68.18 68.27 67.62 66.76 66.52 66.19 65.56 65.31 64.94 64.73 64.38 64.19 64.22 64.59 64.86 65.13 66.15 66.11 66.34 66.53 64.23 63.57 67.65 67.08 69.16 68.74 69.44 68.58
68.90 69.35 70.16 70.92 71.55 71.79 71.62 71.35 70.45 70.06 69.80 69.55 68.77 68.09 68.13 67.93 66.95 66.18 65.90 66.14 65.28 64.78 64.45 63.94 63.50 63.03 62.94 63.17 63.50 63.52 63.81 64.79 64.98 65.70 62.94 64.59 65.55 67.71 67.49 67.99 68.24 68.19 68.50
68.21 69.24 70.14 70.18 70.80 71.32 71.02 70.89 70.61 70.71 70.08 68.99 68.20 67.87 68.01 66.98 65.85 65.37 65.03 65.77 64.65 63.89 64.12 64.05 63.29 62.59 62.49 63.10 63.26 63.35 63.22 63.54 62.66 60.90 61.82 63.68 64.35 66.11 68.34 67.17 66.30 67.21 68.01
67.53 68.73 68.95 69.55 70.38 70.90 71.00 70.86 70.60 70.34 69.48 68.81 68.55 67.89 67.17 66.13 65.20 64.82 64.55 64.51 63.97 64.28 64.53 64.17 63.71 63.18 63.03 63.79 63.78 63.17 62.96 63.10 61.02 56.70 59.30 61.79 63.17 66.50 67.95 66.54 66.60 67.02 67.34
68.56 68.84 68.75 68.63 69.71 70.55 70.69 70.26 70.12 69.51 68.97 68.56 68.57 67.92 66.68 65.87 64.99 64.48 64.36 63.86 63.67 63.69 63.81 63.77 63.70 63.79 64.07 64.47 63.71 62.94 62.89 62.76 57.97 55.82 58.20 61.65 59.91 65.14 67.00 66.98 66.06 67.07 66.92
67.84 68.51 68.86 69.44 69.48 69.59 69.58 69.54 68.74 68.35 68.30 68.36 68.19 67.71 66.54 66.13 65.50 64.45 63.95 63.62 63.53 63.48 63.60 63.61 63.73 63.90 64.40 64.37 64.07 62.85 62.18 60.88 58.01 59.61 59.39 61.41 63.80 66.37 67.00 66.98 67.44 67.29 66.86
67.47 67.35 68.03 67.08 68.14 68.18 67.53 67.33 66.99 67.26 67.30 67.51 67.42 66.96 66.63 65.89 65.28 65.00 64.61 64.39 63.95 64.17 64.70 64.68 64.58 64.34 64.01 63.53 63.47 62.20 60.47 60.43 52.57 58.09 60.72 61.65 65.59 66.61 65.77 66.93 67.53 67.61 67.58
64.23 64.03 63.21 63.94 64.78 63.73 64.03 65.83 66.08 66.30 66.23 66.18 66.51 65.86 65.11 64.84 64.95 64.90 63.94 63.72 64.79 64.60 64.76 64.43 64.54 64.24 63.89 63.40 62.64 61.77 58.90 56.48 51.20 52.27 56.33 58.40 64.51 66.11 65.66 65.21 65.53 66.60 66.78
61.27 60.85 60.71 61.28 61.22 60.99 61.63 64.10 65.57 66.09 65.67 65.45 65.27 64.86 62.98 61.35 61.12 61.36 63.36 63.99 64.60 64.23 64.21 64.23 63.47 63.05 61.55 59.97 60.57 60.85 57.18 51.27 50.57 51.24 51.91 59.24 62.94 65.01 65.25 65.28 66.11 65.87 65.67
58.50 59.07 59.14 59.62 59.78 60.08 63.01 62.08 61.68 63.13 62.76 62.42 62.43 62.03 61.23 60.39 60.04 61.58 61.92 62.75 61.74 60.13 60.76 60.20 59.70 58.55 56.34 54.28 54.73 56.42 52.59 52.12 50.80 50.53 50.73 59.40 62.05 63.33 63.06 64.10 65.15 65.03 64.75
57.19 58.11 59.19 59.23 59.55 59.73 60.37 60.71 60.38 61.28 60.98 60.98 61.07 60.48 60.25 60.48 59.61 59.40 56.33 54.04 53.40 56.35 53.27 53.97 53.41 52.74 52.84 52.74 52.85 52.73 52.91 52.65 51.23 50.85 51.58 57.00 58.79 60.68 62.61 62.69 64.32 64.36 63.91
55.87 57.64 58.51 58.33 58.25 58.41 58.85 59.97 59.68 60.24 60.35 60.44 60.78 60.91 59.15 56.79 55.43 52.83 53.24 52.80 52.81 52.80 52.12 51.76 51.48 51.49 50.62 50.90 50.93 50.97 51.26 51.22 51.64 51.43 51.48 56.61 58.25 59.94 61.10 61.69 62.19 64.06 63.97
55.44 56.59 57.53 58.30 57.55 57.77 58.21 58.93 59.04 59.60 60.52 60.36 59.99 58.39 56.59 54.33 53.18 52.83 52.23 51.08 50.96 50.95 50.15 49.68 49.32 48.53 48.25 49.00 48.98 49.17 49.52 50.43 50.99 51.14 50.65 54.84 56.23 57.82 59.50 60.73 61.50 61.86 62.13
56.76 57.06 58.13 58.42 58.02 57.47 56.96 57.96 58.18 58.53 59.09 59.09 56.06 55.96 55.78 53.81 52.95 51.34 49.13 48.84 48.95 48.47 48.52 48.35 47.32 46.57 46.11 46.95 46.70 47.47 48.31 48.87 48.98 49.11 49.92 50.00 54.04 55.39 56.42 58.11 59.25 60.06 60.87
57.44 57.63 57.85 59.10 57.85 57.11 56.69 57.79 58.80 56.83 57.71 55.14 54.56 54.48 54.24 52.72 49.67 47.96 47.56 47.73 47.66 47.71 47.15 46.87 46.38 46.11 44.87 45.62 45.01 46.29 47.37 47.32 47.44 48.21 48.96 49.32 49.61 51.72 53.19 54.24 54.82 56.38 57.67
57.36 58.73 59.81 61.08 59.14 58.34 57.36 56.93 54.57 55.27 54.05 53.34 51.87 50.86 50.53 50.07 48.63 47.70 47.05 46.70 47.33 47.28 46.21 45.64 44.87 44.04 43.23 43.02 43.42 44.82 45.23 46.13 46.47 47.71 47.41 48.12 48.11 46.92 47.39 50.61 51.04 51.84 52.80
58.92 58.95 59.09 59.31 58.23 58.41 57.29 54.31 52.24 51.34 51.49 49.58 48.76 48.35 48.96 48.65 48.85 46.73 47.47 46.74 48.16 45.28 44.43 44.23 43.21 43.23 42.42 43.12 45.25 45.03 44.34 44.07 45.10 45.95 45.74 46.15 46.22 45.15 44.54 46.90 48.17 48.29 49.47
58.75 59.33 59.61 59.04 58.07 56.79 54.27 53.03 52.39 50.81 48.94 49.21 49.37 51.40 47.82 49.35 48.46 48.37 47.08 45.22 44.40 43.38 43.13 42.89 42.36 43.02 42.63 43.18 45.09 44.51 43.34 43.52 44.02 42.42 42.87 44.55 44.12 44.19 43.43 44.07 43.32 44.50 46.52
57.73 58.82 59.05 59.15 57.73 51.93 51.59 50.59 49.51 48.16 49.23 52.04 48.22 48.36 48.63 47.46 45.78 43.92 43.42 43.38 43.54 42.90 42.39 42.98 42.39 41.86 42.49 42.49 41.09 40.82 41.88 42.43 41.46 41.47 41.81 42.26 41.50 42.50 43.00 42.48 42.34 43.48 42.24
56.07 56.09 54.77 54.21 53.02 50.77 51.10 50.61 50.56 50.53 50.96 48.45 46.32 44.59 44.80 44.30 44.22 44.22 42.72 42.71 43.00 42.59 42.07 41.72 40.72 40.48 40.87 41.38 39.29 38.34 35.34 37.62 39.81 40.70 40.38 40.73 39.51 40.55 41.40 41.83 41.44 42.34 41.69
47.74 47.87 49.00 49.11 49.28 50.12 50.77 49.55 48.12 47.86 46.79 44.43 42.74 41.95 42.77 43.99 43.75 43.35 43.15 42.88 42.65 42.29 41.24 40.35 39.64 38.82 37.84 39.15 39.42 38.21 33.64 31.89 35.51 37.74 38.96 38.78 38.43 38.68 39.32 40.08 40.84 41.22 41.34
45.34 46.14 46.72 47.68 48.00 48.40 47.85 47.27 46.61 45.33 44.91 43.31 41.76 41.18 41.58 42.96 43.53 43.90 42.84 43.50 41.35 40.68 39.83 39.90 40.72 38.67 38.19 36.47 38.38 40.32 38.09 37.02 33.94 32.17 37.01 37.88 38.32 38.34 38.64 38.46 39.50 40.06 40.93
45.41 45.14 45.87 47.62 47.60 47.50 47.20 47.07 45.39 43.36 42.50 41.61 40.98 42.05 43.51 44.25 43.93 43.03 42.21 40.31 39.23 39.08 38.36 38.10 37.86 37.34 37.73 36.67 35.83 35.98 35.61 36.04 35.88 34.70 31.05 33.37 36.82 38.87 38.42 38.31 38.51 38.85 39.85
46.57 47.38 46.63 47.80 47.10 47.05 45.97 45.51 44.60 42.60 41.45 40.58 40.87 42.98 43.13 41.47 41.63 40.38 40.42 39.32 39.05 38.59 37.88 37.55 37.37 36.79 36.53 36.16 35.57 35.02 35.02 34.64 33.26 32.57 31.17 31.99 32.98 35.82 37.22 39.38 37.90 38.48 39.32

GFSSE_sfc_wetblb_027.txt.gz
Wetbulb
69.26 71.28 70.90 71.48 72.15 71.72 71.37 71.34 71.06 71.03 71.13 70.44 70.20 69.89 69.77 69.55 69.33 69.57 69.31 69.53 68.87 67.51 67.02 66.35 66.10 66.26 66.63 67.10 67.26 67.20 67.04 67.22 67.36 67.53 68.33 68.60 68.80 68.91 69.07 69.07 69.10 69.25 69.43
70.34 71.48 70.30 71.34 71.89 71.63 71.67 71.37 71.08 70.94 70.65 69.71 69.49 69.25 68.94 69.06 68.77 68.29 68.46 67.99 67.49 65.93 65.68 65.26 64.91 64.62 64.70 64.91 65.08 65.51 65.96 66.28 66.70 67.08 67.52 67.40 66.88 68.70 68.70 68.97 68.98 69.14 69.04
70.32 71.44 70.86 70.24 71.58 71.60 71.70 71.54 71.23 70.34 69.89 69.66 69.10 68.48 68.74 68.21 67.27 66.61 66.95 67.14 66.47 65.14 64.82 64.18 63.84 63.99 64.04 63.98 63.87 64.01 64.78 65.25 65.85 66.60 66.84 68.26 68.07 68.68 68.09 68.99 68.62 68.02 68.16
70.63 71.17 70.43 70.34 71.36 71.69 71.37 70.85 70.59 70.20 69.61 69.20 68.28 68.45 68.00 66.81 66.20 65.92 65.72 66.50 66.16 64.81 64.37 63.82 63.67 64.02 63.94 64.03 63.86 64.03 64.40 64.36 63.71 64.40 67.48 68.29 67.82 67.97 68.92 68.29 67.44 67.80 68.26
70.32 70.80 70.88 70.15 71.07 71.36 71.07 70.48 70.44 70.13 69.66 69.05 68.59 68.29 66.98 65.95 65.64 65.41 65.54 65.97 66.41 65.41 65.18 64.46 64.39 64.08 63.81 63.93 64.08 63.62 63.95 63.93 62.24 64.97 66.72 67.49 68.02 67.18 68.41 67.22 67.05 66.68 67.74
70.00 70.81 70.07 69.61 70.45 70.91 71.06 70.83 70.59 70.05 69.16 68.77 68.71 67.85 66.24 65.33 64.82 64.82 65.56 66.11 65.54 65.32 65.23 64.94 64.72 64.60 64.84 64.80 64.37 63.57 63.00 62.97 63.91 64.55 66.40 66.45 65.99 66.42 67.66 67.51 67.39 67.16 67.89
69.73 70.63 70.98 68.39 69.80 70.59 70.82 70.47 70.16 69.33 68.76 68.64 68.76 67.82 66.79 65.14 64.86 64.72 65.59 65.62 65.27 64.70 64.67 64.56 64.52 64.73 64.89 64.97 63.73 63.15 62.80 61.30 63.21 63.89 66.12 66.80 66.98 67.31 67.32 67.27 67.52 67.58 67.49
68.71 69.97 70.39 69.67 69.67 69.75 70.10 69.78 68.83 68.38 68.21 68.36 68.18 67.66 66.58 65.91 65.78 64.79 64.93 65.23 64.80 64.81 64.78 64.75 64.71 64.53 64.57 64.31 63.50 62.59 61.29 60.29 59.41 60.76 62.97 64.12 66.57 66.84 66.28 67.21 67.22 67.80 67.73
68.79 68.53 69.56 70.12 69.69 68.50 67.99 67.69 67.06 67.39 67.48 67.76 67.53 66.99 66.42 65.68 65.47 65.49 65.24 65.00 64.82 65.36 65.04 64.85 64.48 64.41 63.96 63.27 62.71 61.88 59.65 59.07 59.37 59.13 59.04 60.84 64.05 65.72 65.85 65.68 66.84 66.79 66.74
67.33 67.54 67.90 69.50 69.31 69.31 68.41 66.33 66.19 66.32 66.41 66.47 66.47 65.87 64.91 64.63 64.98 65.17 63.55 64.81 65.04 64.92 64.71 64.34 63.83 62.58 61.29 61.33 61.84 61.31 58.67 58.95 59.92 59.26 59.18 59.53 62.67 63.93 64.82 64.69 65.40 66.10 66.11
65.51 66.55 67.47 68.07 67.89 67.04 66.88 66.57 65.87 66.21 65.83 65.59 65.90 64.80 64.03 65.29 65.09 64.93 63.80 64.46 62.98 62.57 63.06 62.56 61.17 60.10 59.73 60.14 60.25 59.89 59.69 60.83 60.46 60.12 59.50 58.51 61.40 62.59 63.66 64.73 65.32 65.79 65.55
64.38 65.29 65.68 65.83 65.29 64.93 64.74 66.39 66.26 65.95 65.85 65.98 65.74 65.75 65.63 65.44 65.23 64.91 63.02 61.05 60.71 60.51 60.40 59.82 59.08 59.36 59.51 59.28 59.10 59.39 59.07 59.12 59.63 59.81 59.68 58.19 60.15 61.81 62.52 63.13 64.72 64.91 64.77
64.07 63.71 63.46 64.13 64.26 63.95 64.20 65.14 65.01 65.44 65.59 65.70 65.38 65.68 65.55 65.02 65.56 64.61 61.46 61.01 61.13 59.12 59.08 58.98 58.43 57.22 57.06 56.81 56.62 57.05 57.21 57.52 57.62 57.74 58.12 57.52 58.72 60.82 62.18 62.26 62.42 63.40 64.51
61.01 61.63 62.47 62.88 62.94 63.24 63.89 63.84 64.13 64.70 65.08 65.37 65.85 65.71 65.74 64.41 61.67 60.50 59.94 58.92 58.76 58.21 57.54 56.94 56.19 56.20 55.58 54.74 54.29 54.45 55.48 55.65 55.41 55.25 56.52 56.13 57.29 59.08 60.54 61.38 61.74 62.14 62.56
59.12 60.60 61.67 62.08 62.02 62.04 62.91 63.63 64.17 64.42 64.79 65.27 65.37 63.39 62.56 61.33 60.10 59.08 57.44 56.82 56.53 56.84 56.44 55.56 55.04 54.27 53.85 53.74 53.38 53.20 53.40 53.94 54.27 54.44 55.12 54.82 55.41 57.19 58.84 59.66 59.98 60.38 60.49
59.46 60.44 61.87 61.96 62.22 62.11 61.75 62.50 63.03 63.67 63.43 63.14 62.08 62.18 61.24 60.59 58.92 56.52 56.01 55.45 55.61 55.56 55.38 55.06 54.34 53.60 52.78 52.47 52.01 52.63 52.83 53.28 53.57 54.06 54.08 55.14 52.55 52.75 54.03 55.38 55.93 56.38 57.09
60.65 61.48 61.35 61.55 61.95 61.45 61.05 60.65 58.63 59.38 59.37 59.29 59.79 59.44 59.44 57.33 56.16 55.98 55.57 55.11 54.80 54.65 54.39 53.78 52.99 52.57 51.54 51.03 51.49 52.12 52.20 52.80 52.32 52.98 53.76 54.06 53.42 50.70 50.20 51.83 52.25 52.75 53.33
61.17 61.69 62.39 61.72 61.06 60.25 60.33 57.25 56.21 57.06 58.10 57.18 56.78 55.32 55.85 55.59 55.99 54.75 52.63 53.24 53.09 51.50 50.89 51.55 50.87 50.53 50.54 50.81 50.84 51.20 51.63 51.30 51.83 51.98 52.20 51.97 51.51 50.79 50.52 49.46 49.95 50.40 50.76
61.76 61.50 60.84 62.14 61.79 60.19 56.98 54.99 54.12 54.99 54.38 53.42 53.90 54.75 55.21 53.55 53.45 52.07 50.50 51.16 51.75 50.88 51.33 50.71 50.37 50.14 49.05 48.99 48.25 49.68 49.30 49.71 52.19 50.78 49.95 49.67 49.91 49.90 49.66 48.95 48.52 48.47 48.81
61.45 61.25 61.51 62.14 59.69 55.98 55.38 54.72 54.13 53.73 53.32 53.36 53.47 53.55 52.71 52.01 52.22 51.97 51.12 51.23 51.66 50.63 49.80 49.35 48.55 48.57 48.64 47.77 46.29 47.24 47.40 49.83 51.70 49.63 48.16 48.45 48.35 48.35 48.32 48.14 48.05 47.50 47.25
61.19 61.14 61.38 59.21 57.32 54.97 54.98 53.53 53.31 52.95 53.10 52.92 51.47 52.50 51.85 51.24 50.80 51.22 50.85 50.78 50.53 49.06 48.28 48.08 47.34 46.52 46.06 47.50 45.17 44.68 45.99 49.64 48.61 48.12 47.40 47.19 46.94 46.93 47.19 47.17 46.62 46.45 46.61
60.41 61.08 60.71 59.99 56.34 55.07 55.77 56.17 57.15 56.07 54.66 51.77 50.84 50.40 50.51 50.71 50.75 50.06 50.21 49.48 49.03 47.98 47.53 47.07 46.71 45.01 45.48 46.69 43.15 42.63 40.04 42.47 46.85 45.40 45.61 45.10 45.57 46.20 45.17 45.81 45.86 45.80 46.34
59.03 59.33 59.90 58.87 56.07 56.25 56.03 55.94 54.68 53.20 51.17 49.96 49.63 49.39 49.70 49.93 49.41 49.68 49.38 49.28 48.70 48.30 46.26 46.33 46.04 44.82 42.44 44.67 45.28 41.92 38.06 36.73 39.40 42.82 43.02 43.93 43.76 43.67 44.29 44.22 44.66 44.63 45.71
51.90 53.60 55.14 56.07 55.01 54.81 54.42 54.14 53.63 53.67 52.83 51.32 50.27 49.91 49.79 48.59 48.67 48.88 48.69 48.36 48.00 47.80 45.96 45.67 45.80 45.12 43.66 40.71 42.39 43.46 42.22 40.45 35.05 34.15 39.85 40.52 41.69 40.97 42.36 43.30 43.78 44.63 45.30
51.55 52.49 53.35 53.27 53.05 53.10 53.26 53.57 52.65 51.12 49.92 49.36 49.38 48.57 49.30 49.54 48.83 48.47 48.09 47.40 47.34 47.02 46.22 45.20 44.99 43.81 43.61 41.55 40.60 39.84 39.12 39.13 39.26 35.82 32.31 35.33 38.33 39.93 41.28 40.68 42.93 43.78 44.48
52.50 52.74 52.62 52.67 51.93 52.24 52.51 52.18 51.54 50.38 49.58 49.45 49.65 49.84 50.04 49.74 49.30 48.33 46.55 46.73 46.75 45.72 44.82 44.38 44.35 43.43 42.59 42.04 41.32 39.98 37.62 35.91 35.05 34.82 32.78 33.13 33.53 36.07 38.21 39.98 40.22 42.48 43.16

GFSSE_sfc_wetblb_030.txt.gz
Wetbulb
70.24 71.39 71.54 71.89 72.18 71.80 71.55 71.28 71.29 71.36 71.28 70.65 70.55 70.33 69.99 69.60 69.68 69.43 69.34 68.84 68.16 66.59 66.22 65.66 65.23 65.07 65.08 65.36 65.82 66.33 66.80 67.04 67.40 67.87 68.19 68.41 68.82 69.15 69.59 69.24 69.41 69.64 69.04
70.98 71.16 70.63 71.53 71.82 71.56 71.49 71.48 71.29 71.21 70.76 70.06 69.89 69.47 69.30 68.94 68.53 68.16 68.38 67.90 66.88 65.65 65.15 64.62 64.51 64.45 64.64 64.65 64.91 65.39 65.94 66.15 66.91 67.32 67.84 68.41 69.38 69.33 68.90 68.87 69.13 69.11 68.41
70.96 70.87 70.81 70.76 71.60 71.56 71.44 70.93 70.91 70.25 69.77 69.62 69.09 69.04 68.34 67.43 66.96 66.69 67.53 67.39 66.46 64.81 64.33 64.72 65.06 65.06 65.05 64.53 64.77 65.20 65.51 65.16 65.31 66.40 68.36 68.88 69.22 69.19 68.99 68.31 68.29 68.04 67.55
70.96 70.93 71.18 70.55 71.23 71.67 71.53 71.44 71.01 70.02 69.60 68.85 68.82 68.17 67.14 66.65 66.28 65.89 66.06 66.71 66.73 65.14 64.70 65.25 64.97 64.51 64.67 64.67 64.32 64.29 65.25 64.68 64.04 66.04 68.67 68.89 68.35 68.29 68.65 67.60 67.03 66.88 67.90
70.73 71.42 71.59 70.37 70.96 71.27 71.09 70.95 70.67 70.28 69.71 69.29 69.06 67.11 66.15 65.84 65.42 65.31 66.35 67.15 66.97 65.47 65.60 65.51 64.86 64.06 63.58 63.97 64.11 63.52 63.38 64.78 65.20 67.11 68.23 68.20 68.22 68.12 68.16 67.59 67.96 67.91 67.48
70.60 71.49 70.08 69.90 70.26 70.88 70.86 70.81 70.37 69.79 69.20 69.15 68.59 67.19 65.60 65.26 65.07 65.12 66.56 67.00 66.09 65.74 65.65 65.37 65.13 64.67 64.84 64.44 63.74 62.96 62.46 62.94 64.58 65.61 67.11 67.58 68.19 67.90 67.82 67.19 68.24 68.12 67.76
69.98 71.45 71.37 67.89 69.08 70.94 70.91 70.25 69.74 69.34 69.04 69.03 68.41 67.54 66.42 65.03 65.07 65.13 66.00 66.15 65.75 65.22 65.15 65.17 65.15 65.02 64.78 64.52 62.85 61.76 61.78 61.94 61.50 62.92 64.58 66.56 67.01 67.10 67.10 66.81 66.59 67.02 66.99
70.44 70.60 70.74 69.30 69.26 70.18 70.35 69.87 68.69 68.57 68.84 68.67 68.19 67.37 66.19 65.75 65.86 65.08 65.13 65.15 65.24 65.18 65.25 64.93 64.69 64.61 64.21 63.91 63.01 61.12 60.66 61.00 60.95 60.04 60.53 62.93 64.94 65.75 65.96 66.08 67.07 66.92 66.22
70.24 70.21 70.86 70.82 70.29 68.87 68.47 67.81 67.47 67.80 68.10 68.05 67.81 67.04 66.38 65.94 65.97 65.54 65.38 65.38 65.28 65.39 65.01 64.53 63.15 62.88 62.63 62.33 62.00 60.91 59.76 60.23 62.38 61.34 60.35 60.80 62.96 64.08 64.46 64.32 65.66 65.90 65.25
69.24 69.78 70.23 69.91 69.95 69.83 68.90 66.81 66.67 66.69 66.82 66.99 66.65 65.64 64.98 65.27 65.36 64.51 65.32 64.90 64.11 64.83 64.05 62.72 61.90 61.43 61.82 61.86 61.04 60.78 60.29 61.53 62.01 61.91 61.48 61.84 61.75 62.86 63.57 64.02 63.96 64.72 64.94
67.70 68.35 69.55 68.96 68.80 68.55 67.36 66.89 66.01 66.28 66.32 66.10 65.93 65.11 64.41 66.72 66.47 65.72 63.79 63.09 63.15 62.94 62.10 61.44 60.70 60.80 61.19 61.04 60.39 60.24 61.41 60.86 61.33 61.17 61.56 59.97 61.02 62.86 63.37 63.39 63.47 64.89 65.44
66.08 68.09 68.91 68.57 67.95 66.74 65.04 66.39 66.54 66.08 67.21 67.49 67.43 67.50 68.46 68.33 67.90 65.80 62.88 61.86 60.96 60.85 60.57 60.24 60.03 60.82 60.82 60.26 59.86 60.47 59.48 59.87 59.96 60.05 60.90 58.34 59.53 61.12 62.19 62.72 63.01 63.17 64.53
67.53 66.58 66.92 67.17 66.48 65.13 65.21 65.82 65.95 67.47 68.04 68.35 68.54 68.79 68.99 68.72 69.12 67.88 64.97 64.74 64.44 61.66 62.57 61.42 60.50 59.62 59.76 58.76 57.99 57.96 57.94 58.13 57.98 57.72 59.42 56.98 57.87 59.54 60.91 61.67 62.08 62.39 62.49
64.60 64.01 64.32 65.11 65.65 65.77 65.45 65.90 66.73 67.76 68.28 68.62 69.29 68.80 69.00 67.83 67.62 66.03 64.86 64.01 63.92 62.40 61.29 60.40 59.95 59.36 58.55 57.77 57.24 57.04 57.12 57.00 56.87 56.51 58.19 55.91 56.65 57.97 59.59 60.12 59.90 60.07 60.03
62.12 63.06 63.59 64.50 64.72 65.35 66.09 66.52 67.23 68.18 67.95 67.80 68.02 67.25 68.12 67.00 65.45 64.31 63.08 62.64 62.39 62.38 60.80 60.11 59.09 57.97 57.46 57.04 56.84 56.53 56.13 56.40 56.60 56.43 56.54 55.12 54.52 55.35 56.59 57.15 57.44 57.15 57.03
62.65 63.46 64.20 64.18 64.98 65.46 66.14 66.93 66.70 66.61 67.14 67.06 64.36 63.62 63.51 64.74 64.46 62.20 61.09 60.87 61.54 60.50 59.35 58.14 57.27 56.69 56.45 56.40 56.25 56.16 56.07 56.08 56.06 55.80 55.64 57.01 52.43 51.68 53.06 54.10 54.76 54.83 54.71
63.17 64.28 64.43 64.88 65.43 65.74 66.24 65.64 64.16 63.25 63.52 62.87 62.15 61.06 61.99 61.86 60.64 60.78 61.21 59.98 57.21 56.80 56.38 55.75 55.83 56.47 56.31 56.13 55.61 55.44 55.19 55.30 54.38 54.45 54.61 55.02 55.80 51.22 50.39 51.03 51.78 52.08 52.31
64.10 64.31 64.88 64.86 65.35 64.53 62.59 61.69 60.98 60.27 60.79 60.57 59.91 59.32 58.96 58.75 58.65 57.84 57.16 55.32 55.62 56.23 56.24 55.77 55.46 54.78 54.19 53.77 52.95 52.16 52.58 52.57 52.39 53.83 53.80 54.13 53.68 53.13 53.25 50.85 50.01 50.42 50.01
64.52 64.83 64.30 65.28 63.86 60.36 59.22 58.66 60.22 58.68 58.27 57.98 56.93 56.59 57.01 54.91 55.22 55.75 56.25 55.72 56.19 55.80 55.54 54.29 53.15 52.03 50.75 51.04 50.33 49.74 50.83 50.44 50.43 51.65 52.03 52.51 52.20 51.85 51.65 51.89 50.70 50.00 48.59
65.20 65.15 64.97 64.64 62.38 60.96 57.26 57.58 57.78 58.20 57.26 57.46 57.08 56.26 55.65 56.00 56.18 56.37 55.76 55.71 55.43 54.50 52.70 51.65 50.88 51.09 50.08 49.57 48.36 48.02 49.66 49.93 50.79 51.93 51.28 50.26 50.99 50.84 50.76 49.93 49.94 49.70 49.21
64.61 64.45 64.79 63.56 61.08 60.90 59.09 56.05 56.46 55.31 55.17 54.96 56.32 56.42 56.09 55.63 55.25 55.94 56.29 54.98 53.94 52.09 51.18 51.14 50.15 49.32 48.65 49.74 47.96 47.28 48.06 49.63 51.23 51.17 50.39 49.52 49.33 48.75 49.24 48.89 48.61 48.40 48.36
63.57 63.84 64.42 63.34 63.93 63.51 62.51 60.72 60.03 58.89 58.92 58.08 56.54 55.57 55.35 55.18 55.14 54.83 54.01 53.65 52.30 51.51 51.28 50.30 49.25 47.31 47.33 48.29 45.49 44.97 42.19 45.17 47.55 49.61 47.82 47.91 47.85 48.10 47.16 47.38 47.17 47.53 47.84
62.83 63.26 63.32 64.30 63.58 62.51 61.35 60.22 59.86 58.73 56.95 55.48 55.18 55.07 54.97 54.65 54.51 54.35 53.58 52.81 52.43 51.11 49.31 49.53 48.80 47.00 44.70 46.48 47.02 44.00 40.46 38.97 41.96 44.93 45.34 45.71 45.94 45.13 45.54 45.80 45.94 45.88 47.15
63.37 64.28 64.17 62.58 60.77 60.13 60.23 59.56 58.12 58.53 57.04 57.66 57.66 56.21 54.95 53.98 53.65 53.03 52.14 52.15 51.64 51.07 50.03 48.85 47.78 47.23 46.11 43.53 44.98 45.18 44.70 42.74 37.92 36.76 41.83 42.47 43.78 43.22 43.61 43.50 44.34 44.22 45.42
59.87 61.32 62.74 60.97 59.30 58.93 58.37 58.04 58.16 56.52 55.99 55.38 55.10 53.29 54.59 54.51 53.17 52.40 52.06 51.83 51.31 50.82 49.98 48.84 47.64 47.41 46.17 44.11 43.25 42.63 42.06 41.49 41.21 37.72 34.77 37.93 40.89 41.80 42.31 42.35 42.05 42.77 43.69
58.10 58.83 59.48 58.18 57.43 57.58 57.59 57.29 56.65 55.54 53.98 54.04 53.48 52.12 51.50 51.68 52.06 52.22 52.24 51.90 51.44 50.50 49.35 48.26 47.85 46.93 45.31 44.24 43.09 41.23 39.80 38.55 37.98 37.37 35.55 35.92 36.05 38.73 40.48 41.14 41.17 41.65 41.97

GFSSE_sfc_wetblb_033.txt.gz
Wetbulb
68.92 70.39 71.51 72.08 71.89 71.74 71.54 71.44 71.39 71.49 71.42 70.85 70.55 70.29 69.85 69.63 69.22 69.24 68.75 68.33 67.79 66.04 65.46 65.06 65.09 64.95 65.03 65.81 66.01 66.41 66.69 67.10 67.62 67.82 68.05 69.01 69.92 69.56 69.23 68.88 69.54 67.72 69.26
69.98 70.37 71.01 71.74 71.66 71.56 71.41 71.39 71.42 71.45 70.74 70.21 69.97 69.55 69.29 68.73 68.71 68.21 68.23 67.70 66.93 65.20 65.43 65.84 65.79 65.80 65.78 65.87 65.85 66.12 66.02 65.86 66.53 67.53 68.07 69.37 69.61 69.40 68.90 68.07 69.26 68.24 68.59
70.52 70.50 70.49 71.05 71.50 71.45 71.31 71.02 70.95 70.31 70.12 69.56 69.38 68.76 67.82 67.18 66.78 67.08 67.41 67.23 66.39 65.27 65.92 65.63 65.34 65.49 65.23 64.81 64.89 65.85 65.89 65.34 65.73 67.26 69.19 67.11 68.16 69.07 68.13 68.39 68.12 67.78 68.40
70.78 70.10 69.93 70.69 71.36 71.50 71.33 71.21 70.83 69.85 69.44 69.17 68.24 67.24 66.84 66.32 65.97 65.75 66.41 67.56 66.72 65.93 65.68 64.90 64.34 64.04 63.82 63.82 63.61 63.56 64.35 65.65 66.69 67.40 67.45 67.34 66.92 68.46 68.01 68.51 68.11 67.44 67.85
69.64 70.11 70.81 70.52 70.90 71.40 71.32 70.84 70.59 69.86 69.60 69.25 68.12 66.49 66.15 65.61 65.56 66.24 67.20 67.37 67.19 65.98 65.70 65.35 64.62 63.74 63.29 63.74 63.55 63.43 63.89 64.62 65.11 65.49 66.70 67.36 66.43 67.64 67.57 66.81 67.43 67.57 67.32
70.05 70.66 69.29 69.19 70.31 70.90 71.16 70.58 69.72 69.46 69.50 68.63 67.61 66.87 65.49 65.46 65.84 66.28 67.34 67.30 66.22 65.77 65.56 65.33 65.16 64.77 64.64 64.44 63.48 62.90 63.24 63.50 63.37 63.97 65.29 66.70 66.97 67.36 67.62 66.30 67.00 66.93 67.36
70.24 70.28 70.33 68.76 69.53 70.47 70.66 69.83 69.37 69.25 69.36 68.45 67.73 66.98 65.79 65.43 65.56 65.83 66.13 65.82 65.47 65.40 65.11 65.16 64.98 64.65 64.38 64.02 63.06 62.79 62.80 62.89 61.44 59.76 61.76 63.73 64.57 66.32 66.44 66.30 65.85 65.52 65.64
68.66 69.07 69.78 69.30 69.26 69.87 70.14 69.29 68.84 68.95 68.98 68.33 67.73 66.90 65.68 65.59 65.82 65.35 65.51 65.48 65.36 65.38 64.93 63.87 64.05 63.59 63.48 63.16 62.71 62.33 61.79 62.37 62.59 61.54 60.73 61.70 64.32 65.14 64.97 64.71 66.19 66.18 65.11
68.50 68.45 69.33 69.09 69.50 68.84 67.87 67.49 67.53 68.08 68.12 68.10 67.62 66.67 66.28 66.32 66.36 66.04 65.81 65.49 65.35 65.24 64.15 63.17 62.88 62.64 62.37 62.12 62.07 62.00 61.95 62.54 62.28 61.91 61.61 62.00 62.92 63.82 64.20 64.50 64.56 65.23 64.85
68.58 69.73 69.56 69.33 68.83 68.36 67.92 66.75 66.88 67.15 67.14 67.00 66.28 65.59 65.13 65.11 65.00 65.61 65.25 64.04 64.82 64.11 62.92 62.20 62.00 62.10 62.25 61.85 61.47 61.04 61.05 61.90 61.38 61.10 62.32 60.72 62.24 63.56 64.12 63.99 63.83 63.88 65.47
68.24 68.19 68.40 67.50 68.07 67.64 66.34 66.33 66.54 67.10 66.69 66.08 65.15 65.10 64.39 65.82 65.92 65.85 62.98 63.75 63.32 62.53 61.60 60.90 61.04 60.80 61.55 62.23 60.80 59.97 60.99 60.12 60.19 59.81 61.13 60.25 60.57 61.91 62.73 63.20 63.47 63.46 63.63
66.57 67.18 67.97 67.67 67.19 66.62 64.24 65.30 65.43 66.06 66.21 66.74 66.58 66.50 67.33 67.10 67.08 65.28 62.85 62.64 61.92 61.25 61.16 60.47 61.14 60.58 62.07 60.33 59.93 60.95 59.25 59.21 58.97 58.63 59.48 58.92 58.60 59.96 61.31 62.19 62.54 62.91 63.02
66.98 65.53 66.56 67.14 66.71 64.82 64.97 65.33 65.62 66.12 67.02 67.34 67.78 67.92 67.89 67.22 67.17 66.66 64.67 63.77 64.48 62.37 62.85 61.22 61.67 60.54 60.41 59.67 59.08 59.13 58.56 58.74 58.18 58.10 58.96 57.86 57.33 58.02 59.79 60.59 60.70 60.82 60.71
64.76 65.07 65.59 65.17 65.07 65.64 64.84 65.12 66.47 66.33 67.19 67.23 67.83 68.09 67.83 67.29 66.83 65.49 64.09 64.37 63.31 62.55 61.87 61.14 60.84 60.72 60.03 59.40 58.66 58.37 58.28 57.77 57.54 57.34 58.37 57.32 56.91 56.74 57.61 58.18 58.25 58.18 57.87
62.99 62.86 63.50 64.46 65.21 65.73 66.18 66.84 67.37 67.51 67.56 67.94 68.25 67.70 66.97 65.83 66.58 64.82 63.60 62.48 61.94 61.45 61.13 60.84 59.70 58.81 58.90 58.58 58.39 57.91 57.40 57.36 57.22 56.93 56.77 55.82 55.15 55.15 55.32 56.16 56.36 56.34 56.02
62.78 63.10 63.79 64.36 65.61 66.58 66.91 67.57 68.03 68.19 67.47 67.18 67.10 66.76 64.77 63.90 64.18 63.57 63.15 61.39 61.37 60.45 59.37 57.56 56.93 57.31 57.83 57.86 57.29 57.30 56.33 55.72 55.96 56.00 55.38 55.82 54.45 53.80 53.04 52.90 53.63 54.18 54.27
63.43 64.15 64.04 65.23 66.33 67.03 66.66 65.08 64.31 63.73 62.97 62.80 64.63 64.56 63.53 63.61 61.91 62.72 61.10 57.13 57.07 57.73 57.56 57.93 57.55 57.60 56.79 55.97 54.84 54.64 53.89 53.46 53.56 53.11 54.19 54.68 54.74 52.78 52.05 51.79 51.39 51.96 51.97
64.67 64.31 65.10 65.31 66.40 65.75 64.26 62.45 62.48 61.88 62.12 62.02 62.02 62.10 60.52 59.34 58.89 57.13 57.10 58.21 57.15 57.24 56.85 56.66 55.71 54.02 53.50 53.11 52.79 52.85 51.43 51.36 52.25 52.22 51.94 53.66 53.51 52.87 52.63 51.37 51.00 50.83 50.66
65.29 65.28 65.03 66.04 64.81 63.53 61.34 60.73 61.28 61.21 59.77 61.09 58.99 58.87 57.51 56.40 57.40 57.64 57.08 57.80 57.88 57.32 56.58 54.71 53.53 52.92 51.52 51.19 50.20 50.43 51.16 50.18 51.07 50.60 51.44 52.72 52.74 51.88 51.57 52.42 52.80 52.10 49.14
65.44 66.20 65.70 65.27 64.12 62.83 62.32 60.85 60.44 59.69 59.45 58.64 57.83 58.04 57.15 57.67 58.26 58.45 57.77 57.89 56.63 55.60 54.56 53.45 52.60 51.71 50.28 49.17 48.30 48.85 50.30 50.29 50.56 51.15 52.25 51.99 51.29 51.27 50.59 50.07 49.81 49.31 51.09
65.89 65.57 65.16 64.65 64.08 62.98 62.71 61.24 60.64 59.43 58.80 58.30 58.14 58.18 58.60 58.21 57.52 58.06 57.74 56.51 55.57 54.07 53.03 53.01 51.10 49.37 48.41 49.22 47.00 46.95 47.81 50.45 51.30 50.97 50.88 50.47 49.25 49.36 49.52 48.57 48.28 48.03 48.01
65.14 64.68 63.86 63.82 63.97 63.43 63.92 62.66 61.84 60.36 59.68 59.59 59.10 58.47 57.97 57.42 57.13 56.70 55.44 54.64 54.19 52.65 52.03 51.25 50.37 48.33 47.75 48.26 44.64 44.58 41.56 43.78 47.03 48.34 48.28 47.88 48.31 47.75 47.21 46.94 46.81 46.60 46.67
62.90 63.31 63.18 63.70 63.55 64.21 63.59 62.10 61.26 61.10 59.77 57.77 57.09 56.95 57.05 56.67 56.16 55.12 54.41 53.56 52.76 51.79 49.99 50.58 49.92 47.99 45.27 46.54 47.12 43.67 39.53 38.28 41.42 44.63 45.38 45.47 46.60 45.28 45.64 45.37 45.09 44.76 45.10
62.48 63.93 64.94 64.77 64.46 63.09 62.14 60.68 59.77 58.24 55.93 57.73 58.30 57.95 56.65 55.78 54.91 54.03 53.33 52.99 52.42 51.69 50.67 50.16 49.44 48.37 47.05 44.05 45.23 45.29 45.23 43.36 38.11 36.54 42.06 43.11 44.00 43.56 45.03 43.89 43.60 43.68 43.32
64.42 64.26 64.63 63.54 61.84 61.13 60.91 60.50 59.66 58.09 58.87 58.09 57.62 55.81 55.97 55.79 54.97 53.55 53.18 52.93 52.00 51.32 50.88 50.29 49.40 48.06 47.04 44.99 43.88 42.95 42.62 41.95 41.31 37.92 35.05 38.04 41.28 41.80 42.21 42.72 42.66 42.89 42.90
62.85 63.43 63.00 60.73 59.78 60.19 59.71 59.45 58.61 57.68 56.31 55.47 54.59 53.27 52.07 51.90 52.14 52.62 52.15 51.99 51.69 50.65 50.32 49.74 49.38 47.57 46.77 45.59 44.58 43.00 40.78 38.57 37.50 37.30 35.88 36.43 37.11 39.86 41.44 42.35 42.74 42.73 43.37

GFSSE_sfc_wetblb_036.txt.gz
Wetbulb
66.75 69.84 71.59 72.04 71.97 71.77 71.42 71.42 71.45 71.50 71.51 71.35 70.95 70.68 70.04 69.57 69.06 68.82 68.47 67.82 67.47 66.32 66.55 66.71 66.36 66.47 66.72 67.10 67.12 66.92 66.82 66.99 67.55 68.76 69.86 69.81 69.54 69.25 68.58 69.13 69.25 66.92 70.06
67.77 69.76 71.00 71.31 71.53 71.64 71.58 71.55 71.24 71.19 71.06 70.03 70.02 69.73 69.13 68.86 68.60 68.16 67.79 67.43 67.60 66.68 66.70 66.33 66.23 66.04 65.96 65.73 66.03 66.70 66.67 67.23 67.60 68.75 69.25 68.89 69.23 68.63 67.87 68.74 68.90 68.08 69.47
67.44 69.32 70.05 70.80 71.33 71.50 71.61 71.42 71.17 70.72 69.86 69.42 68.79 69.01 68.43 68.09 67.50 68.01 67.74 67.37 67.72 65.99 65.50 65.07 65.03 64.86 64.36 63.92 64.32 64.69 65.60 66.38 66.78 67.76 69.11 66.30 66.33 68.63 68.45 68.83 68.61 68.93 69.03
68.42 68.37 69.52 70.80 71.24 71.34 71.08 70.89 70.49 69.74 69.25 68.88 68.35 68.09 67.87 66.88 66.74 67.13 67.65 67.60 67.47 65.95 65.59 64.99 64.46 63.78 63.48 63.45 64.31 64.93 65.40 65.55 65.44 66.24 66.05 65.75 66.03 68.20 67.43 68.66 68.16 67.40 68.59
68.32 68.95 70.05 70.17 70.59 71.08 70.81 70.46 69.98 69.87 69.01 68.20 67.87 67.07 66.18 66.57 66.96 66.90 67.67 67.43 67.26 65.86 65.65 65.56 65.12 64.39 64.09 64.57 64.60 64.62 64.85 64.79 64.55 66.09 64.09 64.45 64.50 67.44 66.93 65.95 65.73 66.22 67.55
68.46 69.51 69.21 69.00 70.31 70.78 70.77 70.24 70.04 69.43 68.22 67.57 67.19 67.16 66.23 66.77 66.95 66.83 67.41 67.01 66.17 65.87 65.74 65.39 65.02 64.95 65.27 64.57 64.29 64.18 63.89 63.79 64.32 59.96 61.21 64.03 63.88 67.10 66.94 66.27 66.76 66.61 66.61
68.68 68.65 68.78 68.46 69.63 70.33 70.12 69.67 69.52 68.90 67.87 67.44 67.04 67.21 66.99 66.22 66.13 66.33 66.99 66.88 66.09 65.29 64.91 64.79 64.52 64.23 64.69 64.25 63.88 63.30 63.23 63.04 60.72 58.94 59.54 61.28 62.27 65.89 65.50 65.09 65.96 66.27 65.94
67.10 67.88 68.24 69.26 69.68 69.39 69.43 69.16 68.76 68.33 67.65 67.19 66.94 66.85 66.81 66.34 66.69 66.49 66.64 66.62 66.16 65.41 64.32 63.86 63.91 63.71 63.74 63.03 62.83 62.44 62.29 62.48 60.03 58.29 59.45 60.38 64.25 64.97 64.97 64.92 66.08 65.89 65.63
67.44 66.67 67.41 68.75 68.97 67.77 67.14 67.32 67.57 67.51 67.38 67.08 66.85 66.73 66.70 66.52 66.60 66.63 66.45 66.12 65.57 64.78 63.83 63.13 63.03 62.98 62.89 62.28 61.96 61.31 61.42 62.10 58.82 59.29 59.69 59.38 64.71 64.30 64.73 64.49 64.38 65.04 65.91
66.18 67.01 66.85 67.87 67.92 66.00 65.91 66.52 66.72 66.58 66.24 65.78 65.72 65.36 64.92 64.87 65.66 66.03 64.86 65.31 65.16 63.76 62.92 62.04 61.59 61.54 62.04 61.33 61.19 60.51 60.97 61.15 56.60 55.83 57.48 58.87 63.00 62.88 63.45 63.57 64.07 64.19 64.63
65.11 65.90 66.49 66.61 66.32 65.27 65.58 66.27 66.33 66.66 65.87 65.15 64.80 64.89 63.87 63.22 64.00 63.49 63.55 64.21 63.84 62.96 61.75 60.98 61.53 60.35 61.95 61.54 61.14 61.42 60.67 56.07 56.18 55.12 55.75 60.91 60.70 60.77 61.64 62.79 63.08 63.33 63.25
62.89 64.83 65.65 66.57 65.28 64.20 63.57 64.36 64.33 64.79 63.69 63.59 63.73 63.69 64.23 65.45 63.63 62.72 62.18 62.91 62.61 61.57 60.86 60.51 60.70 61.69 60.94 56.81 56.46 59.06 55.50 56.01 55.24 54.88 54.72 60.10 59.65 59.46 60.04 60.93 61.11 61.19 60.91
62.67 64.18 65.12 65.10 64.68 62.47 61.97 63.38 64.00 64.12 64.88 65.60 65.64 66.14 66.49 66.32 64.48 62.83 60.33 59.43 60.01 61.25 59.75 58.58 58.91 58.01 57.98 56.98 56.07 55.75 55.54 54.80 54.21 54.13 56.24 59.13 58.44 58.56 58.67 58.90 58.86 58.86 58.15
62.73 63.62 64.12 64.27 64.56 63.06 63.41 63.49 64.88 65.28 64.88 66.27 66.17 66.31 65.87 65.41 64.90 62.88 62.17 62.03 60.40 60.02 58.34 58.89 57.48 57.10 56.34 56.69 55.94 55.80 55.50 54.42 53.44 53.40 54.42 57.92 57.30 56.96 57.32 57.39 57.39 57.15 56.91
62.11 62.63 62.78 63.92 64.28 64.64 64.99 66.02 65.50 65.22 66.16 66.31 65.98 66.12 65.66 64.16 64.01 62.91 61.48 60.81 59.67 58.53 56.04 54.84 54.83 54.71 55.79 55.86 55.74 55.08 53.93 52.65 52.06 52.65 52.19 56.50 56.58 55.48 55.70 55.80 55.48 55.47 55.21
61.79 61.96 62.67 63.04 64.74 65.13 65.74 65.27 64.80 65.84 66.26 65.20 64.84 64.28 63.59 62.63 62.39 62.28 58.20 56.61 56.28 55.21 55.44 54.42 55.11 55.23 54.16 53.95 52.23 52.65 52.69 51.14 49.53 51.00 50.36 51.59 55.64 55.29 54.18 53.99 53.62 53.44 53.41
61.26 62.00 62.16 63.39 64.97 65.72 65.38 64.14 62.42 61.93 61.80 62.55 63.40 63.51 62.95 61.84 59.58 58.32 56.55 55.48 54.81 54.89 55.61 55.29 54.50 53.16 51.59 51.78 50.49 50.43 50.30 48.24 48.29 49.72 48.79 48.90 52.03 54.43 53.57 51.80 51.80 52.17 52.79
61.98 61.54 63.31 64.84 65.46 63.55 62.50 61.73 61.39 61.78 61.37 61.24 61.22 61.00 58.79 57.89 57.72 56.84 55.51 55.35 54.69 55.29 54.17 53.55 51.59 50.16 49.42 48.64 47.23 47.10 47.34 47.79 47.87 48.54 48.04 49.09 49.35 49.95 52.40 52.58 52.62 51.66 51.69
62.64 63.02 63.60 65.15 63.39 61.66 60.88 61.08 61.25 61.00 60.31 59.62 58.38 57.74 56.99 56.88 56.96 55.71 55.20 55.37 55.52 54.65 53.24 51.68 50.32 49.12 46.50 45.72 45.57 44.81 45.93 46.04 47.00 48.68 48.23 48.68 48.72 48.47 47.73 51.85 53.07 52.15 50.62
63.88 64.18 64.41 64.36 62.91 62.30 61.60 61.41 60.65 59.75 59.31 58.96 57.74 57.11 56.32 56.07 57.27 56.69 55.71 54.91 54.19 52.65 51.59 50.51 48.74 47.61 46.00 45.21 46.98 45.66 44.76 45.60 45.86 46.25 46.77 49.65 48.84 48.34 46.63 46.41 44.62 45.58 50.26
64.65 64.12 64.05 62.62 62.07 61.06 61.16 60.13 59.59 58.15 57.63 57.21 57.27 57.28 57.38 56.86 56.43 55.39 55.01 53.94 52.53 51.28 49.95 49.34 47.23 45.68 44.78 45.12 42.24 42.08 42.72 43.93 43.23 44.22 43.82 43.95 45.06 46.48 44.70 44.66 43.55 42.58 43.17
63.84 63.96 63.20 62.63 61.79 62.01 62.34 61.56 60.88 58.95 58.09 57.55 57.57 57.19 56.82 56.14 55.84 55.25 52.75 52.04 51.47 49.79 48.57 47.85 46.55 44.84 43.74 44.26 40.63 39.72 36.67 39.20 41.57 42.89 42.02 42.94 42.04 43.27 43.09 43.20 42.39 42.51 41.05
63.44 63.05 62.76 62.50 62.38 62.55 62.15 61.36 59.87 59.16 58.11 56.12 55.31 54.76 55.56 55.73 55.22 53.22 52.40 50.91 49.92 48.81 46.83 46.84 46.07 44.71 41.36 42.42 43.17 39.34 35.50 33.22 37.42 39.70 39.72 40.44 40.30 40.11 40.80 41.11 40.75 41.99 40.78
63.19 63.29 63.41 62.60 63.03 63.38 61.81 59.52 57.99 56.72 54.82 55.53 54.97 55.52 54.63 54.46 53.64 53.06 51.89 50.49 49.50 49.09 47.58 46.87 46.60 44.99 43.01 40.66 41.38 43.50 40.52 38.51 33.81 32.13 36.34 37.76 38.99 39.21 38.33 38.45 38.71 39.63 39.74
62.06 62.09 62.59 63.19 62.94 61.85 60.62 59.45 58.49 57.57 56.86 56.23 55.39 54.15 54.54 54.05 53.73 52.90 51.50 50.37 49.12 48.79 47.94 47.42 46.56 45.67 44.60 41.74 39.98 39.18 38.66 37.97 36.67 32.96 30.81 33.00 36.85 37.55 37.61 37.43 37.55 37.78 39.21
62.66 62.88 62.87 61.96 60.10 59.93 59.50 59.28 58.45 56.80 55.26 53.95 53.44 52.29 51.40 50.34 49.91 50.34 49.62 48.40 47.85 47.23 46.55 45.96 45.64 44.81 43.01 42.09 41.77 40.10 38.75 36.93 35.25 34.07 31.46 32.03 32.85 35.04 36.28 36.58 36.79 36.96 37.55

GFSSE_sfc_wetblb_039.txt.gz
Wetbulb
68.87 71.02 71.76 72.29 72.13 71.91 71.66 71.39 71.40 71.17 71.05 70.95 70.13 69.77 69.36 68.95 68.58 67.95 68.02 68.28 68.30 67.20 67.13 66.95 66.68 66.54 66.66 66.79 67.03 67.30 67.39 67.66 68.98 69.67 69.63 69.36 69.07 68.40 68.18 68.80 69.14 67.67 69.58
69.77 70.92 70.98 71.63 71.65 71.60 71.58 71.35 71.04 70.67 70.41 69.52 69.52 68.98 68.75 68.53 68.02 67.83 68.48 68.21 67.55 66.20 66.20 65.87 65.34 64.93 64.93 64.72 64.87 65.89 66.43 66.94 67.64 69.15 69.04 68.82 68.98 68.94 68.64 68.62 68.77 68.36 69.30
69.51 70.43 70.56 70.69 71.28 71.61 71.60 71.34 70.88 70.48 69.67 68.92 68.65 68.41 68.22 68.15 68.00 68.31 68.15 67.60 67.48 65.78 65.23 64.75 64.49 64.54 64.60 64.59 65.51 66.26 66.50 66.69 66.27 67.87 68.55 65.82 65.32 67.90 67.89 68.75 68.33 68.89 68.51
69.17 69.35 69.75 70.45 70.97 71.29 70.98 70.46 70.26 69.48 69.02 68.70 68.19 67.68 68.39 67.83 67.63 68.19 67.95 67.32 67.16 66.15 65.54 65.17 64.90 64.62 64.41 64.84 65.70 65.85 65.71 66.81 67.12 67.66 65.16 64.50 65.83 67.31 66.35 65.73 65.71 66.37 67.44
67.41 68.82 70.16 70.27 70.38 70.62 70.39 70.05 69.46 68.82 68.52 67.97 67.56 67.78 67.41 67.29 67.34 67.20 67.70 67.13 66.90 65.79 65.49 65.49 65.09 64.21 64.46 64.25 64.18 64.51 64.79 65.15 66.60 64.59 62.24 62.91 63.35 66.31 66.90 65.95 65.16 65.11 65.80
67.67 68.84 68.77 69.28 69.62 70.23 70.24 69.60 68.77 67.96 67.30 67.29 67.51 68.04 67.30 67.27 67.15 66.71 67.23 67.02 66.04 65.46 65.21 64.76 64.10 63.86 64.28 63.81 63.61 63.61 63.39 64.23 62.02 58.67 59.88 63.29 62.87 66.16 65.64 65.39 66.02 65.58 65.88
67.99 68.66 68.49 67.83 68.94 69.83 70.11 69.24 68.17 67.67 67.18 67.33 67.67 67.68 67.53 66.57 66.40 66.29 67.00 66.72 65.73 64.72 64.38 64.13 63.87 64.14 63.96 63.89 63.60 62.73 62.68 63.28 57.14 56.48 59.19 60.31 62.32 65.49 65.08 65.12 64.87 65.12 65.01
67.05 67.20 66.94 68.05 68.63 68.89 69.08 68.20 67.28 67.02 66.99 66.97 67.16 67.15 66.92 66.94 66.94 66.75 66.95 66.64 65.51 64.50 63.84 63.41 63.86 63.88 63.44 63.53 63.27 62.40 62.16 62.32 58.62 57.31 59.25 59.50 65.17 65.03 65.06 64.77 65.01 65.67 66.12
66.25 65.67 66.59 67.75 67.76 67.48 67.35 66.74 66.38 66.58 66.69 66.70 66.72 66.47 66.40 66.41 66.48 66.80 66.68 66.20 64.98 64.61 63.60 62.99 62.49 62.23 62.19 62.07 62.53 61.83 60.70 61.08 53.83 56.00 58.76 58.76 64.58 63.53 63.77 63.96 64.03 64.60 64.79
65.43 65.07 66.92 65.99 65.57 65.45 65.78 65.85 65.69 65.58 65.62 65.67 65.62 65.15 64.96 65.20 65.50 64.99 65.53 65.69 64.92 63.77 62.27 61.46 60.77 61.33 61.46 60.42 62.06 61.01 60.09 58.87 52.78 55.08 56.04 58.15 62.83 61.81 63.16 62.92 63.12 63.30 63.02
64.43 64.75 65.20 64.59 64.13 64.21 64.70 65.41 65.26 65.40 64.82 64.69 64.53 64.27 63.07 62.49 62.94 61.86 63.18 64.05 63.62 62.36 60.98 61.14 60.14 61.34 61.36 60.24 60.83 60.41 58.59 53.58 52.63 53.81 54.16 61.06 61.17 60.72 61.45 61.46 61.07 60.79 60.36
61.76 64.14 64.96 64.30 63.33 63.31 64.56 63.31 63.20 63.40 62.08 61.63 62.03 62.38 61.85 62.00 61.32 60.26 62.43 62.98 62.82 61.73 60.63 60.82 60.08 60.82 58.80 54.68 54.20 57.06 53.14 52.83 52.56 51.87 54.08 60.23 59.71 59.48 59.64 59.80 59.50 58.86 58.24
61.91 63.41 64.32 64.04 62.53 60.91 62.05 62.02 62.13 61.72 60.96 61.58 61.91 61.57 62.02 62.47 60.38 59.31 58.24 59.17 57.52 60.56 56.67 57.39 56.68 55.53 54.03 53.86 53.13 53.42 53.39 52.55 51.03 51.47 56.48 59.07 58.44 58.43 58.87 58.52 57.95 57.63 57.21
61.76 62.63 63.63 63.74 61.22 59.78 61.76 61.73 61.51 61.70 62.52 62.51 63.49 63.61 61.89 62.16 61.63 59.95 57.63 59.29 57.51 56.49 53.99 53.28 52.89 53.10 53.55 54.29 53.49 52.20 51.62 50.15 49.61 49.39 54.17 58.30 58.11 57.35 57.49 57.19 56.74 55.97 55.27
60.66 61.64 61.47 61.53 59.66 60.24 60.87 62.53 63.20 63.11 63.77 63.70 63.66 62.44 60.95 59.82 60.14 58.57 56.75 55.31 54.21 53.94 52.37 51.84 52.63 53.04 51.98 51.83 50.64 50.63 50.93 49.23 47.20 47.24 49.63 57.05 57.55 56.62 56.19 55.94 54.99 54.30 54.04
60.86 60.40 60.11 60.73 60.42 62.88 63.20 63.18 63.35 63.52 62.89 62.36 62.50 61.42 61.33 60.22 57.83 55.43 54.34 53.54 52.69 52.15 52.66 52.51 51.37 50.26 49.26 49.69 49.09 49.30 48.50 46.48 46.16 45.80 46.60 49.33 56.41 56.15 54.94 53.84 53.27 53.49 53.63
60.04 60.23 59.21 60.03 62.38 62.89 61.81 60.18 59.88 59.57 61.02 61.20 61.20 60.42 58.69 58.14 56.05 54.49 53.17 51.61 51.62 52.39 51.92 51.13 49.37 48.77 47.79 48.53 46.86 45.99 46.37 46.05 46.05 46.58 46.12 45.87 52.69 54.95 54.69 52.73 52.33 52.37 52.23
59.55 59.39 59.96 62.94 62.31 60.12 59.32 58.72 59.53 59.60 59.50 59.65 59.27 56.49 55.12 55.45 54.58 53.15 52.48 51.51 51.92 52.24 51.15 49.33 48.03 47.02 45.32 44.03 42.66 42.00 43.66 44.67 45.56 45.22 45.51 45.36 47.62 49.69 53.46 54.58 51.24 51.48 51.09
59.17 59.83 60.41 62.34 60.00 58.76 58.70 59.72 59.60 58.09 57.92 57.52 56.08 54.42 54.41 54.42 54.08 52.29 51.83 51.73 51.66 50.74 49.12 48.90 46.89 45.11 42.87 42.49 43.57 42.37 42.32 42.50 42.92 45.88 45.15 45.49 45.45 45.33 46.08 51.39 50.97 50.36 49.53
59.64 60.94 61.85 60.35 59.38 58.20 58.61 58.67 57.93 56.77 56.57 55.27 54.54 53.71 53.10 53.49 54.20 52.89 52.24 51.20 50.80 49.05 47.68 47.02 45.35 44.55 42.99 42.02 44.51 42.82 40.80 41.77 41.99 41.31 41.28 43.70 42.92 43.21 43.98 44.16 42.01 43.13 48.90
60.13 61.22 61.05 59.61 58.98 58.75 58.01 57.45 56.32 54.73 54.03 53.45 53.86 53.65 53.25 53.75 53.35 52.39 51.77 50.66 48.77 47.56 45.97 45.99 44.11 42.84 42.05 42.00 39.19 39.16 39.64 40.01 40.64 39.80 40.34 40.05 41.62 41.96 41.91 43.35 41.96 41.08 40.72
60.30 61.29 60.65 60.10 59.70 59.05 59.16 58.20 56.85 54.45 53.49 53.29 53.08 53.37 53.50 52.79 52.75 51.33 49.12 48.07 47.39 45.80 45.25 44.44 43.37 42.18 41.29 40.83 38.10 36.83 33.91 36.42 38.30 40.13 38.47 39.10 37.85 39.28 40.39 41.70 40.68 40.97 39.06
59.95 60.58 60.29 59.88 59.45 59.26 59.54 58.37 55.85 54.28 53.38 51.50 51.23 50.98 51.78 52.53 51.78 50.30 49.38 47.55 46.77 45.72 43.95 43.45 42.84 41.92 39.21 40.09 40.34 37.33 33.17 30.82 33.68 36.44 37.10 36.78 36.46 36.23 36.39 37.48 38.41 38.89 38.38
59.68 60.76 61.46 60.83 60.74 59.94 60.21 57.33 54.29 52.41 51.04 50.62 50.72 50.87 50.94 50.95 50.59 50.43 49.01 47.72 46.64 45.99 44.42 43.98 44.80 42.50 40.74 38.49 39.17 41.68 37.86 35.87 31.62 30.62 33.84 35.22 36.05 36.86 35.18 35.04 35.65 37.11 37.61
60.63 61.30 61.54 61.26 61.70 60.27 59.88 57.17 54.40 52.56 51.95 51.58 51.31 50.23 49.82 49.87 50.20 50.13 47.99 46.45 45.16 45.03 43.99 43.43 42.83 43.25 42.31 39.72 38.03 37.73 36.69 35.74 34.57 31.04 28.67 30.77 33.88 35.13 34.99 34.57 34.57 35.11 36.42
61.26 61.35 60.98 59.53 59.48 59.73 57.56 55.56 53.94 52.95 50.77 50.69 50.50 50.53 50.86 48.48 46.26 45.63 45.60 43.76 43.40 42.62 41.86 41.39 41.05 41.22 40.66 39.95 39.17 38.40 37.13 35.01 33.70 32.69 30.47 29.82 30.08 32.14 33.92 34.42 34.25 34.43 35.05

GFSSE_sfc_wetblb_042.txt.gz
Wetbulb
69.04 71.23 71.91 72.19 72.10 71.89 71.60 71.26 70.93 70.43 70.10 69.61 69.13 68.89 68.48 68.19 68.57 68.67 68.45 68.40 67.97 66.66 66.54 66.12 65.93 65.86 65.57 65.75 65.85 66.01 67.36 69.13 69.52 69.44 69.13 69.26 69.21 68.68 68.45 68.44 68.62 67.26 68.89
69.69 71.28 71.08 71.51 71.73 71.68 71.54 71.04 70.57 69.92 69.24 68.77 68.71 68.40 68.13 68.57 68.64 68.21 67.86 67.63 67.06 65.74 65.39 65.36 65.34 65.55 65.89 65.74 66.14 66.06 66.01 68.35 68.85 68.91 68.09 67.99 67.97 67.92 67.50 67.81 69.05 67.53 68.57
69.54 70.82 70.59 70.79 71.36 71.42 71.41 70.85 70.14 69.49 68.36 68.02 68.18 68.35 68.30 68.48 67.72 67.92 67.53 67.15 66.97 65.84 65.58 65.47 65.13 65.41 65.31 65.87 66.52 68.70 67.13 67.73 68.39 68.54 67.61 63.79 64.05 66.56 65.91 66.27 66.61 67.12 67.89
69.93 70.11 69.81 70.54 70.76 71.00 70.60 70.18 69.24 68.55 68.06 68.23 68.09 68.40 68.50 68.19 67.14 67.43 67.53 67.12 67.17 66.00 65.42 64.94 64.81 64.80 65.02 65.58 65.48 67.61 68.10 68.09 67.07 66.04 62.85 63.36 64.54 66.73 65.95 65.16 64.74 64.75 65.39
69.00 69.22 69.97 70.06 70.18 70.38 70.02 69.24 68.65 68.34 67.88 68.24 68.47 68.38 67.99 67.28 66.60 66.54 67.28 66.76 66.84 65.55 64.73 64.38 64.33 64.49 64.96 64.50 64.62 65.19 65.49 64.99 64.31 62.77 61.15 61.53 61.48 64.87 65.64 65.10 64.43 64.53 64.60
68.26 69.15 68.94 69.11 69.58 69.78 69.53 68.96 68.22 67.75 67.67 67.94 68.24 68.35 67.58 66.87 66.49 66.52 67.12 66.61 66.12 64.93 64.33 64.03 63.76 64.57 64.12 64.14 63.74 64.13 64.18 63.25 61.22 57.94 59.05 62.54 61.56 65.21 65.35 64.91 64.88 64.60 64.64
68.13 68.65 68.35 67.65 69.05 69.17 68.98 68.46 67.68 67.40 67.63 67.96 68.07 67.96 67.55 66.20 65.96 65.83 66.32 66.08 65.62 64.60 63.71 63.38 64.14 63.90 63.90 63.80 63.40 62.34 62.84 61.89 56.98 57.39 59.21 60.77 62.02 65.04 65.14 64.88 64.54 64.91 64.88
66.30 66.61 67.05 67.65 68.13 67.95 67.96 67.50 66.85 67.05 67.27 67.46 67.38 67.28 67.23 67.00 66.54 66.32 66.01 65.85 65.27 64.85 64.44 64.09 64.11 63.55 63.31 63.37 62.60 62.21 60.87 60.66 57.10 56.15 58.03 58.54 64.14 63.70 64.06 64.33 64.81 64.56 64.43
65.87 65.55 65.20 65.89 67.63 66.99 66.50 66.20 65.96 66.50 66.54 66.60 66.67 66.42 66.38 66.33 66.39 66.55 65.99 65.32 64.76 63.92 63.78 63.43 62.84 62.30 62.60 62.79 61.79 61.01 59.98 59.94 54.13 55.60 58.21 57.46 63.68 63.17 62.87 62.96 63.18 62.70 62.42
62.39 63.57 64.46 64.19 65.35 65.53 65.02 65.48 65.57 65.74 65.85 65.63 65.79 65.50 65.20 65.42 65.78 65.96 65.47 65.00 64.17 63.17 62.79 62.75 62.95 62.87 62.16 61.75 61.53 60.35 59.21 57.59 53.26 52.91 54.21 57.28 62.68 61.88 61.91 61.61 61.19 60.62 60.26
61.72 62.86 64.31 63.46 64.47 64.19 63.93 64.61 65.17 65.67 65.18 64.84 64.77 64.47 63.19 61.86 61.38 62.59 63.15 63.83 63.41 61.97 61.00 61.85 62.65 61.41 60.16 60.22 60.88 59.70 57.21 51.24 51.28 52.04 52.93 60.47 60.42 60.20 60.60 60.21 59.52 59.06 58.59
59.57 61.30 63.78 63.42 63.54 63.63 63.90 62.64 61.73 62.66 61.74 61.44 61.47 61.23 60.69 61.20 60.62 60.45 62.42 63.04 62.59 61.17 60.77 61.63 61.33 59.52 57.05 53.14 52.88 55.25 51.69 50.45 50.26 49.94 52.57 59.73 59.47 59.50 59.48 58.77 58.51 57.89 57.17
60.71 61.62 63.36 63.27 63.12 61.97 61.87 61.22 60.35 59.50 59.12 59.61 60.25 60.35 60.31 61.44 59.39 58.68 58.39 57.92 56.83 58.93 55.12 54.99 53.95 53.25 52.94 51.97 50.73 50.13 49.62 48.57 46.66 48.35 54.49 58.39 58.08 57.64 58.50 58.01 57.12 56.43 55.56
60.59 62.06 63.20 62.33 61.42 59.87 60.73 60.34 59.81 59.51 60.40 59.92 60.94 61.42 60.99 59.32 58.13 56.93 55.87 56.20 56.37 53.67 52.21 51.92 52.06 51.85 50.82 50.39 49.53 48.90 48.49 46.43 44.75 46.14 51.31 57.18 58.20 56.99 57.73 57.07 55.55 54.84 54.54
58.10 59.97 62.05 61.99 59.49 59.26 59.63 60.00 60.45 61.36 61.85 62.10 60.74 60.24 61.61 59.98 58.64 57.30 55.04 53.86 52.48 51.78 51.37 51.37 50.12 49.29 48.97 48.47 48.08 47.11 46.70 45.17 44.79 44.69 45.24 54.96 57.13 56.89 56.59 55.50 54.35 53.92 53.84
59.82 61.12 62.67 61.57 58.66 59.35 60.83 61.61 61.64 62.65 62.22 61.83 60.18 59.85 59.51 58.32 55.60 53.86 52.26 51.59 51.42 51.98 51.43 49.77 48.29 47.44 46.51 46.52 45.49 44.81 45.10 44.26 44.46 44.77 44.35 43.86 55.80 56.87 55.42 53.71 53.08 53.15 52.94
60.36 61.50 60.64 60.21 60.54 61.84 62.05 62.53 60.64 60.97 61.30 60.23 59.51 59.02 58.24 56.13 54.50 52.75 51.06 50.51 50.97 51.00 49.48 48.29 47.18 45.99 44.46 45.14 43.29 43.53 43.78 43.44 44.04 43.84 43.93 44.23 51.64 55.39 55.14 52.55 52.13 52.20 52.03
60.54 59.56 59.75 62.37 61.59 60.74 58.91 58.71 59.18 59.04 58.97 58.47 56.19 54.93 55.46 54.66 53.44 51.77 50.80 50.68 51.13 50.35 48.24 47.09 45.79 43.99 42.94 42.22 40.50 40.65 41.42 42.35 42.56 42.82 43.11 43.63 45.98 48.24 51.73 51.45 51.10 49.90 49.89
59.97 58.91 59.82 61.05 60.02 58.48 58.91 58.62 57.86 57.40 57.17 56.45 54.18 53.27 53.85 53.61 52.84 51.25 51.16 50.63 50.29 48.41 47.57 47.38 44.70 43.46 41.34 41.18 41.67 40.60 40.24 40.04 40.60 43.07 41.34 41.91 42.50 43.68 43.49 48.47 48.66 49.18 47.82
58.30 59.21 61.24 59.78 58.28 57.70 57.70 56.81 56.29 56.27 55.46 55.03 53.71 53.06 53.09 52.77 52.86 52.44 50.81 49.76 48.98 47.43 45.97 45.49 43.52 43.03 41.67 41.00 43.13 41.46 39.50 39.20 38.70 38.79 39.12 41.62 40.64 40.23 40.56 40.66 39.98 41.97 48.10
57.83 59.76 59.79 58.02 57.34 57.52 56.44 55.43 54.64 54.12 53.57 53.50 53.11 53.01 52.28 52.82 53.21 51.25 49.96 48.08 47.05 45.28 44.68 44.79 42.90 41.32 40.58 40.15 37.93 38.27 38.27 38.38 38.46 37.51 38.35 37.73 38.55 39.00 39.02 38.61 38.91 38.68 39.31
58.30 59.92 59.28 58.38 57.56 57.49 57.49 56.03 55.45 54.25 53.26 52.88 52.71 51.73 52.64 51.72 51.00 49.44 47.84 46.58 45.64 44.52 43.87 43.11 42.08 40.85 40.30 39.62 37.48 35.38 33.25 35.24 36.89 38.30 36.53 37.69 35.57 36.91 37.85 37.92 37.21 37.35 36.44
58.44 59.35 59.01 58.67 57.77 57.93 58.06 56.98 54.76 53.10 51.95 50.73 50.05 50.32 50.78 51.53 50.76 49.23 47.75 46.35 45.18 44.55 43.10 42.17 41.52 40.86 38.74 39.11 38.99 36.99 32.67 30.60 32.66 35.14 35.84 35.04 34.67 34.96 34.55 35.67 36.48 36.88 36.57
58.83 59.96 59.65 59.12 58.36 58.20 58.38 56.72 53.89 52.87 51.01 50.40 50.06 49.49 49.87 50.54 49.77 49.38 47.88 46.27 45.15 44.65 43.46 43.15 43.53 41.39 39.66 37.97 38.45 40.17 36.83 35.73 31.90 30.24 32.95 34.19 35.00 35.86 33.83 33.77 34.20 35.32 36.05
59.35 59.46 59.53 59.52 59.21 59.14 58.83 57.11 54.69 52.23 51.60 49.69 49.59 49.07 48.57 48.44 48.62 48.09 46.67 45.12 44.00 43.35 42.41 41.92 41.74 40.20 40.36 38.76 37.48 36.68 36.02 34.96 33.78 31.31 28.06 30.17 32.88 34.38 34.26 34.00 33.75 34.11 34.93
59.43 59.52 59.55 60.04 60.21 60.23 58.85 55.54 54.56 52.45 50.39 49.71 48.73 48.74 47.75 47.37 44.68 44.54 44.07 43.41 42.50 41.23 40.75 40.03 38.76 38.25 38.31 38.53 38.19 37.44 36.40 34.71 33.31 32.42 30.87 30.80 29.50 31.57 32.91 33.91 33.32 33.43 34.10

GFSSE_sfc_wetblb_045.txt.gz
Wetbulb
69.08 70.89 71.57 71.91 71.81 71.53 71.15 70.69 69.95 69.22 69.05 68.70 68.21 68.67 68.76 68.60 68.72 68.60 68.36 68.06 67.80 66.59 66.53 66.27 66.21 66.70 67.03 66.80 66.92 68.82 68.81 69.03 68.90 69.22 68.65 68.22 67.98 67.70 67.92 68.10 68.05 66.80 68.50
69.80 70.93 71.11 71.37 71.47 71.41 71.12 70.33 69.41 68.92 68.57 67.46 68.02 68.83 68.64 68.40 68.33 67.97 67.57 67.35 67.37 66.43 66.33 66.40 66.11 67.07 67.72 67.24 66.71 68.30 68.73 68.47 68.30 67.77 66.83 66.92 66.62 66.18 65.77 65.70 67.59 66.44 68.11
69.87 70.73 70.41 70.59 71.12 71.13 70.78 70.04 69.18 68.60 67.38 66.94 67.51 68.42 68.47 68.36 67.92 67.55 67.38 67.32 67.38 67.11 66.28 65.77 65.98 67.88 68.55 68.25 67.92 68.51 68.51 68.07 67.53 67.21 66.40 62.40 62.58 65.74 65.46 64.95 65.29 64.73 66.01
70.13 70.09 69.70 70.41 70.71 70.58 70.04 69.37 68.52 67.80 67.36 67.85 68.50 68.04 67.97 67.12 67.70 67.82 67.39 67.02 66.93 67.28 66.43 65.40 65.24 65.61 66.57 67.55 68.04 68.16 67.32 66.42 66.08 64.69 61.42 61.61 62.27 65.31 65.13 64.66 64.57 64.59 64.52
69.43 69.40 69.50 69.95 69.91 70.04 69.40 68.53 67.86 68.05 68.09 68.12 68.54 67.85 67.70 66.97 67.06 66.78 67.19 66.54 66.45 66.77 66.01 65.42 64.69 64.41 65.31 65.76 65.91 66.10 65.57 64.25 63.20 61.45 60.20 60.34 60.61 64.29 65.24 65.05 64.67 64.34 63.98
68.65 68.83 68.32 68.93 69.17 69.30 69.04 68.50 68.03 68.26 67.90 67.94 67.98 68.14 67.73 66.74 66.39 66.73 66.85 66.28 66.40 66.13 64.86 64.61 64.25 64.55 63.60 64.39 64.35 63.85 63.14 62.47 60.88 58.11 59.32 61.62 60.66 64.82 65.03 64.74 64.82 64.86 65.02
68.05 68.29 68.31 67.75 68.66 68.93 68.69 68.15 68.02 68.00 67.79 68.07 68.02 67.55 67.41 67.05 66.25 66.47 66.42 65.98 65.65 65.23 64.68 64.46 64.89 64.30 63.54 62.78 63.18 63.38 62.63 61.71 56.90 56.68 57.88 59.20 60.18 64.04 64.31 64.80 64.36 64.06 64.02
66.82 67.00 66.96 67.48 67.70 67.82 67.83 67.47 67.53 67.75 67.69 67.70 67.48 67.05 67.15 66.81 66.23 66.03 65.79 65.53 65.16 64.83 64.57 64.15 63.79 63.62 63.21 62.82 61.95 62.10 61.43 59.84 56.51 55.91 56.68 56.53 63.17 63.13 63.41 63.00 62.48 62.03 62.13
64.65 64.40 64.78 64.88 66.01 66.75 66.47 66.48 66.57 67.05 67.22 67.06 66.75 66.48 66.27 65.88 65.60 65.55 65.22 64.66 64.63 64.23 64.05 63.95 63.44 62.81 62.41 62.19 61.53 60.49 60.64 59.12 52.92 53.70 56.29 56.27 62.62 62.07 61.85 61.47 60.96 60.60 60.47
62.76 62.50 62.58 62.64 64.33 64.26 64.07 65.57 65.93 66.12 66.25 66.16 66.31 65.80 65.45 65.69 65.52 65.22 64.67 64.22 63.88 63.81 64.12 63.64 63.31 62.41 62.03 61.74 61.04 59.43 57.69 56.86 51.04 51.31 52.62 56.53 61.18 61.13 60.89 60.49 59.89 59.41 59.10
59.75 61.83 61.49 61.81 63.77 63.96 63.18 64.59 65.63 66.16 65.83 65.12 65.12 64.73 62.83 61.42 61.70 61.03 62.72 63.31 63.11 62.92 63.37 63.25 62.09 60.27 58.78 59.45 59.93 58.39 54.51 48.96 48.70 50.26 51.73 60.47 60.14 60.34 60.07 59.62 58.81 58.12 57.75
58.25 60.22 61.59 61.36 61.96 63.67 63.54 62.83 62.12 63.10 61.89 61.41 61.28 61.08 60.54 59.87 58.27 60.95 62.16 63.02 62.27 62.17 62.65 61.34 60.08 58.80 54.61 50.56 50.76 52.27 47.57 46.47 46.91 49.72 51.71 59.55 58.92 59.10 59.07 58.49 57.70 56.84 56.11
58.75 60.40 62.34 60.78 63.24 62.51 61.14 60.98 60.25 59.72 59.53 59.78 59.88 59.95 60.55 59.93 58.36 58.64 58.05 56.26 55.89 56.86 52.93 53.66 52.64 51.44 49.56 48.70 47.95 47.25 45.68 44.50 43.10 46.22 52.32 57.94 57.78 56.96 58.26 57.28 56.55 55.93 55.21
57.70 59.23 61.89 62.18 62.58 61.22 60.67 60.16 59.36 58.50 58.66 58.65 59.18 59.66 59.78 58.64 56.15 55.46 54.65 55.15 52.84 51.77 51.19 50.83 50.05 49.12 47.99 47.55 46.40 45.78 44.35 43.23 42.83 43.66 46.15 55.47 57.14 55.76 57.12 56.43 55.17 54.83 54.32
57.94 59.18 62.27 62.45 61.22 59.65 59.41 59.13 59.02 58.89 59.64 61.21 61.36 61.58 60.67 58.90 56.65 55.59 54.40 52.90 51.00 51.00 50.15 48.68 48.01 47.44 46.20 45.26 45.15 44.61 43.57 43.27 43.06 42.96 42.56 50.68 55.36 56.21 56.42 55.06 53.92 54.75 53.08
59.76 60.83 61.75 61.55 59.97 58.74 58.70 59.00 59.13 60.92 61.63 60.36 59.19 59.74 59.71 58.29 55.67 53.29 51.16 50.83 50.76 50.44 49.06 48.74 46.69 44.96 43.86 43.62 43.26 43.23 42.51 42.50 42.34 42.16 42.33 42.79 54.68 57.16 54.97 53.72 53.26 53.59 52.42
58.14 59.48 61.08 61.48 57.89 58.41 58.77 60.18 60.99 61.26 61.23 59.35 58.71 58.79 57.25 55.17 53.25 51.57 50.54 50.14 50.43 48.92 47.67 46.55 44.58 43.79 43.07 43.02 41.34 41.81 41.70 42.10 41.62 41.53 41.92 46.12 49.29 53.99 53.98 52.01 52.20 52.04 50.94
58.67 60.05 60.88 62.01 58.58 59.80 60.04 59.14 59.41 59.79 59.25 58.31 56.92 56.44 55.18 54.16 52.57 50.42 49.74 49.66 49.78 48.31 47.08 45.70 43.87 42.36 41.67 41.14 39.62 39.81 39.91 40.76 41.09 40.51 40.92 41.99 43.63 47.12 48.60 50.95 49.45 48.48 48.30
59.35 59.91 59.44 59.62 59.57 59.26 58.42 58.42 58.08 57.94 57.40 55.90 53.92 53.77 53.70 53.10 52.07 50.52 50.43 50.67 49.32 47.57 46.30 45.71 43.29 41.88 40.40 40.02 40.17 39.57 38.96 38.77 39.28 41.01 40.12 39.82 40.20 40.66 40.60 45.61 47.78 48.42 47.55
59.22 58.35 59.76 59.94 58.10 57.84 57.60 56.56 56.36 56.02 55.28 54.26 52.82 52.54 53.02 52.19 51.75 51.05 49.85 48.60 47.75 46.32 45.25 43.86 42.32 41.77 40.49 39.80 42.08 40.66 38.36 37.84 37.48 37.28 37.72 39.84 38.17 38.46 38.52 38.56 38.24 41.61 46.50
56.80 58.28 59.55 57.95 57.14 57.71 56.64 55.32 54.27 53.76 53.20 52.88 52.73 52.82 52.57 51.94 52.19 50.15 48.34 47.73 46.07 44.71 44.20 42.91 41.64 40.37 39.56 38.79 37.30 37.64 36.87 37.14 36.83 36.45 36.48 36.28 37.12 36.86 36.82 36.84 36.92 36.42 36.85
56.48 58.31 57.97 57.99 57.06 57.50 57.02 55.44 55.13 53.80 53.33 52.81 52.44 51.82 51.40 52.09 51.30 49.93 47.34 46.10 44.66 44.12 43.02 42.30 41.22 40.05 39.76 38.72 36.72 34.56 33.21 35.15 35.93 36.80 35.13 36.58 34.30 35.47 36.28 36.49 35.57 35.88 34.94
55.88 57.74 58.18 57.65 57.38 57.44 56.66 55.65 53.33 52.50 51.33 50.53 49.85 49.45 50.71 50.81 50.28 48.77 47.08 45.41 44.24 43.34 42.04 41.18 40.60 40.19 38.38 38.44 39.39 37.85 32.58 30.44 32.06 34.67 34.65 34.17 33.74 33.76 34.00 34.53 35.45 35.65 35.64
56.32 58.18 59.00 58.26 57.51 57.42 57.25 55.52 53.06 51.33 51.12 51.31 49.94 49.55 49.67 50.33 48.97 47.93 46.69 45.29 44.02 43.49 42.53 42.54 42.46 40.37 39.16 38.11 37.73 39.31 36.56 35.24 31.87 30.46 32.36 33.14 33.76 34.97 33.54 33.36 33.86 34.20 34.92
57.01 58.05 58.27 58.30 57.63 57.78 57.41 56.71 54.13 52.15 51.25 49.84 49.22 48.76 48.32 47.73 47.59 47.10 45.70 44.56 43.91 43.37 40.82 40.42 40.51 39.29 39.86 38.54 37.34 35.84 35.11 34.17 33.07 31.94 28.88 30.85 32.26 34.13 34.12 33.58 33.28 32.98 33.88
56.90 58.02 57.66 57.76 57.78 57.65 57.24 57.24 54.83 52.96 50.24 49.76 48.17 47.43 46.23 44.87 43.99 43.97 43.63 42.21 41.66 41.09 40.25 39.04 38.93 38.56 37.70 37.18 37.42 36.12 35.67 34.41 33.04 31.27 29.01 29.66 29.71 31.53 32.65 32.88 32.49 32.40 32.60

GFSSE_sfc_wetblb_048.txt.gz
Wetbulb
68.72 70.24 70.93 71.69 71.37 70.82 70.21 69.69 69.39 69.16 68.96 68.92 68.97 68.85 68.78 68.78 68.87 68.61 68.34 68.28 68.36 67.78 67.29 67.44 67.74 67.75 68.94 69.61 68.70 68.37 68.09 68.13 68.44 68.44 67.40 66.89 66.81 66.72 67.08 67.65 67.45 66.50 68.24
69.69 70.11 70.62 71.07 71.08 70.66 70.02 69.29 68.97 68.45 68.73 68.75 68.72 68.84 68.86 68.73 68.32 67.95 67.94 68.17 68.20 67.29 67.92 68.69 68.63 68.01 68.25 68.90 68.65 68.46 67.86 67.91 67.77 67.13 66.31 66.46 66.15 65.99 65.69 65.10 66.24 64.89 67.13
69.33 70.10 70.21 70.50 70.84 70.28 69.62 69.20 68.67 68.36 68.07 67.95 68.10 68.50 68.39 68.07 67.85 67.90 67.67 67.91 68.03 68.11 69.15 69.30 68.95 68.25 68.53 68.65 68.73 67.99 66.92 66.57 66.57 65.92 65.09 61.12 61.88 65.25 65.26 64.77 65.20 64.79 64.56
69.67 69.70 69.39 70.35 70.07 69.82 69.13 68.59 67.93 68.02 68.03 68.44 68.24 67.90 68.12 67.98 67.98 67.95 67.58 67.38 67.41 67.87 67.41 68.41 69.14 69.29 68.71 68.28 67.61 66.59 65.64 65.23 64.82 63.74 60.69 61.00 62.60 65.38 65.32 65.01 64.89 64.87 64.56
69.07 69.21 69.09 69.74 69.18 69.15 68.56 67.94 67.78 68.09 68.44 68.18 68.02 67.63 67.49 67.88 67.73 67.68 66.98 66.92 67.20 67.06 66.12 66.36 67.17 66.93 66.40 66.05 65.57 64.73 64.28 64.18 63.46 61.44 60.49 60.68 61.29 63.90 65.18 65.13 64.76 65.02 64.74
68.73 68.64 68.44 68.59 68.65 68.56 68.44 68.19 68.24 68.01 68.15 67.96 67.78 67.86 67.97 67.78 67.29 67.27 66.55 66.61 67.00 66.46 64.90 64.50 64.99 65.18 64.48 64.32 64.44 63.69 63.23 62.46 60.75 58.16 58.97 61.08 60.76 64.30 64.68 64.44 64.24 64.24 64.30
67.87 68.15 67.95 67.46 67.88 68.48 68.69 68.56 68.24 67.98 68.06 67.90 67.80 67.76 67.71 67.76 66.98 66.97 66.11 65.83 66.07 66.04 65.43 64.06 64.13 64.02 64.26 64.07 63.40 62.75 62.47 61.29 56.39 55.96 57.16 59.37 60.24 63.46 63.32 62.89 62.75 62.75 62.79
66.67 67.31 67.60 68.01 67.73 67.50 67.71 68.08 67.83 67.77 67.86 67.67 67.39 67.35 67.45 67.06 66.47 66.21 65.72 65.30 65.06 65.06 64.89 64.55 63.97 63.38 63.04 63.60 62.73 61.73 60.85 58.76 55.57 55.24 56.30 57.19 62.12 62.56 62.02 61.43 60.95 60.90 60.93
65.21 64.53 64.42 64.09 66.04 66.56 66.70 66.86 66.90 67.20 67.42 67.24 67.05 66.86 66.25 65.89 65.48 65.30 65.19 64.93 64.95 64.84 64.17 63.56 63.30 62.98 62.58 61.65 61.42 60.86 59.61 57.60 51.60 53.22 55.93 57.07 62.06 61.40 61.04 60.43 59.97 59.96 59.77
59.62 60.89 61.23 62.77 63.84 64.11 64.82 65.93 66.39 66.57 66.52 66.30 66.32 65.87 65.09 65.00 65.14 64.69 64.34 64.36 64.70 64.59 64.30 63.47 62.66 62.30 62.03 60.97 59.43 57.71 56.01 54.07 50.10 51.36 53.01 57.91 61.07 60.43 60.17 59.59 59.16 58.65 58.39
58.51 56.89 58.33 60.80 63.31 62.68 63.35 65.33 66.01 66.48 66.08 65.64 65.23 64.97 62.47 61.22 60.89 59.09 62.73 63.36 63.98 63.68 63.08 62.07 60.60 59.15 58.73 58.58 57.29 54.40 51.51 46.67 49.28 50.86 52.12 60.91 60.13 60.09 59.66 58.78 58.06 57.38 57.03
57.28 58.80 59.80 60.04 61.81 62.86 63.21 62.72 62.79 63.67 62.29 62.03 61.79 60.31 59.65 59.35 58.34 60.44 61.96 62.29 63.44 62.47 61.82 60.52 57.99 55.87 52.13 48.62 48.27 49.30 44.71 44.64 45.71 50.25 52.53 58.98 58.04 59.25 58.74 57.77 56.88 56.33 56.28
57.22 56.69 57.43 57.66 58.91 62.04 61.05 60.73 60.30 60.18 59.90 59.87 59.86 59.50 59.61 58.50 58.75 58.71 55.72 55.24 54.56 55.96 52.48 51.79 50.17 48.86 47.45 46.72 45.71 44.29 44.03 43.83 43.38 44.73 49.84 56.79 57.69 57.71 57.86 56.90 56.24 55.65 55.49
56.19 56.38 56.98 57.81 57.69 61.21 60.73 60.08 59.53 58.78 58.75 58.41 58.83 59.80 59.31 56.28 55.91 55.48 55.08 54.07 51.86 51.58 49.94 49.08 47.74 46.54 45.73 45.70 44.68 43.92 43.63 43.06 42.80 43.50 45.02 53.14 56.25 55.50 57.56 55.77 55.44 54.64 54.17
57.38 57.73 57.17 57.60 61.03 61.17 59.91 59.23 58.69 58.23 58.56 58.79 58.77 59.46 59.96 56.95 54.67 54.85 54.37 51.81 50.67 50.12 48.68 47.20 46.14 45.02 44.24 44.43 43.55 43.31 42.81 42.52 42.58 43.02 42.90 50.97 56.09 56.20 56.88 55.00 54.41 54.25 53.51
56.69 58.04 60.09 61.31 61.21 59.78 59.03 58.64 58.54 59.00 59.52 60.44 59.95 60.30 60.00 58.27 55.32 54.28 52.16 50.19 49.96 48.85 47.62 46.62 46.60 43.79 42.36 43.03 42.30 42.44 42.35 41.64 41.62 42.53 44.22 48.76 56.28 57.20 55.31 54.05 53.17 53.31 52.87
57.37 58.22 60.19 61.15 59.27 58.58 57.70 58.45 58.31 59.37 60.71 58.87 59.17 59.83 59.18 57.56 55.10 51.62 50.02 49.72 48.95 47.33 46.22 45.21 45.03 43.18 42.26 42.54 41.36 41.16 41.71 41.37 41.09 41.52 43.21 46.92 48.57 53.11 53.87 52.79 52.57 51.46 50.79
58.61 59.64 60.54 62.16 58.00 57.44 57.65 58.62 59.27 60.24 59.32 58.17 57.60 56.73 55.91 55.02 53.55 50.06 49.91 50.31 48.13 47.53 45.91 44.15 43.05 42.05 41.14 40.81 39.75 39.67 39.75 40.85 40.55 40.60 40.73 42.61 45.26 44.08 47.45 49.61 49.35 48.37 47.85
57.05 57.82 59.27 59.54 57.22 57.51 58.11 57.97 58.10 58.58 57.96 57.42 56.05 54.56 54.00 52.55 51.05 50.67 51.84 50.78 48.57 47.02 45.75 44.93 42.84 42.00 40.42 39.79 40.20 39.66 39.00 38.94 39.20 40.95 39.83 39.80 41.19 41.24 40.81 46.46 48.58 48.24 47.50
57.38 58.61 58.34 58.43 57.72 57.27 56.77 56.35 56.05 56.07 55.69 54.99 53.88 53.36 52.60 51.89 51.20 50.09 49.93 49.23 47.50 45.94 44.29 43.26 42.25 41.40 40.56 39.64 41.59 40.37 38.64 38.25 38.18 37.85 38.75 39.52 38.95 39.20 39.13 40.10 40.74 41.88 45.65
57.27 56.95 57.91 57.59 56.69 56.77 55.49 55.03 54.18 53.92 55.33 53.95 53.18 52.71 52.09 51.33 51.08 49.83 48.90 47.36 46.40 44.89 43.76 42.42 41.34 40.67 40.01 39.09 37.88 38.33 37.17 37.70 37.89 37.28 37.61 37.06 37.83 38.15 38.41 38.72 38.59 37.60 37.73
57.14 57.10 58.04 57.92 56.81 57.25 57.63 54.71 54.68 53.83 53.37 54.25 52.99 51.45 51.67 51.02 50.56 49.19 47.51 45.93 44.50 43.66 42.95 41.98 41.20 40.06 39.45 38.41 37.22 35.35 33.86 36.03 36.92 37.88 36.28 37.29 36.16 36.84 37.46 37.83 37.52 38.03 37.35
56.30 56.51 58.00 57.86 57.31 57.70 57.22 55.00 52.62 53.15 53.14 52.03 50.62 50.00 50.67 51.33 50.61 48.72 46.82 44.87 43.74 43.01 41.60 40.69 40.55 40.23 38.49 38.89 38.74 37.56 33.06 31.55 33.46 36.53 35.93 35.69 35.58 35.59 35.92 36.11 37.12 37.34 37.37
56.82 56.97 57.99 57.79 57.25 57.50 56.13 55.74 52.49 52.42 51.24 52.25 51.00 49.33 51.12 50.31 49.57 48.20 46.07 44.22 43.28 42.58 41.92 41.72 41.86 40.19 39.99 38.14 38.40 39.69 38.64 37.72 33.05 32.11 34.71 34.38 34.70 35.48 35.21 35.21 35.99 36.04 35.98
56.37 55.69 57.00 57.15 57.03 57.16 56.39 55.98 53.35 52.29 53.33 51.14 49.35 50.48 50.30 47.72 47.18 46.39 44.93 43.73 42.89 41.83 40.92 40.88 40.18 39.74 41.35 38.54 39.07 38.45 35.86 34.81 34.15 32.82 30.59 32.80 34.09 35.24 35.57 35.72 34.92 34.60 34.84
54.41 55.30 55.92 56.67 56.69 57.10 56.78 55.50 54.37 53.84 52.16 50.67 50.01 48.91 46.32 45.05 44.79 44.11 43.58 42.12 41.22 41.08 39.22 40.23 40.35 39.36 38.83 38.51 38.82 36.50 36.01 35.06 34.40 32.19 30.06 30.31 30.78 33.61 34.21 34.79 34.19 33.79 33.45

GFSSE_sfc_wetblb_051.txt.gz
Wetbulb
69.06 71.01 71.11 71.62 71.49 70.97 70.45 70.19 69.67 69.45 69.39 69.54 69.32 69.20 69.38 69.40 69.23 69.04 68.86 68.75 69.16 69.28 68.85 69.59 70.75 70.12 68.90 68.33 68.11 67.75 67.62 67.97 68.22 68.23 67.29 66.94 66.72 66.32 66.26 66.32 67.64 67.73 68.52
69.84 70.60 70.42 71.10 71.01 70.75 70.13 69.65 69.08 69.02 69.22 69.25 69.39 69.29 69.08 69.01 68.79 68.67 68.81 69.00 69.47 69.08 69.07 69.08 69.81 69.36 68.98 67.52 67.36 67.19 67.04 67.41 66.94 66.63 66.18 65.92 66.19 66.18 66.09 65.58 66.61 64.98 65.99
69.45 70.40 70.61 70.19 70.55 70.15 69.71 69.38 69.22 69.39 69.01 68.84 69.12 69.00 68.65 68.62 68.77 68.67 68.59 69.45 70.65 70.30 70.05 68.97 69.73 69.55 68.23 67.17 67.08 66.34 65.97 65.84 66.17 65.89 65.75 64.19 65.02 65.58 65.76 65.22 65.24 65.29 65.14
70.06 70.15 70.30 69.92 69.55 69.48 69.01 68.87 69.07 68.92 68.79 69.10 69.01 68.62 68.53 68.62 68.74 68.64 68.16 68.77 70.31 70.70 70.21 69.52 69.77 68.99 67.29 66.70 66.41 65.69 65.56 65.25 64.69 65.31 64.14 64.02 63.99 65.20 65.57 65.31 65.19 65.19 65.04
69.72 69.90 69.97 69.05 68.80 68.78 68.39 68.37 68.56 68.68 68.66 68.32 68.40 68.75 68.82 68.57 68.67 68.23 67.46 67.43 68.55 69.99 69.94 69.82 69.01 66.96 65.76 66.01 65.79 65.24 64.55 64.07 64.20 63.79 63.73 64.12 64.26 64.69 65.19 64.84 64.54 65.04 64.71
68.91 69.23 68.68 68.11 68.19 68.27 68.42 68.55 68.54 68.27 67.70 67.55 67.82 68.45 68.60 68.45 68.23 67.87 66.83 66.65 67.49 68.47 68.35 68.01 65.58 64.72 65.32 64.90 64.54 63.34 63.01 62.62 63.11 62.59 62.89 63.77 63.39 63.70 63.74 63.69 63.36 63.57 63.24
68.46 68.77 68.68 67.23 67.63 68.13 68.72 68.92 68.46 67.84 67.47 67.44 67.89 68.04 67.87 67.97 67.58 67.22 66.68 66.28 66.06 66.52 66.42 65.65 64.95 64.78 64.11 63.66 63.08 62.47 61.73 61.70 61.37 61.64 61.87 62.62 62.74 62.50 62.25 61.97 61.87 62.01 61.66
66.82 67.81 67.38 67.75 67.69 67.84 68.09 68.01 67.73 67.54 67.57 67.52 67.63 67.68 67.71 67.03 66.55 66.46 66.34 66.05 65.57 65.12 64.83 64.66 64.90 64.77 63.46 62.54 61.01 60.53 59.89 59.81 59.97 60.71 61.18 61.58 61.97 61.68 61.40 60.98 60.74 60.60 60.40
63.18 63.66 66.70 66.23 66.39 66.62 66.89 66.84 66.92 67.12 67.09 67.30 67.21 66.78 66.49 66.02 65.37 65.66 65.52 65.45 65.21 64.80 64.55 63.79 63.26 63.04 62.85 61.34 59.68 58.62 58.59 57.56 58.87 59.97 60.12 60.84 61.02 60.81 60.53 60.03 59.86 59.53 59.41
61.77 60.80 60.67 61.93 61.82 62.80 65.59 66.23 66.45 66.45 66.31 66.36 66.23 65.49 64.97 64.94 65.08 65.00 65.00 65.30 64.56 64.36 63.94 63.62 62.76 61.66 60.16 58.85 57.03 56.09 55.75 56.86 57.83 58.62 59.38 60.61 61.12 60.30 59.65 58.91 58.66 58.22 58.01
58.60 59.94 59.80 59.25 59.90 62.36 64.03 66.36 66.46 66.53 65.96 65.42 64.98 64.58 62.92 62.22 62.04 62.37 63.61 64.27 64.40 63.33 62.84 61.68 60.08 59.00 58.52 57.21 54.85 53.71 54.92 56.21 57.17 57.72 58.31 60.83 60.19 60.08 59.17 58.17 57.56 57.49 57.44
56.14 56.80 57.65 58.78 60.25 61.74 63.83 64.96 65.09 65.13 64.72 64.20 63.59 63.17 62.64 62.79 62.19 61.59 62.79 63.58 63.22 62.19 60.99 59.24 56.86 55.54 55.29 53.31 52.77 53.30 52.86 53.22 53.73 54.96 57.14 58.49 58.59 59.31 58.75 57.58 57.01 56.78 56.55
56.30 57.37 58.47 58.17 58.63 59.92 61.11 62.98 63.91 63.69 63.48 63.35 63.26 62.90 62.29 62.44 62.89 61.18 61.81 60.87 60.63 58.83 55.97 55.65 54.05 52.88 52.47 52.56 52.15 52.23 52.05 52.17 52.11 52.43 53.31 55.43 58.07 59.10 58.10 56.89 56.12 56.05 55.62
56.44 57.18 57.75 58.32 59.77 61.91 62.16 62.89 62.50 62.06 62.22 62.08 62.44 62.98 61.45 61.50 61.71 59.77 59.47 58.22 57.66 56.18 54.81 53.19 53.10 52.94 52.25 51.83 51.71 51.29 51.18 51.06 51.44 52.01 52.27 53.84 57.19 57.01 57.84 56.32 55.71 54.74 54.25
55.23 56.04 57.07 57.25 56.75 60.63 62.19 61.95 61.32 61.75 61.69 62.90 62.70 63.51 61.66 60.91 59.99 58.73 58.56 56.46 55.64 55.27 54.84 53.52 52.86 52.17 51.59 51.01 50.82 50.48 49.83 50.30 51.31 52.41 53.54 56.57 57.45 56.77 57.29 55.25 56.30 54.31 53.79
55.93 57.23 58.54 57.75 59.30 61.92 62.69 61.66 61.96 62.60 62.35 62.72 62.83 63.35 62.61 60.16 59.65 59.01 56.82 56.00 55.53 55.17 54.54 53.67 52.34 51.72 50.69 50.65 49.83 49.81 49.42 50.00 51.55 53.51 55.34 55.96 56.73 57.75 55.89 54.61 54.02 53.62 53.00
58.22 58.49 58.12 58.80 61.20 62.60 62.72 61.79 62.24 61.70 61.59 61.81 62.65 62.19 62.32 61.30 59.49 58.74 56.66 56.41 55.43 54.60 53.36 52.36 50.84 51.35 50.36 49.51 49.01 49.48 49.40 49.44 49.95 52.23 54.33 54.25 54.67 54.30 54.74 53.44 52.58 50.90 50.77
59.10 58.88 60.20 61.07 61.88 62.17 62.21 61.60 61.25 62.04 62.81 62.60 62.72 63.26 63.50 62.61 60.03 58.49 56.46 55.85 53.61 51.27 51.52 50.61 51.46 50.36 50.06 49.83 49.34 49.23 49.09 48.83 48.66 49.28 53.06 53.57 52.30 53.08 50.84 49.35 49.03 48.33 47.74
58.84 59.64 60.31 62.46 62.67 62.15 62.00 61.77 61.93 62.54 62.93 63.32 62.23 61.51 61.04 60.65 59.11 58.19 57.04 54.27 52.27 51.17 51.35 51.72 51.08 51.66 49.71 49.29 48.88 49.40 49.06 48.43 48.02 47.49 47.53 48.75 49.40 50.72 50.35 48.52 48.62 48.01 47.51
59.90 60.67 61.60 62.80 62.95 62.08 61.84 61.39 61.43 61.65 62.30 62.45 61.38 60.39 59.27 58.78 57.66 57.26 56.48 53.86 52.95 53.00 52.21 51.74 51.14 50.37 49.98 49.47 47.73 48.06 49.24 47.92 47.95 48.47 47.49 46.86 48.38 48.08 47.90 48.10 49.23 48.31 46.00
59.70 60.29 61.00 62.18 62.37 61.17 60.36 59.63 59.58 59.66 60.73 60.47 59.11 59.21 58.55 57.42 56.55 56.70 56.01 54.36 54.17 53.08 52.07 51.61 50.02 49.89 49.24 49.20 48.53 47.48 47.31 46.89 46.19 47.02 46.78 46.48 46.58 46.82 46.77 47.46 47.50 47.03 46.03
59.36 60.22 60.77 61.64 62.26 61.56 61.06 60.70 60.70 60.48 60.09 60.66 59.29 57.77 57.78 56.76 55.97 55.68 55.51 53.95 53.49 52.48 50.99 50.57 50.53 49.09 49.14 48.48 47.87 46.02 44.26 44.46 45.38 46.12 46.19 45.24 45.58 45.99 44.79 44.62 44.77 44.46 45.00
59.32 59.79 60.23 61.21 61.86 61.94 61.44 60.44 59.04 59.40 59.04 57.77 57.36 57.42 56.49 56.41 54.83 54.94 55.04 53.73 52.77 52.44 50.44 50.25 50.37 49.65 47.64 47.30 47.17 44.28 41.97 40.48 42.71 45.68 45.36 45.08 45.14 44.92 45.35 45.16 44.42 43.91 43.88
60.40 60.47 60.62 61.12 61.25 61.36 61.10 59.53 58.51 58.72 58.32 58.54 57.69 57.56 56.22 55.89 53.59 52.59 53.88 52.79 51.84 51.24 50.12 50.09 49.61 49.09 47.22 45.65 46.29 45.64 46.18 45.05 39.82 38.94 44.47 44.80 44.79 43.72 45.01 45.77 44.54 44.29 43.21
61.43 60.72 60.94 61.06 60.81 61.07 60.33 60.34 59.72 58.84 60.07 57.32 56.22 56.09 55.67 53.68 52.79 52.04 52.63 51.45 50.80 50.81 50.58 49.54 48.39 47.42 46.52 44.83 44.68 45.23 44.79 44.25 44.01 40.89 37.80 40.75 43.70 44.73 45.20 44.80 44.05 43.21 42.13
61.13 60.72 60.87 60.43 60.43 61.05 60.46 60.20 58.79 58.38 57.82 56.51 56.24 55.60 54.90 53.81 53.17 52.57 51.15 50.94 50.73 49.49 48.15 45.29 44.14 45.15 43.97 42.46 44.75 44.33 42.93 41.52 40.82 40.38 38.85 39.78 39.85 42.06 43.27 42.94 42.87 42.61 41.84

GFSSE_sfc_wetblb_054.txt.gz
Wetbulb
69.63 71.70 71.24 71.74 72.02 71.91 71.76 71.26 70.66 70.42 70.26 70.20 70.01 69.91 69.89 69.82 69.89 69.92 69.84 70.11 70.95 71.83 71.12 70.13 70.04 68.44 68.19 68.20 68.07 67.91 67.62 67.52 68.09 67.99 67.39 67.22 66.95 66.77 66.55 67.19 67.92 68.36 68.52
71.78 70.67 70.63 71.20 71.57 71.41 70.96 70.42 69.95 69.92 69.90 70.13 69.98 69.71 69.55 69.55 69.45 69.48 69.79 70.01 70.62 71.30 70.84 69.64 68.52 67.60 67.40 67.14 66.76 66.54 66.30 66.81 66.69 67.22 67.44 66.36 66.54 66.60 66.39 66.04 66.59 65.85 66.06
71.66 70.65 71.62 70.57 70.54 70.52 70.27 69.89 69.82 69.93 69.93 69.62 69.76 69.30 69.45 69.45 69.67 69.87 70.38 70.31 70.48 70.99 70.48 69.68 67.73 67.49 67.06 66.66 66.39 66.08 65.88 65.59 66.31 65.96 67.42 65.10 65.76 65.99 66.07 65.60 66.25 65.70 65.63
71.21 70.95 70.54 70.05 69.84 69.85 69.47 69.55 69.58 69.57 69.54 69.76 69.40 69.35 69.36 69.48 69.48 70.79 70.74 70.67 70.53 71.04 70.46 69.28 67.65 67.04 66.64 66.24 66.17 65.67 65.58 65.23 65.46 66.56 64.89 64.98 64.78 65.18 65.58 65.53 65.77 65.84 65.45
70.39 70.56 70.65 69.50 69.11 69.26 69.12 69.25 69.00 69.23 68.94 68.81 68.84 69.31 69.45 69.16 69.26 69.74 70.11 70.01 70.31 71.05 69.90 68.44 66.84 66.13 65.90 66.26 65.67 64.64 64.29 64.61 65.10 64.77 64.47 64.98 64.59 64.26 64.74 64.86 64.72 64.43 64.40
70.27 70.03 68.43 68.17 68.40 68.99 69.13 69.01 69.03 68.59 68.12 68.20 68.47 68.92 69.33 68.89 68.70 68.65 68.69 70.07 70.60 70.31 68.60 66.26 65.34 65.04 65.22 64.79 64.30 63.45 63.37 63.29 63.83 63.43 64.10 64.25 63.45 63.01 63.12 62.86 62.49 62.32 62.34
70.18 69.51 68.60 67.14 67.61 68.35 69.18 68.95 68.53 67.98 67.82 68.10 68.33 68.50 68.65 68.58 68.02 67.53 67.84 68.70 69.26 68.62 66.63 65.00 64.03 63.77 64.09 63.52 62.29 62.12 62.21 62.06 62.23 62.64 63.26 63.37 62.83 62.10 62.22 62.04 61.75 61.66 61.38
68.24 68.90 68.53 67.60 67.62 67.96 68.10 68.04 67.46 67.14 67.47 67.70 67.66 67.81 67.98 67.78 67.17 66.95 66.41 66.62 66.62 66.53 66.10 65.04 64.34 63.58 62.63 61.59 60.56 60.29 60.23 61.27 61.47 61.43 62.66 62.59 61.63 61.27 61.47 61.03 60.51 60.37 60.35
64.93 66.54 65.85 66.50 67.50 67.05 66.65 66.80 66.66 67.07 67.25 67.18 66.92 66.80 66.69 66.51 66.40 66.12 65.70 65.54 65.23 65.13 65.41 64.75 63.66 62.89 61.37 59.66 58.92 58.54 59.22 59.31 60.32 60.82 61.36 62.07 60.84 60.43 60.46 60.12 59.65 59.24 59.35
62.56 63.98 63.69 63.46 66.56 66.79 66.50 66.30 66.30 66.59 66.65 66.59 66.27 65.85 65.32 65.55 65.55 65.44 64.95 65.16 64.87 64.35 63.82 62.75 62.40 61.40 58.73 57.93 57.37 57.54 58.27 59.09 59.35 59.49 60.83 61.60 60.57 60.10 59.50 59.14 58.70 58.66 58.54
60.00 60.34 59.93 60.53 58.85 61.61 63.49 65.13 66.28 66.47 65.82 65.00 64.85 64.45 63.20 63.35 63.71 63.79 63.81 64.40 64.37 63.92 62.87 61.23 59.97 58.62 57.73 55.99 55.63 56.37 57.35 56.92 57.55 58.22 58.97 60.87 60.53 59.87 58.99 58.13 58.01 57.72 57.65
57.17 58.34 59.32 57.58 56.52 60.37 63.03 62.68 64.60 65.31 64.24 63.26 63.18 63.28 62.50 63.78 63.71 63.64 63.52 63.37 62.94 62.00 60.81 59.21 57.97 58.37 59.68 57.86 56.15 57.09 55.34 55.56 55.30 55.83 57.41 58.37 59.77 59.79 58.51 57.60 57.21 56.85 56.48
56.55 56.99 57.75 58.15 60.17 60.27 60.31 60.00 62.33 65.07 63.77 63.55 64.08 62.92 63.32 63.11 62.94 63.02 62.28 61.27 61.06 60.27 58.43 57.91 58.22 58.13 57.57 57.27 56.20 55.73 55.00 54.35 54.19 54.08 55.20 55.85 58.45 59.67 58.43 57.25 56.68 56.05 55.69
55.71 56.95 57.32 58.14 59.25 58.60 60.16 59.99 60.37 61.64 63.00 62.55 62.55 63.86 63.12 62.38 62.37 63.28 62.48 62.64 61.40 61.02 59.72 58.73 58.02 57.10 55.98 55.89 55.23 54.26 54.28 53.89 53.82 54.17 54.48 55.37 57.71 59.22 58.09 57.16 56.09 55.00 54.30
55.31 56.38 56.37 57.86 57.77 59.84 59.98 59.95 61.98 62.82 62.11 62.55 63.02 63.26 63.11 63.05 62.45 62.31 62.45 61.90 61.16 60.42 59.54 57.93 56.60 56.16 55.85 55.58 54.90 53.80 53.33 53.80 54.20 55.20 56.87 57.39 56.94 58.01 57.29 56.46 55.73 54.88 53.88
56.25 56.32 55.96 56.49 57.11 58.30 59.52 60.91 62.21 62.94 62.53 63.42 63.23 63.68 63.60 63.32 63.13 61.87 61.57 60.96 59.70 59.30 59.34 58.63 58.06 57.14 56.59 55.64 54.20 53.46 52.94 53.21 53.98 55.66 56.81 56.75 57.08 58.19 56.35 55.03 54.79 54.00 53.32
57.37 58.26 55.45 58.44 60.16 60.71 61.85 62.14 63.37 62.64 62.52 62.37 63.68 65.47 64.26 63.31 63.42 62.68 60.78 58.78 59.20 59.63 59.28 58.28 57.27 57.07 55.85 54.83 53.27 53.12 53.05 52.72 53.40 54.48 56.10 57.52 56.03 54.01 55.20 54.29 52.91 51.35 51.11
59.99 58.98 59.32 59.49 60.89 62.09 63.43 63.36 62.54 62.58 62.69 62.97 64.84 65.12 64.85 64.66 63.09 62.45 60.92 60.84 61.01 59.83 57.88 54.02 56.28 57.07 55.96 55.20 53.65 54.23 53.95 53.69 52.91 53.50 56.11 56.35 56.91 55.46 51.48 49.82 49.09 48.59 48.33
61.25 60.93 60.27 61.04 61.40 62.71 64.31 64.25 62.40 63.76 63.19 63.12 64.47 64.93 65.00 65.62 64.79 62.94 61.92 61.69 60.05 55.15 54.47 54.34 57.08 57.09 54.95 54.72 53.47 55.06 54.82 53.73 51.91 50.98 52.43 53.55 53.55 52.94 51.32 49.72 48.45 47.95 47.81
61.78 61.40 60.92 62.21 63.03 64.22 64.55 64.52 62.98 62.29 63.16 64.18 65.01 64.28 64.31 65.15 65.08 63.63 62.82 61.45 57.97 57.06 54.51 54.96 55.18 55.88 55.90 55.18 51.80 53.02 54.76 52.92 51.96 51.27 50.56 50.12 50.87 51.00 50.49 49.72 50.35 49.93 46.83
61.75 61.75 62.26 62.49 63.58 64.52 63.76 62.79 61.98 60.66 62.16 63.50 64.71 65.01 63.45 64.10 63.88 63.64 62.48 60.20 58.16 56.09 55.50 55.44 55.36 54.65 53.47 54.50 53.67 53.67 53.10 52.20 50.84 50.37 50.61 50.04 49.73 50.12 49.79 49.41 49.43 49.23 48.70
60.86 61.98 62.26 62.82 64.05 64.68 64.23 63.54 62.54 61.60 62.47 63.44 64.36 62.39 62.37 62.05 62.17 61.99 61.36 59.42 58.73 57.39 54.21 54.79 55.59 54.16 54.59 54.34 53.30 51.52 49.74 50.86 49.92 50.08 50.31 49.66 49.73 49.87 48.76 48.57 48.55 48.14 48.07
60.70 61.61 62.74 63.71 64.65 65.42 65.16 64.41 62.98 62.89 62.87 62.11 62.12 62.28 60.57 60.60 60.61 60.17 60.83 59.50 59.27 56.16 53.06 54.89 55.77 54.59 52.45 52.68 51.72 50.88 48.11 46.96 48.19 50.75 49.65 49.51 49.35 49.07 48.85 48.28 48.71 48.26 47.78
61.54 62.65 62.88 63.39 63.88 65.26 65.64 63.91 62.00 60.35 59.68 61.66 62.05 61.26 60.57 59.84 59.31 60.46 60.00 58.79 56.82 55.58 55.37 56.04 55.54 54.92 53.69 50.54 51.02 50.09 49.07 48.47 45.32 44.63 49.19 48.49 48.84 47.95 48.28 48.47 48.66 48.49 48.06
62.99 62.66 63.41 63.77 63.77 64.70 65.20 64.92 63.00 61.17 61.45 63.39 62.57 61.64 60.03 59.19 60.44 58.81 57.55 56.47 56.02 57.29 56.69 55.97 54.63 53.98 49.14 45.77 46.49 45.59 47.68 48.70 48.11 44.45 41.79 44.01 46.73 47.50 47.87 47.63 47.94 47.15 46.88
65.32 64.87 64.78 63.85 63.46 64.40 64.74 64.89 64.32 63.05 62.73 62.82 61.89 61.06 60.78 60.27 59.27 57.59 55.02 54.52 56.14 56.36 55.98 55.10 52.75 47.45 46.56 45.89 45.48 44.89 47.86 46.16 44.88 43.52 42.32 43.03 43.07 45.17 46.62 46.48 45.99 45.82 46.08

GFSSE_sfc_wetblb_057.txt.gz
Wetbulb
70.55 71.27 71.58 72.70 72.71 72.51 72.18 71.75 71.29 70.99 70.77 70.89 70.57 70.55 70.48 70.60 70.73 70.90 71.00 71.64 71.82 71.73 70.02 69.30 68.54 68.38 68.24 68.18 67.90 67.56 67.63 68.53 68.21 68.24 67.45 67.26 67.09 67.18 67.24 67.95 67.75 67.38 68.29
71.17 71.14 70.95 71.96 72.35 72.13 71.87 71.34 70.79 70.40 70.59 70.47 70.42 70.20 70.11 70.36 70.41 70.51 71.27 71.62 71.57 70.83 68.83 68.22 67.62 67.37 67.16 66.71 66.38 66.11 66.11 66.66 67.60 67.97 67.87 66.74 66.56 66.65 66.64 66.26 66.72 65.84 66.47
70.65 70.91 72.18 71.14 71.78 71.74 71.30 70.83 70.55 70.52 70.45 70.42 70.13 69.94 69.89 70.07 70.22 70.34 70.80 71.07 71.08 70.62 68.29 67.80 67.34 67.17 66.88 66.43 66.09 65.63 65.51 66.09 66.16 66.73 68.66 64.62 65.08 66.26 66.52 66.49 66.83 65.82 65.63
71.25 70.13 71.67 70.55 70.75 70.75 70.50 70.22 70.11 70.16 70.11 70.06 69.82 69.92 70.14 70.24 70.73 70.70 70.61 70.53 70.66 70.33 67.94 67.57 67.46 67.02 66.57 66.03 65.81 65.49 65.46 65.61 65.48 66.42 64.97 64.22 64.30 66.07 66.11 65.37 65.50 65.96 65.85
70.42 69.56 71.09 69.53 69.58 69.93 69.75 69.68 69.56 69.70 69.31 69.35 69.50 70.07 70.14 71.33 71.43 71.25 70.32 70.30 70.44 69.72 67.60 67.36 66.73 66.01 65.50 65.43 65.15 64.92 64.48 65.39 65.97 64.54 63.89 63.65 63.17 63.98 64.27 63.72 63.58 63.86 64.10
71.19 69.48 68.81 68.49 68.77 69.44 69.60 69.47 69.34 68.96 68.52 68.63 69.08 69.65 70.28 70.79 71.13 70.73 70.05 69.91 69.94 68.89 66.85 66.30 65.23 64.40 64.38 64.63 63.93 63.32 63.57 64.10 64.82 63.89 63.18 62.93 62.06 63.06 63.17 62.61 62.19 62.16 62.55
70.97 69.60 70.00 67.49 68.25 69.05 69.46 69.38 68.82 68.41 68.22 68.63 68.76 68.84 69.08 69.37 70.09 70.31 69.68 69.47 68.69 67.32 65.80 64.65 63.87 63.17 62.98 62.92 61.84 62.16 62.67 62.41 62.72 62.90 62.28 61.73 61.54 62.03 62.21 61.62 61.53 61.48 61.20
67.82 67.83 67.59 67.84 67.80 68.02 68.45 68.21 67.81 67.85 68.09 68.20 68.19 68.05 68.27 67.96 68.54 68.94 68.77 67.55 66.96 66.20 65.51 64.18 63.60 62.54 61.79 61.04 60.70 60.65 60.79 61.75 62.10 62.62 62.04 61.02 61.19 61.18 61.33 60.73 60.36 60.28 60.42
67.35 66.26 66.30 66.59 67.46 66.84 66.43 66.32 66.56 67.17 67.51 67.72 67.53 67.34 67.06 66.29 66.22 66.88 67.13 66.84 66.39 65.72 64.58 63.71 62.50 61.73 59.95 59.53 59.11 59.10 58.96 60.13 61.19 61.70 61.88 60.78 60.46 60.45 60.39 59.86 59.73 59.59 59.33
65.24 64.67 64.58 65.05 65.75 65.58 66.12 65.82 66.06 65.74 66.34 66.53 66.46 66.04 65.68 65.41 65.35 65.20 64.94 65.69 65.77 65.09 64.03 62.23 60.99 59.72 58.79 58.33 58.13 58.55 58.57 60.06 59.71 60.46 61.16 60.64 60.27 59.96 59.55 59.40 59.13 58.87 58.62
61.83 63.09 64.51 64.36 64.34 64.74 65.81 65.60 65.07 66.00 65.80 65.14 65.24 64.47 63.32 62.98 62.52 63.39 64.16 64.11 64.15 63.56 62.86 61.13 59.48 58.62 58.12 57.07 57.19 56.43 58.63 57.21 57.68 58.90 59.83 61.77 60.17 59.65 59.14 58.64 58.20 58.09 58.00
57.38 58.35 60.72 62.10 61.77 62.79 61.73 62.72 62.81 63.59 64.58 63.84 63.77 64.43 62.98 63.08 63.68 62.87 63.67 63.82 63.09 62.38 61.48 60.26 59.27 59.01 58.82 57.98 56.68 57.41 56.01 56.17 55.47 56.17 58.38 60.45 60.19 59.33 58.49 57.99 57.26 57.06 57.15
58.25 57.39 56.95 58.37 58.99 60.53 60.24 60.89 61.51 62.44 62.60 62.51 63.94 63.85 64.39 63.93 64.42 63.00 61.68 60.89 60.46 60.06 57.90 57.92 57.69 59.91 59.61 58.61 57.18 56.74 55.65 55.25 54.62 54.77 55.31 57.77 59.54 59.60 58.47 57.56 56.82 56.34 56.05
56.21 56.07 57.54 59.42 59.56 58.87 58.35 57.89 59.38 60.83 62.56 62.75 62.96 64.70 64.93 63.58 64.19 62.99 61.42 61.04 61.30 60.85 59.90 60.88 59.88 59.26 58.33 57.46 56.84 55.82 55.30 54.90 54.56 54.71 54.69 57.02 58.29 59.59 58.66 57.58 56.23 55.22 54.81
55.12 56.33 56.81 57.66 57.76 57.76 56.74 57.99 58.18 57.74 59.17 60.45 62.82 64.05 63.77 62.84 63.61 63.61 63.07 62.44 62.14 61.84 60.93 60.25 59.48 58.27 57.92 57.10 56.29 55.03 54.30 55.06 55.30 55.62 57.07 57.50 56.74 58.92 58.13 58.15 56.38 55.55 54.27
55.12 55.76 56.62 56.88 58.27 58.71 57.28 58.42 58.61 62.39 62.40 62.52 63.19 63.78 65.32 64.57 64.48 63.40 62.88 62.23 61.90 61.66 61.18 60.40 59.92 58.84 57.96 56.98 55.26 54.28 53.77 54.43 55.00 55.96 56.89 56.17 57.64 59.27 57.50 56.10 56.10 55.09 54.35
54.91 55.36 55.79 56.71 58.53 58.31 57.73 58.78 60.69 62.28 62.44 62.16 62.52 65.25 64.50 64.17 64.43 63.52 62.40 62.21 61.63 61.49 61.56 61.08 59.36 59.09 57.82 56.74 55.30 54.43 54.04 54.14 54.00 54.76 55.08 56.76 55.30 55.20 56.23 55.10 53.87 52.44 51.55
56.87 55.10 56.26 57.86 58.37 58.75 58.70 59.58 61.33 62.19 62.62 61.28 63.12 64.18 65.41 64.14 64.45 63.57 62.52 61.87 61.95 61.86 60.35 59.76 58.73 58.53 58.08 56.86 55.93 55.02 54.63 53.70 53.20 53.47 55.53 55.29 56.10 55.88 53.94 53.07 50.87 48.93 48.38
59.43 58.12 57.86 59.02 59.70 60.19 61.43 61.34 62.29 63.65 62.22 62.70 63.18 64.62 65.30 64.82 64.01 63.37 62.48 62.65 63.22 61.09 59.96 57.86 58.43 59.41 57.30 56.12 54.55 54.80 55.40 54.60 53.35 52.43 52.88 54.00 54.37 52.13 51.98 52.60 50.29 48.71 47.77
59.64 59.20 59.67 60.73 61.24 62.66 62.84 62.82 61.72 61.97 62.76 62.79 62.48 64.15 65.15 65.27 65.80 63.84 63.28 63.53 62.66 60.27 58.03 58.12 57.97 57.85 57.78 55.96 52.89 52.95 55.25 55.05 54.19 53.11 52.21 51.90 51.90 51.79 51.76 51.35 50.48 50.24 49.48
61.28 60.61 60.66 60.81 62.72 61.75 61.61 60.78 60.40 59.46 61.15 61.75 63.27 64.81 65.62 64.74 65.37 65.20 64.50 63.70 61.79 59.51 58.82 57.90 56.68 56.66 55.63 55.71 54.14 54.28 54.81 55.28 53.87 52.83 52.59 52.06 51.58 51.32 51.64 50.84 50.04 49.80 49.31
60.94 60.66 60.28 60.59 61.28 62.22 61.77 61.39 61.56 61.57 61.14 62.42 63.40 64.74 65.17 64.60 64.82 64.28 64.57 63.62 61.72 59.76 58.60 57.63 56.52 55.07 55.71 56.01 53.09 53.33 50.49 52.56 51.59 52.40 52.01 51.69 51.78 51.28 50.84 50.59 49.78 49.35 49.27
61.26 61.20 61.04 62.14 62.70 63.00 63.64 63.18 62.56 62.24 61.87 61.12 62.23 63.43 63.96 63.23 60.92 60.54 61.07 62.11 61.42 60.76 58.22 57.21 56.40 55.03 53.73 54.89 54.79 52.49 49.08 47.39 49.52 52.97 51.63 51.40 51.54 50.85 50.63 50.36 49.45 49.52 49.62
61.41 62.61 62.68 62.85 63.23 63.80 64.72 63.44 62.65 60.60 59.14 60.54 62.07 63.09 63.17 60.78 60.03 59.68 58.96 59.94 62.33 61.48 58.37 56.14 55.83 55.97 56.27 53.75 53.64 53.32 51.44 48.83 45.83 46.16 51.17 50.88 50.84 49.54 50.16 49.59 49.43 49.68 49.71
62.78 63.18 63.59 63.84 64.13 64.88 65.10 64.53 63.27 61.98 61.42 62.06 62.59 63.06 62.57 61.72 61.01 59.95 60.01 60.18 61.19 59.06 56.73 55.34 55.77 57.47 56.20 54.39 48.70 46.63 46.46 48.92 50.00 46.78 44.44 46.65 48.72 48.99 49.39 48.89 48.99 48.97 48.03
63.68 64.17 64.48 63.36 63.36 64.23 64.57 65.13 64.82 63.91 62.54 61.37 62.14 62.53 61.60 61.35 61.17 61.18 60.77 58.92 58.24 56.59 55.44 55.67 58.26 56.85 51.74 49.32 49.70 46.52 44.19 45.82 46.91 46.44 44.62 44.80 44.75 46.81 48.16 48.61 48.17 47.31 47.27

GFSSE_sfc_wetblb_060.txt.gz
Wetbulb
68.78 71.05 72.14 72.51 72.37 72.08 71.87 71.67 71.26 71.14 71.15 71.27 71.15 71.20 71.05 71.25 71.19 71.29 71.58 71.51 71.10 70.71 69.28 68.81 68.30 67.98 67.79 67.65 67.41 67.63 68.69 68.71 68.21 68.16 67.91 67.16 67.41 67.37 67.14 67.90 67.56 65.63 68.02
69.35 71.46 71.52 72.10 72.25 72.28 72.02 71.44 71.11 70.89 70.82 71.08 70.95 70.77 70.80 70.93 71.04 71.84 71.56 71.07 70.35 69.21 68.61 67.89 67.34 66.97 66.31 66.19 66.39 66.71 67.17 68.23 67.66 67.53 67.54 66.62 66.77 67.53 67.02 66.28 66.90 65.42 66.12
67.29 70.88 72.10 71.39 71.89 72.10 71.85 71.39 71.07 70.94 71.00 70.80 70.53 70.50 70.61 70.88 71.52 71.55 70.89 69.82 69.71 68.95 67.97 67.65 67.13 66.95 66.15 65.76 66.18 66.37 66.78 66.66 66.90 67.55 66.68 63.17 63.74 65.69 66.78 66.60 66.80 66.61 66.20
68.60 70.33 71.51 71.17 71.44 71.50 71.09 70.77 70.56 70.67 70.46 70.34 70.37 70.35 70.45 70.79 71.20 71.28 70.52 69.43 69.11 68.99 67.95 67.52 67.00 66.36 65.58 65.53 65.76 65.81 66.06 66.09 66.66 67.02 61.98 61.67 62.60 65.22 64.80 65.15 65.18 65.17 64.74
69.23 69.96 71.23 70.60 70.46 70.71 70.33 70.15 69.98 69.98 69.62 69.58 69.78 70.30 70.47 70.81 71.28 71.17 70.14 68.87 69.01 68.36 67.50 66.96 66.18 65.13 64.71 65.16 65.11 64.81 64.71 64.94 65.12 62.08 59.47 59.84 60.14 63.05 63.67 63.46 63.41 63.48 63.63
68.98 70.20 69.14 69.27 69.75 70.13 70.07 69.87 69.72 69.16 68.94 68.95 69.53 70.73 71.30 71.25 71.12 70.66 69.67 68.70 68.75 67.65 66.41 65.43 64.67 63.93 63.90 63.90 63.47 63.82 63.72 63.51 63.76 59.57 59.01 60.43 59.86 62.86 62.75 62.46 62.18 62.34 62.10
67.56 68.88 68.92 68.11 69.07 69.69 69.84 69.78 69.15 68.82 68.66 68.90 69.89 70.49 70.76 71.26 70.54 69.94 69.14 68.03 67.62 66.83 64.88 64.22 63.24 62.72 62.52 62.71 62.47 62.25 62.17 63.01 60.22 58.75 58.21 58.35 58.65 62.11 62.16 61.78 61.45 61.24 61.00
67.48 67.30 67.75 68.31 68.08 68.48 68.69 68.60 68.06 68.07 68.56 68.57 69.07 69.45 70.31 70.03 69.67 69.44 67.80 67.18 66.58 65.74 64.79 63.12 62.54 61.51 61.34 61.31 60.61 60.03 60.90 62.24 60.86 58.32 58.02 57.63 60.56 61.28 61.26 60.96 60.23 60.09 59.97
66.48 64.43 64.88 65.45 66.18 66.57 66.57 66.69 67.13 67.59 67.79 67.72 67.52 67.89 68.21 68.28 67.95 67.49 66.97 66.44 65.70 65.04 63.97 62.38 61.43 61.28 60.20 59.78 59.53 59.61 59.82 60.96 58.55 58.88 58.70 57.11 60.72 60.64 60.70 60.33 59.84 59.58 59.40
64.96 64.40 63.85 63.81 63.95 63.94 63.33 63.91 64.98 66.18 66.54 66.58 66.28 65.90 65.64 66.03 66.52 66.37 65.78 65.48 65.00 64.33 62.93 61.04 60.48 60.59 59.49 58.40 57.74 57.64 58.71 59.24 57.47 58.13 57.56 57.59 60.21 60.34 60.07 59.79 59.35 59.03 58.89
63.22 63.47 63.48 63.27 62.84 62.67 62.32 63.26 63.84 65.25 65.67 65.38 64.94 64.56 63.45 63.30 63.03 63.22 64.70 64.56 64.35 63.54 62.34 60.77 60.06 59.48 57.71 56.61 57.80 57.35 58.44 52.71 55.12 57.63 57.64 61.37 59.93 59.95 59.47 58.89 58.64 58.34 58.31
57.33 61.32 62.95 62.79 60.84 61.34 59.27 59.22 60.96 63.24 63.11 62.97 62.11 61.17 60.74 61.06 61.12 62.54 63.18 63.24 63.19 62.58 61.63 60.92 59.98 58.87 57.88 52.19 52.52 56.77 52.08 52.65 53.65 57.13 57.48 61.54 60.02 59.50 58.89 58.13 57.81 57.56 57.30
56.53 57.57 59.20 60.72 60.26 60.25 60.91 61.05 61.09 60.97 61.41 61.66 63.12 61.96 62.15 60.84 60.74 60.63 59.23 59.03 58.60 59.43 55.31 56.68 56.72 55.28 56.39 54.73 53.73 52.49 52.58 51.59 51.37 52.95 57.69 60.72 60.40 59.38 58.61 57.92 57.14 57.07 56.28
55.53 56.82 58.14 59.07 58.60 59.20 59.01 59.00 59.37 60.20 60.20 60.82 61.78 62.88 62.04 61.23 59.85 58.99 58.94 58.56 57.31 57.07 55.14 56.52 57.03 56.28 55.01 54.59 53.79 52.40 52.00 51.49 51.11 50.17 55.34 59.17 60.77 59.61 58.74 57.67 56.50 56.13 55.61
55.08 56.69 57.23 57.42 56.87 56.94 56.80 58.27 57.76 58.53 59.80 60.91 61.35 62.85 62.34 61.61 61.02 59.88 59.27 58.65 58.03 59.15 58.33 57.64 56.23 55.54 54.54 54.00 52.95 51.91 51.73 51.49 51.66 52.53 52.63 57.73 58.31 60.11 58.70 57.68 56.66 55.54 54.61
55.20 55.33 56.59 56.27 55.99 56.24 55.55 56.29 56.82 58.56 58.04 59.37 62.00 62.15 62.33 61.70 62.52 60.23 61.02 60.02 59.67 59.47 58.76 57.74 56.18 55.61 54.83 53.22 51.79 51.07 50.91 51.22 51.23 52.08 52.54 54.75 58.09 59.79 58.75 58.02 57.01 56.21 55.34
54.78 55.51 56.17 56.41 56.23 55.87 55.73 55.79 56.56 57.87 58.35 59.67 61.93 62.42 62.05 62.42 62.57 61.33 60.79 60.59 59.95 59.21 58.53 57.94 56.92 55.92 54.29 54.38 52.05 51.54 50.91 50.72 50.47 50.93 52.36 51.88 53.84 56.36 56.89 57.00 55.71 54.46 52.89
55.09 54.43 56.44 57.41 56.31 55.88 55.70 55.38 57.29 57.80 59.56 59.89 61.37 62.07 62.11 63.12 62.88 61.75 60.23 60.34 59.92 59.25 58.33 56.89 55.53 55.00 54.78 53.31 50.78 49.99 49.71 50.14 49.73 49.61 51.26 51.98 52.48 53.09 55.59 56.04 53.85 52.29 50.45
55.48 54.71 55.74 56.99 56.26 55.78 56.62 57.26 57.43 59.34 59.97 60.14 60.00 61.87 62.69 62.62 62.71 61.49 60.98 60.27 60.75 58.66 57.37 56.88 55.00 56.33 54.42 52.54 51.35 50.63 50.36 49.68 49.23 50.78 49.37 50.44 49.96 49.94 51.20 54.45 53.45 52.35 50.78
56.61 56.63 57.05 57.28 56.86 56.82 56.61 56.91 58.60 59.57 60.13 60.87 60.44 62.00 63.23 63.01 62.08 61.72 61.06 60.99 60.76 58.79 56.47 55.11 55.03 55.42 55.13 54.21 53.30 51.20 50.97 50.36 49.82 48.81 48.19 49.35 48.87 48.11 47.24 48.34 47.19 47.17 51.35
57.48 56.90 57.13 57.42 58.57 58.12 57.11 56.96 57.95 58.27 59.78 60.31 60.23 61.57 63.27 63.26 63.48 62.74 61.41 61.35 60.63 58.60 55.71 55.59 55.03 53.65 53.42 53.21 51.43 49.34 50.34 50.97 50.35 48.85 48.60 47.86 47.87 48.10 47.21 47.18 45.71 44.90 46.62
56.62 57.30 57.95 58.47 58.67 58.98 59.31 59.49 60.02 59.17 59.53 60.30 60.42 61.29 63.29 63.80 63.20 62.87 62.26 61.53 60.35 58.32 56.76 55.01 54.66 52.49 53.35 53.65 50.06 48.77 45.58 47.84 48.83 49.76 48.27 48.39 46.96 47.41 47.65 47.91 46.14 45.51 44.59
56.48 57.44 58.59 58.95 58.77 59.40 61.02 60.71 60.14 59.61 59.11 58.42 59.49 59.97 62.50 62.72 61.92 62.07 62.46 61.29 59.81 59.66 56.39 55.64 54.33 53.29 51.49 52.99 52.39 48.35 45.01 43.56 44.27 49.06 49.06 48.93 47.14 46.34 46.25 46.73 46.61 45.98 45.72
58.66 59.53 59.45 59.38 59.70 60.13 60.76 59.91 58.68 58.16 57.00 58.18 59.35 60.48 62.31 62.53 61.23 60.43 60.07 59.36 58.99 58.43 57.60 56.71 55.33 53.63 52.99 50.35 51.21 51.00 46.94 45.12 42.69 42.69 47.78 47.94 48.52 46.91 45.39 45.27 45.13 46.07 46.14
60.61 59.83 59.46 59.60 60.08 61.23 61.11 61.71 59.89 59.39 58.75 59.32 59.42 59.87 61.48 60.99 60.57 60.11 59.74 59.04 59.00 58.83 58.37 55.68 54.31 53.16 53.24 52.18 49.93 44.72 44.02 45.89 44.79 44.17 41.69 44.12 46.19 45.91 45.39 45.56 44.94 44.69 45.20
60.81 61.09 60.90 61.12 61.35 61.92 61.63 61.65 62.28 61.33 60.38 59.09 59.38 59.41 60.61 60.48 60.04 60.07 59.94 58.79 58.80 57.43 55.22 54.26 53.93 53.03 51.94 49.17 47.16 45.57 44.62 43.75 43.73 42.53 41.23 41.55 40.95 42.69 43.98 44.83 44.55 43.01 42.81

GFSSE_sfc_wetblb_063.txt.gz
Wetbulb
69.52 71.93 71.81 72.40 72.61 72.14 71.84 71.43 71.03 70.95 71.19 71.49 71.35 71.18 71.19 71.51 71.87 71.53 71.04 70.61 70.41 70.01 68.69 68.08 67.63 67.59 68.15 68.17 68.11 68.55 68.86 68.16 67.92 68.09 68.06 67.16 67.19 67.16 66.88 67.15 66.22 65.57 67.78
63.79 69.36 70.62 71.81 72.40 72.25 72.01 71.45 71.15 70.91 71.24 71.27 71.10 71.08 71.06 71.81 71.62 71.14 70.56 70.09 69.89 68.65 68.03 67.04 66.50 67.28 67.70 67.56 67.51 68.34 68.27 67.72 67.22 66.95 66.44 66.95 67.33 67.39 67.12 66.69 66.73 64.39 66.04
63.39 64.38 69.36 70.84 71.95 72.05 71.88 71.40 71.18 71.34 71.30 71.10 71.02 70.91 71.54 71.76 71.33 70.46 69.82 69.31 69.30 68.08 67.71 66.82 66.26 66.73 66.69 66.40 66.97 67.04 66.70 67.04 66.66 66.80 65.56 61.35 62.36 66.50 66.54 65.63 66.30 66.23 65.94
64.01 64.03 64.24 70.06 70.91 71.65 71.27 70.95 70.84 71.08 70.93 70.90 70.88 71.15 71.73 71.37 70.58 70.02 69.33 68.85 68.87 68.37 67.25 66.36 66.01 66.36 65.85 65.20 65.57 66.00 65.79 65.03 64.65 63.86 60.54 60.33 61.51 64.78 64.76 64.46 64.24 64.52 64.70
62.56 67.66 68.73 69.66 70.30 71.00 70.75 70.60 70.35 70.29 70.13 70.08 70.32 71.30 71.51 71.21 70.33 69.55 68.79 68.43 68.73 67.43 66.40 65.72 65.27 64.82 64.20 64.64 64.69 64.35 65.10 64.18 63.18 60.96 58.43 58.64 59.79 62.52 63.79 63.25 63.15 63.22 63.77
66.19 69.67 68.96 69.10 70.10 70.63 70.58 70.33 69.98 69.55 69.23 69.26 69.84 70.85 71.46 71.30 70.06 69.20 68.47 68.47 68.26 66.57 65.48 64.62 63.65 63.01 63.55 63.46 63.36 63.52 64.00 63.03 61.15 57.41 57.14 60.05 59.00 62.74 62.82 62.49 61.95 61.92 61.99
68.63 68.55 68.70 68.71 69.47 70.11 70.32 70.19 69.50 69.06 68.99 69.21 69.76 70.42 70.91 70.67 69.63 68.75 68.07 67.51 66.93 65.94 64.35 63.37 62.33 61.95 62.73 62.38 62.43 62.82 63.61 61.86 57.78 56.44 56.29 56.72 58.52 62.11 62.23 61.64 61.29 61.24 61.45
65.73 65.71 65.91 67.89 68.94 69.04 69.30 69.01 68.52 68.62 69.09 69.62 69.87 69.93 70.22 69.85 68.80 68.02 67.46 66.70 65.96 65.22 64.19 62.47 62.16 61.83 61.68 61.68 61.76 61.52 62.41 61.05 58.41 56.51 56.01 56.42 60.68 61.52 61.55 60.78 60.35 60.28 60.49
63.53 64.02 64.17 63.50 63.49 64.43 66.11 66.41 66.70 67.80 68.12 68.89 69.18 68.96 68.70 68.28 67.22 67.18 66.73 66.09 65.39 64.51 63.18 61.69 61.23 61.26 61.02 60.60 60.35 60.19 60.40 60.79 56.47 56.88 57.33 55.77 60.80 60.89 60.94 60.40 60.01 60.00 59.65
63.70 62.57 62.87 63.30 62.48 61.66 61.67 63.48 63.89 65.55 66.08 66.84 67.24 67.70 66.94 66.53 66.43 66.00 65.59 65.11 64.68 63.66 62.10 60.80 61.05 60.17 59.54 58.64 57.89 58.15 59.61 60.31 56.05 55.74 55.90 57.21 60.31 60.44 60.38 59.89 59.59 59.59 58.98
62.47 62.67 62.14 61.94 61.62 60.63 61.05 62.26 63.33 65.30 64.92 64.73 64.84 64.55 63.82 63.82 63.31 63.07 64.20 64.10 63.95 62.91 62.27 61.40 60.39 59.03 58.06 57.01 57.90 59.49 56.74 55.78 56.05 55.98 55.97 61.16 60.17 60.05 59.75 59.43 59.03 58.82 58.40
60.53 61.67 62.04 61.08 59.86 59.75 60.52 60.85 61.80 63.09 62.37 61.52 60.83 60.79 61.00 61.50 62.26 62.65 63.40 63.44 62.92 62.19 61.74 60.84 59.52 58.40 56.03 51.18 51.26 53.87 48.88 54.55 56.25 56.14 56.94 61.01 59.96 59.61 59.10 58.62 58.25 58.09 57.76
58.18 60.55 60.78 60.61 59.76 59.39 59.06 59.24 58.81 59.39 61.27 60.81 59.73 60.20 60.59 61.20 60.61 60.12 59.23 58.64 58.09 58.61 55.89 56.82 55.45 52.63 52.61 50.82 49.76 48.85 49.23 50.87 52.29 55.40 59.13 61.26 60.12 59.44 58.82 58.06 57.51 57.12 57.06
56.45 58.12 59.02 59.13 58.36 57.03 58.66 58.22 59.82 60.45 60.13 60.62 60.61 60.38 59.52 58.68 57.92 57.22 56.80 55.81 54.59 54.65 52.94 53.43 54.45 52.50 51.64 51.55 50.13 49.23 48.95 48.04 48.20 52.31 57.60 60.10 60.82 59.26 58.82 57.83 57.35 56.87 55.96
56.07 56.75 57.33 58.22 58.15 58.37 58.08 58.81 59.41 59.54 59.93 60.29 61.12 61.24 60.14 58.71 56.91 57.48 56.65 55.61 55.19 55.17 52.88 54.31 53.33 52.90 51.20 50.65 49.41 49.39 49.21 48.62 48.19 50.18 53.36 58.65 60.28 59.90 58.80 58.04 56.94 56.25 55.40
55.50 55.35 55.90 56.25 56.88 57.24 57.26 58.11 58.01 57.91 58.80 59.93 60.30 60.46 60.94 60.05 58.02 57.09 56.75 56.17 55.79 56.19 55.73 54.15 53.46 52.25 51.07 49.83 48.76 48.66 48.93 49.01 49.97 49.84 52.47 54.19 58.15 60.19 59.57 58.34 57.88 56.85 55.71
55.68 55.56 55.28 55.66 56.08 55.90 55.57 55.95 56.07 56.93 56.99 57.69 60.22 60.39 60.64 60.27 59.26 57.62 58.31 57.31 56.87 56.82 55.92 54.11 53.54 52.81 50.91 50.62 49.01 48.97 48.53 48.93 48.79 50.53 51.29 52.78 55.44 58.51 58.14 59.70 57.35 56.51 55.34
55.46 54.92 55.99 56.86 55.75 55.15 55.24 55.43 55.68 55.38 55.81 56.28 59.37 59.49 59.05 60.22 59.93 59.05 58.09 57.71 57.98 57.41 55.71 54.51 53.29 52.56 51.45 50.04 48.03 47.51 47.83 47.89 47.85 47.88 50.56 51.27 51.54 52.62 56.14 57.43 56.98 54.99 53.62
54.02 55.44 55.54 55.73 55.17 54.58 54.55 55.40 55.16 54.40 56.22 55.33 58.07 58.62 58.92 60.19 60.95 59.15 58.47 58.03 57.43 56.60 55.41 55.22 53.81 53.02 52.33 50.62 48.65 47.60 47.07 46.77 46.90 49.02 48.78 49.64 50.85 50.73 50.43 55.35 55.19 54.65 53.33
53.08 54.90 54.92 55.03 55.00 54.68 54.07 54.06 53.47 55.12 56.06 57.01 56.90 58.44 59.82 59.87 60.92 59.48 59.06 58.41 58.04 56.05 55.20 53.66 52.71 52.65 53.42 51.56 51.95 50.00 47.54 47.56 46.38 46.01 45.88 47.92 47.22 48.90 49.48 49.30 49.15 48.30 52.80
52.78 53.98 54.39 53.88 54.05 54.42 53.38 52.43 52.48 53.82 55.56 56.48 57.30 58.28 60.47 61.16 60.70 60.05 59.49 59.17 58.52 56.20 54.40 53.10 52.58 52.16 51.81 52.11 49.76 48.77 48.76 47.89 46.77 46.36 45.83 45.04 45.78 45.72 45.55 46.99 45.38 43.70 46.43
53.03 54.04 54.57 54.07 54.04 53.69 54.01 53.82 54.30 55.46 56.55 58.06 57.69 57.43 60.78 61.33 61.74 61.13 60.52 60.04 59.38 57.14 53.90 53.18 52.64 50.87 52.00 52.40 48.67 48.59 46.32 46.80 47.12 47.17 45.93 45.99 44.98 45.78 45.51 45.80 44.38 43.49 43.35
53.31 53.67 54.37 54.43 54.56 54.32 54.31 54.66 56.01 57.33 56.36 56.75 56.91 56.91 60.01 61.47 61.63 61.47 61.03 60.58 59.30 57.82 55.73 54.18 53.53 51.98 50.80 52.25 50.73 49.43 45.48 44.03 43.61 45.50 46.32 47.21 46.79 45.13 44.24 44.93 45.29 44.09 43.07
53.65 54.41 55.25 56.00 56.45 56.04 56.51 55.61 55.63 55.90 54.75 55.54 55.73 56.86 59.19 61.21 61.16 60.35 60.00 59.78 59.38 58.83 57.48 55.81 54.64 53.47 52.16 50.98 51.33 50.71 46.81 45.14 42.52 40.42 45.08 46.88 45.76 47.18 44.27 43.73 43.98 43.80 43.42
54.57 55.27 55.98 56.27 56.30 56.70 57.40 57.94 57.23 55.82 55.88 56.29 56.10 56.23 57.44 60.19 60.18 59.30 59.17 57.39 57.39 56.93 55.70 56.11 54.94 54.17 53.25 51.96 50.55 46.73 45.80 46.44 45.81 42.27 41.32 43.52 45.63 45.90 43.80 43.35 43.11 43.03 43.76
54.81 55.41 56.20 56.47 56.22 56.96 57.53 57.59 57.36 56.35 56.15 55.96 55.78 56.05 58.08 60.19 60.31 59.09 58.85 58.33 57.79 57.78 56.71 54.23 53.85 53.73 52.06 49.18 48.17 46.73 45.85 44.59 44.19 42.37 41.47 41.58 41.40 42.28 43.82 43.74 43.12 42.48 41.94

GFSSE_sfc_wetblb_066.txt.gz
Wetbulb
69.70 70.98 71.59 72.44 72.46 72.01 71.58 71.21 71.11 71.25 71.34 71.56 71.99 72.11 71.84 71.62 71.25 70.87 70.46 70.22 70.10 69.84 68.24 68.47 69.52 68.90 68.51 68.28 67.66 68.05 68.38 68.23 67.95 68.05 67.39 67.02 67.30 67.00 66.49 66.22 67.20 66.00 68.36
69.94 71.28 70.78 72.01 72.32 72.21 71.39 71.19 71.10 71.02 71.18 71.29 71.62 71.68 71.49 71.13 70.69 70.51 70.02 69.78 69.26 68.49 67.72 68.47 68.62 68.40 68.29 67.76 68.04 68.20 67.42 67.01 66.42 67.18 67.39 67.36 67.10 66.83 66.59 66.09 65.97 65.12 67.66
65.94 70.81 71.31 71.32 71.97 71.99 71.53 71.41 71.28 71.40 71.29 71.21 71.70 71.68 71.32 70.79 70.36 69.87 69.46 68.88 68.67 68.25 67.68 68.08 67.85 67.62 67.35 67.10 67.17 67.81 67.31 66.56 65.98 65.60 64.56 61.77 62.72 65.74 65.53 66.00 66.28 66.04 66.40
63.62 63.60 69.03 70.82 70.97 70.86 70.31 71.05 71.16 71.19 70.99 71.08 71.61 71.54 70.94 70.53 69.89 69.63 68.99 68.36 68.38 67.96 67.09 67.53 67.35 66.57 65.14 65.04 65.93 67.25 65.59 64.34 64.14 62.53 59.35 59.59 61.53 64.39 64.67 64.50 64.28 65.27 65.47
62.69 63.08 64.77 70.03 70.12 70.28 70.19 70.40 70.69 70.65 70.34 70.75 71.30 71.40 70.69 70.28 69.77 69.26 68.57 67.88 67.83 67.51 66.68 66.87 66.07 64.52 63.84 65.27 65.38 65.21 64.54 63.73 62.89 60.23 57.12 57.63 59.38 62.46 63.44 63.23 63.32 64.55 63.84
63.57 65.67 67.48 69.00 69.52 70.04 68.21 70.16 70.35 70.13 69.67 70.41 70.73 70.74 70.50 69.94 69.59 69.02 68.05 67.59 67.37 66.59 65.35 65.10 64.03 63.08 63.83 65.26 64.82 64.13 63.56 62.29 60.08 55.66 56.09 60.08 58.84 62.94 62.85 62.45 62.90 63.04 62.66
67.41 68.22 67.81 67.62 66.93 69.43 70.07 70.28 69.70 69.36 69.23 70.30 70.38 69.96 69.63 69.44 69.23 68.35 67.51 66.83 66.43 65.51 63.57 62.75 62.40 63.18 63.21 64.53 63.91 63.09 62.18 61.30 56.73 54.96 55.78 56.37 58.40 62.23 62.23 61.93 61.55 61.33 60.71
64.57 63.54 63.19 64.11 62.44 62.95 69.10 69.12 68.09 68.40 68.96 69.79 69.99 69.31 69.30 68.77 68.32 67.68 66.77 66.27 65.51 64.45 63.11 61.98 62.49 62.86 62.67 63.47 63.31 62.19 61.51 60.72 57.24 55.22 55.51 56.21 60.66 61.51 61.60 61.22 60.85 60.15 59.80
64.18 62.56 63.09 62.24 62.29 62.79 62.40 67.03 67.37 68.27 68.49 68.84 68.60 68.42 68.06 67.38 66.99 66.66 66.10 65.57 64.50 63.63 62.75 61.83 61.87 61.93 61.78 61.40 62.48 61.55 60.60 60.16 55.51 55.95 56.65 55.68 61.25 61.30 61.30 60.87 60.47 59.72 59.41
62.41 63.02 63.04 61.71 61.15 60.99 60.81 62.09 62.70 65.46 67.72 67.58 67.30 67.08 66.46 66.30 65.97 65.76 64.88 64.51 64.15 63.09 62.30 61.81 61.50 61.21 60.70 61.14 62.03 60.92 60.35 59.16 54.50 54.41 54.74 57.25 60.76 60.89 60.83 60.69 59.82 59.40 58.77
62.04 61.79 62.05 61.26 60.78 60.63 61.42 60.87 60.44 62.31 65.82 66.34 65.96 65.82 64.32 63.57 62.80 61.94 63.50 63.66 63.28 62.47 61.70 61.25 60.54 59.57 57.73 59.38 61.28 60.45 58.90 54.91 54.23 54.78 55.32 60.94 60.31 60.66 60.01 59.73 59.11 58.69 58.13
60.26 60.70 60.81 60.30 60.09 60.52 61.44 61.10 60.08 63.20 62.98 63.13 63.40 62.58 62.48 61.71 61.13 61.64 62.77 62.76 62.59 61.84 60.93 60.19 59.44 58.42 54.81 49.42 51.70 55.74 53.57 54.47 54.81 54.95 56.45 60.85 60.08 60.15 59.45 58.99 58.92 57.81 57.26
58.98 60.56 59.65 59.37 59.75 59.79 59.50 59.86 61.00 61.77 61.26 60.85 60.53 61.47 61.47 61.47 60.76 59.82 59.30 58.63 57.63 58.04 54.70 54.28 53.31 52.14 50.46 48.73 48.46 49.57 52.46 54.13 54.43 55.24 58.67 60.92 60.05 59.68 59.29 58.48 58.21 57.70 56.33
57.45 59.78 59.53 59.29 59.13 59.01 59.66 59.39 59.45 60.24 59.69 59.74 60.41 60.84 59.89 58.84 57.58 56.78 56.14 55.05 53.83 52.19 52.95 52.80 52.03 50.44 49.59 49.02 48.08 48.60 49.54 51.35 53.00 54.82 58.36 60.26 60.55 59.50 59.17 58.85 57.86 57.11 56.10
56.49 57.95 57.98 58.20 58.04 57.64 57.35 57.39 58.66 59.42 60.06 59.87 59.52 59.64 58.88 57.51 56.04 55.45 53.96 53.52 52.70 51.71 52.88 52.75 51.37 50.42 49.42 48.79 48.10 48.05 47.40 48.96 51.83 53.80 54.76 59.92 60.19 59.86 58.87 58.48 57.95 56.81 55.54
55.73 55.91 58.11 57.72 58.11 58.52 58.00 58.11 58.99 59.50 59.97 60.16 59.36 58.51 57.87 56.85 56.16 54.93 53.19 52.81 52.89 52.92 54.27 52.81 52.02 50.55 49.13 47.78 46.83 47.56 47.91 47.20 48.97 51.68 53.32 55.88 59.57 60.10 59.66 58.58 57.88 56.94 55.97
55.33 55.73 56.61 57.15 57.86 57.78 57.98 57.76 58.15 58.70 59.96 59.56 59.59 59.36 58.55 57.47 56.43 55.23 53.70 53.34 53.67 54.90 54.18 52.52 51.84 51.47 49.20 48.77 47.63 47.40 47.78 48.30 48.78 49.39 51.52 52.50 55.03 59.04 59.53 59.75 58.34 57.49 56.88
55.26 55.20 56.57 57.43 56.86 56.57 56.45 56.03 56.64 55.70 56.68 58.29 59.66 59.82 59.49 58.76 57.32 55.95 55.57 55.16 55.96 55.30 54.29 52.91 52.47 51.35 49.29 48.36 46.92 47.05 46.54 47.23 48.24 48.90 49.96 51.11 52.52 54.20 56.90 59.38 58.56 57.33 55.92
55.27 55.45 55.75 55.76 55.51 55.79 55.66 55.80 55.36 54.88 55.16 55.49 59.00 58.68 58.70 58.96 58.77 57.18 57.37 57.31 56.45 55.51 54.01 53.60 51.79 51.76 50.01 48.81 47.70 46.25 45.78 45.67 45.90 48.37 49.19 49.65 50.81 51.35 51.75 56.96 56.96 56.41 55.61
55.51 55.78 55.67 55.30 54.97 54.67 54.81 54.80 54.23 55.20 56.01 56.45 56.55 57.78 57.60 57.61 59.43 58.33 57.76 57.24 55.96 55.39 53.66 53.14 52.09 51.85 52.20 50.73 50.90 48.16 45.82 45.65 45.00 45.01 47.01 49.32 49.59 50.19 49.98 50.63 50.90 50.70 54.48
54.39 54.70 55.12 54.74 53.92 53.26 52.67 53.17 53.19 52.36 54.09 55.63 55.17 56.38 58.24 58.22 59.93 58.17 57.41 57.57 56.48 55.11 54.47 53.02 51.79 51.18 50.82 50.66 48.72 48.02 48.02 46.99 45.26 44.73 44.20 44.44 46.57 47.80 48.42 48.23 47.45 46.20 47.77
52.67 53.59 53.40 53.29 53.28 53.64 53.72 53.50 52.93 51.20 52.95 54.60 55.20 55.95 57.58 58.91 59.17 59.31 58.97 58.08 57.46 55.67 54.02 52.89 51.94 50.62 50.66 51.35 48.19 47.83 44.91 46.34 47.40 47.08 44.80 44.66 43.48 44.67 46.01 47.15 45.89 44.63 42.83
51.55 52.63 53.27 53.16 53.26 53.63 53.66 52.84 52.21 52.93 54.15 54.23 55.19 55.64 56.34 59.01 59.71 59.04 58.53 58.82 59.02 57.40 54.88 53.88 53.45 51.62 50.00 51.83 50.44 49.00 45.13 44.65 45.39 47.39 47.36 46.75 44.71 44.00 45.10 43.97 44.27 43.99 42.97
51.21 53.24 53.82 53.59 53.31 53.74 53.81 52.56 51.80 52.07 51.84 53.83 54.56 55.61 55.39 58.60 59.21 59.98 59.53 58.92 58.40 58.47 56.01 54.31 54.17 52.56 51.87 50.36 51.46 49.66 47.22 46.05 43.46 43.64 46.84 47.00 46.02 45.96 45.60 44.93 45.07 43.26 42.71
52.44 52.75 53.97 53.91 53.51 53.80 53.20 53.00 52.27 52.83 54.14 55.65 55.81 55.29 55.04 57.46 59.51 59.77 59.75 59.29 59.35 58.74 57.07 56.17 53.34 52.86 52.83 51.20 50.97 47.72 46.66 46.86 46.52 44.69 42.83 44.38 45.76 46.66 46.58 45.44 44.76 43.86 42.84
53.14 53.16 53.76 53.66 53.60 53.80 53.57 53.15 53.01 53.35 54.72 55.10 54.60 54.38 55.18 56.79 58.97 59.37 59.30 58.60 57.51 57.03 55.71 55.13 54.21 53.15 51.50 51.72 50.95 48.20 47.09 46.17 44.96 44.46 43.05 43.15 42.07 43.82 44.31 44.57 44.58 44.47 43.53

GFSSE_sfc_wetblb_069.txt.gz
Wetbulb
69.71 70.50 71.86 72.00 71.87 71.57 71.30 71.39 71.24 71.17 71.32 71.60 71.46 71.63 71.60 71.62 71.30 71.01 70.84 70.43 70.12 70.13 69.09 68.93 68.77 68.01 67.98 68.13 68.07 67.92 68.25 67.77 67.49 67.70 67.08 67.06 67.34 67.15 67.02 67.68 67.79 66.18 68.25
69.31 70.51 71.15 71.69 71.91 71.54 71.40 71.40 71.30 71.39 71.82 71.84 71.59 71.34 71.02 70.75 70.49 70.38 70.04 69.51 69.57 69.80 68.90 68.65 68.32 67.96 67.79 67.34 66.95 66.83 66.58 67.23 67.46 67.72 67.29 67.03 66.23 65.94 66.11 66.34 67.71 66.32 67.28
70.03 70.44 71.20 71.17 71.55 71.30 71.30 71.36 71.27 71.58 72.06 71.78 71.46 71.04 70.73 70.44 70.08 69.60 69.09 68.82 69.60 69.59 68.82 68.53 67.81 68.23 67.32 66.69 67.01 65.96 65.38 65.06 65.49 65.62 65.29 61.68 62.99 66.22 66.54 66.43 66.78 66.25 66.14
65.59 69.46 70.50 71.00 71.02 70.65 70.40 70.42 70.64 71.21 71.81 71.56 71.27 70.83 70.54 70.15 69.79 69.14 68.48 68.38 69.12 69.31 68.24 67.88 67.55 67.22 67.09 67.69 66.50 65.20 64.43 63.82 63.31 62.42 59.04 60.04 62.37 65.15 65.61 65.77 65.42 64.43 64.43
63.57 63.22 69.59 70.41 69.93 69.98 69.19 69.12 68.86 69.56 71.05 70.93 70.67 70.63 70.18 69.89 69.47 68.87 67.80 67.83 68.82 68.87 67.42 66.55 64.92 65.39 66.08 67.07 65.70 64.66 63.51 62.88 62.07 59.28 56.76 57.55 59.27 63.03 64.31 64.29 63.77 63.78 63.01
64.36 63.10 64.85 68.36 68.60 68.83 68.83 69.05 69.40 69.32 69.73 70.47 70.14 70.14 70.11 69.79 69.35 68.50 67.24 67.56 68.46 68.16 65.81 64.23 64.75 66.05 65.63 65.09 64.61 63.30 62.51 61.81 59.80 55.60 56.11 60.18 58.70 62.93 63.84 62.84 62.36 62.15 61.24
63.62 65.14 65.50 64.73 63.43 63.82 63.89 67.44 69.40 68.55 69.40 69.96 69.92 69.57 69.53 69.36 68.73 67.79 66.81 66.71 66.90 66.45 64.31 64.29 66.02 65.65 64.79 64.35 63.55 62.59 61.95 60.60 56.24 54.70 55.68 56.03 58.52 62.53 62.87 61.81 61.28 60.64 60.45
64.03 65.29 63.66 63.40 62.33 62.92 62.84 64.73 67.41 66.91 69.01 69.32 69.07 68.82 68.99 68.60 67.73 67.14 66.40 65.66 65.07 64.50 63.81 64.11 65.18 65.10 64.21 63.53 62.77 62.24 61.48 60.26 56.42 54.78 55.37 56.59 60.85 62.30 62.06 61.36 60.47 59.68 59.63
62.84 62.46 61.97 61.70 61.88 62.04 62.61 62.60 66.48 65.40 67.63 68.45 68.15 68.00 67.78 67.10 66.35 66.13 65.47 64.85 64.12 63.08 63.15 62.68 63.30 64.42 63.64 62.97 62.41 61.48 60.62 59.65 54.27 55.35 56.56 56.45 61.29 61.59 61.48 60.59 59.91 59.49 59.18
62.55 61.75 61.41 61.49 60.63 60.51 60.82 62.09 64.02 64.59 67.41 67.47 67.58 67.26 66.47 65.83 65.62 65.05 64.10 63.69 62.75 62.59 62.63 62.25 62.39 62.75 63.32 62.20 61.51 60.96 60.19 58.50 53.62 54.06 54.39 58.04 61.22 61.59 61.10 60.52 59.76 58.93 58.34
61.45 62.11 61.33 60.48 60.09 60.62 60.62 60.93 60.29 61.59 66.77 66.54 66.86 65.99 64.22 63.23 62.20 60.31 62.36 62.73 62.22 62.20 61.56 61.24 60.81 62.50 62.20 61.66 61.12 60.30 57.92 53.78 54.21 54.31 55.40 61.27 60.80 61.19 60.47 59.73 58.93 58.28 57.73
59.10 60.23 60.87 60.38 60.03 60.22 61.14 60.62 58.68 60.48 62.96 64.49 64.30 63.38 62.11 60.45 59.58 60.80 62.06 62.24 61.58 61.09 61.32 60.89 59.14 58.97 59.13 57.02 57.91 57.29 53.47 53.48 53.94 54.45 55.96 61.01 60.38 60.70 60.17 59.19 58.40 58.10 57.41
59.58 59.36 59.62 59.68 59.87 59.85 58.82 59.34 59.76 61.17 61.96 62.11 62.14 61.79 60.21 60.72 60.44 59.11 57.54 56.49 55.82 56.05 53.46 53.38 51.28 49.58 48.71 50.99 51.24 52.13 53.14 53.48 53.68 54.67 58.66 60.78 60.37 60.05 59.82 59.17 57.81 57.44 56.85
58.88 58.54 59.01 59.78 59.66 59.62 58.69 57.87 58.53 60.93 61.49 61.39 61.72 60.98 59.85 58.67 57.45 56.17 55.16 53.41 52.45 52.74 52.66 50.98 49.34 47.80 47.40 49.25 50.82 51.33 52.41 52.85 53.03 54.34 57.89 60.21 60.35 59.70 59.33 58.92 58.29 56.94 55.90
57.62 58.42 58.39 58.91 59.07 58.65 58.32 58.39 59.66 59.31 59.88 60.98 61.34 60.02 58.58 57.17 55.92 54.57 52.34 51.69 52.04 52.15 52.14 50.49 48.74 48.19 46.86 47.15 47.82 49.58 51.06 52.17 53.41 54.39 54.93 59.86 60.03 59.68 59.24 58.82 58.36 57.31 56.21
56.41 57.54 58.29 58.50 58.53 58.36 57.78 57.61 59.35 59.54 59.57 60.28 59.94 58.65 58.03 56.78 55.26 53.64 51.57 51.16 52.00 52.32 52.03 50.55 49.06 48.31 46.64 46.48 45.98 46.52 47.76 50.73 52.43 53.34 53.96 56.25 59.39 59.98 59.24 58.46 58.20 57.31 56.28
55.68 56.65 57.26 57.65 58.47 57.54 57.38 58.02 58.65 59.64 60.17 59.12 58.51 57.70 56.94 56.44 54.67 52.94 51.98 51.96 51.98 52.61 52.24 50.99 49.71 48.32 46.72 46.62 45.62 46.31 46.27 47.05 48.94 51.68 52.88 53.38 56.42 58.88 59.37 59.48 58.04 57.63 57.24
55.32 56.11 57.43 58.42 57.81 57.77 57.01 57.41 57.51 57.42 59.00 58.74 58.34 57.42 56.65 56.38 55.41 53.37 52.52 53.19 53.37 53.64 52.45 51.05 50.33 49.05 47.21 46.25 45.12 44.93 45.80 46.88 47.15 48.11 50.41 51.79 53.03 55.41 57.93 59.52 59.66 58.52 57.58
55.34 56.06 56.55 57.19 57.07 57.08 56.80 56.81 55.54 55.62 56.81 58.51 58.63 57.41 56.61 56.65 56.71 54.98 54.51 54.14 54.66 54.02 52.89 52.31 50.98 50.33 48.11 46.84 45.73 44.83 44.55 45.30 47.03 48.66 47.87 49.06 50.87 53.02 52.67 57.04 58.53 57.84 57.78
55.29 56.02 55.91 56.45 56.43 56.03 56.05 55.92 54.69 55.14 54.90 56.60 58.01 57.96 58.10 57.12 57.65 56.66 56.19 55.84 55.53 54.57 53.03 52.35 51.57 50.79 49.51 48.58 49.03 46.78 44.37 44.37 44.06 45.10 47.41 48.69 49.61 51.03 51.12 51.88 53.30 52.82 55.92
55.04 54.96 54.94 55.06 55.24 55.20 55.10 55.23 53.97 52.58 53.55 55.19 55.94 57.49 57.64 58.13 58.78 56.93 56.85 56.25 55.32 54.51 53.62 53.07 51.37 50.45 50.26 49.90 46.89 45.63 45.33 45.41 44.52 43.50 43.57 46.25 48.11 49.47 49.41 49.52 49.11 48.23 49.89
54.57 54.67 54.49 54.17 54.24 54.86 54.69 54.72 54.96 53.23 53.25 54.67 55.41 55.67 57.12 57.47 57.63 57.47 56.63 56.63 55.32 54.35 53.79 52.52 51.54 50.24 50.39 50.35 48.34 45.79 42.85 44.87 46.41 45.30 44.69 43.42 45.90 46.62 47.93 48.58 47.73 46.89 45.06
53.07 54.04 53.04 53.71 52.85 52.98 52.33 53.74 52.74 52.98 53.28 53.47 54.06 54.58 54.77 56.45 57.54 58.00 57.90 57.64 56.53 55.18 54.10 52.96 52.43 51.91 50.83 51.70 50.08 49.08 45.34 43.95 45.63 47.52 46.56 45.74 45.16 44.62 45.09 45.92 46.69 46.98 44.73
50.94 52.49 52.51 52.60 52.25 52.21 51.92 50.81 50.88 51.47 50.31 50.69 50.67 51.97 52.72 55.79 57.31 57.97 57.82 57.95 57.79 57.36 56.05 54.85 54.53 52.17 51.77 50.31 50.75 50.16 49.18 47.80 44.54 44.02 47.05 47.26 47.50 46.08 44.50 43.15 44.52 45.42 45.07
50.93 51.46 52.43 52.91 52.74 52.91 52.25 51.35 50.36 49.51 50.52 50.80 51.26 52.08 52.80 54.24 56.45 58.02 58.32 57.27 57.35 57.53 57.17 55.36 52.87 52.61 52.77 50.64 51.26 48.15 47.34 46.74 47.07 45.80 44.19 45.99 46.73 47.40 47.05 45.58 45.39 44.98 44.60
50.37 51.09 52.30 52.44 52.73 53.09 52.51 51.96 50.76 50.58 50.77 51.22 52.26 53.05 54.23 53.92 55.54 57.19 58.10 58.18 57.75 57.15 56.17 55.90 54.98 52.66 51.95 50.10 50.60 48.04 47.70 46.67 46.13 45.59 44.31 44.41 44.32 44.64 44.94 45.22 45.07 45.18 45.10

GFSSE_sfc_wetblb_072.txt.gz
Wetbulb
67.58 70.64 71.48 71.62 71.88 71.92 71.49 71.10 71.19 71.70 72.14 72.18 72.10 72.06 71.89 71.89 71.94 71.69 71.46 71.05 71.00 71.02 70.33 69.45 70.18 69.31 69.25 68.82 67.92 67.88 68.19 67.92 67.77 68.00 67.68 67.70 67.82 69.02 68.50 67.92 67.61 66.42 68.03
68.37 70.90 70.82 71.04 71.80 71.76 71.46 71.24 71.10 71.45 71.85 72.06 71.91 71.76 71.61 71.63 71.32 71.01 70.51 70.41 70.36 70.15 68.96 68.17 68.18 68.22 68.48 68.00 67.43 67.51 67.34 67.80 67.44 67.58 67.29 66.61 66.69 67.28 67.89 67.13 67.38 65.96 66.90
69.69 70.33 70.65 70.80 71.32 71.60 71.55 71.63 71.71 71.81 71.97 71.89 71.73 71.38 71.23 70.95 70.62 70.14 69.90 69.68 69.80 69.76 68.60 68.23 67.75 67.52 67.37 66.85 66.88 66.33 65.68 66.13 65.70 65.61 65.18 63.74 64.26 66.97 66.91 66.13 65.83 65.32 65.13
67.25 68.67 69.75 70.62 70.88 71.27 71.20 71.40 71.66 71.86 71.70 71.48 71.31 71.07 70.72 70.56 70.09 69.68 69.60 69.14 69.29 69.47 68.28 67.70 68.06 67.36 66.54 66.13 66.07 65.23 64.80 64.27 63.59 62.76 60.57 62.33 63.73 66.59 66.09 65.29 64.76 64.52 63.99
64.67 64.94 68.82 70.17 69.71 70.24 70.70 71.10 71.28 71.15 70.97 70.90 70.64 70.72 70.51 69.98 69.60 69.46 69.06 68.67 69.26 69.50 68.94 68.59 68.34 67.18 66.26 65.91 65.39 64.67 63.85 63.35 62.49 59.64 58.77 60.09 62.27 64.43 65.13 64.08 62.92 62.67 61.78
65.63 64.27 65.39 66.44 66.41 67.92 68.60 67.46 68.80 70.56 70.23 70.08 70.14 70.36 70.06 69.55 69.21 69.16 68.54 68.62 68.80 68.38 67.27 67.22 67.24 67.36 65.82 64.92 64.36 63.57 63.08 62.12 60.01 56.56 57.73 60.95 60.40 63.91 63.41 62.10 61.64 61.31 61.36
64.98 64.04 64.52 64.72 64.41 64.62 65.34 65.54 64.53 68.57 69.40 69.60 69.70 69.55 69.27 69.13 68.70 68.27 68.22 67.86 67.17 66.42 66.08 66.86 66.51 65.59 64.99 64.13 63.19 62.66 61.97 60.68 56.16 55.52 56.30 57.21 60.80 63.07 62.36 61.90 60.68 60.61 60.19
64.55 64.03 62.33 64.31 64.13 64.11 63.78 63.01 64.72 67.12 68.58 69.03 69.00 68.95 68.88 68.38 67.57 67.74 67.58 66.58 65.48 66.26 66.97 66.41 65.73 64.74 63.93 63.45 62.47 62.16 61.48 60.28 56.74 55.62 55.91 59.25 61.19 62.11 61.95 60.98 60.24 59.60 59.72
62.90 61.06 60.86 62.26 62.78 63.23 62.33 62.79 65.15 66.72 67.50 68.01 67.86 68.14 67.65 67.07 66.43 66.38 66.08 65.39 64.91 66.21 66.59 65.69 64.59 63.87 63.58 62.80 62.24 61.40 60.70 59.31 55.10 56.12 56.82 57.71 61.86 61.64 61.45 60.66 60.17 59.46 59.13
61.49 61.22 61.20 61.59 60.45 60.62 61.07 61.97 63.62 65.99 66.96 66.78 67.08 66.83 66.50 65.96 65.70 65.07 64.31 63.97 64.04 65.05 65.56 65.00 63.93 63.41 63.09 62.20 61.53 61.07 60.42 58.66 54.19 54.86 55.53 59.42 61.76 61.78 61.31 60.35 59.84 59.25 58.67
60.62 60.60 60.92 60.58 59.84 59.72 60.03 60.71 63.27 65.81 66.26 66.02 66.28 66.03 64.46 63.49 62.22 60.06 61.20 62.87 62.88 63.33 64.39 64.63 63.68 62.68 61.83 61.51 61.16 60.42 57.42 54.21 54.51 55.13 56.38 61.70 61.71 61.64 60.75 59.84 59.19 58.37 58.05
59.63 60.05 60.79 60.10 59.78 59.08 60.40 58.62 62.61 63.94 63.75 63.89 64.06 63.05 62.46 60.38 58.35 60.10 61.20 61.97 62.22 61.97 63.09 63.68 63.23 62.07 59.95 57.66 58.13 57.50 54.20 54.37 54.76 55.31 57.03 61.59 61.27 61.08 60.33 59.33 58.61 57.99 57.39
59.62 60.13 60.31 59.61 59.90 59.48 58.65 57.88 60.43 61.91 63.37 63.22 62.11 61.35 59.58 59.57 59.33 58.51 57.40 56.70 56.31 57.39 55.57 58.62 56.96 53.56 54.35 54.19 53.22 53.44 53.67 53.88 54.35 55.65 59.09 61.14 60.85 60.82 59.96 59.19 58.54 58.01 56.75
58.84 59.14 59.62 59.42 59.32 59.08 59.39 57.40 59.21 61.27 62.05 61.25 61.36 59.77 59.15 58.13 56.64 55.12 53.74 51.30 51.53 50.69 49.28 50.89 51.73 50.21 50.67 52.02 52.85 52.98 53.21 53.44 53.66 55.20 58.56 60.33 60.88 60.33 60.12 58.85 58.43 57.60 56.48
58.17 58.44 59.14 59.41 59.46 58.51 58.23 58.01 59.09 60.76 61.37 61.69 60.23 59.44 58.11 56.26 54.93 53.79 51.57 51.77 51.51 50.97 49.83 48.88 49.50 50.20 50.01 50.53 51.34 52.72 52.72 52.95 53.82 55.02 55.85 59.84 60.20 60.06 59.98 59.73 58.27 57.40 56.42
58.20 58.26 58.84 58.99 58.98 58.58 57.13 57.56 59.10 60.40 61.14 61.37 59.98 58.30 56.86 55.67 54.32 52.89 51.59 51.49 51.53 51.42 50.41 49.44 48.12 47.99 47.25 48.13 49.06 51.35 51.94 52.69 53.58 54.49 55.14 57.42 59.41 60.09 59.96 59.24 58.73 57.67 56.76
56.87 57.99 58.18 58.51 58.90 58.42 56.93 57.72 58.52 59.48 60.70 60.50 59.17 57.64 56.24 55.25 54.09 52.61 51.71 51.52 52.20 52.24 51.11 49.64 47.80 45.89 45.08 46.13 46.44 48.04 49.89 52.10 53.11 53.88 54.33 55.34 57.32 58.82 59.58 60.03 58.73 57.83 57.19
56.05 57.01 57.69 58.87 58.05 57.61 57.09 58.08 58.80 59.46 59.52 59.09 57.87 56.89 56.05 55.29 54.05 52.69 52.25 52.27 53.03 53.29 51.22 50.17 48.22 46.34 45.76 44.81 44.04 45.29 46.85 48.93 50.96 52.44 53.27 54.04 55.22 56.23 58.52 59.48 59.54 58.59 58.08
56.01 56.87 57.21 57.97 57.56 57.17 57.37 57.26 57.05 58.25 58.83 58.81 57.70 56.52 55.87 55.46 54.61 53.27 53.11 53.29 53.73 53.42 52.03 51.47 50.25 49.24 47.13 46.15 45.14 44.82 45.31 46.06 47.30 48.71 50.27 51.94 53.26 54.73 55.08 58.36 59.15 59.13 59.20
55.73 56.80 57.09 57.51 57.19 57.03 56.71 55.66 56.33 56.65 58.08 58.53 57.33 56.14 55.86 55.88 55.29 54.29 54.28 54.42 54.49 53.57 52.62 52.05 50.86 50.66 49.56 48.07 48.40 46.59 45.21 45.47 45.54 46.48 47.57 49.01 50.29 52.58 53.49 53.13 55.95 55.65 57.17
54.32 55.32 56.01 56.01 56.13 56.09 55.34 53.83 54.64 54.88 56.25 57.15 57.48 56.97 56.36 56.57 56.11 55.52 55.47 55.69 55.22 53.92 53.15 52.18 51.53 51.01 50.65 49.66 47.66 46.62 46.10 45.77 44.92 44.35 44.95 48.01 48.22 50.28 51.48 51.86 52.11 51.90 53.35
53.73 54.83 54.91 55.38 55.49 56.04 55.80 55.83 56.13 53.87 54.37 55.39 56.21 57.40 57.62 57.59 57.56 56.96 56.66 56.67 56.11 54.63 53.00 52.46 51.91 50.14 50.41 49.72 47.67 45.62 44.23 45.62 46.20 46.03 45.46 45.41 47.30 48.81 49.88 51.24 50.59 50.09 49.31
53.32 54.04 54.16 54.64 55.00 55.60 56.21 55.32 53.75 53.57 54.04 53.67 54.40 54.64 56.21 57.37 57.59 58.22 57.14 56.47 55.68 54.28 53.64 52.51 51.84 51.56 50.26 50.87 50.67 49.56 45.50 43.34 45.75 47.31 46.84 45.75 45.82 46.54 47.96 49.64 49.24 48.74 48.54
53.08 53.25 54.25 54.04 54.16 53.04 52.10 53.09 52.90 52.80 52.35 53.37 53.80 53.46 54.81 56.38 56.68 57.15 56.75 56.63 56.13 55.28 54.03 53.70 53.04 52.81 52.63 50.00 50.48 50.55 49.95 48.84 46.59 45.33 46.62 46.91 46.46 45.37 45.13 45.28 46.38 47.43 48.01
50.94 53.09 52.27 52.16 51.93 51.54 51.34 52.37 51.53 51.09 53.02 50.67 51.58 51.97 52.15 53.15 55.00 55.54 56.21 56.45 56.77 56.79 55.78 55.06 53.81 52.84 53.39 51.86 51.43 48.42 48.33 48.42 47.96 47.23 46.16 47.50 47.50 48.11 47.82 47.00 46.56 45.77 45.76
51.30 51.24 51.93 51.64 51.79 51.83 51.50 50.61 50.81 50.09 49.60 49.27 49.29 49.74 50.85 51.83 52.93 54.31 55.48 56.04 56.57 56.37 56.13 56.27 56.01 54.14 53.71 53.26 51.24 48.49 48.11 47.84 46.20 46.60 45.57 45.62 45.86 46.51 45.84 46.56 46.05 45.77 45.47

GFSSE_sfc_wetblb_075.txt.gz
Wetbulb
69.46 71.52 71.63 72.32 72.33 71.99 72.18 72.29 71.76 71.86 72.24 72.30 72.25 72.05 71.92 72.25 72.10 72.18 72.21 71.97 71.48 71.26 71.08 70.73 70.88 70.10 69.77 69.42 69.15 69.03 69.31 69.23 69.04 69.22 69.71 69.29 69.32 69.23 68.64 68.64 68.40 66.85 68.10
70.08 71.64 70.79 71.63 72.19 71.80 72.17 72.35 72.02 72.13 72.27 72.32 71.91 71.87 72.09 72.07 72.00 71.86 71.67 71.68 71.18 71.05 70.29 69.98 69.86 69.31 68.40 67.88 68.15 68.30 68.13 67.40 67.47 68.19 68.52 68.64 68.54 68.52 67.84 67.20 67.61 66.47 66.65
70.77 71.50 71.18 71.13 71.66 71.70 72.01 72.38 72.35 72.41 72.52 72.15 71.95 71.87 71.89 71.77 71.46 71.13 70.66 70.35 70.57 70.55 69.50 69.34 68.75 68.76 67.88 67.57 67.84 67.87 67.55 67.27 67.10 66.96 67.30 66.81 67.21 67.14 66.73 65.79 65.43 65.40 65.38
69.97 71.18 71.03 70.85 71.41 71.61 71.43 71.69 71.95 72.39 72.44 72.02 71.92 71.84 71.55 71.19 70.88 70.69 70.08 69.52 69.66 69.55 68.30 68.03 67.80 67.81 67.33 66.86 66.47 65.83 65.54 65.08 65.22 65.81 65.87 65.93 65.73 66.20 65.86 64.97 64.52 64.73 64.39
65.56 69.62 70.50 70.24 70.19 69.93 70.58 71.32 71.53 71.52 71.32 71.26 71.19 71.42 71.08 70.73 70.66 70.13 69.34 69.30 69.40 69.43 68.67 67.71 67.49 67.06 66.34 66.29 65.82 65.50 64.77 63.92 64.03 64.52 65.18 65.28 64.32 64.41 64.50 63.21 62.97 62.51 62.88
66.07 67.31 68.02 68.06 68.40 67.99 68.29 69.73 70.25 70.80 70.50 70.46 70.62 70.85 70.70 70.46 70.39 69.75 68.99 68.83 69.02 68.98 68.61 67.51 66.75 65.86 65.78 65.23 65.01 64.71 63.66 63.44 63.47 63.56 63.44 63.23 62.29 63.39 62.94 62.19 62.47 61.53 61.42
66.19 66.58 66.33 66.84 67.07 67.41 66.60 66.18 65.96 69.03 69.09 69.64 70.06 69.90 69.77 70.02 69.82 69.15 68.76 68.61 68.90 69.39 68.97 68.09 66.17 65.03 64.66 64.40 63.98 63.17 62.64 62.58 62.40 62.76 62.86 62.17 62.06 62.96 62.15 62.29 61.28 60.95 60.83
65.78 65.55 65.91 66.84 66.97 66.43 65.72 64.85 64.95 66.98 67.54 68.45 68.72 69.07 69.21 69.10 68.46 68.68 68.31 67.50 67.25 67.64 67.74 67.59 65.69 64.54 63.98 63.80 62.85 62.45 61.97 61.57 61.94 62.50 62.23 61.09 62.43 62.41 62.29 61.04 60.79 60.43 60.10
64.62 64.88 64.75 65.06 65.90 65.40 64.73 64.69 64.93 66.61 67.30 67.67 68.01 68.00 67.92 67.58 67.30 67.67 66.84 66.37 66.79 67.40 66.97 66.29 65.05 64.08 63.64 63.16 62.51 61.58 60.93 61.54 61.84 61.75 60.45 61.65 61.82 62.01 61.70 60.95 60.36 59.89 59.45
61.91 62.36 63.24 63.85 63.45 63.18 63.39 62.97 64.58 66.09 66.65 67.17 67.60 67.25 66.51 66.60 66.97 66.00 65.34 66.60 67.26 66.73 66.17 65.02 64.24 63.67 63.28 62.47 61.75 61.26 60.73 61.15 61.31 61.25 61.48 61.27 61.94 61.82 61.58 60.81 60.15 59.62 59.15
61.44 61.53 62.22 61.94 62.10 62.57 62.82 63.33 64.49 66.25 66.40 66.60 66.91 66.03 64.99 65.69 65.45 64.46 63.93 65.67 66.58 65.75 64.93 64.19 63.69 62.91 62.12 61.73 61.43 60.60 60.51 60.51 61.08 61.28 61.33 62.00 62.06 61.77 61.07 60.32 59.78 59.06 58.62
59.48 60.63 62.30 62.98 62.29 61.72 62.02 62.75 63.58 64.09 65.98 65.64 65.16 64.12 63.50 63.45 62.63 61.74 63.04 64.06 65.34 64.79 64.06 63.76 63.08 62.15 61.07 60.71 60.33 59.64 60.16 60.71 60.57 60.98 61.25 62.14 61.77 61.37 60.76 59.57 59.02 58.60 58.13
60.66 60.99 61.16 60.46 60.80 60.56 61.36 60.99 62.97 63.81 63.93 63.83 63.43 62.45 60.95 62.22 62.34 61.02 60.76 62.02 64.33 64.40 63.12 61.88 61.54 60.65 60.28 59.67 59.41 59.64 60.35 60.27 60.47 60.86 61.11 61.62 61.21 61.16 60.46 59.57 58.49 58.03 57.38
60.28 60.48 61.10 60.44 60.48 61.31 60.15 60.27 62.15 61.31 62.59 61.99 61.68 60.65 60.90 59.91 58.88 57.62 57.54 58.22 60.69 63.39 63.07 61.51 60.27 60.06 58.27 58.61 58.99 59.09 59.68 59.87 60.00 60.28 60.97 61.09 61.40 60.67 60.62 59.72 58.88 57.87 56.86
59.73 59.88 60.16 60.35 59.97 59.92 60.30 60.04 61.94 61.44 60.40 60.83 60.59 59.89 60.01 57.44 56.03 55.80 55.71 56.09 56.75 58.82 59.79 58.44 58.61 58.53 58.10 58.28 58.69 58.67 58.84 59.49 59.98 59.95 60.29 60.39 60.89 60.56 60.00 59.76 58.93 57.82 56.95
59.92 59.57 60.20 60.00 59.92 59.29 58.70 59.29 61.25 61.34 60.20 60.25 59.82 58.63 58.26 56.06 54.59 53.95 54.23 54.39 55.32 56.87 57.57 57.46 57.98 58.23 57.67 57.88 57.69 58.33 58.37 59.15 59.53 59.86 60.18 60.13 59.81 60.51 60.62 59.44 58.65 58.03 56.86
58.28 59.62 59.30 60.35 59.67 59.03 58.27 59.39 60.58 61.27 60.50 59.61 59.19 59.65 58.59 56.41 55.44 55.54 55.36 55.22 55.35 54.99 54.56 54.93 56.56 57.23 56.74 56.61 56.81 57.55 58.14 58.63 59.00 59.46 59.75 59.85 59.59 59.05 59.74 60.37 59.13 58.37 57.32
57.26 58.54 59.44 59.78 58.86 58.06 58.61 59.84 60.28 60.75 60.87 59.47 58.76 58.62 57.85 56.38 56.47 56.06 56.83 55.99 56.22 55.37 54.14 52.93 53.27 54.15 54.42 54.86 55.32 56.15 56.90 57.75 58.56 58.95 59.02 59.52 59.63 59.10 59.05 59.96 59.98 58.90 58.18
56.39 58.45 58.17 58.76 57.84 57.74 58.62 60.58 59.73 59.47 59.24 58.45 57.63 56.91 57.12 56.71 57.28 57.34 57.23 57.41 56.90 55.77 55.26 53.75 52.82 53.20 52.22 52.61 52.93 53.12 54.08 55.22 56.63 57.29 58.09 58.76 59.34 59.28 59.13 58.78 59.18 59.12 59.48
56.76 57.83 58.00 58.00 57.58 57.98 58.95 58.84 58.14 58.67 59.17 58.42 57.04 56.18 56.04 56.11 56.10 56.71 55.63 55.37 56.49 56.03 55.63 55.11 54.50 55.05 53.58 52.34 50.23 50.86 52.49 53.33 54.15 54.17 55.63 56.85 58.32 59.13 59.41 59.14 59.30 58.40 58.14
56.15 57.12 57.36 57.10 57.04 56.94 57.02 57.31 57.40 57.16 57.79 58.06 57.36 56.43 56.28 55.63 56.45 55.18 55.21 55.83 57.57 57.30 56.73 56.69 55.99 55.54 53.91 53.63 52.10 51.95 51.82 51.70 51.52 52.06 52.72 53.19 53.30 55.58 57.95 57.10 57.49 58.49 58.66
54.75 55.70 56.65 56.64 56.67 57.39 57.15 58.96 58.10 57.36 58.12 58.46 57.52 56.58 56.31 55.77 55.68 56.14 57.57 58.18 57.51 58.11 57.06 56.57 56.19 55.38 55.84 53.91 53.18 53.26 51.75 52.86 52.28 52.11 51.53 51.43 50.63 53.22 51.57 53.35 54.61 55.19 56.75
53.44 53.98 55.30 56.11 56.79 57.11 56.87 56.05 55.53 55.88 56.50 56.60 56.42 56.47 56.31 56.58 56.47 57.11 58.16 58.80 59.10 59.02 58.05 57.04 56.85 56.60 54.60 54.56 55.08 55.26 49.34 49.23 51.25 51.03 51.04 48.42 48.59 50.70 53.28 52.72 52.54 53.58 54.28
54.74 55.13 57.17 56.66 56.41 57.11 56.91 55.81 54.99 54.06 53.75 55.72 56.16 56.50 56.83 56.91 57.76 58.64 58.91 58.85 59.71 59.54 59.20 58.61 57.65 57.59 57.40 55.61 55.25 53.40 54.18 55.16 52.10 49.98 52.84 52.90 50.46 49.16 48.73 48.92 49.43 51.78 54.38
54.43 55.12 55.84 56.70 56.22 56.53 57.74 57.90 55.49 55.40 55.53 56.82 56.17 55.62 56.85 57.10 57.06 58.27 58.84 60.18 59.90 59.79 59.96 59.58 57.84 57.35 58.36 57.02 53.65 51.57 51.52 52.19 52.85 52.36 50.99 54.07 52.14 51.99 51.51 51.66 47.86 49.24 50.70
54.09 55.06 54.64 55.89 56.31 55.90 56.45 57.25 57.02 55.43 55.84 54.43 54.53 54.74 55.29 56.33 57.05 58.32 59.17 59.87 60.80 61.06 60.74 60.60 59.74 58.59 58.25 55.60 56.88 56.77 56.02 54.65 53.38 52.09 51.25 51.76 50.10 52.73 52.13 52.38 50.93 50.09 48.60

GFSSE_sfc_wetblb_078.txt.gz
Wetbulb
71.18 72.73 71.39 72.54 72.51 72.66 73.10 72.47 72.10 71.95 72.41 72.74 72.50 72.01 71.82 72.07 72.16 72.35 72.35 72.19 71.95 72.07 71.30 71.18 70.71 70.35 70.42 70.28 69.96 69.49 69.95 69.75 69.69 70.06 70.26 69.98 69.59 69.52 68.99 69.30 68.88 68.17 68.22
72.05 72.75 71.38 72.20 72.37 72.39 73.20 72.39 71.97 72.15 72.51 72.60 72.10 71.79 71.96 72.06 72.18 72.33 72.29 71.78 71.29 71.45 70.95 70.71 70.40 70.03 69.60 68.84 68.79 68.82 69.08 69.00 68.94 69.26 69.47 68.89 68.77 68.55 68.03 67.70 67.87 66.95 67.02
72.11 72.61 72.27 71.73 71.88 72.33 72.95 72.60 72.35 72.83 72.74 72.35 71.86 71.93 72.13 72.35 72.32 72.20 71.52 71.11 70.85 70.67 70.56 70.14 69.54 68.98 68.52 68.28 68.59 68.23 68.18 67.92 68.41 68.96 69.28 67.58 66.63 67.31 66.87 66.14 66.02 66.00 65.86
71.22 72.95 72.43 71.17 71.41 71.96 72.32 72.36 72.40 72.79 72.60 71.95 72.15 72.10 72.30 72.18 72.08 71.77 71.16 70.59 70.50 70.43 69.84 69.55 69.19 68.52 67.55 67.35 67.41 67.07 66.62 67.08 66.84 67.62 67.96 66.40 65.78 66.20 65.98 65.55 64.91 64.95 64.90
68.68 73.27 71.96 70.63 70.84 71.27 71.12 71.96 72.00 72.08 71.64 71.68 71.77 71.95 71.93 71.71 71.40 70.96 70.00 69.44 69.67 70.08 69.21 69.00 68.52 67.59 66.69 66.58 66.56 66.05 65.35 65.51 66.39 67.06 65.95 66.08 64.53 64.27 64.70 64.00 63.79 63.64 63.64
66.51 70.67 69.41 69.43 69.75 70.24 70.34 70.93 69.81 71.21 71.00 70.86 71.12 71.36 71.64 71.37 71.11 70.17 69.14 69.03 69.18 69.34 68.93 67.86 67.52 66.69 66.24 65.84 65.44 64.78 64.75 64.52 65.50 66.20 63.59 64.67 64.10 63.92 63.64 62.95 62.41 62.25 62.34
69.20 68.95 70.08 67.93 68.18 68.49 69.43 69.80 69.06 69.61 69.62 70.28 70.61 70.61 70.80 70.86 70.34 69.57 68.90 68.52 68.62 68.59 68.21 66.99 66.53 65.49 65.34 64.93 64.58 63.96 63.71 64.03 64.77 64.62 64.05 63.56 63.48 63.57 62.87 62.34 61.82 61.78 61.47
68.47 68.69 70.00 68.12 68.17 68.12 68.37 67.54 67.52 68.99 68.47 69.31 68.73 69.66 70.20 69.81 69.39 69.03 68.54 68.37 68.61 67.82 67.31 66.57 65.61 64.91 64.64 64.33 63.52 63.08 62.81 63.38 64.31 63.76 63.21 63.49 63.05 62.87 62.48 61.94 61.38 61.00 60.83
67.45 68.25 68.58 70.07 66.88 65.53 64.93 65.57 66.33 67.02 68.19 68.17 67.96 67.81 68.38 68.17 68.24 68.38 68.18 68.48 68.13 68.05 66.75 65.75 65.06 64.60 64.14 63.46 63.02 62.40 61.97 63.71 63.95 63.11 62.66 62.62 62.39 62.00 62.15 61.45 60.79 60.53 60.32
64.47 65.03 65.86 68.19 66.95 67.39 67.67 63.15 64.91 66.78 66.17 66.79 67.20 67.08 66.71 66.73 67.14 67.01 66.68 67.61 67.83 67.46 66.26 64.97 64.56 63.97 63.53 62.75 61.99 61.53 61.67 62.89 62.88 63.09 62.76 62.62 62.27 62.08 61.78 61.17 60.51 60.04 59.82
61.91 62.65 63.60 63.56 65.73 66.08 65.55 65.28 64.22 65.41 66.02 65.97 66.59 66.39 65.55 67.00 65.89 66.16 66.08 66.65 66.92 66.23 65.38 64.45 64.06 63.19 62.36 62.01 61.73 61.20 61.40 62.63 62.91 62.50 62.60 62.29 62.48 62.12 61.66 60.58 60.16 59.85 59.54
61.25 61.88 62.12 62.88 63.30 64.30 64.07 64.87 66.41 66.83 67.01 66.16 66.34 65.46 65.41 65.04 63.88 65.75 66.53 65.86 65.61 64.83 64.13 63.82 63.15 62.25 61.75 61.80 61.61 60.79 62.21 62.77 62.95 62.66 62.40 62.36 62.13 61.98 61.33 60.44 59.64 59.02 58.90
63.27 61.79 62.63 62.77 63.49 62.59 62.88 63.67 64.41 65.88 65.61 65.33 64.80 63.57 64.38 64.00 65.06 66.01 66.60 66.21 65.44 63.48 62.62 62.55 62.07 61.61 61.69 61.32 60.79 61.48 62.20 62.63 62.73 62.66 62.25 62.00 61.75 61.54 60.91 60.04 59.25 58.74 58.07
63.83 63.73 63.76 62.23 63.01 62.49 61.45 62.01 63.93 64.52 65.17 64.95 63.05 62.27 61.23 62.21 63.01 64.57 65.63 65.17 64.38 64.07 62.98 62.29 61.88 62.34 61.95 61.58 61.15 61.38 61.74 61.80 62.38 62.32 61.91 61.51 61.62 61.05 60.61 59.77 58.77 58.35 57.61
62.55 64.43 64.28 64.28 63.50 63.60 63.73 63.45 62.80 62.52 63.44 61.12 61.06 60.97 60.34 59.63 59.94 61.47 64.02 64.47 64.01 64.33 63.70 62.80 62.78 61.59 60.90 60.70 60.97 60.98 61.03 61.62 62.06 62.04 62.00 60.92 61.01 61.11 60.63 60.26 58.96 57.92 57.35
62.91 62.15 63.41 62.75 62.36 62.43 61.90 62.51 61.91 61.21 60.61 60.07 59.70 58.52 58.92 58.61 58.76 59.21 59.62 60.18 62.87 64.11 63.82 62.87 62.15 60.37 59.59 59.92 60.06 60.62 60.83 61.60 62.10 62.22 62.04 61.65 60.23 60.85 60.75 60.05 59.26 58.36 57.62
62.25 61.92 61.77 62.62 61.94 61.05 61.38 60.98 60.85 61.71 60.35 58.66 57.79 58.11 58.39 59.02 59.20 58.14 57.82 57.94 59.16 61.99 62.37 62.17 61.48 60.53 58.86 59.33 59.33 60.06 60.53 60.93 61.33 61.72 61.74 61.45 60.75 59.54 60.27 60.46 59.42 58.56 57.57
60.92 61.78 61.46 62.50 60.73 61.06 60.88 61.87 60.82 60.36 59.92 58.81 57.26 56.64 57.28 57.66 58.37 57.44 56.80 56.70 57.92 58.82 59.67 60.02 60.31 58.57 58.69 58.50 58.40 59.08 59.75 60.48 60.80 61.15 61.57 61.59 61.27 60.50 59.52 60.25 60.09 59.46 58.05
60.84 61.17 61.08 60.52 59.45 58.87 60.24 60.49 60.46 59.49 58.85 58.96 57.57 56.70 57.30 57.85 58.16 57.84 57.74 58.39 58.71 57.51 56.93 57.81 58.36 58.11 57.14 57.40 57.57 58.58 59.08 59.35 60.23 60.05 60.28 60.76 61.30 60.79 60.37 59.46 59.76 59.31 59.60
59.95 60.65 61.10 59.49 58.66 58.81 59.53 59.80 59.60 58.92 58.38 58.31 57.41 56.54 57.24 57.61 60.10 59.98 58.81 59.14 58.78 57.26 56.82 56.86 56.79 57.13 57.08 56.67 55.00 55.88 57.27 58.27 58.89 59.29 59.23 59.22 59.68 59.99 60.68 60.44 59.92 59.02 58.59
59.18 59.43 59.16 57.67 58.18 58.50 58.65 59.08 57.95 57.17 57.22 57.00 57.50 58.04 58.08 57.66 59.45 58.89 59.44 59.45 59.25 57.87 58.34 57.89 57.56 57.14 56.49 56.53 54.76 55.08 55.33 56.42 56.77 56.53 57.13 57.84 58.59 59.27 60.28 60.27 59.88 59.38 57.79
57.71 58.09 58.01 57.82 58.02 58.97 59.86 60.52 59.42 58.15 58.51 57.41 56.98 57.13 56.88 57.03 57.11 57.82 59.06 59.39 59.99 58.91 57.33 57.68 58.63 57.86 58.52 56.83 55.15 56.62 53.57 54.55 55.00 55.46 56.01 55.87 56.34 55.23 55.75 58.85 59.02 59.11 58.48
56.92 57.64 57.18 58.07 57.69 58.28 59.57 60.01 59.16 58.66 58.57 56.76 56.43 56.11 56.95 57.02 57.67 57.42 57.93 59.16 58.35 59.48 58.51 58.69 58.26 57.53 56.69 57.21 57.39 56.86 52.42 51.76 53.91 56.14 55.27 52.72 54.78 53.59 52.76 56.12 57.24 56.98 56.95
58.61 57.66 57.52 58.40 57.84 57.97 58.95 58.63 58.90 57.90 55.25 57.00 56.03 56.47 56.59 57.12 57.01 58.40 58.69 60.15 59.81 60.16 60.32 60.30 59.76 59.59 59.88 57.20 56.82 57.14 58.78 56.91 52.37 54.12 57.45 53.54 52.17 50.38 50.90 53.96 53.78 55.89 55.34
59.62 56.17 57.84 58.88 58.05 57.92 57.88 59.11 58.72 57.39 57.92 58.56 56.81 56.28 56.27 57.27 58.39 57.42 58.55 58.89 59.81 61.16 61.02 61.61 60.97 60.27 60.30 59.49 58.95 58.64 57.47 54.03 53.64 52.55 53.92 56.19 56.54 56.68 56.46 52.71 55.84 55.66 54.04
59.98 58.72 58.24 57.94 57.91 59.11 57.81 58.05 58.31 57.14 56.20 56.22 56.18 55.85 56.10 55.78 55.91 57.49 57.74 59.89 60.31 61.21 61.32 62.02 62.45 61.82 61.26 60.78 61.19 59.61 57.77 54.95 56.39 56.30 55.47 56.45 55.16 53.82 56.48 55.32 57.96 56.62 54.46

GFSSE_sfc_wetblb_081.txt.gz
Wetbulb
72.03 72.37 72.13 72.54 72.10 72.61 73.32 72.54 72.27 72.34 72.66 72.94 72.75 72.22 72.15 72.40 72.56 72.49 72.28 71.92 71.92 72.04 71.09 70.96 71.18 71.13 71.08 70.69 70.20 70.77 70.45 70.18 69.95 70.15 70.20 69.73 69.78 69.71 69.29 69.68 68.90 67.46 68.44
72.96 72.85 71.37 72.53 72.61 73.37 73.36 72.76 72.21 72.37 72.81 73.00 72.39 71.99 71.99 72.26 72.46 72.47 72.28 71.87 71.95 72.04 71.36 71.00 70.74 70.54 70.37 69.80 69.95 70.11 70.10 69.57 69.34 69.38 69.65 69.17 69.00 68.71 68.34 68.38 68.29 66.94 67.20
72.18 72.32 72.32 71.84 72.44 73.26 73.42 72.90 72.62 72.88 72.95 72.73 72.29 71.92 72.17 72.31 72.63 72.32 71.94 71.52 71.35 71.35 70.98 70.76 70.22 69.75 69.10 68.78 69.28 69.62 69.45 69.33 68.85 68.81 68.94 66.91 66.90 67.91 67.51 66.95 67.09 66.72 66.28
72.27 72.46 72.84 71.34 72.14 72.72 72.81 72.50 72.53 72.90 72.78 72.36 72.05 72.22 72.34 72.46 72.66 72.07 71.17 70.76 70.76 70.64 70.49 70.19 69.73 69.08 68.36 68.22 68.21 68.12 68.18 68.65 68.73 68.39 66.89 66.00 65.75 66.96 66.51 66.22 66.07 65.76 65.54
71.97 72.54 72.70 70.83 71.19 71.95 72.45 72.24 72.34 72.05 71.90 71.66 71.72 72.34 72.42 72.56 71.87 71.60 70.49 69.96 70.24 70.32 69.94 69.75 69.08 68.01 67.29 67.30 66.89 67.00 66.71 66.67 67.01 66.25 65.84 65.28 64.71 65.05 65.42 64.96 64.72 64.61 64.95
70.96 72.44 70.37 69.61 70.54 71.36 71.99 71.51 71.25 70.64 70.11 70.98 71.41 72.22 72.34 72.32 71.97 71.13 70.19 69.74 70.15 70.35 69.58 68.86 67.82 66.51 66.61 65.97 65.80 65.69 65.40 65.66 66.17 65.56 65.03 65.15 64.46 64.66 64.28 63.61 63.47 63.33 63.09
70.63 71.65 72.50 68.33 69.71 70.09 70.51 69.64 69.01 68.82 68.93 70.03 71.32 71.43 71.55 71.65 70.91 69.87 69.34 69.43 69.10 69.49 69.19 67.72 66.41 65.89 65.85 65.31 65.14 64.68 64.73 64.13 65.13 63.93 63.74 63.51 63.27 63.87 63.42 63.07 62.66 62.33 62.10
69.75 71.16 71.64 68.92 68.32 68.12 67.59 66.50 67.37 67.65 63.46 68.32 69.97 69.60 70.21 70.26 69.69 69.16 68.81 68.65 68.45 68.21 67.83 67.05 66.09 65.49 65.35 64.77 64.53 63.26 63.13 64.10 64.25 63.26 63.26 62.98 63.29 63.35 63.25 62.64 61.74 61.51 61.29
70.02 70.72 71.26 70.85 68.88 66.67 64.97 64.71 66.38 65.88 64.36 67.42 68.21 68.48 68.27 68.35 68.44 68.37 68.17 68.26 67.91 67.12 66.70 66.26 65.56 65.05 64.67 64.03 63.41 62.73 62.04 63.46 63.47 63.48 62.41 62.53 62.69 62.80 62.50 62.03 61.56 61.06 60.89
67.44 68.54 70.25 69.34 68.48 67.71 66.67 65.38 65.38 66.42 66.62 66.73 67.59 67.24 67.12 67.09 67.61 67.49 67.18 67.44 67.29 66.77 66.17 65.54 64.97 64.51 63.61 63.03 62.39 61.68 61.93 62.09 63.07 62.71 62.33 61.93 62.83 62.47 62.12 61.63 61.30 60.66 60.55
63.93 64.47 65.89 67.66 67.62 67.05 67.39 65.38 64.12 64.13 66.33 66.62 67.02 66.56 65.64 66.49 65.76 66.96 66.24 66.69 66.47 65.98 65.28 64.80 64.36 63.41 62.54 62.12 61.83 61.77 62.27 62.95 62.80 62.44 61.70 62.54 62.45 62.40 61.86 61.28 60.73 60.26 60.07
63.63 63.38 64.23 66.21 65.51 65.52 65.77 66.92 67.50 67.53 68.11 67.46 67.64 67.52 66.15 66.39 65.59 66.38 66.42 65.95 65.73 64.89 64.38 64.07 63.28 62.38 61.63 61.08 61.56 61.22 62.69 63.03 62.48 62.32 61.73 62.70 62.36 62.21 61.65 60.85 60.38 59.91 59.23
64.19 64.33 64.36 62.78 65.47 66.11 65.13 65.90 66.18 67.80 68.90 68.73 67.70 66.48 64.45 65.42 65.08 64.26 66.29 66.10 65.74 63.88 62.10 62.11 61.42 60.61 61.00 60.27 61.14 62.74 62.83 63.34 62.65 61.86 61.73 62.24 62.14 61.93 61.28 60.27 59.64 59.75 58.73
63.97 64.09 63.72 63.48 64.34 65.46 65.88 65.20 66.10 66.00 67.17 66.79 67.17 64.83 64.19 63.57 63.09 63.65 64.47 64.70 64.85 62.46 61.50 60.84 60.84 63.01 61.76 60.84 61.61 62.37 62.62 62.63 62.42 61.73 61.32 61.45 62.02 61.25 60.99 60.32 59.50 58.94 58.47
63.98 64.33 64.18 64.45 62.58 63.08 64.30 64.71 63.55 65.89 66.24 66.74 66.11 65.46 63.69 62.36 62.94 62.61 62.92 65.06 63.74 63.34 62.63 61.22 62.08 61.49 61.43 61.19 61.60 61.78 61.76 62.50 62.21 61.67 60.95 61.05 61.27 61.29 60.57 60.22 59.69 58.99 58.25
64.08 64.40 64.28 63.71 63.52 64.09 64.35 64.92 64.20 64.01 65.08 65.19 63.24 63.93 62.64 61.96 61.57 61.17 61.94 62.52 63.99 63.85 63.22 62.44 62.21 61.22 60.86 60.98 60.94 61.45 61.62 62.18 62.47 62.12 61.06 60.84 60.67 61.17 60.83 59.99 59.39 58.74 58.03
64.09 64.50 63.41 64.09 62.69 63.02 62.11 62.20 61.61 61.41 60.66 59.23 59.47 60.24 59.60 60.13 60.92 62.41 61.62 62.27 63.64 64.19 64.54 63.05 62.15 61.05 60.00 60.09 60.26 60.86 61.52 62.12 62.08 62.20 61.19 60.68 60.14 59.91 60.70 60.87 59.52 58.86 57.89
63.73 62.98 63.12 63.13 63.14 62.50 61.86 61.11 60.63 59.42 58.44 58.16 58.04 57.95 58.16 57.97 59.14 58.68 60.48 61.82 63.71 63.61 62.98 61.81 60.33 58.98 59.05 59.24 59.35 60.11 60.60 61.42 61.88 62.06 61.74 61.40 60.87 60.29 59.66 60.19 60.25 59.61 58.34
63.19 62.86 62.26 63.14 62.69 62.40 62.34 61.16 60.12 58.79 57.76 57.78 57.16 56.64 57.23 57.71 57.73 57.76 58.75 60.21 61.69 60.72 60.66 60.53 60.48 60.03 58.35 58.51 58.51 59.21 60.22 60.31 60.87 61.09 61.43 61.76 61.70 61.05 60.60 59.55 59.72 59.62 59.40
63.48 62.72 61.85 62.22 60.70 60.91 59.96 60.46 59.21 58.65 58.01 57.44 57.20 56.06 56.61 56.75 57.52 57.65 57.67 58.13 58.42 57.77 58.58 59.43 59.50 59.93 59.00 58.39 57.02 57.72 59.17 59.59 60.34 60.31 60.32 60.61 61.20 60.90 61.10 60.72 59.48 58.71 58.63
62.65 61.55 60.78 60.41 59.51 59.20 58.82 58.10 57.20 56.10 56.36 55.64 55.46 55.45 55.97 57.22 57.75 57.69 58.31 58.77 58.82 57.09 57.93 59.80 58.97 58.65 57.68 59.11 55.86 55.99 57.09 58.29 58.83 59.15 60.17 59.64 59.50 59.87 60.35 60.47 59.76 59.13 58.63
61.52 61.05 60.13 60.20 59.35 59.06 59.10 58.98 57.83 57.24 56.52 55.99 55.49 54.32 55.49 57.11 57.02 59.54 60.18 59.67 58.70 57.71 59.44 59.29 58.79 57.91 57.64 58.70 55.66 55.61 52.70 54.56 56.37 57.41 57.99 58.12 59.65 59.16 58.93 59.04 59.02 60.24 59.95
61.29 60.52 59.69 59.27 59.13 59.70 59.72 59.25 57.73 56.86 56.46 55.47 55.09 53.83 55.60 57.32 59.06 60.46 60.74 59.78 59.03 61.04 59.83 61.18 61.13 60.32 57.85 58.18 59.06 57.59 54.51 53.53 56.07 57.18 56.85 56.92 58.29 57.48 56.25 56.51 58.16 58.29 60.18
61.60 61.23 59.20 58.87 58.76 59.27 59.90 58.61 56.67 54.85 53.50 55.13 54.74 55.60 56.22 58.32 58.74 59.49 60.28 60.14 60.49 60.58 60.83 60.36 60.81 60.60 59.83 57.03 56.08 56.33 59.15 58.67 53.79 51.80 55.95 56.53 55.17 51.97 54.20 54.18 54.67 57.31 58.28
62.21 61.10 59.44 59.01 58.42 59.40 59.55 58.89 58.55 56.50 55.70 56.26 56.22 55.35 55.31 56.26 57.11 57.82 58.64 59.50 58.89 59.39 61.65 60.90 60.73 59.93 60.36 59.81 58.43 58.02 58.16 58.03 58.12 54.95 52.02 55.78 56.81 56.17 56.37 55.34 55.50 56.51 56.55
62.59 60.92 60.43 59.67 58.88 58.96 59.77 59.19 59.29 57.62 56.75 55.69 54.88 54.76 55.40 55.09 56.20 57.85 58.79 57.81 58.50 58.76 60.38 61.48 61.74 60.81 60.55 60.69 60.33 60.41 58.48 56.74 55.86 54.82 53.39 55.70 56.54 56.95 56.89 56.92 56.03 55.77 57.62

GFSSE_sfc_wetblb_084.txt.gz
Wetbulb
70.81 71.14 72.13 72.76 73.10 73.57 72.68 72.49 72.35 72.28 72.80 72.87 72.22 72.11 72.54 72.76 72.49 71.94 71.87 71.61 71.74 71.98 71.29 71.05 71.93 71.74 71.15 71.12 70.92 71.12 70.73 70.44 70.10 70.45 70.75 70.21 70.01 69.84 69.38 69.38 68.63 67.12 69.37
71.62 71.30 71.88 72.34 72.82 73.32 72.89 72.44 72.28 72.43 72.86 72.97 72.07 72.22 72.26 72.40 72.27 71.92 71.83 71.76 71.74 71.93 71.58 71.44 71.37 70.85 70.31 70.45 70.88 70.41 70.26 69.82 69.29 69.60 69.93 69.53 69.31 69.31 68.67 68.54 68.05 67.07 67.50
72.36 71.00 71.44 71.73 72.78 73.14 73.19 72.69 72.53 72.86 73.15 72.73 72.19 72.21 72.44 72.58 72.37 72.06 71.70 71.59 71.86 72.03 71.49 71.07 70.50 70.16 70.07 70.40 70.16 69.89 69.51 69.17 68.94 68.74 68.77 66.13 66.28 68.35 68.01 67.52 67.80 66.99 66.51
72.49 72.60 71.63 71.34 72.34 73.18 73.00 72.43 72.44 72.92 72.98 72.53 72.29 72.32 72.56 72.68 72.39 71.98 71.60 70.96 70.75 71.89 71.02 70.65 70.07 69.58 69.39 69.79 69.45 69.24 68.92 68.58 68.05 67.63 65.61 65.55 65.53 67.53 67.50 67.15 66.43 66.03 65.67
71.87 72.60 72.22 70.66 71.45 72.72 72.54 72.17 71.99 72.35 72.12 72.03 71.45 72.30 72.67 72.72 72.08 71.49 70.96 70.26 70.66 71.59 70.80 70.24 69.50 68.70 68.51 68.09 68.29 68.57 68.67 68.48 67.78 65.62 63.83 63.65 64.20 65.85 66.40 65.89 64.98 64.69 64.98
70.51 72.47 69.36 69.65 70.48 71.59 71.88 72.17 71.60 71.35 70.95 71.25 71.13 71.97 72.64 72.43 72.11 71.00 70.05 69.55 70.15 70.65 70.61 69.59 68.39 67.33 66.97 66.79 66.64 66.65 66.42 66.32 65.76 63.32 62.42 63.98 63.17 65.58 65.27 64.55 63.84 63.72 63.88
70.82 72.55 70.72 68.37 69.79 70.78 71.00 71.10 68.64 67.93 66.71 64.51 68.24 71.17 71.96 71.78 71.04 70.23 69.56 69.36 69.08 69.88 69.51 67.92 66.91 66.62 66.29 65.89 65.84 64.81 63.74 63.79 63.14 61.29 61.21 60.83 61.92 64.27 64.15 63.34 63.05 62.77 62.81
70.85 71.82 71.97 68.88 68.97 68.66 68.31 66.92 65.53 65.05 65.49 64.03 62.99 66.56 70.68 70.84 70.25 69.58 69.10 68.91 68.79 68.70 67.95 67.10 66.58 66.20 65.78 65.39 64.18 62.86 62.57 64.24 61.99 60.64 60.39 60.17 63.13 63.26 63.53 62.96 62.41 61.98 61.80
70.76 70.74 69.57 70.71 68.23 65.98 65.58 65.49 66.20 65.89 64.77 63.94 63.35 62.98 69.32 68.84 68.77 68.65 68.15 68.65 68.24 67.85 67.06 66.23 65.99 65.46 65.21 64.17 63.09 62.22 62.10 64.95 60.59 60.38 60.60 60.05 63.08 62.74 62.94 62.42 61.92 61.56 61.37
67.55 68.45 68.66 69.16 68.67 67.63 65.45 65.24 66.27 65.75 65.36 64.84 64.26 66.12 66.97 67.35 67.31 67.05 67.39 67.46 67.36 67.03 66.18 65.51 65.11 64.57 63.86 63.03 61.91 61.47 61.56 62.87 59.70 59.76 59.63 60.46 62.46 62.96 62.70 62.23 61.64 61.21 60.91
64.09 64.74 67.39 67.27 67.40 66.95 66.46 65.39 65.16 66.38 66.36 65.97 64.84 65.00 65.44 66.45 66.04 66.04 66.69 66.28 66.48 66.04 65.68 65.02 64.29 63.48 62.67 61.95 61.57 61.61 62.43 60.37 59.50 59.39 59.32 62.57 62.22 62.72 62.35 61.47 61.12 60.79 60.44
62.93 62.93 65.28 66.87 65.58 66.59 66.69 65.14 65.55 65.88 66.38 65.96 63.75 65.76 65.78 65.71 65.02 65.02 65.71 65.53 65.57 65.11 64.69 64.29 63.33 62.49 61.37 58.16 58.56 60.62 58.71 60.09 59.58 58.89 59.22 62.42 62.51 62.30 61.95 61.22 60.58 60.39 60.01
63.36 63.93 64.04 64.95 65.80 64.44 64.23 66.06 66.60 66.00 66.33 66.42 65.50 65.17 65.09 65.12 65.03 64.25 64.38 64.39 63.79 63.83 62.17 61.80 60.69 58.89 57.42 57.19 58.14 58.46 59.31 60.63 59.41 58.91 60.47 62.16 62.39 62.11 61.83 61.12 60.23 60.06 59.19
63.46 63.24 63.81 64.15 64.74 65.84 65.33 64.69 65.58 65.60 65.42 65.60 65.40 64.84 64.57 63.75 63.54 62.96 63.19 63.41 62.06 61.04 59.72 58.97 58.14 57.65 57.12 57.44 58.71 59.91 59.24 60.11 59.07 58.99 60.02 61.76 61.83 61.62 61.29 60.89 60.39 59.32 58.71
62.95 63.24 63.67 64.10 63.94 64.21 64.55 64.97 64.52 65.13 65.17 64.93 65.19 64.63 64.13 63.36 62.72 63.45 63.49 62.65 60.90 59.24 58.68 57.28 57.63 57.92 57.44 56.97 58.82 58.91 59.41 59.69 58.57 58.68 58.53 60.89 61.07 61.48 60.89 60.56 60.07 59.60 58.55
63.76 64.17 64.33 63.93 63.96 63.62 63.61 64.00 64.03 64.33 65.27 64.99 64.93 65.20 64.51 63.59 61.66 62.75 62.09 61.89 59.81 58.86 58.12 57.59 58.68 58.31 57.41 57.42 58.13 58.85 59.35 59.61 58.64 58.37 58.26 58.52 60.15 60.82 60.86 60.42 60.05 59.51 59.02
63.38 64.48 63.76 63.59 62.91 62.65 63.51 63.02 62.97 62.93 63.51 64.20 64.43 64.51 63.26 62.90 61.80 61.66 61.25 60.64 60.05 59.98 58.31 59.59 59.30 58.33 57.45 57.88 57.42 58.04 58.80 59.51 59.15 58.34 57.77 58.01 58.30 59.68 60.08 60.46 59.55 58.98 58.64
63.30 63.48 63.59 63.28 62.21 62.30 62.04 61.83 59.90 59.18 59.08 59.52 60.02 63.74 62.30 61.91 61.25 60.34 60.07 60.10 61.50 61.44 59.99 59.48 57.77 56.39 56.31 56.36 56.17 56.61 57.81 59.04 59.17 58.38 58.27 57.98 57.58 57.97 59.32 60.04 60.02 59.66 58.51
63.38 62.87 62.57 62.41 61.82 61.71 61.52 60.67 58.52 58.03 57.74 57.84 58.05 58.23 60.40 59.75 59.67 59.39 59.90 59.90 60.41 59.69 59.66 58.32 57.76 56.07 55.38 55.98 56.36 56.43 57.36 57.81 57.83 59.04 58.74 57.67 57.23 57.54 57.47 59.29 59.42 59.27 59.48
62.93 62.96 62.41 62.15 61.75 61.77 61.18 59.49 58.07 57.50 57.13 56.85 56.55 56.37 57.07 57.60 58.40 57.96 57.73 58.42 58.45 57.88 57.76 57.34 55.80 56.25 55.28 55.24 56.52 56.36 56.86 57.29 57.00 56.75 58.24 59.07 58.72 57.94 57.53 57.15 57.36 57.23 58.19
62.88 61.65 61.03 60.67 60.73 60.53 59.40 57.41 56.55 55.63 55.75 55.14 55.86 56.05 56.18 56.13 56.84 56.92 56.91 57.31 57.49 56.32 56.23 56.58 55.60 54.88 53.81 55.26 54.43 54.18 54.96 56.04 56.19 56.35 56.75 56.63 57.10 57.71 57.78 57.12 56.81 56.56 56.75
61.53 60.92 60.51 60.14 59.91 59.37 59.09 58.34 57.18 56.27 55.83 55.02 55.24 55.14 55.39 55.30 55.94 56.07 56.24 56.09 56.11 55.54 55.73 56.02 55.30 54.14 53.90 55.74 52.37 51.74 49.10 51.13 53.56 55.31 55.90 56.34 55.91 56.33 56.41 57.09 57.10 56.85 56.61
60.62 60.14 60.04 59.38 59.27 59.14 59.13 58.25 57.00 56.32 55.20 53.63 53.34 53.77 54.84 55.52 55.78 55.60 55.94 55.55 55.79 55.45 55.16 55.61 55.36 54.37 53.31 54.30 54.97 53.81 50.42 49.06 50.14 53.19 53.71 53.74 54.08 55.06 55.18 56.42 57.38 57.08 57.04
60.78 60.79 59.70 58.89 58.81 59.08 59.52 57.19 55.86 53.72 51.92 52.92 52.37 53.27 53.67 55.45 55.92 55.22 55.60 56.10 56.77 56.43 56.03 55.47 57.34 55.89 56.51 53.47 54.37 55.60 55.32 55.45 51.53 49.70 53.06 53.21 53.72 53.26 53.24 52.76 53.60 54.63 54.88
61.55 60.05 59.58 58.27 58.79 59.27 59.23 57.22 55.67 54.21 53.25 53.65 52.41 51.62 52.70 55.30 56.83 57.44 57.35 57.47 56.52 58.58 58.06 58.08 57.90 57.32 57.85 56.79 54.00 54.23 53.79 55.79 55.66 52.72 49.83 53.07 53.65 52.95 52.48 52.99 52.19 52.28 53.64
61.46 59.96 58.43 57.72 57.89 59.06 58.91 57.28 56.10 54.84 53.77 53.13 52.21 51.11 52.47 54.47 55.74 56.73 58.06 58.37 58.56 58.07 58.56 58.36 57.96 57.71 57.23 57.14 57.77 56.93 55.14 53.92 53.90 52.40 51.24 51.69 52.78 53.40 53.44 53.32 52.82 52.44 52.46

GFSSE_sfc_wetblb_087.txt.gz
Wetbulb
68.93 71.06 72.39 73.07 72.98 72.47 72.36 72.36 72.35 72.46 72.86 72.66 72.69 73.10 72.81 72.58 72.24 72.17 72.15 71.98 72.09 72.29 71.58 72.16 72.49 71.84 71.77 71.77 72.20 71.67 71.35 70.91 70.50 70.64 70.16 70.75 69.67 69.63 69.12 69.27 68.95 67.44 69.52
69.85 71.00 71.52 72.70 73.07 72.59 72.55 72.38 72.35 72.72 72.87 72.47 72.73 72.91 72.42 72.25 72.11 71.95 71.86 71.66 71.94 71.98 71.32 71.82 72.09 70.88 70.91 70.92 70.83 70.63 70.28 70.03 69.81 70.04 70.35 70.20 69.49 69.29 68.51 68.08 68.24 67.43 68.81
69.50 70.70 71.20 71.64 73.01 72.77 72.83 72.70 72.73 73.10 73.00 72.52 72.60 72.66 72.53 72.28 72.04 71.77 71.58 71.30 71.84 72.34 71.71 70.92 70.39 70.70 70.39 70.78 70.33 69.97 69.55 69.12 68.60 68.76 68.65 66.20 66.44 68.48 67.85 67.65 67.54 67.06 67.29
69.61 69.85 70.47 71.22 72.14 72.95 72.40 72.42 72.40 72.98 72.98 72.26 72.50 72.67 72.61 72.40 72.16 71.87 71.53 71.24 71.35 71.79 71.42 71.03 70.81 70.34 70.46 69.80 69.36 69.32 68.96 68.36 67.78 67.54 65.71 65.85 66.36 67.85 67.47 66.69 66.56 65.88 65.66
69.69 70.09 70.36 70.42 71.48 72.62 72.28 72.01 72.17 72.32 72.35 71.92 72.05 72.81 72.84 72.58 72.36 71.91 71.06 70.55 70.79 71.47 70.97 70.93 70.32 70.17 69.64 68.74 68.41 68.46 68.28 67.40 66.15 64.84 63.98 64.58 65.14 66.74 66.91 65.85 64.40 64.70 64.01
69.20 69.61 69.00 69.41 70.64 72.38 72.33 72.21 72.08 71.98 71.43 69.50 68.67 71.17 72.85 72.53 72.28 71.42 70.42 70.12 70.50 71.03 70.83 70.00 69.72 69.39 68.56 68.28 68.42 68.08 66.99 66.01 64.31 62.05 63.18 64.39 64.03 65.95 65.40 64.75 64.75 63.96 63.27
68.48 68.73 68.72 68.63 69.78 71.46 72.30 72.27 71.71 70.67 66.85 64.59 64.24 63.83 67.67 71.54 71.46 70.72 69.90 69.77 69.70 70.12 70.24 69.19 68.64 67.91 67.28 67.08 66.58 65.25 63.90 64.88 61.24 60.12 60.97 62.36 63.04 65.05 64.58 63.53 63.35 62.83 62.80
67.99 68.83 68.56 69.33 69.35 69.79 70.44 70.07 68.61 66.49 66.06 66.62 64.86 63.82 64.91 68.36 70.16 69.86 69.47 69.21 68.91 69.13 68.52 68.04 67.27 67.24 66.24 65.71 64.45 63.12 62.87 63.22 60.76 59.38 60.01 61.48 63.75 64.20 63.80 62.87 62.52 62.58 62.35
65.93 66.87 68.24 68.06 67.60 67.52 66.73 66.27 65.82 66.24 65.81 65.46 64.70 63.19 63.39 64.03 68.37 69.19 69.01 68.88 68.65 68.08 67.68 67.12 66.53 66.12 65.33 64.46 63.32 61.99 62.92 62.24 58.93 59.21 60.27 61.21 63.34 63.06 63.11 62.50 61.95 62.13 61.85
63.17 66.04 67.73 67.16 65.17 62.87 63.68 65.53 65.60 65.62 65.11 64.56 65.14 64.07 63.59 63.61 67.19 67.61 67.67 68.02 67.60 67.36 66.80 66.46 65.69 65.05 64.20 63.31 62.29 62.34 62.18 61.75 58.93 58.52 59.42 60.97 62.82 62.68 62.58 62.40 62.05 61.78 61.63
61.79 61.80 65.60 66.71 65.43 63.79 63.06 64.82 66.15 65.91 65.20 65.13 64.96 64.31 63.29 65.79 66.51 66.22 66.84 66.88 67.08 66.50 65.99 65.46 64.77 63.73 62.79 62.29 61.65 62.29 61.06 58.83 58.62 58.64 58.83 62.62 62.76 62.82 62.37 62.05 61.76 61.45 61.07
59.18 60.77 64.42 65.77 64.75 63.83 65.19 63.60 63.30 64.64 64.86 64.38 62.88 64.71 63.52 65.75 65.43 65.93 65.69 65.78 66.06 65.60 65.15 64.40 63.65 62.82 60.49 57.19 57.59 59.83 58.86 58.28 58.37 58.21 58.62 62.36 62.68 62.63 62.42 61.62 61.36 60.93 60.57
60.58 60.79 63.54 64.28 64.38 64.87 64.21 62.50 63.31 63.51 63.92 63.78 62.86 64.73 64.95 64.86 64.83 64.65 64.57 64.01 63.57 64.07 62.40 61.58 60.95 57.91 56.49 56.79 57.21 56.73 58.25 57.93 58.24 58.50 60.30 62.11 63.03 62.49 62.09 61.67 60.98 60.46 60.07
60.24 61.05 61.43 63.20 62.84 63.71 63.93 63.61 63.20 63.34 63.76 64.80 62.61 64.70 64.12 64.13 63.33 63.78 63.15 62.77 61.83 61.40 59.36 58.55 56.39 55.32 55.05 56.84 57.19 57.02 57.98 57.51 57.83 58.33 60.19 61.58 61.48 61.98 61.91 61.48 60.94 59.97 59.44
60.02 60.63 61.30 61.68 62.09 63.51 62.27 61.57 61.96 62.14 62.84 63.83 64.26 64.43 64.18 63.40 62.63 62.30 63.00 62.20 60.85 59.61 58.39 56.28 55.50 55.04 54.94 56.34 56.92 57.63 57.86 57.62 57.81 58.27 58.43 60.78 61.17 61.98 61.69 61.20 60.63 59.95 59.13
61.25 60.61 60.77 61.41 60.73 60.85 60.59 60.80 60.75 61.95 62.48 62.87 63.87 63.85 63.41 63.05 62.37 61.91 62.75 61.11 59.28 58.71 56.98 55.93 55.35 55.20 54.61 55.51 55.89 58.07 57.66 57.48 57.68 57.80 57.85 58.60 60.32 60.93 61.17 61.06 60.61 59.91 59.39
61.62 61.85 61.22 60.98 61.49 60.98 61.05 60.77 60.99 60.52 61.52 61.96 63.34 63.49 63.46 63.02 62.28 62.15 62.07 60.17 58.35 58.10 56.31 55.83 55.68 55.67 54.67 56.89 56.06 57.09 57.76 57.31 57.50 57.08 56.96 56.90 58.06 59.37 60.39 60.85 60.36 59.86 59.37
61.58 61.54 61.68 62.22 60.35 61.59 60.94 59.43 58.17 58.09 58.07 60.80 62.51 64.10 63.30 63.02 62.06 62.22 61.32 59.75 57.99 58.07 55.54 56.55 57.10 55.98 54.95 54.87 54.63 55.74 57.70 57.08 56.93 56.81 56.97 56.77 55.97 57.08 58.77 60.26 60.24 60.00 59.22
60.84 61.60 60.58 59.76 58.87 59.91 60.45 59.21 58.35 58.17 57.97 58.85 59.40 62.79 62.83 62.86 61.67 61.74 60.88 59.86 58.71 58.10 56.74 57.28 55.01 55.62 54.66 54.70 54.74 54.75 55.93 57.40 56.45 57.20 56.60 56.48 56.16 55.95 55.81 59.18 59.37 59.29 59.54
60.88 60.94 60.20 59.38 59.05 59.79 59.39 57.95 57.67 57.21 56.79 57.23 57.19 60.31 61.72 61.81 61.71 61.32 60.02 59.49 59.35 58.69 57.25 56.78 54.91 54.84 55.34 55.31 56.43 55.53 54.60 56.87 57.28 56.22 56.22 57.00 56.66 56.51 56.34 56.32 56.87 56.74 58.22
58.93 59.75 59.29 58.49 58.05 59.39 57.91 56.28 55.80 54.94 55.28 55.72 56.24 57.54 59.86 59.60 59.32 59.07 58.44 57.88 57.61 57.59 55.93 55.14 54.47 53.97 53.39 53.81 53.22 52.77 53.89 55.53 55.44 55.70 57.21 56.28 55.84 56.22 56.17 56.23 56.03 55.57 56.28
58.34 59.06 58.41 58.29 57.98 58.79 58.11 57.28 56.76 55.63 55.39 55.33 55.57 56.20 57.85 58.37 58.53 58.44 57.70 57.42 57.06 55.91 54.97 53.53 53.06 52.53 52.23 53.60 52.54 51.26 48.31 49.98 52.70 54.51 55.38 55.97 56.16 56.76 55.93 55.74 55.42 55.40 55.30
56.87 57.73 57.72 57.42 57.49 58.62 58.69 57.53 56.38 55.29 54.38 53.72 53.80 54.15 55.92 57.82 58.48 57.49 57.04 57.16 56.20 55.39 54.23 52.83 52.86 52.78 52.05 52.97 53.03 50.60 47.60 46.44 49.09 51.47 52.53 53.90 54.14 54.05 55.55 56.13 55.63 55.57 55.48
56.58 58.05 57.70 57.37 57.56 58.32 58.74 56.58 54.76 53.32 52.38 53.02 53.29 54.02 54.26 55.96 56.65 56.57 56.07 56.05 55.58 55.60 54.09 53.86 54.31 53.47 53.43 51.52 53.09 55.43 54.60 53.48 48.18 47.33 51.52 51.51 51.91 52.61 52.65 53.52 55.82 56.40 56.41
57.15 57.08 57.30 57.58 58.01 58.41 58.15 56.85 55.03 53.48 53.92 52.96 52.92 52.98 53.76 54.04 54.24 54.39 55.25 54.67 54.88 55.12 55.02 54.69 54.57 54.66 54.81 53.17 51.75 52.00 52.15 54.19 53.90 50.37 47.67 51.50 52.73 52.01 52.21 53.57 54.08 55.11 55.81
57.19 56.14 56.30 56.51 57.60 58.51 57.94 56.77 55.27 53.80 52.71 51.37 51.16 51.63 52.40 53.54 53.85 53.83 54.39 54.19 55.43 55.95 55.81 55.02 55.17 55.12 55.96 55.63 54.66 54.44 52.49 52.02 52.39 52.93 51.19 50.83 50.33 51.33 52.75 51.80 51.46 52.49 53.02

GFSSE_sfc_wetblb_090.txt.gz
Wetbulb
69.04 71.81 72.16 72.75 72.59 72.50 72.23 71.96 72.14 72.19 72.33 72.95 72.96 72.76 72.64 72.83 72.66 72.67 72.55 72.41 72.54 73.11 72.42 72.34 72.79 72.87 72.72 72.02 72.08 71.54 71.44 70.99 70.55 70.62 70.91 70.20 70.20 69.93 69.46 69.11 69.23 67.47 69.41
69.60 71.23 71.58 72.29 72.47 72.49 72.43 72.23 72.12 72.41 72.48 73.02 72.72 72.33 72.11 72.19 72.25 72.19 72.27 72.16 72.27 72.94 71.99 71.85 71.72 71.67 71.63 71.73 71.26 70.84 70.49 69.96 69.53 69.84 70.27 69.30 69.03 69.40 68.90 68.54 68.77 67.79 68.63
69.47 70.81 72.16 71.91 72.19 72.49 72.44 72.32 72.58 72.64 72.37 72.78 72.59 72.30 72.04 72.00 72.11 71.89 71.65 71.69 71.97 72.47 71.72 71.38 71.31 71.31 70.89 71.10 70.46 70.22 69.82 69.39 69.00 69.00 68.78 66.13 66.22 68.03 67.69 68.38 68.44 67.93 67.40
69.59 70.09 70.92 71.71 71.96 72.35 72.31 72.25 72.58 72.69 72.31 72.70 72.47 72.27 72.10 72.11 71.86 71.89 71.48 71.12 71.55 72.17 71.38 70.35 71.14 70.55 70.60 70.12 69.43 69.29 68.87 68.42 68.06 67.84 65.60 65.62 65.87 67.21 66.72 66.30 66.56 66.41 66.10
68.55 69.43 69.80 70.96 71.56 72.16 71.97 71.93 72.18 72.33 71.99 72.06 72.13 72.22 72.15 72.09 71.95 71.55 71.25 71.21 71.61 71.75 71.37 70.48 70.59 70.03 69.61 69.13 68.32 68.09 67.60 66.98 66.47 65.38 64.69 65.18 65.13 66.63 66.48 65.86 65.37 65.33 64.93
68.16 69.25 69.02 69.48 71.02 72.04 72.02 71.86 71.97 71.89 71.25 71.48 71.82 72.26 72.15 72.15 71.80 71.43 70.64 70.81 71.14 71.16 71.23 70.96 70.60 69.39 68.50 68.12 67.81 67.08 66.26 65.48 64.61 63.23 64.43 65.20 64.21 66.00 65.03 64.38 64.54 64.10 63.83
67.81 68.08 68.58 68.45 70.34 71.85 72.22 72.10 71.62 71.41 69.97 68.55 67.89 67.70 66.73 67.28 69.49 70.51 70.22 70.37 70.28 70.60 70.31 69.91 69.09 68.50 67.89 67.50 66.84 65.65 64.91 64.22 61.70 61.98 62.96 63.09 63.53 65.21 64.59 63.68 63.21 63.02 62.83
67.34 67.43 68.03 69.24 69.63 70.66 71.54 71.38 70.72 68.79 67.08 66.62 65.73 65.37 65.25 65.19 67.76 68.69 69.09 69.77 69.67 69.39 69.05 68.72 68.41 68.16 67.44 65.92 64.98 64.70 63.47 63.12 61.23 61.00 62.32 62.77 64.58 64.47 64.40 62.95 62.92 62.38 62.44
66.98 66.77 68.43 68.79 68.45 68.59 68.75 68.64 67.70 67.31 66.19 65.95 66.00 65.06 65.01 64.79 63.53 65.86 68.08 68.61 68.61 68.39 68.25 67.95 67.29 66.82 65.75 64.67 64.28 63.31 62.53 62.13 59.29 60.27 61.80 62.02 64.29 64.23 63.15 63.23 62.38 62.12 62.21
63.68 64.58 65.23 66.68 65.97 64.46 64.15 66.35 66.04 66.09 65.91 65.62 65.84 64.91 64.33 64.31 63.20 61.61 66.78 67.77 68.18 67.98 67.57 67.16 66.14 65.25 64.50 63.59 63.40 62.33 61.94 61.58 58.67 59.53 60.32 61.74 63.88 63.82 63.18 62.48 62.23 62.10 61.54
60.91 61.86 64.82 63.81 64.38 63.37 62.99 64.56 65.51 65.73 65.60 65.09 64.98 64.16 63.27 62.67 62.80 62.74 66.22 66.85 67.32 66.88 66.51 66.08 65.14 63.95 62.99 63.16 62.61 62.03 60.96 58.42 58.61 58.54 59.72 62.80 62.55 62.90 63.14 62.33 61.56 61.67 61.48
58.58 59.72 63.19 64.26 63.94 63.01 63.68 62.93 63.12 64.25 63.78 63.03 63.43 63.50 62.39 62.05 62.61 64.12 65.93 66.06 66.35 65.84 65.46 65.02 64.12 63.23 60.75 60.10 60.33 60.76 58.14 58.16 58.29 57.77 59.48 62.58 62.11 62.94 62.49 62.00 61.49 61.34 61.28
59.14 59.83 61.96 63.16 64.43 64.36 62.56 61.52 61.20 62.28 63.65 62.74 63.25 63.53 63.76 63.48 65.09 64.97 64.65 64.52 64.09 64.18 62.64 62.10 61.56 57.72 56.15 56.28 56.76 57.97 57.75 57.95 57.72 58.00 60.08 62.16 62.76 62.86 62.31 61.77 61.57 61.34 60.89
58.95 59.80 60.88 62.85 63.71 64.05 64.05 61.89 60.89 61.72 63.78 62.08 63.21 63.10 63.69 64.07 63.52 63.84 63.81 63.55 62.69 61.15 59.09 57.27 56.91 55.35 54.72 55.69 57.20 57.18 57.50 57.60 57.34 57.63 59.78 60.79 62.20 62.53 62.38 62.15 61.38 61.07 60.61
59.19 59.64 59.96 61.18 62.74 61.90 63.60 63.37 61.90 61.48 63.35 62.70 63.14 63.40 64.25 63.85 62.90 63.41 62.83 62.55 61.60 60.19 58.48 55.84 54.46 54.34 53.72 55.23 56.90 57.40 57.08 56.93 57.10 57.99 58.42 60.44 61.45 62.24 62.15 61.94 61.46 60.93 60.42
60.24 59.98 59.87 60.32 60.97 61.50 60.10 60.47 60.56 60.79 62.10 63.40 62.96 63.53 64.11 63.67 63.07 62.71 62.21 61.49 60.49 59.90 58.33 56.17 53.91 52.72 53.05 54.65 55.95 57.41 57.00 57.16 57.27 57.01 57.65 58.73 60.43 61.21 61.85 61.44 61.06 60.58 60.13
60.19 60.63 60.17 59.85 59.87 60.19 60.25 59.65 59.22 59.42 61.93 63.40 63.58 63.81 63.79 63.31 62.70 62.67 61.72 59.89 59.19 58.39 57.29 55.63 53.51 52.62 52.81 54.65 56.40 57.00 57.02 56.84 56.96 56.92 56.69 57.18 58.15 59.58 60.60 61.03 60.73 59.97 59.60
60.23 59.92 60.40 61.17 59.87 58.93 59.31 60.50 60.18 58.32 58.70 62.08 63.50 63.76 63.15 62.64 62.01 62.37 61.42 59.06 58.19 57.21 56.26 55.55 54.10 53.18 52.31 54.04 55.21 56.32 56.41 56.72 56.52 56.28 56.21 55.99 55.69 57.11 59.00 60.30 60.56 60.15 59.57
60.59 60.24 60.07 60.14 58.98 58.50 59.08 59.24 58.42 58.26 57.24 59.18 61.76 63.21 62.71 62.62 61.94 62.26 61.39 59.02 57.10 55.79 54.73 55.55 53.50 54.07 53.22 53.35 55.35 56.09 55.96 55.83 56.18 56.72 55.66 55.38 55.19 55.25 55.49 59.50 59.58 59.59 59.82
60.85 60.91 60.52 59.67 58.14 59.00 58.28 57.86 57.72 57.40 57.22 57.46 57.04 60.96 62.95 62.67 62.27 61.82 61.52 58.98 57.32 54.56 54.80 56.20 54.66 54.01 53.98 54.27 55.85 55.21 55.73 55.66 55.57 55.72 55.39 56.56 56.19 55.74 55.16 55.95 56.74 56.64 58.42
60.25 60.07 59.31 57.88 58.22 58.15 56.70 56.29 55.69 54.99 55.51 56.03 56.13 58.11 61.53 62.40 61.53 61.43 60.01 59.03 57.60 54.05 55.61 56.24 55.38 54.55 53.74 53.40 53.44 52.82 54.18 55.46 55.01 55.11 55.46 55.65 55.75 55.96 55.81 55.70 55.59 54.85 56.03
59.01 59.15 58.29 57.95 58.28 57.83 56.62 57.05 56.65 55.62 55.40 55.38 56.00 57.44 60.68 60.50 61.53 61.14 59.95 58.68 58.28 55.28 55.96 55.53 54.80 52.85 53.13 54.22 52.86 51.03 49.89 50.82 52.31 54.81 55.33 55.32 55.19 55.72 55.44 55.47 55.27 55.10 55.06
57.95 58.03 57.73 57.91 57.47 57.60 57.19 57.10 56.14 55.00 54.47 53.80 54.02 55.67 58.42 59.71 59.68 59.85 59.21 58.13 57.48 56.37 55.21 54.99 54.79 54.17 53.24 51.93 53.48 50.77 46.85 46.39 48.70 50.65 53.18 55.03 54.60 54.90 55.42 55.44 55.34 55.36 54.95
57.53 58.06 57.65 57.49 56.90 57.53 57.31 56.25 54.62 53.42 52.70 53.58 53.73 54.41 56.90 58.54 58.58 58.63 58.43 57.92 57.01 55.69 54.32 54.36 54.97 54.41 54.45 52.10 51.65 53.83 52.83 50.90 48.39 46.62 50.85 52.60 53.85 54.44 54.81 54.75 54.97 54.93 55.22
57.38 57.27 57.15 56.83 56.47 57.19 57.13 56.36 54.71 53.69 54.08 53.81 53.34 53.49 54.22 56.20 57.37 57.78 57.61 57.19 56.44 56.35 54.95 54.24 53.12 53.59 54.05 52.02 51.32 51.79 51.68 52.64 51.50 48.16 45.93 49.60 50.94 52.22 53.68 54.53 54.94 54.95 55.30
56.79 56.45 56.34 55.98 55.68 56.97 56.93 56.24 54.88 53.83 52.85 52.24 52.24 53.00 53.14 53.59 54.06 55.46 55.92 56.54 56.50 55.70 55.00 54.83 54.41 54.03 53.79 53.18 52.69 53.16 52.38 52.18 52.12 51.52 49.59 49.14 49.77 51.11 51.70 52.10 52.57 53.70 55.33

GFSSE_sfc_wetblb_093.txt.gz
Wetbulb
68.55 70.63 71.98 72.44 72.55 72.39 71.88 71.90 71.80 72.29 72.66 73.06 73.16 73.28 73.24 73.12 72.94 72.84 72.56 72.61 72.67 72.90 72.31 72.93 72.98 72.77 72.38 71.89 71.58 71.42 71.34 70.75 70.37 70.59 70.90 70.71 70.61 70.41 69.89 69.65 69.25 67.92 70.12
69.44 70.90 71.50 72.15 72.35 72.19 71.84 72.06 71.93 72.34 72.62 73.00 72.84 72.80 72.85 72.93 72.86 72.84 72.63 72.78 72.72 72.78 71.87 72.33 73.10 72.70 71.63 71.36 71.31 70.58 70.57 70.16 69.87 69.87 70.15 69.99 69.75 69.48 69.28 68.77 69.03 67.97 69.25
69.63 71.06 71.34 71.44 72.19 72.45 72.19 72.05 72.22 72.68 72.90 72.73 72.50 72.42 72.52 72.78 72.66 72.55 72.35 72.15 72.47 71.92 71.56 72.08 72.31 71.67 71.37 71.10 70.76 70.49 70.02 69.74 69.22 69.08 68.37 65.44 66.42 68.68 68.45 68.29 68.85 68.06 68.30
69.77 70.98 70.84 71.28 71.88 72.19 72.03 72.18 72.23 72.39 72.48 72.46 72.25 72.38 72.43 72.40 72.31 72.14 71.77 71.65 71.86 71.79 71.78 71.80 71.56 71.29 70.72 70.43 69.80 69.66 69.32 68.85 68.24 67.96 65.14 64.96 65.14 67.97 68.07 67.61 67.63 67.39 67.26
68.83 70.05 70.95 70.85 71.19 71.99 72.03 71.96 72.02 72.01 72.09 72.12 71.96 72.19 72.19 72.14 72.02 71.99 71.24 71.17 71.60 71.93 72.06 71.54 71.25 70.43 69.77 69.00 68.66 68.50 68.31 67.85 67.10 65.22 64.03 64.34 64.17 66.21 66.93 66.66 66.27 66.30 65.97
67.65 68.56 69.15 70.08 70.59 71.61 71.98 71.95 72.20 71.79 71.42 71.46 71.34 71.95 72.02 71.99 71.95 71.54 70.90 71.00 71.40 71.22 71.41 71.54 70.51 69.49 68.47 67.93 67.59 67.37 66.88 66.24 65.21 63.28 64.11 65.61 63.53 66.21 65.51 64.94 65.29 65.19 65.18
66.71 67.40 68.10 68.84 70.33 71.53 72.05 71.87 71.88 71.37 71.01 71.38 71.44 71.13 71.39 71.23 70.82 70.76 70.10 70.27 70.47 70.58 70.51 70.22 69.38 68.80 68.00 67.22 66.84 66.15 65.36 64.90 62.96 62.71 62.40 62.71 63.20 65.34 64.79 64.36 64.02 63.43 63.69
66.77 66.77 67.43 69.18 70.14 70.85 71.22 71.12 70.75 70.50 69.72 69.55 68.88 67.76 68.37 68.55 67.88 67.80 68.10 69.41 69.12 69.38 68.80 68.62 68.18 68.11 67.34 66.60 65.67 64.84 64.13 63.92 62.59 62.20 62.82 62.90 65.17 64.82 64.21 63.91 63.08 63.04 62.95
66.32 65.92 66.28 67.22 68.48 69.56 69.36 69.48 68.84 68.17 67.69 67.23 66.64 67.20 67.86 66.73 66.62 66.88 67.30 68.23 68.28 68.35 68.02 67.77 67.47 67.00 66.35 65.56 64.55 63.65 62.91 63.14 61.22 61.90 62.73 62.62 64.97 64.53 64.36 63.24 63.18 62.34 62.18
65.07 65.13 65.33 66.00 66.25 66.00 65.93 67.74 67.45 66.51 65.76 65.79 65.95 65.68 66.26 66.55 66.89 67.07 66.64 66.77 67.67 67.85 67.93 67.33 66.90 65.62 64.62 64.71 63.65 62.69 62.29 62.29 60.36 60.79 61.37 62.65 64.60 64.24 64.02 63.02 62.21 62.22 61.97
61.26 62.84 63.43 63.27 63.36 63.59 64.83 66.88 66.71 66.10 66.22 66.15 66.13 65.10 64.18 63.36 62.46 64.15 65.53 66.13 66.62 66.84 66.74 66.87 65.80 64.04 63.96 63.72 62.82 62.38 61.31 58.90 59.21 59.25 60.92 63.86 64.02 64.26 63.61 63.03 62.21 62.22 61.91
58.93 60.32 64.52 62.07 61.26 61.94 64.51 64.82 63.46 64.78 64.47 63.77 63.26 63.08 62.42 62.90 62.05 63.02 64.22 64.93 66.46 66.13 65.81 65.50 64.18 63.52 63.01 60.95 60.71 60.75 57.67 58.17 58.42 58.35 59.78 63.28 63.87 64.09 63.50 62.43 61.87 61.55 61.69
58.89 59.55 62.26 62.01 61.20 60.95 61.52 62.31 62.92 62.10 61.29 61.39 61.92 62.56 62.01 61.90 62.31 62.70 63.74 64.76 65.22 65.73 63.98 62.95 60.75 59.57 59.21 59.08 57.08 56.67 57.23 57.99 57.35 57.91 60.48 62.59 63.20 63.55 62.79 62.04 61.60 61.58 61.36
57.70 58.87 60.63 61.81 62.33 61.87 63.04 60.57 60.34 61.35 62.50 61.76 61.73 62.46 62.95 61.66 61.82 63.31 63.57 64.19 63.26 62.83 61.53 61.05 56.89 57.69 56.38 57.00 57.04 56.79 56.85 56.91 56.71 57.73 60.20 61.76 61.85 62.24 62.70 62.07 61.64 61.27 60.73
57.76 58.60 59.91 60.82 61.27 62.33 63.11 61.47 59.84 60.50 62.57 62.42 61.61 62.32 63.66 62.75 61.69 63.24 62.93 63.01 62.40 60.83 59.98 57.83 55.43 55.86 55.90 56.41 56.41 56.16 55.76 56.00 56.66 57.93 58.52 61.06 61.83 62.59 62.11 62.23 61.92 61.18 60.70
59.15 58.93 59.53 60.11 60.04 60.76 60.36 62.60 62.00 61.63 63.15 62.36 61.57 62.95 63.64 62.95 62.63 62.44 62.89 62.33 61.11 60.05 59.15 58.01 54.96 54.21 54.73 55.95 55.45 55.85 55.93 56.18 56.95 56.88 57.50 58.06 60.67 61.77 61.95 61.67 61.50 61.26 60.83
59.65 59.92 59.32 59.84 59.73 60.25 59.49 59.29 61.23 61.66 63.17 62.59 61.52 62.22 63.44 63.37 62.56 62.46 62.27 61.77 60.73 59.79 57.84 56.20 53.15 53.57 54.14 55.56 55.35 55.65 56.11 56.40 56.73 56.73 56.29 56.41 58.43 59.69 60.79 61.59 61.19 60.41 60.29
59.69 59.35 59.52 61.06 59.49 59.57 58.83 58.53 59.27 59.60 62.01 63.03 62.61 63.23 63.31 63.29 62.84 62.45 61.76 60.54 59.32 58.05 56.58 55.14 53.58 52.57 52.84 54.89 54.46 55.14 55.47 56.48 56.36 56.09 55.88 55.69 55.71 57.10 59.31 60.43 60.54 60.44 59.82
59.74 59.54 59.23 59.43 58.93 58.59 57.97 57.59 57.75 58.73 59.78 61.29 62.78 63.26 63.15 62.98 62.73 62.41 61.25 59.79 58.14 57.18 56.12 55.02 51.84 52.97 52.79 54.37 54.68 54.34 54.64 55.62 55.85 56.66 55.66 55.31 55.19 55.49 55.94 59.39 59.52 59.38 59.78
59.59 59.74 59.53 59.25 58.77 58.47 58.43 57.43 56.28 55.88 57.99 57.67 58.93 61.49 62.67 62.66 62.44 62.43 61.16 58.47 56.99 55.57 53.88 54.44 53.15 52.71 52.53 54.68 55.57 54.38 54.38 54.28 55.67 55.53 55.58 56.11 55.38 55.26 55.40 56.64 57.36 57.14 58.55
59.11 59.28 59.40 58.59 58.96 58.87 57.59 55.66 55.60 55.76 55.72 55.72 55.52 56.16 60.68 62.42 61.86 62.13 60.78 58.04 56.97 54.17 54.51 54.93 53.31 53.46 52.90 53.95 53.92 52.82 53.18 53.15 53.54 54.69 55.18 55.26 55.19 55.39 55.34 55.98 56.08 54.92 56.63
59.42 59.81 59.26 58.82 58.66 57.87 57.77 56.39 55.75 55.25 55.76 55.82 56.10 55.92 57.27 61.58 61.96 61.48 61.02 58.33 56.72 53.73 54.29 55.29 53.88 52.30 52.34 55.01 52.92 52.30 50.19 51.34 53.23 53.70 53.66 54.03 53.86 55.29 55.06 55.22 55.18 54.36 54.30
59.04 59.09 58.72 58.57 58.10 57.73 55.81 55.02 54.54 54.40 54.50 54.06 54.38 55.76 57.37 60.41 61.39 61.13 60.58 58.68 57.35 53.81 54.86 55.24 54.15 53.68 52.26 51.08 55.11 52.02 48.40 48.65 49.58 50.90 52.43 53.10 53.20 53.65 54.55 54.88 54.92 55.03 54.83
58.20 58.78 58.06 58.64 57.81 57.19 55.60 54.16 53.98 53.28 51.89 53.53 53.98 54.87 57.35 59.58 60.54 60.68 60.21 58.73 57.48 54.56 55.57 55.43 55.19 54.70 54.21 51.83 51.67 52.96 52.32 51.18 48.70 45.58 50.24 52.46 53.04 53.31 53.99 54.40 54.94 54.95 55.19
57.88 57.73 58.08 57.55 56.98 56.27 55.15 54.77 53.56 52.76 52.63 52.58 53.55 54.17 56.06 57.57 58.71 59.51 59.40 58.93 57.54 55.34 55.55 54.95 54.05 54.52 54.69 53.56 53.67 51.76 51.51 51.74 50.51 47.94 46.16 49.34 51.83 53.89 54.44 54.56 54.75 54.89 55.10
57.26 57.48 57.34 56.30 56.18 56.12 54.95 54.27 53.84 53.61 53.20 52.05 52.74 53.04 53.89 54.89 55.92 57.61 58.22 57.48 56.34 55.19 54.99 54.51 53.62 54.72 54.29 54.03 53.46 52.43 52.05 50.86 50.99 50.17 48.18 48.39 50.12 50.92 53.55 53.90 53.70 54.40 54.96

GFSSE_sfc_wetblb_096.txt.gz
Wetbulb
67.54 69.70 71.69 72.50 72.47 72.38 71.90 71.80 72.30 72.66 73.42 73.64 73.47 73.22 73.18 73.34 73.16 73.02 72.85 72.62 72.91 73.18 73.52 73.40 73.30 73.33 73.13 72.31 72.09 71.76 71.52 71.08 70.71 71.07 71.25 71.13 71.08 70.78 70.58 70.06 70.05 68.92 70.79
68.39 70.17 71.22 72.26 72.36 72.17 72.03 71.90 72.15 72.59 73.24 73.55 73.35 73.13 73.03 73.05 72.89 72.85 72.78 72.67 72.85 73.55 73.56 73.55 73.18 72.83 72.21 71.51 71.08 71.17 70.90 70.35 69.90 70.08 70.50 70.51 70.07 70.24 69.87 69.38 69.73 69.12 70.27
68.52 70.06 70.82 71.49 72.10 72.14 72.12 72.15 72.28 72.78 73.17 73.55 73.30 73.15 73.08 72.98 72.84 72.74 72.72 72.42 72.46 72.93 72.67 73.13 72.68 72.43 71.59 71.28 70.96 70.79 70.34 70.02 69.52 69.51 68.93 66.79 67.36 69.58 69.24 69.19 69.57 69.71 69.21
68.83 70.09 70.28 71.33 71.84 72.18 72.08 72.09 72.42 72.72 72.95 73.00 73.02 73.15 73.03 72.96 72.69 72.73 72.36 71.84 71.89 72.56 72.56 71.92 71.95 71.82 71.14 70.61 70.20 69.94 69.65 68.91 68.23 67.52 64.96 65.68 66.50 68.68 68.44 68.19 68.31 68.32 68.22
68.78 69.92 69.79 70.88 71.19 71.88 71.85 71.86 72.08 72.24 72.23 72.18 72.26 72.85 72.83 72.91 72.59 72.41 71.94 71.33 71.25 71.89 72.46 71.73 71.28 71.19 70.37 69.56 69.16 68.93 68.57 67.74 67.11 64.73 63.27 64.16 65.26 67.64 68.41 67.95 67.58 67.59 67.25
67.40 69.59 69.69 69.83 70.77 71.64 71.94 71.98 71.92 71.91 71.53 71.52 71.85 72.30 72.52 72.34 72.54 71.95 71.09 71.05 71.29 71.37 71.74 71.37 70.73 70.18 69.06 68.56 68.29 68.04 67.40 66.69 64.97 63.12 64.09 65.16 64.33 66.95 67.13 66.64 66.59 66.43 66.12
66.25 66.93 68.50 68.93 70.05 71.37 71.92 72.05 71.79 71.48 71.08 71.19 71.34 71.18 70.98 69.64 69.21 69.73 69.75 69.83 69.61 70.35 70.77 70.44 69.91 69.06 68.30 67.79 67.63 66.87 66.01 65.54 63.36 62.31 62.41 62.96 63.63 65.82 65.87 66.06 65.72 65.55 65.24
65.83 66.39 67.02 69.68 70.08 70.55 71.01 71.12 70.66 69.85 70.28 70.66 70.72 70.58 69.88 68.45 68.16 68.71 69.28 68.25 68.63 68.68 69.00 69.49 68.86 68.23 67.54 67.10 66.34 65.50 64.90 64.51 62.52 62.01 62.51 62.60 65.60 65.42 64.91 64.65 64.54 64.63 63.76
65.58 65.67 66.00 67.15 69.25 69.90 69.23 69.52 69.05 69.31 69.56 69.39 68.83 69.10 68.40 67.99 67.61 67.94 67.87 67.60 67.37 68.22 68.48 68.79 68.08 67.37 66.79 66.01 65.30 64.49 63.83 63.76 61.64 61.90 62.49 62.75 65.61 64.99 64.68 64.15 63.78 62.75 62.47
64.28 64.59 64.87 65.57 66.32 66.94 67.39 67.98 68.23 67.96 67.60 67.11 67.42 67.49 65.98 65.73 66.23 65.68 65.63 66.43 67.23 67.64 67.86 68.23 67.28 66.57 65.77 64.75 64.09 63.54 63.21 63.21 61.07 61.38 62.07 62.91 65.33 64.89 64.30 63.42 63.50 62.58 62.11
63.46 63.20 63.54 63.96 63.76 63.72 64.82 67.49 67.74 67.02 66.23 65.97 66.12 66.08 64.68 64.07 64.36 64.40 64.71 65.65 67.27 66.82 66.78 67.41 66.37 65.33 64.49 63.71 63.25 62.97 61.57 59.30 59.44 60.30 61.87 64.49 64.79 64.63 64.18 62.72 62.25 62.39 62.74
62.43 62.03 64.22 61.98 61.86 62.29 64.34 66.40 66.09 65.74 65.65 65.25 64.78 64.43 64.02 63.18 62.03 64.33 64.91 65.99 66.34 66.25 66.36 66.08 64.84 64.51 63.25 61.36 61.45 60.45 57.89 58.15 58.39 59.49 61.85 63.96 64.67 64.32 64.06 63.17 62.97 62.86 62.68
60.98 60.05 64.21 61.90 60.73 61.16 62.03 64.12 64.54 65.20 64.17 63.81 63.53 63.52 63.05 62.64 62.59 61.85 62.80 64.03 64.72 65.54 65.03 64.16 62.60 61.94 60.39 59.72 57.39 56.49 56.90 57.39 57.89 59.50 62.24 63.43 64.69 64.39 63.81 62.79 62.87 62.66 62.31
57.76 59.83 62.67 62.84 60.39 59.97 60.14 61.46 63.10 63.01 62.12 61.78 61.68 61.82 61.84 61.75 61.79 61.60 62.01 62.69 63.90 64.48 63.65 60.76 59.94 59.36 58.86 57.46 56.84 56.52 56.57 56.54 56.60 58.18 61.10 62.70 63.74 63.86 63.58 62.80 62.86 62.57 61.85
56.77 58.25 60.19 62.76 62.60 61.31 60.35 60.07 61.23 61.88 62.08 61.48 60.62 61.28 62.08 61.27 60.91 61.70 61.85 62.86 62.91 63.99 62.89 58.42 57.60 57.36 57.09 56.62 56.65 56.56 56.25 56.46 57.20 58.19 58.71 61.33 62.39 63.23 62.61 63.43 63.14 62.49 61.69
58.20 57.76 58.74 62.22 62.57 62.45 61.48 60.03 59.83 60.30 62.19 62.15 61.97 62.07 62.01 62.83 62.03 61.83 62.15 62.41 61.66 62.19 60.89 57.87 56.86 56.43 56.35 56.50 56.13 56.36 55.81 56.56 57.04 57.31 57.90 60.04 60.97 62.15 62.76 62.78 62.64 62.41 61.54
58.85 58.60 58.32 59.83 59.95 60.80 59.53 60.15 61.01 61.72 62.44 61.95 61.88 62.00 63.41 62.81 61.72 61.78 61.62 61.39 60.99 60.71 59.96 57.21 55.62 55.52 54.91 55.80 55.41 55.97 56.33 56.08 56.30 56.86 56.47 57.89 59.89 60.25 61.38 62.28 61.99 61.46 60.92
58.65 58.40 58.95 60.81 60.21 59.19 58.63 58.63 59.11 61.70 63.04 62.64 62.01 61.91 62.95 62.33 61.99 62.14 61.70 61.03 60.61 59.28 57.61 55.42 54.88 54.71 54.83 54.82 54.22 54.69 55.53 56.25 56.38 56.47 56.70 57.37 57.19 58.41 59.95 60.82 61.27 61.39 60.48
59.11 58.86 58.37 60.21 60.29 58.65 57.62 56.96 57.14 58.22 61.97 62.94 62.25 62.26 62.75 62.89 61.91 61.58 61.88 60.81 59.30 58.21 56.73 55.41 52.99 54.43 54.13 54.16 54.12 53.91 54.91 55.20 55.92 56.50 56.26 56.45 56.79 56.88 57.14 59.59 59.83 59.93 60.25
59.11 59.29 58.71 59.98 58.93 57.62 57.80 57.10 56.94 57.14 57.26 59.27 62.13 62.56 62.61 62.96 62.57 62.06 61.64 59.58 59.28 57.24 55.67 55.02 52.90 53.92 54.75 54.61 55.04 53.69 53.91 54.35 55.01 55.01 55.42 56.62 56.45 56.53 56.76 57.48 58.12 57.83 58.66
58.37 58.39 58.46 59.10 59.10 59.36 58.30 57.60 56.84 56.82 56.70 55.51 55.71 59.66 61.97 62.80 62.33 62.27 60.88 58.30 58.46 57.22 55.72 54.79 53.03 53.09 53.97 55.45 53.34 52.99 52.61 53.25 54.10 54.34 55.03 55.30 55.33 55.75 56.17 57.02 57.02 56.74 57.76
57.75 58.54 58.37 59.17 59.17 59.56 59.07 58.25 56.24 56.75 55.76 53.85 54.11 56.44 57.28 60.13 62.13 62.04 60.40 58.37 57.49 56.12 55.08 53.48 53.70 52.84 53.24 55.44 52.99 52.46 50.22 51.79 53.28 54.01 54.20 54.71 54.69 55.38 55.38 55.92 56.41 55.96 56.26
57.30 58.11 58.56 59.00 59.10 59.20 58.46 56.61 55.34 54.95 54.47 53.49 54.18 53.28 54.39 56.94 60.41 61.88 60.09 58.68 57.35 55.88 54.75 54.20 53.86 53.84 52.84 53.95 55.08 51.96 49.46 48.41 50.32 52.42 53.01 53.73 53.53 54.00 54.84 54.94 55.23 55.63 55.30
57.69 58.83 59.04 58.99 58.75 58.42 57.19 55.58 54.00 53.72 51.79 52.16 52.13 53.75 56.44 55.94 59.56 60.60 60.37 58.68 57.83 56.10 55.40 55.16 54.32 54.08 54.19 52.90 54.47 53.17 52.93 52.12 49.41 47.07 51.10 53.03 53.33 53.26 53.73 54.26 54.78 55.10 55.25
58.06 59.08 59.19 58.64 58.39 57.77 56.04 54.73 53.33 50.61 53.47 54.06 51.95 54.42 56.34 57.16 57.90 60.71 60.04 58.86 57.47 55.03 55.61 55.67 54.08 54.00 54.78 54.25 53.94 51.65 51.65 51.59 50.79 48.85 47.07 49.77 52.33 53.71 54.52 54.61 54.82 55.06 55.31
58.88 58.60 58.30 57.97 57.67 56.77 55.92 53.78 52.74 51.27 52.38 52.04 53.04 53.70 55.20 56.80 58.12 59.45 59.68 58.95 57.95 55.15 55.05 55.38 54.84 54.50 54.74 54.19 53.87 53.48 52.14 50.94 50.51 49.55 48.22 49.68 50.84 52.77 54.37 54.98 54.45 54.82 55.22

GFSSE_sfc_wetblb_099.txt.gz
Wetbulb
69.76 71.58 70.78 71.31 72.57 72.34 72.18 72.53 72.80 73.20 73.22 73.47 73.46 73.45 73.45 73.50 73.40 73.47 73.21 73.28 73.56 73.74 73.69 73.25 73.59 73.27 72.40 72.20 72.55 72.37 72.07 71.81 71.18 71.48 71.56 71.61 71.59 71.44 70.94 71.08 70.78 70.40 71.08
71.08 71.89 70.34 70.95 72.34 72.27 72.15 72.47 72.76 73.32 73.44 73.54 73.40 73.40 73.27 73.27 73.37 73.13 73.05 73.01 73.20 73.79 73.24 73.05 73.72 72.85 72.43 72.15 71.89 71.58 71.21 70.70 70.46 70.27 70.88 71.17 70.88 70.68 70.62 70.66 70.21 70.50 70.87
71.03 71.83 71.88 71.21 72.12 72.40 72.20 72.27 72.87 73.74 74.02 73.65 73.49 73.54 73.44 73.30 73.15 72.77 72.82 72.81 72.95 73.40 73.42 72.92 72.63 72.65 71.98 71.57 71.35 70.96 70.71 70.19 70.15 70.09 70.55 70.25 70.20 70.11 70.03 70.10 70.17 70.21 70.34
71.24 71.40 71.95 71.32 71.59 72.19 71.79 71.99 72.76 73.46 73.66 73.56 73.39 73.44 73.35 73.36 73.09 72.96 72.74 72.50 72.67 73.00 73.67 72.72 72.42 72.08 71.60 71.01 70.54 70.41 70.10 69.68 68.84 69.01 69.83 69.25 69.03 69.43 69.53 69.18 69.40 69.28 69.06
70.63 71.21 71.85 70.92 71.25 71.82 71.81 71.80 72.27 72.76 71.94 72.96 73.05 73.42 73.40 73.23 73.09 72.74 71.61 71.02 72.10 72.68 72.75 72.57 72.08 71.65 70.82 70.04 69.58 69.32 68.76 67.84 67.18 68.34 69.22 69.14 69.07 68.76 68.92 68.94 68.81 68.45 68.24
70.40 71.23 70.55 69.94 70.81 71.60 71.87 72.06 72.09 72.06 71.67 71.28 72.37 72.97 73.20 73.01 72.94 72.05 70.31 70.10 71.85 72.11 72.21 71.93 71.36 70.77 69.69 68.92 68.67 68.22 67.26 66.47 66.67 68.12 68.14 68.38 68.39 68.65 68.62 67.95 68.09 67.68 67.44
70.42 70.45 70.72 69.02 70.41 71.35 71.83 72.13 71.80 71.38 71.27 71.49 71.93 72.30 72.08 70.89 70.64 68.93 68.28 69.12 69.96 70.62 71.09 70.67 70.27 69.58 68.90 68.37 67.87 67.09 66.23 65.76 67.17 67.38 67.24 67.05 67.67 67.68 67.65 67.23 66.73 66.81 66.36
70.40 71.14 71.60 70.05 70.09 70.74 71.01 70.96 70.68 70.63 70.67 70.56 70.90 70.61 70.32 70.08 69.21 68.61 68.57 69.12 69.38 69.17 69.14 69.16 68.90 68.44 68.37 67.88 67.01 65.94 65.23 65.36 66.44 66.47 66.42 66.56 66.51 66.87 67.07 66.79 65.88 65.98 65.14
70.15 70.27 71.24 72.05 71.02 69.58 69.42 69.33 69.10 69.28 69.80 69.69 69.45 69.20 69.12 68.49 68.11 68.18 68.52 69.06 68.99 68.37 68.83 68.52 68.53 67.46 67.75 66.90 65.97 64.90 64.11 65.06 66.49 66.24 65.69 65.86 66.28 65.79 65.84 65.53 64.78 64.30 63.89
69.13 69.94 69.87 71.61 72.17 72.09 72.25 68.46 68.39 68.84 68.77 68.90 68.45 67.84 67.66 67.34 67.60 67.86 68.28 68.01 67.81 68.00 68.27 67.72 67.35 66.64 66.46 65.66 64.84 64.00 63.76 64.34 66.37 66.09 65.77 65.65 66.18 65.53 64.93 64.16 63.98 63.68 63.55
67.53 69.11 69.56 69.89 70.63 71.50 71.98 70.64 68.82 68.57 68.09 67.51 68.00 67.53 66.59 68.43 68.04 68.43 66.75 66.75 67.48 67.22 67.26 67.41 66.79 65.61 64.63 64.41 64.20 63.69 63.70 65.98 65.96 65.46 65.24 64.76 65.61 65.44 64.86 64.03 63.15 63.35 62.99
66.01 66.95 68.92 69.08 69.21 69.62 69.48 69.12 69.18 68.47 66.93 66.75 68.17 68.30 69.06 67.66 67.62 66.52 65.37 64.99 66.31 66.38 66.85 66.93 65.74 64.69 64.70 65.05 65.34 62.89 65.34 65.42 65.19 65.08 65.26 64.64 65.20 65.25 64.36 63.55 63.02 63.22 63.33
65.53 65.57 66.96 67.14 68.26 68.16 67.16 66.97 66.90 66.86 66.25 65.73 66.70 66.41 65.79 64.79 65.20 65.79 66.41 66.42 67.41 66.11 65.90 65.56 64.66 66.00 66.25 65.79 65.01 64.56 64.45 64.60 64.60 64.75 64.40 64.17 65.20 64.79 63.64 63.24 63.69 63.40 62.77
64.46 65.59 65.09 65.70 66.84 67.33 67.40 65.12 65.79 66.23 66.79 65.05 64.85 64.88 64.22 64.18 64.01 64.19 65.70 66.25 65.92 66.24 64.38 63.70 64.69 66.00 64.81 64.53 63.80 63.36 63.68 64.02 64.08 64.16 63.92 63.45 64.28 64.64 64.08 64.00 64.02 63.40 62.91
64.04 65.49 65.41 64.84 65.76 66.56 66.25 66.48 66.47 65.81 65.22 64.55 63.93 64.08 64.35 64.45 64.61 65.50 64.83 64.28 64.04 64.89 62.71 61.58 61.35 61.65 62.64 63.17 63.25 62.69 62.51 63.06 63.51 63.76 63.79 62.27 62.87 64.19 63.46 63.74 63.81 63.36 62.60
64.05 64.39 65.44 63.95 64.64 65.50 65.58 65.92 65.63 65.86 64.94 63.96 63.50 63.82 64.53 63.53 63.34 62.72 63.57 62.48 63.52 64.16 62.07 60.37 60.40 61.56 62.07 62.89 62.16 62.36 62.19 62.47 63.00 63.05 63.10 63.41 61.64 62.64 63.51 63.33 63.20 62.62 62.40
64.25 63.94 63.70 63.60 64.17 63.91 63.78 65.08 64.96 65.03 64.84 63.26 63.15 63.80 64.17 63.95 64.11 63.33 62.12 61.74 62.59 63.13 59.83 59.80 59.37 59.41 61.48 61.86 61.38 61.45 61.67 62.03 61.93 61.95 62.21 61.75 61.48 60.46 61.94 62.99 62.80 62.34 61.82
63.90 62.51 62.90 63.97 62.62 62.73 62.70 64.33 64.28 63.66 63.60 63.91 64.22 65.00 64.06 65.18 64.39 63.43 61.85 61.92 61.89 60.47 58.58 58.07 57.97 57.17 58.94 60.06 60.06 60.55 60.65 60.94 61.03 60.56 61.73 61.72 61.30 61.10 61.01 61.87 62.26 62.31 61.74
63.17 62.93 62.21 63.69 62.20 62.49 64.50 64.68 64.59 63.31 62.69 62.80 64.09 63.58 63.91 63.77 64.87 63.69 63.13 61.69 60.83 58.70 57.75 57.16 57.04 57.36 57.10 59.18 59.47 59.86 60.18 60.05 60.72 60.54 60.98 61.50 62.00 61.36 61.61 60.62 60.57 60.42 61.00
63.04 63.13 62.95 63.10 62.39 62.11 63.59 63.62 63.37 62.62 62.24 63.31 63.77 63.48 63.50 64.26 63.98 63.39 62.25 61.35 60.17 58.20 56.30 56.52 56.10 57.09 57.35 59.02 58.45 58.48 59.49 60.07 60.49 60.37 60.47 60.79 61.52 61.44 61.64 61.12 60.68 59.56 58.97
62.02 62.10 62.24 62.33 60.95 60.75 61.27 59.80 59.78 60.04 61.27 61.32 61.54 63.43 63.11 63.42 62.77 62.45 61.18 60.37 60.61 58.22 56.75 55.98 56.24 55.94 57.16 58.66 57.10 56.12 56.86 58.72 59.17 59.50 60.23 60.24 60.38 60.82 61.19 60.95 60.40 60.51 59.86
60.23 61.84 61.90 62.02 60.48 61.52 61.47 61.31 60.94 59.88 59.42 60.38 60.58 59.87 62.31 63.91 63.16 62.16 60.62 59.81 59.42 59.08 57.26 55.69 56.04 55.81 57.14 57.38 56.05 55.31 51.64 53.65 56.49 58.32 59.31 58.96 60.08 60.07 59.21 59.65 59.92 60.03 60.04
59.28 60.92 61.32 62.11 60.94 61.81 61.30 60.33 58.34 57.35 56.89 56.78 57.84 59.15 58.78 60.08 61.44 62.91 60.92 60.31 59.30 58.26 56.82 56.48 56.38 56.81 55.10 57.43 58.45 56.46 51.56 50.70 53.26 56.74 57.64 58.66 59.04 59.30 59.91 60.05 60.06 59.84 59.78
59.49 61.28 61.71 62.11 60.99 61.09 60.58 58.66 58.05 57.49 55.61 55.85 58.08 58.48 59.96 60.23 61.63 61.14 61.35 59.99 58.82 58.30 56.67 56.20 56.66 57.27 56.79 55.80 56.76 56.05 59.04 57.21 53.19 51.98 55.91 56.36 58.32 57.66 58.87 58.93 58.87 59.18 59.54
59.96 60.51 61.50 61.65 60.79 60.42 59.44 59.46 57.81 56.46 56.90 58.09 58.04 58.32 59.37 59.73 60.27 61.68 60.90 59.88 58.23 57.81 57.17 55.88 55.25 57.29 57.16 56.84 54.92 54.41 54.22 56.58 57.33 54.57 51.55 52.54 55.58 57.40 58.42 58.53 58.43 58.46 58.81
60.16 60.58 61.05 60.44 59.79 59.57 58.43 57.97 56.65 56.61 57.53 56.58 55.91 57.09 57.77 58.04 59.02 60.70 61.20 60.81 58.35 58.05 57.83 56.65 56.56 55.31 55.64 56.39 56.52 54.45 53.88 53.82 53.19 53.12 52.30 53.34 54.15 56.04 57.02 57.44 57.90 57.94 58.56

GFSSE_sfc_wetblb_102.txt.gz
Wetbulb
72.39 73.56 71.27 72.34 72.75 72.73 73.04 73.24 73.37 73.48 73.58 73.65 73.61 73.78 73.76 73.66 73.85 73.78 73.96 74.19 74.17 74.15 73.72 73.38 73.56 73.05 72.72 72.35 72.39 72.48 72.52 72.04 71.57 72.06 72.24 72.19 72.09 71.65 71.25 71.57 71.32 71.33 71.34
73.74 73.97 70.70 71.79 72.80 72.57 72.83 73.17 73.45 73.26 73.56 73.80 73.58 73.50 73.56 73.68 73.63 73.77 73.67 73.90 73.87 73.95 73.35 73.05 73.21 73.18 72.78 72.81 72.66 72.20 71.74 71.06 70.93 71.15 71.61 71.70 71.80 71.10 71.05 71.16 70.76 71.03 70.77
73.60 73.88 72.35 70.69 72.53 72.60 72.72 73.12 73.67 73.73 73.89 73.89 73.63 73.55 73.57 73.65 73.69 73.32 73.27 73.28 73.55 73.78 73.22 73.05 72.98 72.98 72.31 72.13 71.60 71.46 71.04 70.59 70.65 70.91 71.23 71.32 71.39 70.84 70.75 70.75 70.48 70.64 70.52
73.31 73.91 73.41 70.64 71.93 72.31 72.56 73.02 73.55 74.10 74.09 73.88 73.70 73.77 73.70 73.66 73.29 73.17 72.99 72.75 73.08 73.60 73.30 72.83 72.88 72.36 72.09 71.59 70.97 70.78 70.45 70.14 70.13 69.94 71.04 70.49 70.18 70.37 70.19 70.02 70.50 69.95 69.65
72.83 73.55 73.83 70.81 71.36 71.91 71.94 72.56 73.15 73.47 73.40 73.28 73.31 73.73 73.60 73.41 73.21 72.51 72.21 72.17 72.28 72.29 72.66 72.23 72.24 71.65 71.37 70.30 70.08 70.01 69.71 69.17 69.00 69.77 70.10 69.71 69.55 69.67 69.95 69.73 69.28 69.53 69.02
72.63 73.13 71.28 70.25 71.01 71.93 71.85 72.13 72.72 72.66 72.15 72.56 72.81 73.32 73.41 73.07 72.10 71.61 70.87 70.91 70.49 71.10 71.55 72.07 71.70 71.24 69.89 69.31 69.10 68.54 67.96 67.91 67.52 70.19 70.03 69.42 68.54 69.29 69.22 69.38 68.66 68.29 67.94
72.71 73.59 73.41 69.45 70.63 71.58 72.14 72.15 72.08 72.05 71.43 71.81 72.43 72.91 72.81 71.98 71.38 70.10 69.84 70.03 70.07 70.17 70.54 70.78 70.27 69.95 69.27 68.73 68.30 67.31 66.87 66.93 70.29 69.68 69.45 69.14 68.66 68.90 68.59 67.87 67.73 67.86 67.52
73.41 73.75 73.77 70.76 70.43 70.73 71.29 71.54 70.95 70.85 71.04 70.87 71.77 71.64 70.86 70.62 69.79 69.52 69.12 68.79 68.19 68.48 69.51 69.50 69.15 68.89 68.54 68.00 66.86 65.97 65.82 65.86 68.24 68.75 68.56 67.93 68.00 68.17 68.00 67.31 66.70 66.53 66.23
74.25 73.99 73.96 73.34 72.32 69.79 69.46 69.64 69.57 69.93 70.42 70.40 70.50 69.82 69.11 69.39 68.97 69.04 68.76 68.71 67.98 68.78 68.99 69.50 68.81 68.01 67.69 66.71 66.26 65.02 65.08 65.73 68.63 67.72 67.47 65.96 67.36 67.64 67.47 66.37 65.83 65.35 64.90
73.48 73.61 73.61 73.72 73.53 73.49 73.16 68.61 68.55 68.97 69.11 69.25 69.24 68.29 67.33 67.78 68.33 68.46 68.14 68.45 69.22 68.60 68.27 68.49 68.00 67.51 66.98 65.77 64.54 64.77 64.55 65.15 67.93 67.88 67.06 65.41 66.54 66.89 66.43 65.85 65.18 64.59 63.90
71.69 72.51 73.20 73.09 72.81 72.33 72.62 71.47 69.24 69.04 68.82 68.55 69.14 67.85 67.15 70.68 70.18 69.28 67.73 67.83 68.11 68.01 67.76 67.85 67.09 65.92 65.33 64.83 63.99 64.22 64.32 67.58 67.16 67.04 65.71 65.45 66.52 65.84 65.29 64.87 64.60 64.03 63.76
70.03 71.39 72.30 72.67 72.64 72.50 71.15 72.36 72.98 72.65 71.77 71.11 71.07 70.85 70.44 70.41 70.27 68.62 67.46 66.57 67.29 66.95 66.89 66.11 65.66 65.29 65.05 67.05 66.48 64.38 67.50 66.55 67.18 65.66 64.42 65.25 66.42 65.73 64.94 64.11 64.11 63.85 63.66
69.51 70.56 71.59 72.40 72.57 72.10 71.65 70.20 70.33 71.06 70.68 71.07 69.73 70.79 70.98 70.19 69.46 68.60 68.84 68.06 68.01 66.55 68.26 65.90 64.66 64.98 65.08 67.81 67.20 67.17 67.25 67.39 66.65 64.87 63.82 64.76 66.06 65.54 65.01 63.80 63.82 63.95 63.70
68.71 69.45 70.38 71.39 71.61 71.83 70.98 70.04 69.87 67.94 68.86 69.03 69.02 68.09 68.34 68.31 67.61 67.19 67.04 66.36 66.62 66.84 67.13 65.39 64.20 64.26 66.45 67.64 67.18 66.49 66.68 66.01 65.87 64.59 64.00 63.74 64.93 65.04 64.56 64.09 64.07 64.05 63.29
68.46 69.19 69.63 70.45 71.01 70.74 70.57 69.65 68.24 67.33 67.70 68.34 68.09 67.08 67.48 67.42 66.35 65.27 65.68 66.27 67.57 68.01 65.48 64.54 64.48 64.04 66.99 66.41 66.30 66.27 65.76 65.56 65.57 64.86 64.07 63.06 63.68 64.76 64.51 64.66 64.48 63.97 63.38
68.34 68.85 70.51 69.64 70.08 70.22 69.79 69.71 69.22 69.24 67.86 67.21 67.08 66.57 66.48 67.19 66.33 65.99 65.98 66.09 67.04 67.92 66.40 64.31 63.53 63.74 66.50 66.56 65.76 65.77 65.61 65.60 65.21 64.88 63.57 64.46 62.23 63.26 64.23 64.39 64.20 63.80 63.22
67.45 68.86 69.43 69.58 69.61 69.61 69.41 69.52 68.87 68.37 68.72 66.89 65.94 66.19 66.80 66.21 66.47 65.63 65.19 65.30 66.84 66.50 62.62 62.44 61.87 62.36 62.47 65.18 64.91 65.01 65.07 65.03 64.30 63.61 64.54 63.27 63.26 60.95 62.25 63.55 63.92 63.20 62.85
66.13 67.55 69.11 68.55 68.53 67.44 68.85 68.97 68.33 67.55 67.90 67.68 66.69 65.80 65.99 66.47 66.64 66.21 65.26 64.77 65.37 64.01 62.01 60.68 60.38 60.65 61.68 63.43 63.48 64.16 64.42 64.28 64.00 63.43 63.09 63.72 63.20 63.49 61.35 62.03 62.67 63.05 62.69
65.45 66.95 67.96 68.63 67.69 66.14 66.43 68.32 68.22 66.50 65.46 66.75 66.55 66.14 66.24 67.08 66.60 66.03 64.91 63.56 63.60 60.41 60.76 60.21 59.66 59.82 60.46 62.61 62.66 62.86 63.48 63.08 63.07 62.57 62.00 62.72 62.33 63.31 62.44 61.29 61.12 61.01 61.75
64.98 66.69 67.49 67.56 67.70 65.29 65.05 67.92 67.15 64.96 64.42 64.90 64.55 66.29 66.87 65.66 66.26 65.96 65.32 61.46 60.16 58.82 58.00 58.94 58.34 58.99 59.61 62.23 61.36 61.60 62.28 62.43 62.45 62.49 60.88 62.03 62.21 61.85 62.22 63.48 61.89 60.90 59.99
62.96 65.50 66.47 66.57 67.53 64.08 64.34 64.30 63.69 62.22 62.74 64.75 64.35 64.99 65.84 65.87 65.30 64.72 63.76 61.37 59.71 58.10 57.60 57.67 57.54 57.33 57.90 60.09 58.82 58.40 59.62 61.07 60.65 60.62 60.89 61.49 61.82 60.85 61.73 62.00 61.34 62.08 60.68
61.32 64.16 65.53 66.11 66.96 65.75 66.18 66.09 65.24 63.81 62.87 63.83 63.75 65.21 66.16 65.74 64.92 64.28 62.47 61.87 60.17 58.72 57.98 57.37 57.24 56.46 57.29 59.21 56.78 56.70 52.99 55.13 58.52 59.41 60.30 60.81 61.14 61.59 61.41 62.16 61.94 61.75 61.95
60.80 63.10 64.42 65.72 66.79 66.04 66.71 66.19 64.89 64.25 62.74 62.55 62.70 61.55 63.96 65.59 64.40 63.02 62.63 61.26 59.97 59.21 58.11 58.52 58.58 58.52 56.65 57.98 59.76 57.47 52.57 51.77 54.42 58.20 59.29 59.42 60.67 60.74 61.17 61.65 61.83 61.00 60.88
60.59 63.24 64.27 65.21 66.26 65.97 66.54 65.05 63.07 61.74 60.57 62.49 62.42 61.21 61.38 64.30 63.60 63.07 62.32 61.75 60.24 58.89 57.63 58.96 59.60 58.55 58.63 56.52 59.27 60.04 60.41 58.92 53.67 53.27 57.48 58.89 59.63 59.70 60.69 60.88 60.94 61.38 61.35
60.15 62.64 64.27 64.78 65.63 65.58 66.05 65.06 63.50 63.35 63.65 63.62 62.42 60.92 61.69 63.11 63.98 63.02 61.42 61.98 61.18 59.52 58.73 57.90 59.47 59.44 58.92 58.45 58.61 59.36 59.78 59.27 59.47 56.31 54.05 55.48 57.60 59.62 60.35 59.93 59.95 60.65 61.23
59.45 62.49 64.19 64.05 64.63 65.07 64.66 64.60 64.05 63.69 62.87 61.79 61.53 61.48 61.46 60.87 62.00 62.35 63.25 61.09 60.23 60.16 59.15 58.13 57.05 59.01 59.09 59.81 61.18 61.23 58.54 56.87 56.93 56.10 55.66 56.00 56.18 58.25 58.91 59.44 60.16 60.33 60.82

GFSSE_sfc_wetblb_105.txt.gz
Wetbulb
71.55 73.04 71.91 72.98 73.10 73.17 73.53 73.66 73.72 73.59 73.80 73.79 73.91 73.85 73.88 73.98 74.03 74.10 74.34 74.43 74.43 74.94 74.26 73.61 73.24 73.17 72.94 72.30 72.15 73.13 72.76 72.31 72.29 72.58 72.84 72.67 71.92 71.72 71.36 71.58 71.28 70.95 71.44
72.99 73.37 71.18 72.63 72.76 72.74 73.01 73.39 73.64 73.74 73.96 73.82 73.76 73.90 73.72 73.72 73.95 74.03 74.34 74.28 74.25 74.76 73.94 73.19 72.92 72.91 72.77 72.33 72.81 72.32 72.09 71.59 71.50 71.65 71.89 72.15 72.08 71.54 71.35 71.34 70.87 71.02 71.18
73.34 73.78 72.39 71.95 72.67 72.88 73.04 73.43 73.80 74.18 74.07 74.05 73.76 73.70 73.75 73.78 73.91 73.77 73.94 73.86 73.84 74.21 73.41 72.97 72.64 72.87 72.40 72.29 71.98 71.78 71.46 71.18 70.95 71.08 71.12 70.89 70.92 71.26 71.13 70.92 70.74 71.01 70.85
71.78 73.83 73.53 71.52 72.27 72.84 73.07 73.64 73.87 74.22 74.20 73.93 73.76 73.76 73.37 73.77 73.79 73.62 73.43 73.05 72.64 72.97 73.09 73.01 72.79 72.43 72.15 71.67 71.04 71.00 70.93 70.68 70.41 70.37 70.90 70.25 70.48 70.82 70.70 70.51 70.82 70.58 70.12
71.10 73.37 73.88 70.78 71.55 72.29 72.78 73.25 73.69 73.75 73.64 73.62 73.40 73.79 73.74 73.73 73.34 72.69 72.82 72.42 71.91 72.92 72.22 71.90 71.73 71.75 71.47 70.67 70.35 70.34 70.39 69.91 69.54 70.34 70.83 70.08 69.72 70.21 70.48 70.20 69.82 70.05 69.45
70.95 72.40 70.23 70.25 71.31 71.76 72.55 73.03 73.38 73.48 72.89 72.81 72.94 73.34 73.77 73.18 72.22 72.31 71.51 72.03 72.20 72.08 72.47 72.27 71.41 70.78 70.26 69.70 69.61 69.55 69.12 69.20 68.69 69.95 69.24 69.92 69.53 69.89 69.62 69.61 68.93 68.64 68.27
71.41 72.89 73.41 69.67 70.80 71.67 72.13 72.68 73.00 72.59 72.27 72.35 72.67 72.80 72.98 72.39 72.16 71.46 71.06 70.98 71.30 71.63 71.56 71.55 71.07 70.34 69.61 69.14 67.54 67.90 68.17 68.16 70.02 66.84 69.38 69.53 69.35 69.43 69.30 68.57 68.39 68.01 67.52
72.74 73.58 74.22 70.89 70.74 71.04 71.47 71.62 71.47 71.31 71.26 71.45 72.08 72.13 71.78 71.38 71.27 70.67 70.40 70.34 70.43 70.36 70.12 70.46 69.89 69.69 69.12 68.01 67.25 66.75 66.15 65.95 69.16 67.84 67.40 68.62 68.98 68.91 68.72 68.06 67.67 67.14 66.62
74.04 74.39 74.57 73.20 72.05 70.12 70.13 70.00 69.91 70.61 70.66 70.63 71.21 71.07 70.63 69.98 69.36 69.61 69.25 69.09 69.19 69.31 69.93 69.73 69.00 68.41 68.08 67.31 66.77 65.24 64.93 65.60 67.51 67.36 66.84 67.63 68.66 68.32 68.03 67.10 66.41 65.85 65.89
74.02 74.36 74.16 74.02 73.29 72.80 72.36 69.24 69.04 69.31 69.53 69.86 69.72 69.33 68.60 68.60 68.65 68.87 68.43 68.40 68.21 67.94 69.20 69.12 68.25 67.34 66.66 66.10 65.44 64.67 64.00 65.27 68.23 65.23 66.05 66.85 68.12 67.94 67.43 66.65 65.92 65.03 64.58
72.55 73.34 74.01 73.58 73.38 73.49 72.11 71.39 69.14 69.27 69.33 68.97 69.46 67.78 68.02 71.40 70.85 69.84 68.23 67.60 68.26 68.36 68.40 68.48 67.31 66.14 65.38 65.11 64.74 64.06 64.44 66.94 67.47 64.51 66.54 66.20 67.58 67.34 66.68 65.85 65.13 64.55 64.20
70.16 71.74 72.53 72.96 72.89 72.91 71.09 72.58 72.14 71.55 71.87 71.63 71.17 71.24 71.35 70.81 70.87 70.14 68.56 67.67 67.84 67.57 67.30 67.00 66.01 65.45 65.19 65.27 64.96 64.25 65.76 67.11 66.50 64.40 65.86 65.71 67.06 66.54 66.08 65.28 64.48 64.27 64.17
69.34 70.61 71.60 72.46 73.12 72.81 72.26 72.27 72.31 72.58 72.16 72.08 71.89 71.80 71.49 71.15 71.35 70.30 70.35 68.38 68.74 67.15 67.95 66.71 65.81 66.08 63.91 63.94 65.28 66.02 67.08 66.77 65.22 65.49 64.52 65.26 66.45 65.89 65.39 64.87 64.44 64.10 64.02
68.41 69.94 71.23 72.14 72.61 72.90 72.00 71.99 70.69 71.17 71.94 71.33 71.05 71.50 70.99 70.55 70.66 70.26 69.65 68.93 68.89 69.20 67.82 68.13 66.93 64.84 63.40 64.04 64.74 67.07 66.56 65.76 63.74 64.64 64.47 64.40 65.36 65.93 65.05 64.74 64.47 64.15 64.02
67.30 69.36 71.09 71.67 72.33 72.13 71.92 71.31 70.77 70.48 70.36 70.73 70.67 70.34 70.46 69.66 69.16 69.44 68.91 68.40 68.01 68.89 68.01 66.72 66.12 63.31 63.17 63.09 64.49 66.31 65.93 66.13 64.70 64.75 64.47 63.43 64.13 65.35 64.74 64.40 64.40 64.46 64.14
66.45 68.75 71.07 71.21 71.88 71.86 71.17 70.90 70.20 69.78 68.65 69.91 69.67 69.56 70.13 69.94 69.38 68.53 67.60 66.97 66.44 68.37 67.65 67.59 65.37 63.54 63.04 62.89 65.21 66.49 64.41 64.94 64.97 65.47 64.48 64.37 62.56 63.63 64.29 64.78 64.71 64.45 63.80
64.32 67.58 70.62 71.15 71.63 71.28 70.99 70.78 70.58 69.76 69.19 67.90 67.63 69.17 68.93 69.12 68.84 67.84 66.52 65.85 66.41 68.59 67.26 66.61 65.42 63.42 63.34 64.39 65.10 65.07 63.88 64.59 64.37 64.03 64.03 64.12 63.26 61.46 63.01 64.41 64.69 64.15 63.52
63.25 65.96 69.86 70.84 71.02 70.75 70.51 70.47 70.03 69.34 69.08 68.37 67.58 68.59 68.55 68.38 68.52 68.01 67.01 66.82 67.38 66.96 65.71 64.69 63.24 61.86 62.18 62.59 62.36 64.16 63.47 63.39 63.56 64.34 63.59 64.05 63.75 63.09 62.01 62.66 63.55 63.93 63.72
62.30 64.80 68.03 70.68 70.41 70.25 70.24 70.37 70.27 69.72 68.52 67.98 67.41 67.57 68.11 67.57 68.08 67.31 66.65 66.80 67.54 66.12 63.63 62.64 61.88 61.39 61.18 61.22 62.07 63.69 62.02 62.50 62.90 62.00 63.38 63.64 63.61 62.31 61.96 61.58 61.62 61.81 62.51
62.24 64.91 67.15 69.75 70.50 70.11 69.39 69.65 69.54 68.73 67.35 67.46 67.46 67.12 67.22 67.80 67.92 67.29 66.43 66.22 66.05 64.02 62.42 61.07 60.43 61.31 61.16 61.06 61.69 61.24 62.01 63.03 62.57 62.35 61.97 63.23 62.61 61.99 62.76 62.46 62.43 61.27 60.43
61.76 64.45 66.47 68.69 69.55 68.73 66.03 66.90 67.69 66.30 64.12 64.90 65.23 66.58 67.69 67.52 67.26 66.60 66.01 63.24 61.97 60.19 59.81 59.81 59.77 59.30 59.80 60.84 59.31 59.09 61.50 61.55 60.93 60.94 61.52 61.40 61.23 61.96 62.14 62.50 62.64 61.91 61.05
61.30 62.53 65.73 67.17 68.43 68.79 66.82 67.20 67.94 66.33 64.19 66.19 65.71 66.20 66.36 66.48 66.78 66.39 64.93 62.42 60.34 58.64 58.15 58.63 58.37 58.37 58.46 60.43 57.46 57.77 54.08 55.90 59.66 60.06 61.24 61.08 62.70 61.45 60.92 61.78 61.47 62.41 62.02
60.58 62.36 63.21 65.96 67.36 68.58 67.33 67.62 67.81 66.84 64.69 63.93 64.05 64.95 65.36 65.99 66.35 66.20 65.22 62.69 60.58 59.25 57.76 57.77 58.25 58.21 56.81 58.42 58.93 57.91 52.50 51.85 56.15 59.53 59.99 60.38 61.85 61.60 61.51 61.24 61.62 61.72 62.40
61.63 63.73 62.65 65.12 66.49 67.93 67.74 67.22 66.73 64.82 62.95 63.96 64.19 63.52 64.91 65.55 65.17 65.47 64.44 61.79 61.11 59.05 57.98 58.37 59.14 58.69 58.06 56.39 58.14 59.78 58.13 57.33 53.83 53.07 58.33 58.56 59.91 60.41 62.09 61.95 61.66 61.88 61.62
60.26 63.10 64.40 64.14 65.61 67.20 67.92 67.90 67.44 65.25 65.15 65.06 64.78 64.00 63.42 64.80 64.66 64.49 63.61 63.61 61.08 60.46 59.23 59.49 59.68 60.27 59.43 57.51 57.64 57.82 58.39 58.25 59.05 55.93 52.98 55.46 58.46 58.84 60.26 61.11 61.42 61.89 61.60
59.94 61.43 63.92 63.91 64.43 66.78 67.23 67.90 67.56 65.10 65.08 64.37 64.14 62.64 61.64 62.98 63.46 64.54 63.65 62.29 61.75 60.74 60.09 59.45 60.18 60.24 59.89 59.35 58.38 58.78 57.76 56.83 56.47 55.93 55.98 56.53 56.17 58.03 59.67 61.25 61.24 61.65 62.16

GFSSE_sfc_wetblb_108.txt.gz
Wetbulb
70.09 71.26 72.55 73.17 73.58 73.62 73.72 74.07 73.86 73.52 73.86 73.92 73.92 74.07 74.07 73.99 74.27 74.47 74.50 74.63 74.55 74.76 74.39 73.94 74.06 73.79 72.95 72.67 72.66 72.75 72.97 72.60 72.48 72.66 72.99 73.00 72.37 71.92 72.20 71.77 71.24 70.28 71.80
70.96 71.40 71.85 72.88 73.22 73.42 73.72 73.58 73.78 73.64 73.86 74.08 73.82 73.96 73.76 73.98 74.16 74.42 74.38 74.30 74.50 74.74 74.06 73.54 73.94 73.82 72.48 72.47 72.66 72.26 72.03 71.70 71.53 71.72 72.37 72.77 71.98 71.77 71.51 71.72 71.04 70.85 71.49
71.64 71.52 72.05 72.10 72.89 73.40 73.46 73.78 73.95 74.24 74.05 74.10 73.77 73.78 73.86 74.02 74.22 74.17 74.06 73.93 73.95 73.37 73.57 73.22 73.24 73.04 72.40 72.47 71.99 71.96 71.54 71.42 71.09 70.79 71.04 69.17 69.69 71.58 71.42 71.15 71.06 70.94 70.84
71.89 71.57 71.74 71.75 72.35 73.02 73.13 73.75 74.07 74.40 74.13 73.90 73.83 73.89 73.92 73.96 73.74 73.88 73.71 73.30 72.97 73.24 73.04 72.51 72.74 72.57 72.34 71.72 71.28 71.14 70.98 70.53 70.38 70.55 69.14 69.50 69.76 71.26 71.06 70.87 70.86 70.75 70.80
71.64 72.08 71.88 71.21 71.89 72.77 73.03 73.58 73.71 73.69 73.46 73.55 73.52 73.87 73.88 73.75 73.29 73.41 72.97 72.81 72.59 73.19 73.52 72.30 72.28 72.24 71.45 70.63 70.46 70.43 70.36 69.84 69.73 69.77 68.16 68.59 68.71 70.45 70.80 70.36 70.30 70.21 69.60
71.05 72.86 69.76 70.35 71.22 72.41 73.10 73.49 73.73 73.41 72.90 72.86 73.04 73.42 73.74 73.34 72.91 72.90 72.22 72.27 72.59 72.72 73.02 72.82 72.69 71.63 70.14 69.73 69.71 69.80 69.39 69.31 68.77 67.68 67.74 68.96 68.50 70.13 70.23 69.83 69.39 69.05 68.57
72.33 72.03 70.68 69.88 70.89 71.87 72.77 73.42 73.27 72.96 72.64 72.48 72.83 73.15 73.17 72.86 72.79 71.96 71.57 71.63 71.71 71.95 72.56 72.29 71.50 70.40 69.76 69.45 69.34 68.82 68.75 68.33 68.37 66.55 67.54 67.53 67.85 69.84 69.68 68.86 68.74 68.56 67.83
73.33 73.21 71.01 70.73 70.70 71.06 71.76 72.23 71.95 71.84 71.96 71.70 71.69 72.20 72.63 72.08 71.65 71.23 71.10 71.10 71.02 70.98 71.05 70.80 70.27 69.92 69.36 68.82 68.59 68.05 67.78 67.41 67.68 66.17 67.14 67.20 68.91 69.36 69.07 68.30 67.79 67.42 67.20
74.11 73.83 72.01 71.25 70.89 70.36 69.98 70.01 70.27 70.62 70.80 70.71 71.09 71.47 71.32 70.17 70.56 70.66 70.41 70.49 70.41 70.21 69.88 70.04 69.52 68.69 67.91 67.87 67.04 66.01 66.14 65.32 65.09 66.43 68.12 66.92 69.23 69.00 68.73 67.50 66.95 66.72 66.43
73.83 74.08 72.25 71.93 71.22 71.08 70.68 69.16 69.37 69.77 69.74 70.02 70.46 69.94 68.71 69.07 68.92 69.30 68.96 69.08 69.15 69.30 69.30 68.66 68.14 67.33 66.95 66.23 65.65 64.83 64.19 64.21 64.47 65.55 66.42 66.46 68.74 68.81 68.22 67.20 66.70 66.06 65.92
72.40 72.97 73.50 72.24 71.53 71.46 71.06 70.26 68.97 69.59 69.28 69.23 69.87 68.52 67.30 69.95 68.91 68.67 67.97 67.73 68.06 67.43 68.46 68.37 67.42 66.45 65.58 65.58 65.31 64.74 64.40 64.19 63.78 63.88 65.38 67.11 68.30 68.35 67.77 66.88 65.99 65.39 65.17
70.38 71.73 72.46 72.27 71.72 71.83 70.53 70.76 70.30 70.43 70.00 69.97 70.43 70.09 70.25 69.81 69.67 68.78 67.72 67.60 67.45 67.29 67.68 67.22 66.38 65.42 65.05 65.05 64.85 64.53 64.19 64.44 63.79 63.52 64.71 66.49 67.89 67.80 67.40 66.15 65.53 64.70 64.78
69.72 70.51 71.11 72.16 72.29 71.75 69.99 71.26 70.67 70.26 70.15 69.97 70.04 70.36 70.08 69.37 69.25 68.14 68.22 66.46 66.92 67.32 67.14 65.79 64.87 64.35 63.80 64.12 64.35 64.15 64.06 64.65 63.69 63.43 64.87 65.86 67.14 67.02 66.77 65.73 65.06 64.52 64.28
68.16 69.26 70.49 71.45 72.26 71.24 70.60 71.22 71.12 70.29 70.75 70.34 70.38 69.93 69.13 68.35 67.98 67.72 67.73 67.25 66.58 66.26 65.58 64.55 64.04 64.04 63.08 62.80 62.88 63.33 63.93 64.14 62.58 63.19 63.96 64.63 65.80 66.39 66.20 65.67 65.05 64.47 64.25
66.75 68.53 69.59 70.91 71.30 71.76 71.97 70.65 70.13 70.24 70.11 70.18 69.87 69.86 69.27 68.32 67.39 67.61 66.98 67.20 66.57 66.86 65.72 64.65 64.06 63.38 62.59 62.68 63.02 63.55 63.33 63.37 63.02 62.55 63.61 63.51 64.30 65.73 65.55 65.39 64.98 64.66 64.63
65.57 67.74 69.64 70.10 71.23 71.64 70.36 71.01 69.76 69.82 69.61 69.16 69.01 68.57 69.15 68.53 67.68 66.97 66.41 66.12 65.91 66.50 65.94 65.29 64.13 62.99 62.32 62.57 62.07 62.96 63.40 63.77 62.66 63.04 62.80 62.90 63.03 64.01 64.64 64.90 64.93 64.78 64.41
62.83 67.16 69.47 69.61 71.54 70.63 70.19 70.49 69.50 68.91 68.28 67.52 67.83 68.04 68.41 68.63 67.55 66.40 66.08 65.63 65.56 66.07 65.67 64.59 63.94 63.58 62.38 62.67 61.87 62.27 63.05 62.57 63.34 62.97 62.14 62.32 62.11 61.89 63.05 64.29 64.81 64.87 64.17
61.10 63.07 69.91 69.97 70.27 70.59 69.95 69.78 69.10 69.25 68.04 67.11 67.24 67.86 67.08 67.81 67.65 66.69 65.83 65.37 64.99 65.40 64.27 64.20 63.52 62.95 62.05 61.62 60.62 61.36 62.93 62.13 62.62 62.01 61.77 61.99 61.52 61.72 61.66 63.01 63.67 64.13 64.13
59.61 62.75 69.18 69.34 69.63 69.48 69.98 69.46 69.26 69.17 67.98 67.49 66.72 66.65 66.73 67.08 67.25 66.32 65.39 65.25 65.21 64.53 64.08 63.61 63.28 62.51 61.25 61.14 61.96 61.79 62.38 61.12 61.36 62.01 61.29 61.36 61.15 60.88 61.06 61.79 62.00 62.15 62.79
58.89 61.55 68.64 69.51 69.53 69.40 69.42 69.08 68.81 68.13 67.09 67.04 66.32 66.45 66.71 66.27 66.60 66.41 65.34 64.79 64.86 64.08 63.01 62.66 61.75 62.27 61.17 61.05 61.83 61.79 60.97 60.08 60.16 60.56 61.12 61.78 61.19 60.54 60.28 60.46 60.33 60.25 60.64
58.65 61.08 65.82 68.73 69.15 68.77 68.02 67.34 66.90 66.03 65.90 65.45 65.66 65.91 65.68 65.94 66.29 66.01 64.99 64.24 63.77 62.84 62.55 61.24 61.27 60.69 60.41 61.31 59.99 58.83 58.49 59.13 59.03 60.23 60.45 60.82 59.65 59.92 60.31 60.87 60.12 59.69 59.90
58.71 61.52 64.34 68.30 69.13 68.38 68.12 67.57 67.42 66.72 65.45 64.93 64.59 64.70 65.77 65.81 65.92 65.45 64.08 62.50 61.15 60.33 60.25 60.23 59.82 59.10 58.93 60.80 57.91 56.51 52.80 54.71 57.55 58.15 57.47 58.94 59.54 58.96 60.03 60.31 59.93 59.35 58.92
60.17 62.03 61.91 64.88 68.54 68.21 67.54 66.87 66.56 65.67 64.01 63.24 63.91 63.81 64.36 64.85 64.78 64.97 63.90 61.57 60.20 59.41 58.55 59.02 58.95 58.54 56.93 59.55 59.10 55.72 52.33 51.15 54.26 57.30 57.25 57.08 58.49 58.36 57.81 58.81 59.82 59.57 59.20
60.77 62.68 61.28 63.01 66.42 68.04 66.90 65.33 64.62 63.55 61.74 62.30 63.25 63.16 63.58 64.18 64.24 64.52 63.77 61.54 59.62 59.18 58.39 58.49 59.02 58.68 58.26 56.61 57.80 59.08 57.39 56.18 52.35 51.43 56.33 56.51 57.58 58.59 56.95 58.09 59.05 59.20 58.80
59.24 59.75 62.63 61.76 64.45 67.05 66.89 65.49 64.85 64.59 63.76 62.84 63.37 62.65 62.66 63.94 63.95 64.45 63.58 61.86 59.50 58.90 58.46 58.40 58.37 58.38 58.68 57.61 56.61 56.27 55.79 56.09 55.41 53.39 51.58 53.99 56.33 57.18 57.88 58.49 57.88 58.76 58.56
60.14 60.09 60.44 62.23 62.63 65.08 66.85 65.62 65.35 64.72 63.81 62.70 62.76 61.65 61.83 62.07 62.98 63.34 63.25 61.74 60.14 58.90 58.32 58.46 58.84 58.88 58.26 58.22 57.77 57.15 55.62 53.48 53.13 52.97 52.50 53.81 53.71 55.45 56.66 57.08 56.71 58.46 58.50

GFSSE_sfc_wetblb_111.txt.gz
Wetbulb
69.41 71.32 71.99 73.16 73.49 73.60 73.45 72.98 72.95 73.10 73.50 73.89 73.78 73.82 73.74 73.87 74.10 74.15 74.11 74.39 74.67 74.98 74.17 73.84 73.94 73.87 73.05 73.05 73.18 73.39 73.06 72.48 71.89 72.35 72.67 73.27 72.60 72.28 72.30 72.19 71.58 70.87 71.97
70.20 71.60 71.47 72.53 73.04 73.27 73.63 73.33 72.80 73.21 73.67 73.94 73.77 73.65 73.58 73.82 74.07 74.05 74.06 74.27 74.59 74.71 74.04 73.49 73.77 73.00 72.90 72.66 72.55 72.54 72.41 71.80 71.43 71.68 71.87 72.85 72.82 72.20 71.78 71.58 71.16 70.83 71.46
69.73 71.31 71.79 71.92 72.58 72.99 73.28 73.66 73.55 73.88 73.94 73.96 73.75 73.63 73.73 73.89 74.07 73.83 73.75 73.93 74.29 74.63 73.69 73.15 73.10 72.73 72.60 72.20 72.10 72.01 71.56 71.30 71.03 70.95 71.09 69.09 70.04 72.08 71.62 71.38 71.29 71.36 70.83
69.66 70.62 71.06 71.52 72.16 72.80 72.88 73.13 73.58 73.98 73.94 73.76 73.72 73.78 73.73 73.91 73.87 73.80 73.43 73.16 73.12 73.89 73.82 73.17 73.22 72.72 72.17 71.69 71.51 71.30 71.19 70.66 70.36 70.24 69.25 69.21 69.99 71.38 71.20 71.01 70.98 71.01 70.55
68.92 70.29 71.01 70.98 71.43 72.42 72.74 73.09 73.28 73.58 73.38 73.26 73.26 73.91 74.02 73.78 73.72 73.59 72.83 72.43 72.78 73.44 73.77 72.89 73.15 72.45 71.38 70.67 70.53 70.47 70.38 69.94 69.42 69.01 67.46 68.14 68.76 70.38 71.11 70.65 70.47 70.34 69.80
69.09 70.53 69.59 70.05 70.99 72.21 72.82 73.07 73.12 72.18 72.30 72.44 72.86 73.60 73.85 73.59 73.68 73.11 72.12 72.17 72.71 73.31 73.17 73.05 72.51 71.67 70.25 69.77 69.70 69.73 69.30 69.11 67.08 66.69 67.09 68.84 68.42 70.45 70.42 69.63 69.58 69.49 69.32
69.14 69.33 69.58 69.23 70.43 71.87 73.03 73.07 72.85 71.95 71.85 72.13 72.53 72.95 73.13 73.10 73.14 72.19 71.67 71.56 71.77 72.55 72.61 72.61 71.92 70.47 69.69 69.19 69.43 68.84 67.50 67.28 67.00 65.83 66.67 67.65 68.18 70.27 70.20 69.23 69.09 68.62 68.37
68.43 68.95 69.38 70.22 70.36 71.02 72.11 72.07 71.55 71.39 71.57 71.61 72.01 72.17 72.69 72.12 71.75 71.48 71.33 71.16 70.91 71.33 71.32 71.06 70.41 69.80 69.20 68.99 67.97 67.17 66.66 66.23 66.65 66.27 66.59 67.46 68.85 69.76 69.41 68.52 68.08 67.69 67.53
69.70 68.46 68.81 69.32 70.04 69.92 70.00 70.19 70.25 70.68 70.61 70.40 70.66 71.44 71.16 70.56 70.12 70.63 70.79 70.90 70.67 70.37 70.38 70.11 69.45 68.98 68.84 68.31 67.42 66.16 64.98 65.35 64.25 65.55 66.98 66.61 69.07 69.34 69.04 68.06 67.34 66.87 66.87
69.79 68.83 68.27 68.41 68.32 67.82 68.00 69.03 69.17 69.67 69.27 69.23 69.67 69.60 69.35 69.07 69.57 69.34 69.53 69.81 69.99 69.82 69.67 69.53 68.58 68.00 67.64 67.13 66.21 65.06 64.59 64.65 63.28 64.83 66.56 67.23 69.01 69.15 68.60 67.60 66.94 66.33 65.78
69.99 68.87 68.67 68.38 68.25 67.73 67.33 68.49 68.99 69.37 69.03 68.85 69.40 68.81 67.14 68.47 68.47 68.65 67.72 68.11 68.42 68.58 68.55 68.38 67.62 66.70 66.18 65.78 65.54 65.01 64.43 64.18 63.56 65.12 65.04 67.26 68.98 68.94 68.13 67.24 67.10 66.33 65.25
68.26 69.15 69.26 68.49 68.16 68.11 69.07 67.46 67.05 68.11 67.68 67.73 68.23 67.46 67.62 67.53 67.12 67.78 67.17 67.27 67.28 67.12 67.41 67.48 66.74 65.75 64.69 63.52 64.10 64.71 64.10 63.99 63.70 64.24 64.77 66.20 68.30 68.60 67.98 66.67 66.48 65.92 65.48
68.58 69.72 69.51 69.09 69.02 68.72 68.27 67.28 67.66 67.46 67.07 67.19 67.30 67.12 67.14 67.66 67.30 66.50 65.50 66.05 65.26 65.94 65.83 66.01 65.20 63.35 62.78 62.89 63.49 64.13 63.99 64.46 63.52 64.39 65.00 65.72 67.42 68.16 67.55 66.63 65.79 64.99 64.75
68.24 68.72 69.59 69.34 69.31 68.78 68.07 67.93 67.88 67.82 67.44 67.15 66.95 67.12 67.37 65.60 65.43 65.77 65.06 63.99 64.47 65.03 64.14 63.66 62.94 62.04 61.49 62.31 63.30 63.67 63.53 64.15 63.45 63.60 64.69 64.85 66.13 67.76 67.10 66.30 65.67 65.21 64.15
67.26 68.31 68.76 69.33 69.23 68.07 67.61 68.90 67.94 67.52 67.83 67.84 67.69 67.13 66.58 65.36 64.42 64.89 64.87 64.35 64.28 64.23 64.11 62.88 62.39 61.76 60.52 60.92 61.58 62.29 62.80 63.31 63.19 63.33 64.11 63.57 64.72 66.44 66.61 66.18 65.75 65.12 64.54
66.90 67.39 68.21 68.81 69.30 68.79 67.68 68.45 67.62 66.99 68.23 67.21 67.10 67.32 66.36 65.64 64.80 64.42 63.92 64.26 63.63 64.24 63.52 63.26 62.49 61.32 60.28 60.66 60.95 62.54 62.94 63.59 63.26 62.81 63.39 63.29 62.93 64.45 65.48 65.81 65.08 64.88 64.80
61.57 66.96 67.17 68.18 69.33 68.64 68.33 68.16 67.40 66.91 66.79 65.38 65.64 66.05 67.04 66.23 64.94 64.20 63.58 63.22 63.47 63.94 62.78 62.72 61.63 60.61 60.29 61.10 61.47 62.08 62.52 63.18 63.12 62.37 62.44 62.28 62.28 61.97 63.20 64.67 64.91 65.02 64.65
55.08 65.33 67.30 68.83 68.61 68.94 68.19 67.59 67.17 66.62 65.10 64.75 64.68 64.86 66.99 67.29 65.34 63.84 63.54 63.14 63.08 63.19 63.58 62.59 62.17 61.52 60.91 61.04 61.11 61.34 61.76 62.94 63.05 62.26 62.11 62.13 61.53 61.62 61.73 63.07 64.05 64.37 64.62
52.86 58.43 66.52 67.81 68.13 68.11 67.53 67.36 66.27 65.74 64.90 64.45 64.74 64.63 64.92 66.96 65.74 64.64 63.86 63.45 64.48 63.04 61.77 61.73 61.65 62.13 60.66 61.07 61.00 60.44 61.24 62.17 62.33 62.44 61.18 60.92 60.20 59.89 60.26 61.76 62.10 62.32 63.27
52.32 55.86 66.75 67.03 68.23 67.85 67.34 66.98 66.26 65.36 65.10 65.10 64.67 64.60 64.41 65.70 65.12 64.07 63.48 62.81 63.03 62.48 62.70 61.87 61.66 61.29 61.50 61.25 61.24 60.45 60.43 61.73 61.91 61.05 60.40 60.87 59.90 59.63 59.49 60.74 61.21 60.86 61.04
51.23 55.13 66.24 66.24 67.19 67.28 66.78 65.69 65.39 64.13 64.36 64.53 64.38 64.48 64.54 64.32 64.78 63.62 63.39 62.68 62.90 62.33 62.85 62.73 61.48 61.09 60.31 60.52 59.90 59.62 59.90 60.11 60.07 60.28 60.37 59.81 59.38 59.45 59.17 59.84 59.89 59.66 60.37
53.04 53.80 66.06 66.37 67.08 67.19 67.23 66.68 65.31 63.34 62.05 62.20 62.46 63.74 64.24 63.86 64.09 63.75 62.75 61.68 62.51 61.70 61.29 61.18 60.84 59.34 59.85 60.91 58.23 57.97 53.53 55.34 57.85 59.36 59.66 59.23 58.62 58.74 58.96 59.45 59.35 58.96 59.13
52.64 52.72 65.31 66.85 67.22 67.00 66.76 64.83 63.72 63.19 62.49 61.08 60.41 60.72 62.31 63.47 63.74 64.04 62.01 60.97 61.00 60.40 60.03 60.46 59.89 58.71 57.57 59.84 60.07 56.11 52.00 51.02 54.53 56.59 57.20 58.19 57.15 56.93 58.46 59.51 59.18 58.61 58.44
53.10 55.92 58.27 67.17 66.97 66.76 66.01 65.37 63.88 62.53 61.31 61.31 60.81 60.77 61.53 62.34 62.77 62.70 61.29 59.93 58.71 58.31 58.62 59.22 59.77 59.54 58.73 57.89 58.18 58.16 57.10 55.99 52.35 51.30 55.97 55.49 57.40 57.41 57.38 57.92 58.19 58.38 58.40
56.70 56.78 58.06 57.50 66.56 66.45 65.81 65.07 63.73 61.92 61.80 60.30 60.45 60.18 61.03 61.43 61.69 62.36 60.66 58.93 58.67 57.87 58.10 58.04 58.28 58.93 59.09 57.83 56.97 56.13 55.51 55.65 55.39 53.34 51.34 53.65 55.86 56.73 57.32 57.02 58.20 58.64 58.80
52.43 53.55 55.43 57.33 58.20 65.55 64.91 64.14 63.45 62.44 61.33 60.37 60.41 60.37 60.63 61.35 61.38 62.01 60.91 59.50 59.02 57.98 58.01 57.90 58.53 58.59 58.28 58.50 57.33 56.75 55.57 54.37 53.02 52.98 52.26 53.55 53.37 54.68 56.03 56.64 56.35 57.79 58.32

GFSSE_sfc_wetblb_114.txt.gz
Wetbulb
68.47 71.02 72.50 73.29 73.13 72.96 72.77 72.79 72.63 72.77 73.33 73.61 73.58 73.63 73.91 74.06 74.03 74.20 74.31 74.47 74.54 74.74 73.93 73.65 73.97 73.90 73.38 73.23 73.51 73.30 72.79 72.24 71.99 72.82 73.15 72.91 72.76 72.69 72.28 72.23 71.88 70.97 72.43
69.51 70.86 71.63 72.96 73.17 72.95 72.87 72.67 72.70 72.92 73.56 73.45 73.40 73.40 73.55 73.73 73.78 73.88 74.11 74.29 74.47 74.32 73.50 73.45 73.38 73.13 72.88 72.76 73.01 72.55 72.14 71.53 71.55 71.64 72.17 72.39 72.71 71.99 71.90 71.70 71.46 71.08 71.76
69.67 70.80 71.67 71.91 73.02 73.24 73.18 73.04 73.19 73.58 73.65 73.44 73.42 73.44 73.62 73.81 73.71 73.76 73.90 73.99 74.29 74.12 73.45 73.40 73.10 72.92 72.51 72.19 72.07 71.99 71.72 71.38 71.17 71.48 71.74 69.63 70.35 71.55 71.60 71.61 71.39 71.41 70.99
70.24 70.71 70.97 71.57 72.18 72.86 73.01 72.87 73.21 73.73 73.63 73.66 73.54 73.46 73.62 73.63 73.66 73.76 73.57 73.31 73.88 74.11 73.23 73.18 73.16 72.72 72.01 71.72 71.32 71.15 71.16 70.51 70.12 70.29 69.04 69.27 69.87 70.93 71.35 70.94 71.24 70.93 70.71
69.72 70.53 70.99 70.97 71.35 72.20 72.42 72.89 73.01 73.43 73.02 73.20 73.08 73.64 73.70 73.76 73.66 73.49 72.76 72.24 73.19 74.08 73.63 73.33 73.03 72.09 71.27 70.58 70.34 70.35 70.23 69.82 69.45 68.78 67.12 68.43 68.84 70.59 71.29 70.96 70.61 70.44 70.03
68.92 69.74 69.68 69.95 70.89 71.95 72.43 72.76 72.81 72.73 72.18 72.34 72.76 73.27 73.65 73.66 73.66 72.93 72.06 71.75 73.00 73.56 73.62 73.47 72.58 71.43 70.16 69.60 69.66 69.57 69.28 68.17 67.52 66.65 66.79 69.34 68.33 70.90 70.96 70.17 69.69 69.41 69.14
68.40 69.18 69.43 69.12 70.46 72.03 72.73 72.92 72.42 71.34 71.51 72.00 72.67 72.84 73.00 73.36 73.19 72.19 71.68 71.68 72.23 72.89 72.90 72.87 71.76 70.43 69.62 69.20 69.36 68.60 67.35 67.26 66.64 65.21 66.03 66.52 68.16 70.43 70.28 69.62 69.38 69.19 68.95
67.91 68.62 68.98 69.83 70.60 71.28 71.87 71.96 70.90 70.42 70.84 71.35 71.89 72.24 72.56 72.32 72.14 71.56 71.35 71.15 71.25 71.61 71.50 71.16 70.23 69.76 69.24 69.10 68.66 66.86 66.54 66.80 66.77 65.35 66.50 67.12 68.90 69.68 69.86 68.99 68.77 68.32 68.24
67.99 67.84 68.02 68.70 70.18 69.96 69.72 69.92 69.53 70.05 70.41 70.82 71.06 71.17 71.07 70.48 70.41 70.84 70.92 70.82 70.64 70.76 70.69 70.23 69.56 68.98 68.89 68.57 67.28 66.09 65.21 65.43 65.25 65.22 66.36 67.17 69.27 69.07 69.35 68.33 67.84 67.54 67.06
67.06 67.42 67.30 67.48 68.18 68.97 69.69 68.90 68.90 69.22 69.03 68.99 70.00 69.94 69.22 69.32 69.36 69.75 69.82 70.14 69.94 70.19 70.11 69.72 68.78 68.31 68.22 67.10 65.59 65.17 65.25 64.66 64.50 64.88 66.03 66.52 69.18 69.75 69.08 68.06 67.37 66.81 66.33
66.83 66.61 67.12 67.21 66.56 66.40 67.37 69.42 69.17 69.65 68.73 68.14 68.51 68.45 67.66 68.54 68.59 68.80 68.45 68.82 69.18 68.93 69.02 68.96 68.18 67.53 66.72 65.82 65.10 64.75 64.86 64.03 64.83 64.98 64.95 66.76 68.43 69.25 68.62 67.50 66.79 66.18 65.77
65.92 66.12 66.99 66.76 66.45 66.01 68.05 67.78 67.61 69.15 68.56 67.82 67.84 67.80 67.57 67.03 67.14 68.15 67.51 67.48 68.02 67.76 67.96 67.78 67.21 66.56 65.35 63.15 63.53 64.33 63.20 63.88 64.51 64.50 64.48 66.36 67.99 68.77 68.16 67.12 66.47 65.71 65.19
67.50 67.10 67.37 66.81 66.65 66.43 66.70 66.35 66.66 67.36 67.16 67.09 66.94 66.62 66.46 66.56 66.28 65.86 65.18 66.14 65.30 66.72 66.15 65.90 65.76 63.50 62.03 61.89 62.12 62.44 62.83 64.16 63.73 64.92 65.12 65.72 67.46 68.28 67.95 66.65 65.67 65.49 65.09
68.05 67.97 67.69 67.37 67.24 66.94 67.10 66.08 66.15 66.37 66.17 66.57 66.82 66.33 66.39 66.10 65.29 64.32 64.43 64.19 63.79 63.25 65.15 65.28 64.15 61.68 61.24 61.85 61.89 62.15 62.36 63.29 63.16 64.11 64.71 64.85 66.24 68.12 67.64 66.74 65.52 65.08 64.69
67.76 68.78 68.22 68.13 67.52 67.80 67.21 66.54 66.24 66.11 66.13 65.95 65.95 66.56 66.71 65.78 65.54 64.89 63.83 63.80 63.60 63.64 63.59 63.05 61.37 61.20 60.45 60.97 61.67 61.72 61.61 62.69 63.17 63.47 63.98 63.43 64.57 66.75 67.41 66.55 65.71 65.25 64.58
67.78 68.35 68.92 68.48 68.25 68.15 67.52 67.28 66.77 66.79 66.56 66.20 66.11 66.48 66.47 65.79 64.98 64.53 64.07 63.62 63.28 63.67 63.15 62.44 61.74 60.82 59.99 59.79 59.99 60.58 61.17 62.41 62.76 62.84 63.85 64.01 62.93 64.48 65.93 66.69 65.88 65.40 64.65
67.15 68.22 68.48 68.76 68.49 67.82 67.11 67.63 67.45 66.99 67.31 66.81 66.56 66.23 66.36 65.56 64.32 63.96 63.92 63.55 63.85 63.64 62.32 61.76 60.54 59.32 58.77 59.43 59.02 60.07 61.53 61.99 62.37 62.82 63.40 63.52 63.29 62.18 63.73 65.27 65.61 65.48 64.69
65.94 66.60 67.83 69.31 68.32 67.78 67.36 67.69 67.76 66.89 67.30 66.70 66.42 66.63 66.16 65.85 64.89 63.77 63.43 63.20 62.74 63.17 62.82 61.64 61.62 60.78 59.83 60.41 58.55 59.16 60.34 62.10 62.60 62.54 62.99 63.06 62.87 63.09 62.22 63.27 64.16 64.60 64.59
54.71 65.34 66.57 67.93 67.83 67.67 67.59 67.39 67.54 66.49 66.68 66.01 65.33 65.98 66.16 66.01 65.22 64.20 63.47 62.64 62.75 62.31 62.40 62.12 61.82 61.62 60.42 60.03 60.30 59.89 60.96 61.29 62.31 63.06 62.29 62.13 61.33 60.67 61.17 61.95 62.29 62.50 63.55
50.56 59.21 65.86 67.07 67.25 67.98 67.50 66.50 66.03 65.05 64.58 65.28 64.97 64.71 64.58 65.83 65.22 63.82 63.00 62.57 63.50 63.45 62.08 61.81 61.63 61.71 61.20 60.17 60.40 60.53 60.53 61.39 62.00 62.17 61.75 61.87 60.73 59.19 59.63 61.03 61.57 61.07 61.23
49.49 52.36 64.02 65.54 66.79 67.64 66.50 64.96 64.27 64.25 63.66 63.75 64.37 64.38 63.67 63.91 65.02 63.87 63.05 62.35 62.25 62.95 62.72 62.42 61.85 61.00 60.22 61.11 59.88 59.72 59.13 60.21 60.98 61.36 61.17 60.87 59.31 59.20 58.94 59.84 60.52 60.11 60.87
50.43 52.19 62.66 65.13 66.59 67.18 66.97 66.54 65.26 64.43 62.74 63.51 63.26 63.57 64.01 63.29 63.50 63.35 62.83 62.18 61.88 62.00 61.70 62.41 61.47 60.26 60.38 61.04 57.91 57.57 53.82 56.22 59.46 60.12 60.09 59.85 58.79 59.12 58.88 59.78 59.89 59.45 59.71
54.41 54.93 60.10 64.40 66.59 67.18 67.23 65.47 62.75 61.62 61.34 60.22 61.74 62.77 62.90 63.41 63.46 63.63 62.71 62.14 61.29 61.74 61.62 61.30 61.32 60.37 58.63 59.88 59.49 56.76 52.38 51.59 55.58 58.45 58.83 58.98 58.06 57.75 58.30 59.11 59.21 59.75 59.24
50.94 54.34 56.02 59.35 65.34 66.81 66.89 64.91 63.57 62.99 61.49 62.54 62.50 62.69 62.44 63.03 63.01 63.02 62.43 61.42 61.34 61.54 61.13 60.51 60.91 60.09 58.72 57.26 59.17 59.19 57.22 55.90 53.09 51.65 56.78 57.82 57.90 57.16 57.09 57.92 58.51 58.65 58.49
47.90 49.36 52.16 54.13 57.05 64.52 65.29 65.50 64.26 63.84 63.86 60.56 61.22 60.78 62.07 62.25 62.48 62.68 61.58 60.35 59.17 58.29 57.84 58.79 59.32 59.06 59.03 57.91 58.03 56.14 56.80 55.60 55.21 54.34 52.41 53.91 55.75 57.12 57.73 57.99 58.07 57.87 57.96
45.09 46.23 48.17 49.39 51.67 55.33 59.43 64.16 63.90 63.20 61.99 60.55 60.61 60.54 60.86 61.21 60.58 61.72 61.18 59.92 58.84 57.36 56.56 57.24 58.64 58.85 58.56 58.74 58.62 57.26 55.75 54.58 53.86 54.36 53.68 53.56 54.19 55.37 56.56 57.50 57.62 57.92 58.01

GFSSE_sfc_wetblb_117.txt.gz
Wetbulb
67.96 70.91 72.14 73.01 73.15 72.80 72.58 72.26 72.36 72.60 72.93 73.54 73.83 73.71 73.76 73.86 74.03 74.05 74.18 74.29 74.42 74.41 73.87 73.54 74.04 74.01 73.15 72.91 72.80 72.55 72.57 72.47 72.53 73.05 73.24 73.02 72.72 72.70 72.39 72.50 71.81 70.78 71.88
69.01 71.35 71.76 72.60 73.03 72.96 72.76 72.44 72.57 72.95 73.16 73.38 73.59 73.65 73.61 73.70 73.99 74.02 74.17 74.36 74.24 74.07 73.52 73.39 73.37 73.05 73.02 72.77 72.56 72.28 72.15 71.96 72.12 72.11 72.51 72.63 72.25 71.86 71.89 71.79 71.62 70.53 71.64
69.48 71.08 71.71 71.96 72.69 72.84 73.07 72.97 73.08 73.41 73.34 73.43 73.29 73.60 73.64 73.86 73.96 73.96 73.91 73.85 73.89 73.81 73.40 73.37 73.09 72.92 72.64 72.41 72.08 71.99 71.82 71.57 71.39 71.59 71.95 69.78 70.20 71.44 71.74 71.24 71.16 71.21 71.13
69.70 70.95 71.51 71.90 72.30 72.61 72.65 72.85 73.04 73.48 73.23 73.32 73.27 73.54 73.59 73.79 73.91 74.03 73.66 73.52 73.60 73.98 73.25 73.24 73.14 72.52 72.28 71.80 71.56 71.34 71.19 70.90 70.60 70.59 68.92 69.19 69.84 71.36 71.59 71.16 70.99 70.97 71.09
69.24 70.33 70.82 71.43 71.76 72.38 72.24 72.46 72.81 73.10 72.77 72.85 73.07 73.40 73.62 73.70 73.67 73.70 73.06 73.02 73.46 73.83 73.27 72.85 72.33 71.78 71.27 70.60 70.58 70.60 70.31 69.89 69.49 68.57 67.12 68.06 69.22 70.53 71.31 71.00 70.88 70.75 70.39
69.00 69.63 69.77 70.06 71.05 72.18 72.40 72.56 72.62 72.26 71.88 72.01 72.48 73.21 73.65 73.58 73.72 73.02 71.95 72.31 73.41 73.60 73.46 72.50 71.79 71.20 70.09 69.53 69.79 69.79 69.28 68.90 68.10 66.65 67.01 68.83 68.34 70.83 70.98 70.39 70.34 70.20 69.79
68.51 69.01 69.52 69.03 70.42 71.59 72.47 72.64 72.25 71.84 71.48 71.68 72.26 72.59 73.04 73.46 73.10 72.32 71.36 71.80 72.19 73.17 73.05 72.70 71.52 70.27 69.49 69.22 69.25 68.44 67.83 67.61 66.43 65.52 66.18 66.54 67.45 70.45 70.58 69.85 69.63 69.45 69.58
67.66 68.70 69.16 69.99 70.33 70.80 71.58 71.73 71.09 70.79 70.86 71.35 71.82 72.06 72.56 72.54 72.07 71.53 71.30 71.27 71.43 71.80 71.71 71.09 70.16 69.56 69.08 68.97 68.38 67.21 66.65 66.98 66.56 65.21 66.09 66.41 68.34 69.62 69.78 69.46 69.14 68.81 68.77
67.48 67.87 68.20 69.08 70.25 69.87 69.87 69.83 69.01 69.58 70.27 70.59 70.90 70.79 71.19 70.80 70.46 70.91 70.98 70.90 70.90 70.98 70.77 70.35 69.31 68.76 68.75 68.60 67.12 66.34 65.43 66.59 65.35 65.48 66.45 66.70 69.00 68.45 68.49 68.46 68.43 68.30 67.99
66.54 66.90 67.21 67.86 69.04 69.33 69.72 68.61 68.45 68.72 69.24 69.69 70.03 69.94 69.44 69.35 69.81 69.94 69.87 70.15 70.29 70.39 70.32 69.72 68.85 68.36 68.17 66.92 66.14 65.45 64.53 65.61 64.77 64.84 65.41 66.07 68.59 69.39 69.19 68.55 68.11 67.54 66.99
65.48 65.65 66.49 67.14 67.66 68.52 69.50 69.65 68.99 69.33 68.97 68.81 69.53 69.33 68.07 68.61 68.56 69.14 68.70 68.89 69.32 69.42 69.16 69.07 68.36 67.62 66.13 65.12 65.50 65.24 64.74 63.72 64.27 64.73 65.04 66.92 68.31 69.17 68.99 67.99 67.38 66.89 66.43
64.02 64.93 65.65 66.33 66.53 66.48 68.78 69.22 69.70 69.87 68.23 67.39 68.36 68.29 68.27 67.19 67.12 68.05 68.14 67.91 68.33 68.35 68.29 68.00 67.51 66.88 65.31 63.45 63.25 64.76 63.12 63.14 63.74 64.45 65.07 66.39 68.44 68.95 68.89 67.79 66.79 66.54 66.20
64.15 65.02 65.57 65.90 65.99 66.04 67.16 68.00 67.82 68.50 68.14 65.87 65.84 66.65 66.64 66.48 66.26 66.21 65.56 66.73 66.40 67.26 66.19 66.10 65.87 64.01 62.49 61.71 61.47 61.32 61.80 62.28 62.89 64.76 65.18 65.98 67.98 69.00 68.58 67.32 66.56 66.18 65.40
64.72 64.68 65.79 66.21 65.93 66.02 66.01 66.76 66.95 67.01 67.33 67.69 66.83 65.63 67.14 66.16 64.94 63.99 64.45 64.25 64.04 64.29 63.93 63.93 64.76 62.03 61.18 61.12 61.24 61.28 61.43 61.79 62.03 64.25 64.61 64.73 66.83 68.68 68.18 67.28 66.31 65.57 64.55
65.25 65.48 65.56 65.83 65.52 65.92 65.54 65.40 65.71 66.29 66.57 66.75 67.08 66.67 67.12 66.83 66.06 63.97 63.36 63.50 62.58 62.50 65.30 64.22 63.63 61.15 60.18 60.35 60.89 61.20 61.06 61.27 61.56 62.76 63.62 63.71 64.51 66.81 67.75 67.31 66.40 65.29 64.45
66.56 66.71 66.38 65.56 65.52 65.85 65.74 64.83 64.99 65.29 65.52 64.97 65.37 66.65 66.12 66.35 65.63 64.43 63.32 63.10 62.37 62.65 62.36 63.20 61.49 60.61 59.98 59.88 60.26 61.56 60.53 61.02 61.23 61.55 62.51 63.80 62.95 65.07 66.39 67.46 66.42 65.55 64.74
66.63 67.95 67.10 66.19 66.01 65.74 65.81 65.45 64.94 65.02 65.42 64.96 64.91 64.77 65.90 65.29 64.66 64.27 63.62 62.89 62.79 62.53 61.27 60.51 59.42 58.84 58.32 58.94 59.07 60.55 60.05 60.42 60.67 61.19 62.07 62.97 63.32 62.18 63.50 65.32 65.87 65.75 65.00
65.48 66.58 68.22 68.39 67.01 66.56 65.91 66.48 66.16 65.72 65.49 65.32 65.55 65.37 65.59 65.39 64.47 63.75 63.78 63.21 62.87 62.23 61.81 60.81 61.31 60.45 57.82 58.08 57.19 57.87 59.30 60.24 60.63 60.88 61.93 62.99 63.55 63.70 62.67 63.22 64.44 64.91 64.74
64.88 66.25 67.19 68.05 67.46 67.08 66.54 66.61 66.54 66.05 66.16 66.05 65.95 65.88 65.28 65.39 64.50 63.58 63.49 62.87 62.35 62.71 62.15 61.79 61.79 61.43 60.16 59.68 59.39 57.25 58.88 59.56 60.30 62.07 62.03 62.89 63.07 63.26 63.13 62.28 62.45 62.63 63.40
57.50 65.18 67.00 67.60 67.69 67.34 67.36 65.63 65.41 64.27 65.63 65.70 65.72 66.00 65.62 65.78 64.83 63.72 62.99 61.93 62.45 62.55 62.71 62.21 61.44 61.51 60.79 60.32 59.91 59.89 60.10 61.20 61.52 62.07 62.18 62.73 62.46 61.77 61.01 61.55 61.68 61.15 61.26
46.19 51.20 64.28 65.76 66.87 66.96 66.08 64.93 64.91 64.15 64.59 64.64 65.23 65.40 65.60 65.80 64.76 63.58 62.79 61.88 62.38 63.07 62.66 62.25 61.70 60.70 60.29 60.74 59.20 59.08 59.18 60.22 60.81 61.61 61.96 61.92 61.48 60.13 60.00 60.17 60.30 59.36 60.62
52.83 50.54 56.10 64.23 65.90 66.85 66.80 66.22 66.08 65.67 63.78 64.41 62.79 63.29 64.57 64.50 64.38 63.79 62.93 61.82 62.68 63.37 62.41 62.09 61.52 60.33 60.45 60.44 58.26 56.79 54.25 56.65 59.26 60.62 60.91 60.89 60.41 60.02 59.40 59.39 59.53 59.11 59.21
48.48 50.25 54.68 60.83 63.98 66.00 67.07 66.31 62.44 62.11 61.60 61.14 62.10 63.07 63.39 63.48 63.55 63.72 62.86 62.31 62.18 62.49 62.01 62.24 61.99 60.71 59.30 60.11 59.73 56.79 52.44 52.13 55.61 58.83 59.30 60.20 59.84 59.14 59.20 59.16 59.07 59.42 59.28
45.46 47.62 50.24 53.20 59.39 64.54 65.43 64.88 62.52 63.26 62.15 63.21 63.57 63.91 63.15 63.22 62.58 62.98 62.57 61.73 61.51 62.10 61.49 61.94 61.88 61.18 60.30 58.38 59.40 58.71 57.10 55.83 53.92 52.06 57.73 58.38 59.03 58.68 57.88 58.25 58.73 59.04 59.80
43.87 44.71 46.98 49.10 51.51 55.22 60.18 65.10 63.65 62.29 62.38 60.63 61.21 62.36 62.04 62.43 62.77 62.71 62.43 61.45 61.02 61.87 62.44 61.45 60.38 60.41 59.74 58.82 58.11 57.29 57.75 56.41 55.73 53.79 52.67 54.44 57.09 57.95 57.91 57.87 58.49 58.56 58.91
42.31 43.45 45.80 47.24 48.59 51.49 53.78 55.85 63.82 63.26 61.87 59.90 59.54 61.05 61.57 61.45 61.59 62.00 62.02 61.45 61.35 61.10 59.78 59.56 59.61 59.89 59.31 58.51 58.43 56.83 56.15 54.35 54.95 54.51 53.59 54.41 54.32 55.89 57.05 57.92 57.54 57.88 58.03